# Wetter Temperatur Luftdruck Luftfeuchtigkeit Sichtweite Windgeschwindigkeit Windrichtung Zeit
1 Clouds 4 1004 80 10000 6.2 250 09:57 29.01.2020
2 Clouds 4 1004 80 10000 6.2 250 09:39 29.01.2020
3 Clouds 4 1004 80 10000 6.2 250 09:18 29.01.2020
4 Clouds 4 1004 80 10000 5.7 240 08:41 29.01.2020
5 Clouds 3 1004 86 10000 5.1 240 08:22 29.01.2020
6 Clouds 4 1004 86 10000 5.1 240 07:45 29.01.2020
7 Clouds 3 1003 86 10000 5.1 240 07:26 29.01.2020
8 Clouds 3 1004 91 10000 5.1 240 06:56 29.01.2020
9 Clouds 3 1003 93 10000 4.6 240 06:37 29.01.2020
10 Clouds 3 1003 93 10000 4.6 240 06:19 29.01.2020
11 Clouds 3 1003 93 10000 5.1 250 05:49 29.01.2020
12 Clouds 3 1003 91 10000 5.7 250 05:30 29.01.2020
13 Clouds 3 1002 88 10000 4.6 250 04:38 29.01.2020
14 Clouds 3 1002 88 10000 5.1 240 03:58 29.01.2020
15 Clouds 2 1001 88 10000 6.2 250 02:33 29.01.2020
16 Clouds 2 1000 86 10000 5.7 240 00:57 29.01.2020
17 Clouds 3 1000 86 10000 5.1 250 00:36 29.01.2020
18 Clouds 3 1000 86 10000 5.1 250 00:18 29.01.2020
19 Clouds 3 999 86 10000 6.2 250 23:38 28.01.2020
20 Clouds 3 999 85 10000 6.2 250 23:19 28.01.2020
21 Clouds 3 999 85 10000 6.7 250 22:46 28.01.2020
22 Clouds 3 999 85 10000 7.2 250 22:27 28.01.2020
23 Clouds 3 998 86 10000 7.2 250 21:54 28.01.2020
24 Clouds 3 998 86 10000 7.2 250 21:36 28.01.2020
25 Clouds 3 998 86 10000 7.2 250 21:18 28.01.2020
26 Clouds 3 998 86 10000 7.2 260 20:45 28.01.2020
27 Clouds 3 998 86 10000 6.7 250 20:25 28.01.2020
28 Clouds 4 997 80 10000 8.2 260 19:55 28.01.2020
29 Clouds 4 997 80 10000 8.7 260 19:37 28.01.2020
30 Clouds 4 997 80 10000 8.7 260 19:18 28.01.2020
31 Clouds 4 997 80 10000 8.7 260 19:18 28.01.2020
32 Clouds 4 996 80 10000 9.3 260 18:41 28.01.2020
33 Clouds 4 996 80 10000 8.2 260 18:23 28.01.2020
34 Clouds 4 995 75 10000 4.6 250 17:59 28.01.2020
35 Clouds 4 995 75 10000 5.1 250 17:39 28.01.2020
36 Clouds 4 995 75 10000 5.1 250 17:21 28.01.2020
37 Clouds 4 994 75 10000 7.2 270 16:56 28.01.2020
38 Rain 5 994 75 10000 7.7 260 16:37 28.01.2020
39 Rain 5 994 75 10000 7.7 260 16:19 28.01.2020
40 Clouds 5 993 75 10000 7.7 260 15:44 28.01.2020
41 Clouds 5 993 75 10000 7.7 260 15:19 28.01.2020
42 Clouds 5 993 70 10000 7.2 260 14:57 28.01.2020
43 Clouds 5 992 80 10000 6.2 260 14:38 28.01.2020
44 Clouds 5 993 70 10000 7.2 260 14:38 28.01.2020
45 Clouds 5 992 80 10000 6.2 260 14:38 28.01.2020
46 Clouds 5 992 80 10000 6.2 260 14:18 28.01.2020
47 Clouds 4 991 80 10000 8.2 250 13:40 28.01.2020
48 Clouds 4 991 80 10000 8.2 250 13:22 28.01.2020
49 Clouds 4 991 80 10000 7.2 250 12:43 28.01.2020
50 Rain 4 991 86 9000 7.2 250 12:24 28.01.2020
51 Clouds 3 990 86 10000 6.2 250 11:55 28.01.2020
52 Clouds 3 990 91 10000 8.2 240 11:37 28.01.2020
53 Clouds 3 990 91 10000 8.2 240 11:19 28.01.2020
54 Clouds 2 989 91 10000 7.2 240 10:41 28.01.2020
55 Clouds 2 989 91 10000 7.2 240 10:22 28.01.2020
56 Clouds 2 989 91 10000 6.2 240 09:55 28.01.2020
57 Clouds 2 989 80 10000 6.7 240 09:37 28.01.2020
58 Clouds 2 989 80 10000 6.7 240 09:18 28.01.2020
59 Rain 2 989 80 10000 7.2 240 08:41 28.01.2020
60 Clouds 2 989 80 10000 6.2 240 08:20 28.01.2020
61 Clouds 2 989 86 10000 5.7 240 07:38 28.01.2020
62 Clouds 2 989 85 10000 5.7 250 06:51 28.01.2020
63 Clouds 1 989 86 10000 6.2 240 06:28 28.01.2020
64 Clouds 1 989 86 10000 6.2 240 06:28 28.01.2020
65 Clouds 1 989 86 10000 6.2 240 05:55 28.01.2020
66 Clouds 1 989 86 10000 5.7 240 05:33 28.01.2020
67 Clouds 1 988 86 10000 6.2 250 04:38 28.01.2020
68 Clouds 1 988 86 10000 6.2 250 03:33 28.01.2020
69 Clouds 1 987 86 10000 7.2 260 02:25 28.01.2020
70 Clouds 1 987 86 10000 7.2 260 02:25 28.01.2020
71 Clouds 1 987 86 10000 7.2 260 02:25 28.01.2020
72 Clouds 1 987 86 10000 7.2 250 01:57 28.01.2020
73 Clouds 2 986 88 10000 7.2 260 01:32 28.01.2020
74 Clouds 2 986 88 10000 7.7 260 00:51 28.01.2020
75 Clouds 2 986 88 10000 7.2 260 00:29 28.01.2020
76 Clouds 3 986 88 10000 8.2 270 23:51 27.01.2020
77 Clouds 3 985 88 10000 8.2 260 23:30 27.01.2020
78 Clouds 3 985 96 10000 6.2 250 22:59 27.01.2020
79 Clouds 3 986 96 10000 4.6 240 22:40 27.01.2020
80 Clouds 3 986 96 10000 4.6 240 22:19 27.01.2020
81 Clouds 3 986 80 10000 4.6 230 21:55 27.01.2020
82 Clouds 3 986 80 10000 4.6 240 21:37 27.01.2020
83 Clouds 3 986 80 10000 4.6 240 21:18 27.01.2020
84 Clouds 4 986 75 10000 5.1 210 20:43 27.01.2020
85 Clouds 4 986 75 10000 5.1 210 20:22 27.01.2020
86 Clouds 4 986 75 10000 4.6 210 19:59 27.01.2020
87 Clouds 4 986 80 10000 5.1 210 19:40 27.01.2020
88 Clouds 4 986 80 10000 5.1 210 19:22 27.01.2020
89 Clouds 4 987 75 10000 5.7 200 18:56 27.01.2020
90 Clouds 4 987 75 10000 4.1 190 18:37 27.01.2020
91 Clouds 4 987 75 10000 4.1 190 18:37 27.01.2020
92 Clouds 4 987 75 10000 4.1 190 18:19 27.01.2020
93 Clouds 5 989 70 10000 4.6 200 17:39 27.01.2020
94 Clouds 5 989 70 10000 4.6 200 17:39 27.01.2020
95 Clouds 5 989 70 10000 4.6 200 17:20 27.01.2020
96 -273 0 0 0 0 0 16:59 27.01.2020
97 Clouds 6 990 70 10000 5.7 210 16:40 27.01.2020
98 Clouds 6 990 70 10000 5.7 210 16:22 27.01.2020
99 Clouds 6 990 74 10000 4.6 200 15:55 27.01.2020
100 Clouds 6 991 56 10000 4.6 190 15:36 27.01.2020
101 Clouds 6 991 60 10000 5.1 200 15:18 27.01.2020
102 Clouds 6 992 60 10000 5.1 210 14:41 27.01.2020
103 Clouds 6 992 60 10000 5.1 210 14:22 27.01.2020
104 Clouds 6 992 60 10000 5.1 220 13:55 27.01.2020
105 Clouds 6 993 60 10000 4.6 220 13:37 27.01.2020
106 Clouds 6 993 65 10000 5.1 220 13:18 27.01.2020
107 Clouds 5 993 65 10000 5.1 230 12:43 27.01.2020
108 Clouds 5 993 65 10000 5.1 230 12:23 27.01.2020
109 Clouds 5 994 65 10000 5.1 220 11:58 27.01.2020
110 Clouds 4 994 69 10000 5.1 230 11:40 27.01.2020
111 Clouds 4 994 69 10000 5.1 220 11:19 27.01.2020
112 Clouds 3 994 74 10000 5.1 220 10:42 27.01.2020
113 Clouds 3 994 74 10000 5.1 220 10:24 27.01.2020
114 Clouds 3 995 64 10000 5.1 220 09:40 27.01.2020
115 Clouds 4 995 64 10000 5.1 220 09:19 27.01.2020
116 Clouds 3 995 69 10000 5.7 220 08:59 27.01.2020
117 Clouds 3 995 74 10000 5.1 220 08:40 27.01.2020
118 Clouds 3 995 74 10000 5.1 220 08:19 27.01.2020
119 Clouds 3 995 74 10000 5.7 220 07:52 27.01.2020
120 Clouds 3 995 74 10000 5.1 230 07:33 27.01.2020
121 Clouds 3 995 85 10000 4.6 230 06:49 27.01.2020
122 Clouds 3 995 85 10000 6.2 230 05:59 27.01.2020
123 Clouds 4 995 87 10000 5.7 240 05:18 27.01.2020
124 Clouds 5 995 80 10000 7.2 230 03:37 27.01.2020
125 Clouds 5 996 80 10000 6.7 220 02:27 27.01.2020
126 Clouds 5 996 80 10000 5.7 220 01:29 27.01.2020
127 Clouds 4 996 86 10000 5.1 210 00:42 27.01.2020
128 Clouds 4 996 86 10000 5.1 210 00:22 27.01.2020
129 Clouds 5 997 80 10000 5.7 220 23:58 26.01.2020
130 Clouds 5 997 80 10000 5.7 220 23:39 26.01.2020
131 Clouds 5 998 75 10000 5.1 190 23:18 26.01.2020
132 Clouds 5 998 65 10000 6.7 150 22:39 26.01.2020
133 Clouds 5 998 65 10000 6.7 150 22:20 26.01.2020
134 Clouds 5 998 65 10000 6.7 180 21:58 26.01.2020
135 Clouds 5 999 69 10000 3.6 170 21:40 26.01.2020
136 Clouds 4 999 69 10000 3.6 170 21:21 26.01.2020
137 Clouds 4 1000 69 10000 3.6 170 20:58 26.01.2020
138 Clouds 4 1000 69 10000 3.6 170 20:39 26.01.2020
139 Clouds 3 1000 74 10000 3.1 170 20:19 26.01.2020
140 Clouds 3 1000 74 10000 2.6 130 19:59 26.01.2020
141 Clouds 3 1000 74 10000 2.6 130 19:59 26.01.2020
142 Clouds 3 1000 74 10000 2.6 130 19:59 26.01.2020
143 Clouds 3 1001 86 10000 3.6 170 19:39 26.01.2020
144 Clouds 3 1001 86 10000 3.6 170 19:21 26.01.2020
145 Clouds 3 1001 86 10000 2.6 190 18:56 26.01.2020
146 Clouds 3 1002 86 10000 2.1 200 18:38 26.01.2020
147 Clouds 3 1002 86 10000 2.1 200 18:20 26.01.2020
148 Clouds 4 1002 69 10000 2.1 240 17:55 26.01.2020
149 Clouds 5 1002 86 10000 3.6 240 17:37 26.01.2020
150 Clouds 5 1002 75 10000 3.6 240 17:18 26.01.2020
151 Clouds 5 1002 75 10000 3.6 240 16:56 26.01.2020
152 Clouds 5 1002 70 10000 3.6 250 16:38 26.01.2020
153 Clouds 6 1002 70 10000 3.6 250 16:18 26.01.2020
154 Clouds 6 1003 85 0 3.06 241 15:43 26.01.2020
155 Clouds 6 1004 85 0 0.89 280 15:21 26.01.2020
156 Clouds 5 1003 79 0 0.89 277 14:58 26.01.2020
157 Clouds 5 1004 86 0 0.45 276 14:38 26.01.2020
158 Rain 5 1004 78 0 0.45 280 14:19 26.01.2020
159 Rain 5 1004 76 0 1.79 176 13:40 26.01.2020
160 Rain 6 1004 88 0 0.45 181 13:19 26.01.2020
161 Clouds 6 1003 72 0 2.68 286 12:56 26.01.2020
162 Clouds 7 1003 81 0 2.24 219 12:36 26.01.2020
163 Clouds 7 1003 84 0 0.45 269 12:18 26.01.2020
164 Clouds 7 1003 80 0 0.89 318 11:56 26.01.2020
165 Clouds 7 1003 87 0 0.45 249 11:36 26.01.2020
166 Clouds 7 1001 87 10000 4.1 250 11:18 26.01.2020
167 Clouds 6 1001 87 10000 4.1 250 10:39 26.01.2020
168 Clouds 6 1001 87 10000 4.1 250 10:21 26.01.2020
169 Clouds 6 1000 87 10000 5.7 270 09:59 26.01.2020
170 Rain 6 1000 87 10000 8.2 270 09:41 26.01.2020
171 Rain 6 1000 87 10000 8.2 270 09:23 26.01.2020
172 Rain 8 1000 87 10000 4.1 240 08:57 26.01.2020
173 Rain 8 1000 87 10000 4.1 240 08:57 26.01.2020
174 Rain 8 999 93 9000 7.2 240 08:38 26.01.2020
175 Rain 8 999 93 9000 7.2 240 08:20 26.01.2020
176 Rain 9 999 87 10000 4.6 200 07:45 26.01.2020
177 Rain 9 999 87 10000 3.6 200 07:22 26.01.2020
178 Rain 9 1000 87 10000 6.7 200 06:34 26.01.2020
179 Clouds 9 1001 81 10000 4.6 200 05:52 26.01.2020
180 Clouds 9 1001 81 10000 6.7 190 05:22 26.01.2020
181 Clouds 9 1003 70 10000 5.1 160 03:23 26.01.2020
182 Clouds 8 1004 75 10000 4.6 180 02:23 26.01.2020
183 Clouds 8 1005 75 10000 5.7 170 01:40 26.01.2020
184 Clouds 8 1005 75 10000 5.7 170 01:20 26.01.2020
185 Clouds 8 1005 70 10000 5.7 170 00:40 26.01.2020
186 Clouds 8 1005 70 10000 5.7 170 00:20 26.01.2020
187 Clouds 8 1007 71 0 1.79 173 23:38 25.01.2020
188 Clouds 8 1007 70 0 2.24 165 23:20 25.01.2020
189 Clouds 8 1008 67 0 1.79 176 22:43 25.01.2020
190 Clouds 8 1008 67 0 1.34 203 22:20 25.01.2020
191 Clouds 8 1008 67 0 0.45 103 21:59 25.01.2020
192 Clouds 8 1008 70 0 5.36 180 21:41 25.01.2020
193 Clouds 7 1007 82 0 5.08 186 21:22 25.01.2020
194 Clouds 8 1009 69 0 0.45 249 20:54 25.01.2020
195 Clouds 7 1009 70 0 0.89 134 20:36 25.01.2020
196 Clouds 7 1009 82 0 4.43 185 20:18 25.01.2020
197 Clouds 7 1010 82 0 0.45 98 19:41 25.01.2020
198 Clouds 8 1010 80 0 1.34 97 19:19 25.01.2020
199 Clouds 8 1010 74 0 4.43 185 18:56 25.01.2020
200 Clouds 7 1010 82 0 0.45 98 18:37 25.01.2020
201 Clouds 7 1010 82 0 4.43 185 18:19 25.01.2020
202 Clouds 8 1010 79 0 0.45 87 17:39 25.01.2020
203 Clouds 8 1010 79 0 0.89 108 17:19 25.01.2020
204 Clouds 8 1010 71 0 1.34 172 16:56 25.01.2020
205 Clouds 8 1010 78 0 0.89 169 16:38 25.01.2020
206 Clouds 8 1011 77 0 0.89 177 16:19 25.01.2020
207 Clouds 8 1011 70 0 1.79 197 15:46 25.01.2020
208 Clouds 8 1011 70 0 2.68 204 15:25 25.01.2020
209 Clouds 8 1012 70 0 2.24 181 14:57 25.01.2020
210 Clouds 8 1012 69 0 1.34 128 14:39 25.01.2020
211 Clouds 8 1013 77 0 0.45 195 14:18 25.01.2020
212 Clouds 8 1013 77 0 0.89 231 13:40 25.01.2020
213 Clouds 8 1014 79 0 0.89 208 13:22 25.01.2020
214 Clouds 8 1013 81 10000 5.1 200 12:43 25.01.2020
215 Clouds 8 1013 81 10000 5.1 200 12:43 25.01.2020
216 Clouds 8 1013 81 10000 5.1 200 12:22 25.01.2020
217 Clouds 8 1013 81 10000 5.1 200 11:45 25.01.2020
218 Clouds 8 1013 81 10000 5.1 200 11:45 25.01.2020
219 Clouds 7 1014 87 10000 4.6 200 11:21 25.01.2020
220 Clouds 7 1014 81 10000 3.1 200 10:58 25.01.2020
221 Clouds 7 1014 81 10000 1.5 0 10:40 25.01.2020
222 Clouds 7 1014 81 10000 1.5 0 10:20 25.01.2020
223 Clouds 7 1014 81 10000 1.5 0 10:20 25.01.2020
224 Clouds 6 1014 87 10000 3.1 190 09:41 25.01.2020
225 Clouds 6 1014 87 10000 4.6 210 09:22 25.01.2020
226 Clouds 7 1014 81 10000 4.1 200 08:44 25.01.2020
227 Clouds 7 1014 87 10000 4.6 210 08:21 25.01.2020
228 Clouds 7 1014 87 10000 3.6 220 07:43 25.01.2020
229 Clouds 7 1015 81 10000 3.6 220 06:51 25.01.2020
230 Clouds 7 1015 81 10000 4.1 220 06:27 25.01.2020
231 Clouds 6 1015 81 10000 4.1 210 05:45 25.01.2020
232 Clouds 6 1015 87 10000 3.6 200 04:43 25.01.2020
233 Clouds 5 1017 93 10000 3.6 200 03:51 25.01.2020
234 Clouds 5 1017 93 10000 4.6 220 02:54 25.01.2020
235 Clouds 5 1018 86 10000 3.6 230 01:59 25.01.2020
236 Drizzle 5 1018 93 10000 3.1 210 01:37 25.01.2020
237 Clouds 5 1019 87 10000 2.6 200 00:43 25.01.2020
238 Clouds 5 1019 87 10000 2.1 210 00:24 25.01.2020
239 Clouds 5 1019 87 10000 2.6 220 23:57 24.01.2020
240 Clouds 5 1019 87 10000 2.6 220 23:38 24.01.2020
241 Clouds 5 1019 87 10000 2.6 220 23:20 24.01.2020
242 Clouds 5 1019 87 10000 2.1 230 22:42 24.01.2020
243 Clouds 5 1019 87 10000 2.1 220 22:24 24.01.2020
244 Clouds 6 1020 87 10000 3.1 210 21:43 24.01.2020
245 Clouds 6 1020 87 10000 3.1 210 21:20 24.01.2020
246 Clouds 6 1020 87 10000 3.1 210 20:57 24.01.2020
247 Clouds 6 1020 87 10000 3.6 200 20:38 24.01.2020
248 Clouds 6 1020 87 10000 3.6 200 20:20 24.01.2020
249 Clouds 6 1020 87 10000 3.1 210 19:56 24.01.2020
250 Clouds 6 1020 87 10000 3.1 230 19:38 24.01.2020
251 Clouds 6 1020 87 10000 3.1 230 19:20 24.01.2020
252 Clouds 6 1020 87 10000 3.6 200 18:43 24.01.2020
253 Clouds 6 1020 87 10000 3.6 200 18:23 24.01.2020
254 Clouds 6 1020 93 10000 3.6 220 17:46 24.01.2020
255 Clouds 6 1020 93 10000 2.6 230 17:23 24.01.2020
256 Clouds 6 1020 93 10000 3.1 240 16:59 24.01.2020
257 Clouds 6 1021 93 10000 3.1 240 16:39 24.01.2020
258 Clouds 6 1021 93 10000 3.1 240 16:20 24.01.2020
259 Clouds 7 1021 93 10000 3.1 250 15:43 24.01.2020
260 Clouds 6 1021 93 10000 3.6 240 15:22 24.01.2020
261 Clouds 6 1021 93 10000 3.6 240 15:22 24.01.2020
262 Clouds 7 1022 87 10000 3.6 250 14:57 24.01.2020
263 Clouds 6 1022 93 10000 4.1 260 14:38 24.01.2020
264 Clouds 6 1022 93 10000 4.1 260 14:20 24.01.2020
265 Clouds 7 1022 87 10000 4.6 260 13:42 24.01.2020
266 Clouds 6 1023 93 10000 5.7 270 13:23 24.01.2020
267 Clouds 6 1023 93 10000 5.1 270 12:44 24.01.2020
268 Clouds 6 1023 93 10000 4.6 270 12:22 24.01.2020
269 Clouds 6 1023 93 10000 4.1 250 11:45 24.01.2020
270 Clouds 6 1023 93 10000 3.6 260 11:20 24.01.2020
271 Clouds 6 1023 93 10000 5.1 270 10:59 24.01.2020
272 Rain 6 1023 93 9000 3.1 260 10:41 24.01.2020
273 Rain 6 1023 93 9000 3.1 260 10:19 24.01.2020
274 Clouds 5 1023 93 10000 3.6 260 09:42 24.01.2020
275 Clouds 5 1023 93 10000 3.6 260 09:42 24.01.2020
276 Clouds 5 1023 93 10000 3.6 260 09:24 24.01.2020
277 Clouds 5 1023 100 10000 6.2 280 08:59 24.01.2020
278 Drizzle 5 1023 100 10000 4.6 270 08:36 24.01.2020
279 Drizzle 5 1023 100 10000 4.6 270 08:18 24.01.2020
280 Clouds 5 1023 93 7000 3.1 250 07:42 24.01.2020
281 Clouds 5 1023 93 7000 3.1 250 07:21 24.01.2020
282 Clouds 5 1023 93 6000 3.6 250 06:43 24.01.2020
283 Clouds 5 1023 93 6000 3.6 250 06:43 24.01.2020
284 Clouds 5 1023 93 6000 3.6 250 06:23 24.01.2020
285 Mist 6 1023 100 4500 3.1 230 05:21 24.01.2020
286 Mist 6 1025 100 1800 2.1 250 03:29 24.01.2020
287 Mist 6 1026 100 1700 2.6 260 02:39 24.01.2020
288 Mist 6 1026 100 1700 2.6 260 02:19 24.01.2020
289 Mist 6 1026 93 1300 2.6 250 01:38 24.01.2020
290 Mist 6 1027 100 1500 1.5 0 00:40 24.01.2020
291 Mist 6 1027 100 1500 1.5 0 00:18 24.01.2020
292 Drizzle 7 1027 100 2200 2.6 270 23:41 23.01.2020
293 Drizzle 7 1027 100 2200 2.6 270 23:21 23.01.2020
294 Mist 7 1027 100 2800 2.6 270 22:58 23.01.2020
295 Mist 7 1027 100 2800 1.5 0 22:36 23.01.2020
296 Mist 7 1027 100 2800 1.5 0 22:18 23.01.2020
297 Mist 7 1027 100 2800 2.1 280 21:55 23.01.2020
298 Mist 7 1028 100 3500 2.6 300 21:37 23.01.2020
299 Mist 7 1028 100 3500 2.6 300 21:18 23.01.2020
300 Mist 7 1028 100 4000 3.1 320 20:41 23.01.2020
301 Mist 7 1028 100 4500 2.1 340 20:22 23.01.2020
302 Mist 7 1027 100 4500 1.5 170 19:57 23.01.2020
303 Mist 7 1028 100 4500 1.5 0 19:39 23.01.2020
304 Mist 8 1028 100 4500 1.5 0 19:21 23.01.2020
305 Mist 8 1028 100 4500 2.1 180 18:56 23.01.2020
306 Mist 8 1028 93 4500 1.5 160 18:37 23.01.2020
307 Clouds 8 1029 93 6000 1.5 130 18:19 23.01.2020
308 Mist 8 1028 93 4500 1.5 160 18:19 23.01.2020
309 Clouds 8 1029 93 6000 1.5 130 17:44 23.01.2020
310 Clouds 8 1029 93 6000 2.1 120 17:21 23.01.2020
311 Clouds 9 1029 87 10000 1.5 0 16:58 23.01.2020
312 Clouds 8 1029 93 10000 2.6 340 16:38 23.01.2020
313 Clouds 8 1029 93 10000 2.6 340 16:19 23.01.2020
314 Clouds 9 1029 87 10000 1.5 0 15:57 23.01.2020
315 Clouds 9 1030 93 10000 0.5 0 15:38 23.01.2020
316 Clouds 9 1030 93 10000 0.5 0 15:38 23.01.2020
317 Clouds 9 1030 93 10000 0.5 0 15:19 23.01.2020
318 Clouds 9 1030 93 10000 2.1 320 14:57 23.01.2020
319 Clouds 9 1031 100 9000 3.1 330 14:39 23.01.2020
320 Clouds 9 1031 100 9000 3.1 330 14:21 23.01.2020
321 Clouds 9 1031 100 8000 2.6 310 13:46 23.01.2020
322 Mist 8 1031 100 4500 2.6 290 13:21 23.01.2020
323 Mist 8 1032 100 3500 2.1 270 12:56 23.01.2020
324 Mist 8 1032 100 3500 2.1 270 12:56 23.01.2020
325 Mist 8 1032 100 3500 2.1 270 12:56 23.01.2020
326 Mist 8 1032 100 3000 2.1 270 12:38 23.01.2020
327 Mist 8 1032 100 3000 2.1 270 12:20 23.01.2020
328 Mist 7 1032 100 2500 1.5 0 11:43 23.01.2020
329 Fog 7 1033 100 800 1.5 0 11:25 23.01.2020
330 Fog 6 1033 100 400 3.6 280 10:59 23.01.2020
331 Fog 6 1033 100 300 4.6 280 10:40 23.01.2020
332 Fog 6 1033 100 300 4.6 280 10:19 23.01.2020
333 Fog 6 1033 100 400 2.6 270 09:41 23.01.2020
334 Fog 6 1033 100 400 2.6 270 09:22 23.01.2020
335 Fog 6 1033 100 400 3.6 270 08:56 23.01.2020
336 Fog 6 1033 100 500 2.6 270 08:38 23.01.2020
337 Fog 6 1033 100 500 2.6 270 08:19 23.01.2020
338 Fog 6 1033 100 600 3.6 280 07:39 23.01.2020
339 Fog 6 1033 100 600 3.6 280 07:18 23.01.2020
340 Mist 6 1033 100 1200 1.5 0 06:44 23.01.2020
341 Mist 6 1033 100 4000 1 0 06:18 23.01.2020
342 Fog 6 1035 100 300 2.1 300 04:25 23.01.2020
343 Fog 6 1035 100 700 1 0 03:36 23.01.2020
344 Clouds 7 1036 100 8000 1 0 01:55 23.01.2020
345 Clouds 7 1036 100 8000 2.1 280 00:46 23.01.2020
346 Clouds 7 1036 100 8000 1 0 00:24 23.01.2020
347 Clouds 8 1036 100 8000 1 0 23:46 22.01.2020
348 Clouds 8 1036 100 8000 1 0 23:28 22.01.2020
349 Clouds 8 1036 100 8000 2.1 300 22:54 22.01.2020
350 Clouds 8 1036 100 8000 2.1 300 22:36 22.01.2020
351 Clouds 8 1036 100 8000 2.1 300 22:18 22.01.2020
352 Clouds 8 1037 100 8000 2.1 290 21:38 22.01.2020
353 Clouds 8 1037 100 8000 2.1 290 21:19 22.01.2020
354 Clouds 8 1037 100 10000 2.1 290 20:55 22.01.2020
355 Clouds 8 1037 100 10000 1 0 20:36 22.01.2020
356 Clouds 8 1037 100 10000 1 0 20:18 22.01.2020
357 Clouds 8 1038 100 10000 1.5 0 19:41 22.01.2020
358 Clouds 8 1038 100 10000 1.5 0 19:21 22.01.2020
359 Clouds 8 1038 100 10000 1.5 0 19:21 22.01.2020
360 Clouds 9 1038 93 10000 2.1 330 18:59 22.01.2020
361 Clouds 9 1037 93 10000 1 0 18:40 22.01.2020
362 Clouds 9 1037 93 10000 1 0 18:21 22.01.2020
363 Clouds 9 1037 87 10000 1.1 16 17:59 22.01.2020
364 Clouds 10 1038 87 10000 2.1 100 17:39 22.01.2020
365 Clouds 10 1038 87 10000 2.1 100 17:20 22.01.2020
366 Clouds 10 1038 87 10000 2.1 100 17:20 22.01.2020
367 Clouds 10 1038 87 10000 1 0 16:55 22.01.2020
368 Clouds 10 1038 87 10000 1 0 16:55 22.01.2020
369 Clouds 10 1038 87 10000 1 0 16:55 22.01.2020
370 Clouds 10 1038 93 10000 1.5 0 16:37 22.01.2020
371 Clouds 10 1038 93 10000 1.5 0 16:18 22.01.2020
372 Clouds 10 1038 93 10000 1.5 0 15:42 22.01.2020
373 Clouds 10 1038 93 10000 1.5 0 15:23 22.01.2020
374 Clouds 10 1038 100 10000 2.6 280 14:59 22.01.2020
375 Clouds 10 1038 100 10000 3.1 270 14:38 22.01.2020
376 Clouds 9 1038 100 10000 3.1 270 14:19 22.01.2020
377 Clouds 10 1039 93 10000 3.1 280 13:56 22.01.2020
378 Clouds 9 1039 93 10000 3.1 280 13:56 22.01.2020
379 Clouds 10 1039 93 10000 3.1 280 13:56 22.01.2020
380 Clouds 9 1039 100 10000 4.1 280 13:37 22.01.2020
381 Clouds 9 1039 100 10000 4.1 280 13:19 22.01.2020
382 Clouds 9 1039 100 10000 3.6 270 12:56 22.01.2020
383 Clouds 9 1039 100 10000 2.6 270 12:38 22.01.2020
384 Clouds 8 1039 100 10000 2.6 270 12:18 22.01.2020
385 Mist 8 1039 100 4000 2.6 270 11:56 22.01.2020
386 Mist 8 1039 100 1800 2.1 260 11:38 22.01.2020
387 Mist 8 1039 100 1800 2.1 260 11:19 22.01.2020
388 Fog 8 1039 100 900 1.5 0 10:44 22.01.2020
389 Fog 7 1039 100 700 1.5 0 10:21 22.01.2020
390 Fog 7 1039 100 700 2.6 260 09:45 22.01.2020
391 Fog 7 1039 100 900 3.1 270 09:26 22.01.2020
392 Fog 7 1039 100 700 3.1 270 08:59 22.01.2020
393 Fog 7 1039 100 700 3.1 270 08:40 22.01.2020
394 Fog 7 1039 100 600 2.6 260 08:21 22.01.2020
395 Fog 7 1039 100 600 3.1 270 07:59 22.01.2020
396 Fog 7 1039 100 500 3.1 270 07:40 22.01.2020
397 Fog 7 1039 100 500 3.1 270 07:21 22.01.2020
398 Fog 8 1039 93 500 3.6 270 06:31 22.01.2020
399 Fog 8 1039 100 600 2.6 250 05:42 22.01.2020
400 Mist 8 1040 93 1200 3.1 260 04:23 22.01.2020
401 Mist 8 1040 93 1200 2.6 260 03:26 22.01.2020
402 Mist 8 1040 100 1500 4.1 270 02:32 22.01.2020
403 Mist 8 1041 100 4000 3.6 270 00:46 22.01.2020
404 Mist 8 1041 100 4000 3.6 270 00:27 22.01.2020
405 Mist 8 1041 100 4000 3.1 250 23:55 21.01.2020
406 Clouds 8 1041 93 7000 2.6 250 23:36 21.01.2020
407 Clouds 8 1041 93 7000 2.6 250 23:18 21.01.2020
408 Clouds 8 1040 100 7000 4.1 270 22:39 21.01.2020
409 Clouds 8 1040 100 7000 4.1 270 22:20 21.01.2020
410 Clouds 8 1040 100 7000 4.1 270 22:20 21.01.2020
411 Drizzle 7 1041 93 5000 3.1 260 21:56 21.01.2020
412 Clouds 8 1041 93 7000 3.1 250 21:38 21.01.2020
413 Clouds 7 1041 93 7000 3.1 250 21:19 21.01.2020
414 Drizzle 7 1041 93 8000 3.1 250 20:56 21.01.2020
415 Clouds 7 1041 93 10000 3.1 260 20:37 21.01.2020
416 Clouds 7 1041 93 10000 3.1 260 20:18 21.01.2020
417 Clouds 7 1041 100 10000 3.6 250 19:56 21.01.2020
418 Clouds 7 1040 100 10000 3.1 240 19:37 21.01.2020
419 Clouds 7 1040 100 10000 3.1 240 19:37 21.01.2020
420 Clouds 7 1040 100 10000 3.1 240 19:19 21.01.2020
421 Clouds 7 1040 93 10000 2.6 240 18:55 21.01.2020
422 Clouds 7 1041 93 10000 3.1 250 18:36 21.01.2020
423 Clouds 7 1041 93 10000 3.1 250 18:18 21.01.2020
424 Clouds 7 1040 93 10000 3.1 250 17:43 21.01.2020
425 Clouds 7 1040 93 10000 2.6 240 17:20 21.01.2020
426 Clouds 8 1041 93 10000 3.6 260 16:58 21.01.2020
427 Clouds 8 1041 93 10000 4.1 260 16:37 21.01.2020
428 Clouds 8 1041 93 10000 4.1 260 16:18 21.01.2020
429 Clouds 8 1041 93 10000 4.1 260 15:41 21.01.2020
430 Clouds 8 1041 93 10000 4.1 260 15:21 21.01.2020
431 Clouds 8 1041 93 10000 5.1 270 14:58 21.01.2020
432 Clouds 8 1042 93 10000 4.1 260 14:37 21.01.2020
433 Clouds 8 1042 93 10000 4.1 260 14:19 21.01.2020
434 Rain 8 1042 100 8000 3.1 250 13:39 21.01.2020
435 Rain 8 1042 100 8000 3.1 250 13:19 21.01.2020
436 Rain 7 1042 93 8000 3.1 250 12:43 21.01.2020
437 Clouds 7 1042 100 8000 3.1 250 12:25 21.01.2020
438 Drizzle 8 1042 93 8000 3.1 250 11:57 21.01.2020
439 Drizzle 7 1042 100 6000 3.1 250 11:38 21.01.2020
440 Drizzle 7 1042 100 6000 3.1 250 11:19 21.01.2020
441 Clouds 7 1042 100 7000 3.1 250 10:44 21.01.2020
442 Rain 6 1042 100 8000 3.6 250 10:23 21.01.2020
443 Drizzle 6 1042 93 7000 2.6 250 09:59 21.01.2020
444 Drizzle 6 1042 93 8000 3.1 250 09:40 21.01.2020
445 Drizzle 6 1042 93 8000 3.1 250 09:21 21.01.2020
446 Drizzle 6 1042 93 10000 3.1 250 08:47 21.01.2020
447 Drizzle 6 1042 93 10000 3.1 250 08:27 21.01.2020
448 Clouds 6 1042 87 10000 4.1 260 07:56 21.01.2020
449 Clouds 6 1042 87 10000 5.1 260 07:37 21.01.2020
450 Clouds 6 1042 87 10000 5.1 260 07:19 21.01.2020
451 Clouds 6 1042 87 10000 4.6 260 06:44 21.01.2020
452 Clouds 6 1042 87 10000 4.1 260 06:23 21.01.2020
453 Clouds 7 1042 75 10000 3.1 260 05:41 21.01.2020
454 Clouds 6 1042 75 10000 3.1 250 04:39 21.01.2020
455 Clouds 6 1042 75 10000 3.1 250 04:39 21.01.2020
456 Clouds 7 1043 75 10000 3.6 250 02:34 21.01.2020
457 Clouds 6 1044 75 10000 3.1 240 01:47 21.01.2020
458 Clouds 6 1044 75 10000 2.6 230 00:52 21.01.2020
459 Clouds 6 1044 75 10000 2.6 250 00:29 21.01.2020
460 Clouds 6 1044 75 10000 3.1 240 23:57 20.01.2020
461 Clouds 6 1045 75 10000 3.6 250 23:36 20.01.2020
462 Clouds 6 1045 75 10000 3.6 250 23:36 20.01.2020
463 Clouds 5 1045 75 10000 3.6 250 23:18 20.01.2020
464 Clouds 5 1045 75 10000 3.6 250 22:55 20.01.2020
465 Clouds 5 1045 81 10000 2.6 240 22:36 20.01.2020
466 Clouds 5 1045 81 10000 2.6 240 22:18 20.01.2020
467 Clouds 5 1045 81 10000 3.1 230 21:55 20.01.2020
468 Clouds 5 1045 81 10000 4.1 250 21:36 20.01.2020
469 Clouds 5 1045 81 10000 4.1 250 21:18 20.01.2020
470 Clouds 5 1045 80 10000 4.6 250 20:43 20.01.2020
471 Clouds 4 1045 80 10000 4.6 250 20:20 20.01.2020
472 Clouds 4 1045 80 10000 4.1 260 19:59 20.01.2020
473 Clouds 4 1045 80 10000 4.1 260 19:59 20.01.2020
474 Clouds 5 1045 75 10000 3.1 250 19:41 20.01.2020
475 Clouds 5 1045 75 10000 3.1 250 19:19 20.01.2020
476 Clouds 4 1045 80 10000 3.1 240 18:56 20.01.2020
477 Clouds 4 1045 80 10000 2.6 240 18:38 20.01.2020
478 Clouds 4 1045 80 10000 2.6 240 18:19 20.01.2020
479 Clouds 4 1045 80 10000 2.6 240 18:19 20.01.2020
480 Clouds 6 1045 70 10000 3.1 240 17:39 20.01.2020
481 Clouds 6 1045 70 10000 3.1 240 17:19 20.01.2020
482 Clouds 7 1045 70 10000 4.6 250 16:47 20.01.2020
483 Clouds 7 1045 70 10000 3.6 240 16:47 20.01.2020
484 Clouds 7 1045 70 10000 3.6 240 16:26 20.01.2020
485 Clouds 7 1045 70 10000 3.6 240 15:59 20.01.2020
486 Clouds 8 1046 70 10000 3.1 230 15:40 20.01.2020
487 Clouds 8 1046 70 10000 3.1 230 15:22 20.01.2020
488 Clouds 8 1046 70 10000 3.6 220 14:58 20.01.2020
489 Clouds 8 1046 70 10000 4.1 220 14:39 20.01.2020
490 Clouds 8 1046 70 10000 4.1 220 14:20 20.01.2020
491 Clouds 8 1046 70 10000 4.1 200 13:44 20.01.2020
492 Clouds 8 1046 70 10000 4.1 200 13:24 20.01.2020
493 Clouds 7 1047 75 10000 4.1 210 12:58 20.01.2020
494 Clouds 6 1047 81 10000 3.1 190 12:40 20.01.2020
495 Clouds 6 1047 81 10000 3.1 190 12:21 20.01.2020
496 Clouds 5 1047 80 10000 2.6 180 11:55 20.01.2020
497 Clouds 5 1046 86 10000 2.6 200 11:36 20.01.2020
498 Clouds 4 1046 86 10000 2.6 200 11:18 20.01.2020
499 Clouds 3 1046 86 10000 2.1 210 10:41 20.01.2020
500 Clouds 3 1046 86 10000 2.1 210 10:20 20.01.2020
501 Clouds 4 1046 86 10000 2.6 220 09:41 20.01.2020
502 Clouds 3 1046 86 10000 2.6 220 09:22 20.01.2020
503 Clouds 3 1046 86 10000 2.6 210 08:54 20.01.2020
504 Clouds 3 1046 86 10000 3.1 230 08:31 20.01.2020
505 Clouds 3 1046 86 10000 3.6 230 07:55 20.01.2020
506 Clouds 3 1046 86 10000 2.6 220 07:36 20.01.2020
507 Clouds 3 1046 86 10000 2.6 220 07:18 20.01.2020
508 Clouds 3 1046 86 10000 2.6 210 06:36 20.01.2020
509 Clouds 3 1046 80 10000 3.1 230 05:56 20.01.2020
510 Clouds 3 1046 86 10000 3.1 210 05:37 20.01.2020
511 Clouds 3 1046 86 10000 3.1 210 05:18 20.01.2020
512 Clouds 3 1046 86 10000 2.6 220 03:47 20.01.2020
513 Clouds 4 1046 80 10000 3.6 230 01:58 20.01.2020
514 Clouds 4 1046 80 10000 2.6 220 01:39 20.01.2020
515 Clouds 4 1046 75 10000 3.6 230 00:55 20.01.2020
516 Clouds 3 1046 80 10000 3.6 220 00:28 20.01.2020
517 Clouds 4 1047 75 10000 3.6 230 23:56 19.01.2020
518 Clouds 4 1046 75 10000 3.1 210 23:37 19.01.2020
519 Clouds 4 1046 75 10000 3.1 210 23:18 19.01.2020
520 Clouds 4 1046 75 10000 3.1 210 23:18 19.01.2020
521 Clouds 4 1046 75 10000 3.1 230 22:55 19.01.2020
522 Clouds 4 1046 80 10000 2.6 200 22:36 19.01.2020
523 Clouds 4 1046 80 10000 2.6 200 22:18 19.01.2020
524 Clouds 3 1046 80 10000 2.1 210 21:55 19.01.2020
525 Clouds 3 1046 80 10000 2.1 210 21:55 19.01.2020
526 Clouds 3 1047 80 10000 2.1 220 21:37 19.01.2020
527 Clouds 3 1047 80 10000 2.1 220 21:18 19.01.2020
528 Clouds 3 1047 86 10000 2.6 210 20:55 19.01.2020
529 Clouds 3 1046 86 10000 3.1 210 20:37 19.01.2020
530 Clouds 3 1046 86 10000 3.1 210 20:18 19.01.2020
531 Clouds 3 1046 86 10000 3.1 210 19:54 19.01.2020
532 Clouds 3 1046 87 10000 2.6 220 19:36 19.01.2020
533 Clouds 3 1046 87 10000 2.6 220 19:18 19.01.2020
534 Clouds 3 1046 87 10000 2.6 220 18:55 19.01.2020
535 Clouds 3 1046 87 10000 2.6 210 18:36 19.01.2020
536 Clouds 4 1046 87 10000 2.6 210 18:18 19.01.2020
537 Clouds 5 1046 87 10000 2.6 200 17:56 19.01.2020
538 Clouds 5 1046 87 10000 3.6 220 17:38 19.01.2020
539 Clouds 5 1046 64 10000 3.6 220 17:18 19.01.2020
540 Clouds 6 1045 64 10000 3.1 230 16:55 19.01.2020
541 Clouds 6 1045 56 10000 5.1 220 16:36 19.01.2020
542 Clouds 6 1045 56 10000 5.1 220 16:18 19.01.2020
543 Clouds 8 1045 64 10000 3.1 220 15:54 19.01.2020
544 Clouds 8 1045 52 10000 3.1 230 15:36 19.01.2020
545 Clouds 8 1045 52 10000 3.1 230 15:18 19.01.2020
546 Clouds 7 1045 56 10000 2.6 240 14:40 19.01.2020
547 Clouds 7 1045 56 10000 3.1 220 14:20 19.01.2020
548 Clouds 7 1045 60 10000 3.1 220 13:59 19.01.2020
549 Clouds 7 1045 60 10000 3.1 220 13:40 19.01.2020
550 Clouds 7 1045 56 10000 2.6 210 13:21 19.01.2020
551 Clouds 5 1045 65 10000 2.6 210 12:59 19.01.2020
552 Clouds 4 1045 64 10000 1 0 12:40 19.01.2020
553 Clouds 4 1045 64 10000 1 0 12:21 19.01.2020
554 Clouds 2 1045 74 10000 1.5 0 11:57 19.01.2020
555 Clouds 2 1045 74 10000 2.1 230 11:37 19.01.2020
556 Clouds 1 1045 74 10000 2.1 230 11:18 19.01.2020
557 Clouds 1 1045 69 10000 2.1 240 10:40 19.01.2020
558 Clouds -1 1044 92 10000 1.5 0 10:20 19.01.2020
559 Clouds -2 1044 92 10000 3.1 260 09:57 19.01.2020
560 Clouds -2 1044 86 10000 3.1 270 09:38 19.01.2020
561 Clouds -2 1044 86 10000 3.1 270 09:19 19.01.2020
562 Clouds -1 1043 77 10000 3.1 250 08:55 19.01.2020
563 Clouds -1 1043 80 10000 2.1 260 08:32 19.01.2020
564 Clouds -2 1043 86 10000 2.6 260 07:54 19.01.2020
565 Clouds -2 1042 86 10000 2.6 270 07:28 19.01.2020
566 Clouds -2 1042 92 10000 3.1 270 06:55 19.01.2020
567 Clouds -2 1042 86 10000 3.1 270 06:22 19.01.2020
568 Clouds 0 1040 80 10000 2.6 260 03:55 19.01.2020
569 Clouds -1 1040 87 10000 2.1 240 02:33 19.01.2020
570 Clouds 0 1039 80 10000 3.1 270 01:42 19.01.2020
571 Clouds 0 1039 80 10000 3.1 270 01:20 19.01.2020
572 Clouds 0 1039 86 10000 2.6 260 00:44 19.01.2020
573 Clouds 0 1038 86 10000 2.6 250 00:21 19.01.2020
574 Clouds 1 1038 86 10000 2.6 250 23:47 18.01.2020
575 Clouds 1 1038 86 10000 3.1 270 23:25 18.01.2020
576 Clouds 1 1037 86 10000 2.6 260 22:59 18.01.2020
577 Clouds 1 1037 86 10000 2.6 260 22:41 18.01.2020
578 Clouds 0 1037 90 10000 3.6 260 22:21 18.01.2020
579 Clouds 1 1037 90 10000 2.6 240 21:58 18.01.2020
580 Clouds 1 1036 90 10000 3.1 280 21:39 18.01.2020
581 Clouds 1 1036 90 10000 3.1 280 21:20 18.01.2020
582 Clouds 2 1036 90 10000 2.6 250 20:56 18.01.2020
583 Clouds 2 1035 90 10000 2.1 240 20:38 18.01.2020
584 Clouds 2 1035 90 10000 2.1 240 20:18 18.01.2020
585 Clouds 2 1035 90 10000 3.6 270 19:43 18.01.2020
586 Clouds 1 1034 90 10000 4.1 270 19:24 18.01.2020
587 Clouds 2 1034 90 10000 4.6 280 18:43 18.01.2020
588 Clouds 2 1034 90 10000 4.6 280 18:24 18.01.2020
589 Clouds 2 1033 90 10000 4.1 280 17:58 18.01.2020
590 Clouds 3 1032 86 10000 4.1 280 17:40 18.01.2020
591 Clouds 3 1032 86 10000 4.1 280 17:20 18.01.2020
592 Clouds 5 1032 80 10000 4.1 270 16:56 18.01.2020
593 Clouds 5 1031 75 10000 4.6 280 16:37 18.01.2020
594 Clouds 5 1031 75 10000 4.6 280 16:19 18.01.2020
595 Clouds 6 1031 70 10000 3.6 260 15:44 18.01.2020
596 Clouds 5 1030 75 10000 3.1 250 15:25 18.01.2020
597 Clouds 5 1030 75 10000 3.1 250 14:59 18.01.2020
598 Clouds 5 1030 84 10000 3.6 250 14:40 18.01.2020
599 Clouds 5 1030 81 10000 3.6 250 14:19 18.01.2020
600 Clouds 5 1030 81 10000 4.1 250 13:55 18.01.2020
601 Clouds 5 1030 80 10000 3.1 250 13:36 18.01.2020
602 Clouds 4 1030 80 10000 3.1 250 13:18 18.01.2020
603 Clouds 4 1029 80 10000 3.1 250 12:40 18.01.2020
604 Clouds 3 1029 80 10000 3.1 250 12:21 18.01.2020
605 Clouds 2 1028 80 10000 3.6 270 11:44 18.01.2020
606 Clouds 1 1028 86 10000 4.6 270 11:24 18.01.2020
607 Clouds 0 1027 89 10000 3.6 270 10:57 18.01.2020
608 Clouds 0 1027 92 10000 2.6 270 10:38 18.01.2020
609 Clouds -1 1027 92 10000 2.6 270 10:20 18.01.2020
610 Clouds -1 1027 92 10000 2.6 270 10:20 18.01.2020
611 Clouds -1 1027 92 10000 3.1 260 09:48 18.01.2020
612 Clouds -1 1026 92 10000 3.1 270 09:30 18.01.2020
613 Clouds -1 1026 92 10000 3.6 280 08:57 18.01.2020
614 Clouds 0 1025 89 10000 2.6 260 08:39 18.01.2020
615 Clouds 0 1025 91 10000 2.6 260 08:19 18.01.2020
616 Clouds 0 1025 80 10000 2.6 260 07:50 18.01.2020
617 Clouds 0 1025 80 10000 2.6 260 07:31 18.01.2020
618 Clouds 1 1024 80 10000 4.1 250 06:47 18.01.2020
619 Clouds 1 1023 86 10000 3.6 250 05:59 18.01.2020
620 Clouds 1 1023 86 10000 3.6 250 05:21 18.01.2020
621 Clouds 1 1022 86 10000 3.6 260 02:55 18.01.2020
622 Clouds 2 1021 89 10000 5.1 270 01:54 18.01.2020
623 Clouds 2 1021 89 10000 5.7 270 01:30 18.01.2020
624 Clouds 2 1020 88 10000 5.1 260 00:37 18.01.2020
625 Clouds 2 1020 88 10000 5.1 260 00:37 18.01.2020
626 Clouds 2 1020 88 10000 5.1 260 00:37 18.01.2020
627 Clouds 2 1020 88 10000 5.1 260 00:18 18.01.2020
628 Clouds 2 1019 88 10000 4.6 260 23:41 17.01.2020
629 Clouds 2 1019 89 10000 4.6 260 23:20 17.01.2020
630 Clear 2 1019 89 10000 5.7 260 22:45 17.01.2020
631 Clear 2 1018 93 10000 6.2 260 22:22 17.01.2020
632 Clouds 3 1017 86 10000 5.7 260 21:59 17.01.2020
633 Clouds 3 1017 86 10000 5.1 260 21:41 17.01.2020
634 Clouds 3 1017 86 10000 5.1 260 21:22 17.01.2020
635 Clear 3 1016 86 10000 7.2 270 20:57 17.01.2020
636 Clear 3 1016 93 10000 5.7 260 20:38 17.01.2020
637 Rain 3 1016 93 10000 5.7 260 20:20 17.01.2020
638 Clouds 4 1015 86 10000 6.2 270 19:55 17.01.2020
639 Clouds 4 1015 86 10000 6.2 270 19:55 17.01.2020
640 Clouds 4 1015 86 10000 5.7 270 19:37 17.01.2020
641 Clouds 4 1015 86 10000 5.7 270 19:18 17.01.2020
642 Clouds 4 1014 86 10000 5.1 270 18:47 17.01.2020
643 Clouds 4 1014 86 10000 6.2 280 18:28 17.01.2020
644 Rain 5 1013 80 10000 7.2 290 17:56 17.01.2020
645 Rain 5 1013 80 10000 7.2 290 17:56 17.01.2020
646 Rain 5 1012 80 10000 6.7 280 17:38 17.01.2020
647 Rain 5 1012 80 10000 6.7 280 17:20 17.01.2020
648 Rain 5 1011 80 10000 6.7 270 16:42 17.01.2020
649 Rain 6 1010 75 10000 5.1 260 16:20 17.01.2020
650 Clouds 6 1010 75 10000 5.1 250 15:49 17.01.2020
651 Clouds 6 1010 70 10000 4.6 240 15:28 17.01.2020
652 Clouds 6 1010 70 10000 5.1 240 14:59 17.01.2020
653 Clouds 6 1009 70 10000 4.6 240 14:40 17.01.2020
654 -273 0 0 0 0 0 14:22 17.01.2020
655 Clouds 5 1009 75 10000 7.2 250 13:42 17.01.2020
656 Clouds 6 1009 70 10000 6.7 250 13:22 17.01.2020
657 Clouds 5 1009 75 10000 5.7 240 12:46 17.01.2020
658 Clouds 5 1008 75 10000 5.7 250 12:23 17.01.2020
659 Clouds 4 1008 80 10000 5.1 250 11:41 17.01.2020
660 Clouds 4 1008 80 10000 5.1 250 11:41 17.01.2020
661 Clouds 4 1008 80 10000 5.1 250 11:20 17.01.2020
662 Clouds 4 1007 80 10000 4.6 240 10:56 17.01.2020
663 Clouds 4 1007 80 10000 4.1 250 10:37 17.01.2020
664 Clouds 4 1007 80 10000 4.1 250 10:19 17.01.2020
665 Clouds 4 1007 89 10000 4.6 250 09:43 17.01.2020
666 Clouds 4 1006 80 10000 3.6 240 09:21 17.01.2020
667 Clouds 4 1006 80 10000 3.1 240 08:58 17.01.2020
668 Clouds 4 1005 80 10000 3.6 250 08:40 17.01.2020
669 Clouds 4 1005 80 10000 3.6 250 08:21 17.01.2020
670 Clouds 4 1005 80 10000 4.1 250 07:46 17.01.2020
671 Clouds 4 1005 80 10000 4.1 250 07:28 17.01.2020
672 Clouds 4 1004 86 10000 3.1 240 06:51 17.01.2020
673 Clouds 5 1004 80 10000 3.6 250 06:30 17.01.2020
674 Clouds 5 1004 83 0 3.64 238 04:27 17.01.2020
675 Clouds 4 1004 86 0 0.45 278 03:19 17.01.2020
676 Clouds 4 1003 82 0 3.64 238 02:32 17.01.2020
677 Clouds 5 1003 79 0 3.19 222 01:44 17.01.2020
678 Clouds 5 1003 87 0 4.18 225 01:22 17.01.2020
679 Clouds 6 1002 81 10000 3.1 220 00:37 17.01.2020
680 Clouds 6 1002 81 10000 3.1 220 00:19 17.01.2020
681 Clouds 6 1002 81 10000 3.1 220 23:41 16.01.2020
682 Clouds 6 1002 81 10000 3.1 220 23:22 16.01.2020
683 Clouds 6 1001 81 10000 3.1 210 22:41 16.01.2020
684 Clouds 6 1001 75 10000 3.6 220 22:21 16.01.2020
685 Clouds 7 1000 81 10000 4.1 230 21:57 16.01.2020
686 Clouds 7 1000 81 10000 3.6 230 21:38 16.01.2020
687 Clouds 7 1000 81 10000 3.6 230 21:19 16.01.2020
688 Clouds 7 1000 81 10000 5.1 230 20:57 16.01.2020
689 Clouds 7 999 87 10000 5.7 230 20:38 16.01.2020
690 Clouds 7 999 87 10000 5.7 230 20:19 16.01.2020
691 Rain 7 998 75 10000 5.7 240 19:56 16.01.2020
692 Rain 7 997 75 10000 5.1 230 19:37 16.01.2020
693 Rain 7 997 75 10000 5.1 230 19:19 16.01.2020
694 Clouds 7 997 81 10000 5.7 220 18:55 16.01.2020
695 Clouds 7 996 81 10000 4.6 230 18:37 16.01.2020
696 Clouds 7 996 81 10000 4.6 230 18:18 16.01.2020
697 Clouds 8 994 81 10000 6.2 250 17:42 16.01.2020
698 Rain 8 994 87 10000 7.2 240 17:23 16.01.2020
699 Rain 8 994 87 10000 6.7 240 16:57 16.01.2020
700 Rain 10 992 76 10000 8.2 200 16:39 16.01.2020
701 Rain 11 992 76 10000 8.2 200 16:19 16.01.2020
702 Clouds 11 992 76 10000 7.2 210 15:44 16.01.2020
703 Clouds 11 992 81 10000 7.2 200 15:23 16.01.2020
704 Clouds 11 992 81 10000 6.2 180 14:57 16.01.2020
705 Rain 11 992 93 9000 7.7 160 14:39 16.01.2020
706 Rain 11 992 93 9000 7.7 160 14:20 16.01.2020
707 Rain 10 994 87 9000 9.8 150 13:45 16.01.2020
708 Rain 10 994 87 9000 9.8 150 13:26 16.01.2020
709 Rain 10 996 93 9000 7.2 150 12:47 16.01.2020
710 Rain 10 997 93 4000 7.7 140 12:29 16.01.2020
711 Rain 10 997 93 4000 7.7 140 12:29 16.01.2020
712 Rain 9 998 93 4000 9.8 150 11:59 16.01.2020
713 Rain 9 999 87 8000 9.8 150 11:41 16.01.2020
714 Rain 9 999 87 8000 9.8 150 11:23 16.01.2020
715 Rain 9 999 87 8000 9.8 170 10:55 16.01.2020
716 Rain 9 1000 81 5000 9.8 160 10:36 16.01.2020
717 Rain 9 1000 81 5000 9.8 160 10:18 16.01.2020
718 Rain 9 1001 81 10000 11.8 180 09:42 16.01.2020
719 Rain 9 1001 81 10000 11.8 180 09:24 16.01.2020
720 Clouds 9 1001 76 10000 11.3 180 08:56 16.01.2020
721 Clouds 9 1002 76 10000 10.3 180 08:36 16.01.2020
722 Clouds 9 1002 76 10000 10.3 180 08:18 16.01.2020
723 Rain 9 1003 81 10000 10.3 180 07:42 16.01.2020
724 Rain 9 1003 81 10000 9.8 170 07:23 16.01.2020
725 Rain 9 1004 81 10000 8.7 170 06:48 16.01.2020
726 Clouds 9 1004 81 10000 7.7 170 06:28 16.01.2020
727 Clouds 9 1004 76 10000 7.7 170 05:46 16.01.2020
728 Clouds 9 1005 81 10000 6.2 170 04:46 16.01.2020
729 Clouds 8 1006 87 10000 4.6 160 03:29 16.01.2020
730 Rain 8 1007 75 10000 4.6 170 02:45 16.01.2020
731 Clouds 7 1008 75 10000 4.1 160 01:28 16.01.2020
732 Clouds 6 1008 75 10000 5.1 200 00:42 16.01.2020
733 Clouds 6 1008 75 10000 5.1 200 00:22 16.01.2020
734 Clouds 6 1007 75 10000 3.1 170 23:40 15.01.2020
735 Clouds 6 1007 75 10000 3.1 170 23:22 15.01.2020
736 Clouds 6 1007 75 10000 3.1 170 23:21 15.01.2020
737 Clouds 6 1006 75 10000 5.7 220 22:56 15.01.2020
738 Clouds 6 1006 75 10000 6.2 230 22:37 15.01.2020
739 Clouds 6 1006 75 10000 6.2 230 22:18 15.01.2020
740 Clouds 6 1006 75 10000 6.2 230 22:18 15.01.2020
741 Clouds 6 1006 75 10000 6.2 230 21:55 15.01.2020
742 Clouds 6 1006 75 10000 6.2 220 21:36 15.01.2020
743 Clouds 6 1006 75 10000 6.2 220 21:18 15.01.2020
744 Clouds 6 1006 70 10000 6.2 220 20:54 15.01.2020
745 Clouds 6 1005 75 10000 5.7 220 20:36 15.01.2020
746 Clouds 6 1005 75 10000 5.7 220 20:18 15.01.2020
747 Clouds 6 1005 75 10000 5.7 220 20:18 15.01.2020
748 Clouds 6 1005 75 10000 6.2 230 19:54 15.01.2020
749 Clouds 6 1004 75 10000 6.2 220 19:36 15.01.2020
750 Clouds 6 1004 75 10000 6.2 220 19:18 15.01.2020
751 Clouds 6 1004 75 10000 7.2 230 18:55 15.01.2020
752 Clouds 6 1003 70 10000 6.7 230 18:36 15.01.2020
753 Clouds 6 1003 70 10000 6.7 230 18:18 15.01.2020
754 Clouds 6 1002 75 10000 6.2 230 17:40 15.01.2020
755 Clouds 6 1002 75 10000 6.2 230 17:22 15.01.2020
756 Clouds 7 1001 65 10000 7.2 230 16:57 15.01.2020
757 Clouds 7 1000 70 10000 6.7 230 16:38 15.01.2020
758 Clouds 7 1000 70 10000 6.7 230 16:20 15.01.2020
759 Clouds 7 1000 70 10000 6.7 230 16:20 15.01.2020
760 Clouds 7 1000 70 10000 6.7 230 16:20 15.01.2020
761 Clouds 7 1000 70 10000 6.7 230 16:20 15.01.2020
762 Clouds 7 1000 65 10000 7.2 230 15:43 15.01.2020
763 Clouds 7 999 65 10000 8.7 230 15:21 15.01.2020
764 Clouds 7 999 65 10000 8.2 230 14:56 15.01.2020
765 Clouds 7 999 65 10000 8.2 230 14:37 15.01.2020
766 Clouds 7 999 65 10000 8.2 230 14:18 15.01.2020
767 Clouds 7 998 65 10000 7.2 230 13:44 15.01.2020
768 Clouds 7 998 65 10000 7.7 220 13:23 15.01.2020
769 Clouds 6 997 70 10000 7.7 230 12:56 15.01.2020
770 Clouds 6 997 70 10000 6.7 230 12:37 15.01.2020
771 Clouds 6 997 70 10000 6.7 230 12:19 15.01.2020
772 Clouds 6 996 68 10000 7.7 230 11:54 15.01.2020
773 Clouds 6 996 68 10000 6.7 220 11:36 15.01.2020
774 Clouds 6 996 76 10000 6.7 220 11:18 15.01.2020
775 Clouds 5 995 76 10000 7.7 230 10:41 15.01.2020
776 Clouds 5 994 76 10000 6.7 230 10:21 15.01.2020
777 Clouds 5 994 76 10000 6.7 230 09:41 15.01.2020
778 Clouds 4 994 76 10000 6.7 230 09:22 15.01.2020
779 Clouds 4 993 76 10000 6.2 230 08:45 15.01.2020
780 Clouds 4 993 76 10000 7.2 220 08:27 15.01.2020
781 Clouds 4 992 77 10000 6.2 230 07:56 15.01.2020
782 Clouds 4 992 77 10000 6.7 230 07:35 15.01.2020
783 Clouds 4 992 77 10000 7.7 230 06:57 15.01.2020
784 Clouds 4 992 77 10000 7.7 230 06:57 15.01.2020
785 Clouds 4 991 77 10000 7.7 230 06:38 15.01.2020
786 Clouds 5 990 77 10000 8.2 230 05:43 15.01.2020
787 Clouds 4 990 78 10000 7.2 230 03:35 15.01.2020
788 Clouds 4 989 83 10000 6.7 220 01:49 15.01.2020
789 Clouds 4 989 81 10000 6.7 220 01:22 15.01.2020
790 Clouds 4 988 81 10000 6.2 220 00:38 15.01.2020
791 Clouds 4 988 81 10000 6.2 220 00:20 15.01.2020
792 Clouds 4 988 81 10000 6.7 220 23:47 14.01.2020
793 Clouds 4 988 81 10000 5.1 220 23:28 14.01.2020
794 Clouds 4 987 80 10000 5.7 220 22:58 14.01.2020
795 Clouds 4 987 80 10000 4.6 230 22:40 14.01.2020
796 Clouds 4 987 80 10000 4.6 230 22:19 14.01.2020
797 Clouds 4 987 80 10000 5.1 220 21:57 14.01.2020
798 Clouds 4 987 80 10000 5.1 220 21:39 14.01.2020
799 Clouds 4 987 80 10000 5.1 220 21:19 14.01.2020
800 Rain 4 986 80 10000 4.6 230 20:54 14.01.2020
801 Rain 4 985 86 10000 4.1 220 20:36 14.01.2020
802 Rain 4 985 86 10000 4.1 220 20:18 14.01.2020
803 Rain 4 985 86 10000 4.1 220 20:18 14.01.2020
804 Rain 4 985 86 10000 4.1 220 19:55 14.01.2020
805 Rain 4 984 86 10000 5.1 220 19:36 14.01.2020
806 Clouds 4 984 86 10000 5.1 220 19:18 14.01.2020
807 Clouds 4 983 93 10000 4.1 240 18:40 14.01.2020
808 Clouds 4 983 93 10000 4.1 240 18:20 14.01.2020
809 Clouds 4 983 93 10000 4.1 240 17:56 14.01.2020
810 Clouds 5 982 86 10000 3.6 240 17:36 14.01.2020
811 Clouds 5 982 86 10000 3.6 240 17:18 14.01.2020
812 -273 0 0 0 0 0 16:42 14.01.2020
813 Clouds 4 981 86 10000 3.1 240 16:22 14.01.2020
814 Clouds 4 980 93 10000 3.6 250 15:56 14.01.2020
815 Clouds 5 980 86 10000 3.6 260 15:38 14.01.2020
816 Rain 4 980 86 10000 3.6 260 15:19 14.01.2020
817 Rain 4 980 86 10000 3.6 260 15:19 14.01.2020
818 Rain 4 980 93 10000 1.5 0 14:43 14.01.2020
819 Rain 4 981 93 10000 1.5 0 14:20 14.01.2020
820 Rain 4 981 93 10000 2.1 200 13:54 14.01.2020
821 Rain 4 982 93 10000 2.1 200 13:36 14.01.2020
822 Rain 4 982 93 10000 2.1 200 13:18 14.01.2020
823 Rain 4 984 86 9000 3.6 200 12:41 14.01.2020
824 Rain 5 984 86 9000 3.6 200 12:20 14.01.2020
825 Rain 5 984 86 10000 6.2 200 11:43 14.01.2020
826 Rain 5 984 86 10000 6.2 200 11:23 14.01.2020
827 Rain 5 985 75 10000 5.7 190 10:59 14.01.2020
828 Rain 5 985 75 10000 5.1 200 10:39 14.01.2020
829 Clouds 5 985 75 10000 5.1 200 10:20 14.01.2020
830 Clouds 5 985 75 10000 4.6 200 09:57 14.01.2020
831 Clouds 5 985 75 10000 4.6 210 09:39 14.01.2020
832 Clouds 5 985 75 10000 4.6 210 09:20 14.01.2020
833 Clouds 4 986 80 10000 5.7 210 08:46 14.01.2020
834 Clouds 4 986 80 10000 5.7 220 08:24 14.01.2020
835 Clouds 4 986 85 10000 6.2 220 07:53 14.01.2020
836 Clouds 4 986 85 10000 6.7 220 07:33 14.01.2020
837 Clouds 4 986 85 10000 5.1 210 06:54 14.01.2020
838 Clouds 4 987 85 10000 5.1 220 06:33 14.01.2020
839 Clouds 4 987 85 10000 5.1 210 05:27 14.01.2020
840 Clouds 5 987 65 10000 6.2 210 03:52 14.01.2020
841 Clouds 4 987 69 10000 6.2 220 02:43 14.01.2020
842 Clouds 4 986 69 10000 6.2 230 01:53 14.01.2020
843 Clouds 4 986 69 10000 7.7 230 00:51 14.01.2020
844 Clouds 4 986 71 10000 6.7 220 00:32 14.01.2020
845 Clouds 4 986 71 10000 6.7 220 00:32 14.01.2020
846 Clouds 5 985 75 10000 6.2 220 23:55 13.01.2020
847 Clouds 4 985 80 10000 4.6 240 23:37 13.01.2020
848 Clouds 5 985 80 10000 4.6 240 23:18 13.01.2020
849 Clouds 5 984 75 10000 6.7 230 22:42 13.01.2020
850 Clouds 5 984 80 10000 7.7 220 22:21 13.01.2020
851 Clouds 5 983 80 10000 7.2 220 21:56 13.01.2020
852 Rain 6 984 86 10000 5.1 240 21:38 13.01.2020
853 Rain 6 984 86 10000 5.1 240 21:19 13.01.2020
854 Rain 6 983 81 10000 6.7 220 20:58 13.01.2020
855 Clouds 6 983 86 10000 7.2 240 20:40 13.01.2020
856 Clouds 6 983 86 10000 7.2 240 20:22 13.01.2020
857 Rain 6 982 70 10000 9.3 220 19:58 13.01.2020
858 Rain 6 982 70 10000 9.8 220 19:39 13.01.2020
859 Rain 7 982 70 10000 9.8 220 19:20 13.01.2020
860 Clouds 7 981 70 10000 10.8 220 18:56 13.01.2020
861 Clouds 7 981 65 10000 9.8 210 18:37 13.01.2020
862 Clouds 7 981 65 10000 9.8 210 18:18 13.01.2020
863 Clouds 7 980 75 10000 8.2 220 17:42 13.01.2020
864 Clouds 7 980 75 10000 9.3 210 17:24 13.01.2020
865 Clouds 7 980 75 10000 9.3 210 17:24 13.01.2020
866 Clouds 7 980 75 10000 9.8 220 16:57 13.01.2020
867 Rain 7 981 83 0 2.24 231 16:38 13.01.2020
868 Rain 7 981 84 0 2.24 253 16:20 13.01.2020
869 Rain 6 981 88 0 2.24 293 15:44 13.01.2020
870 Rain 6 981 84 0 3.13 209 15:23 13.01.2020
871 Rain 7 981 81 0 4.47 135 14:58 13.01.2020
872 Rain 8 980 82 0 6.26 179 14:38 13.01.2020
873 Rain 8 981 87 0 3.58 74 14:20 13.01.2020
874 Rain 8 982 89 0 4.92 180 13:43 13.01.2020
875 Rain 8 984 86 0 5.81 141 13:25 13.01.2020
876 Rain 8 991 81 10000 11.8 170 12:59 13.01.2020
877 Rain 8 991 81 10000 11.8 170 12:41 13.01.2020
878 Clouds 8 991 81 10000 11.8 170 12:23 13.01.2020
879 Clouds 8 991 81 10000 11.8 170 11:57 13.01.2020
880 Rain 8 992 70 10000 10.3 170 11:37 13.01.2020
881 Rain 8 992 70 10000 10.3 170 11:37 13.01.2020
882 Rain 8 992 70 10000 10.3 170 11:19 13.01.2020
883 Rain 8 993 75 10000 12.9 180 10:56 13.01.2020
884 Rain 8 995 75 10000 9.8 180 10:37 13.01.2020
885 Rain 8 995 75 10000 9.8 180 10:37 13.01.2020
886 Rain 8 995 75 10000 9.8 180 10:19 13.01.2020
887 Clouds 7 998 75 10000 7.2 170 09:43 13.01.2020
888 Clouds 7 998 75 10000 7.2 170 09:24 13.01.2020
889 Rain 7 999 75 10000 8.7 180 08:56 13.01.2020
890 Rain 7 1000 70 10000 7.2 180 08:36 13.01.2020
891 Rain 7 1000 70 10000 7.2 180 08:18 13.01.2020
892 Clouds 7 1002 70 10000 4.6 160 07:42 13.01.2020
893 Clouds 7 1002 70 10000 4.6 160 07:21 13.01.2020
894 Clouds 6 1004 70 10000 5.7 180 06:37 13.01.2020
895 Clouds 6 1006 75 10000 5.1 210 05:37 13.01.2020
896 Clouds 5 1006 75 10000 6.2 210 04:56 13.01.2020
897 Clouds 5 1009 75 10000 5.1 210 03:38 13.01.2020
898 Clouds 5 1009 75 10000 5.1 200 02:49 13.01.2020
899 Clouds 4 1010 80 10000 4.1 200 02:30 13.01.2020
900 Clouds 4 1010 80 10000 4.1 200 02:30 13.01.2020
901 Clouds 4 1011 80 10000 4.1 210 01:33 13.01.2020
902 Clouds 4 1011 80 10000 4.1 190 00:46 13.01.2020
903 Clouds 4 1011 80 10000 4.1 200 00:26 13.01.2020
904 Clouds 4 1012 80 10000 4.1 200 23:58 12.01.2020
905 Clouds 5 1012 80 10000 3.6 210 23:40 12.01.2020
906 Clouds 5 1012 80 10000 3.6 210 23:21 12.01.2020
907 Clouds 5 1013 80 10000 3.6 190 22:56 12.01.2020
908 Clouds 5 1013 86 10000 2.6 200 22:37 12.01.2020
909 Clouds 4 1013 86 10000 2.6 200 22:18 12.01.2020
910 Clouds 5 1013 86 10000 3.6 220 21:42 12.01.2020
911 Rain 5 1014 86 10000 4.1 210 21:20 12.01.2020
912 Clouds 5 1014 93 10000 3.1 200 20:59 12.01.2020
913 Clouds 5 1014 93 10000 3.1 190 20:39 12.01.2020
914 Clouds 5 1014 93 10000 3.1 190 20:21 12.01.2020
915 Clouds 5 1014 93 10000 3.1 200 19:56 12.01.2020
916 Clouds 5 1014 86 10000 3.6 190 19:38 12.01.2020
917 Clouds 5 1014 86 10000 3.6 190 19:38 12.01.2020
918 Clouds 5 1014 86 10000 3.6 190 19:19 12.01.2020
919 Clouds 5 1015 86 10000 3.6 200 18:58 12.01.2020
920 Clouds 5 1015 86 10000 3.1 200 18:40 12.01.2020
921 Clouds 5 1015 86 10000 3.1 200 18:21 12.01.2020
922 Clouds 5 1015 81 10000 3.1 210 17:58 12.01.2020
923 Clouds 5 1015 81 10000 4.1 220 17:38 12.01.2020
924 Clouds 6 1015 81 10000 4.1 220 17:19 12.01.2020
925 Clouds 6 1015 81 10000 3.6 230 16:56 12.01.2020
926 Clouds 6 1015 81 10000 3.6 220 16:37 12.01.2020
927 Clouds 6 1015 81 10000 3.6 220 16:37 12.01.2020
928 Clouds 7 1015 81 10000 3.6 220 16:19 12.01.2020
929 Clouds 7 1015 81 10000 3.6 230 15:42 12.01.2020
930 Clouds 7 1015 81 10000 3.6 230 15:24 12.01.2020
931 Clouds 7 1016 81 10000 4.1 240 14:57 12.01.2020
932 Clouds 7 1016 81 10000 3.6 240 14:38 12.01.2020
933 Clouds 7 1016 81 10000 3.6 240 14:19 12.01.2020
934 Clouds 7 1015 87 10000 4.1 230 13:44 12.01.2020
935 Clouds 7 1015 87 10000 4.1 230 13:44 12.01.2020
936 Clouds 6 1015 87 10000 3.6 250 13:25 12.01.2020
937 Clouds 6 1015 87 10000 4.6 240 12:59 12.01.2020
938 Clouds 6 1015 93 10000 6.7 230 12:39 12.01.2020
939 Clouds 6 1015 93 10000 4.6 250 12:20 12.01.2020
940 Clouds 5 1014 93 10000 6.2 250 11:58 12.01.2020
941 Clouds 5 1014 93 10000 4.6 250 11:39 12.01.2020
942 Clouds 5 1014 93 10000 4.6 250 11:20 12.01.2020
943 Clouds 5 1013 93 10000 5.7 250 10:41 12.01.2020
944 Clouds 4 1013 93 10000 5.7 250 10:22 12.01.2020
945 Clouds 4 1012 93 10000 5.1 250 09:57 12.01.2020
946 Clouds 4 1012 93 10000 4.6 250 09:38 12.01.2020
947 Clouds 4 1012 93 10000 4.6 250 09:19 12.01.2020
948 Clouds 5 1012 86 10000 4.1 250 08:45 12.01.2020
949 Clouds 5 1011 86 10000 3.6 240 08:20 12.01.2020
950 Rain 5 1011 93 10000 3.1 230 07:41 12.01.2020
951 Rain 5 1011 93 10000 4.1 250 07:41 12.01.2020
952 Rain 5 1011 93 10000 3.1 230 07:23 12.01.2020
953 Rain 5 1011 93 10000 4.1 250 06:48 12.01.2020
954 Rain 5 1011 87 10000 3.6 240 06:30 12.01.2020
955 Rain 6 1011 87 10000 3.1 240 05:32 12.01.2020
956 Rain 6 1011 87 10000 3.1 240 05:32 12.01.2020
957 Rain 6 1011 93 10000 1.5 0 04:30 12.01.2020
958 Clouds 6 1011 93 10000 2.6 180 03:25 12.01.2020
959 Clouds 5 1011 93 10000 2.6 220 02:34 12.01.2020
960 Clouds 6 1011 93 10000 2.1 210 01:51 12.01.2020
961 Clouds 6 1011 93 10000 2.1 210 01:29 12.01.2020
962 Clouds 7 1012 93 10000 2.1 210 00:41 12.01.2020
963 Clouds 7 1012 93 10000 2.1 210 00:20 12.01.2020
964 Clouds 7 1012 93 10000 2.1 210 23:42 11.01.2020
965 Clouds 6 1012 87 10000 3.1 230 23:42 11.01.2020
966 Clouds 7 1012 93 10000 2.1 210 23:42 11.01.2020
967 Clouds 7 1012 87 10000 3.1 230 23:20 11.01.2020
968 Clouds 7 1012 87 10000 3.1 240 22:59 11.01.2020
969 Clouds 8 1011 81 10000 4.1 240 22:41 11.01.2020
970 Clouds 8 1011 81 10000 4.1 240 22:20 11.01.2020
971 Clouds 8 1011 87 10000 3.6 240 21:58 11.01.2020
972 Clouds 8 1011 93 10000 4.6 240 21:40 11.01.2020
973 Clouds 8 1011 93 10000 4.6 240 21:18 11.01.2020
974 Rain 8 1011 87 10000 4.1 240 20:41 11.01.2020
975 Rain 9 1011 87 10000 4.1 240 20:22 11.01.2020
976 Rain 9 1011 87 10000 5.1 240 19:58 11.01.2020
977 Clouds 9 1010 93 10000 5.1 240 19:39 11.01.2020
978 Clouds 9 1010 93 10000 5.1 240 19:21 11.01.2020
979 Rain 9 1010 93 10000 5.1 240 18:59 11.01.2020
980 Rain 9 1010 93 10000 5.7 250 18:39 11.01.2020
981 Rain 9 1010 93 10000 5.7 250 18:20 11.01.2020
982 Clouds 9 1010 93 10000 6.2 240 17:57 11.01.2020
983 Rain 9 1009 93 10000 5.7 250 17:39 11.01.2020
984 Rain 9 1009 93 10000 5.7 250 17:19 11.01.2020
985 Rain 9 1009 93 10000 5.7 230 16:45 11.01.2020
986 Rain 9 1009 93 9000 5.7 250 16:27 11.01.2020
987 Rain 9 1010 93 8000 5.1 240 15:59 11.01.2020
988 Rain 9 1009 93 7000 4.6 240 15:40 11.01.2020
989 Rain 9 1009 93 7000 4.6 240 15:22 11.01.2020
990 Drizzle 9 1009 93 4000 5.7 250 14:57 11.01.2020
991 Drizzle 9 1009 93 3500 7.2 260 14:38 11.01.2020
992 Drizzle 9 1009 93 3500 7.2 260 14:20 11.01.2020
993 Drizzle 11 1008 93 4000 10.3 230 13:40 11.01.2020
994 Drizzle 11 1008 93 4000 10.3 230 13:20 11.01.2020
995 Clouds 12 1007 82 10000 11.8 230 12:58 11.01.2020
996 Clouds 12 1007 76 10000 12.3 220 12:39 11.01.2020
997 Clouds 12 1007 76 10000 12.3 220 12:21 11.01.2020
998 Rain 13 1007 76 10000 12.3 220 11:47 11.01.2020
999 Rain 13 1007 76 10000 10.8 220 11:26 11.01.2020
1000 Rain 12 1007 76 10000 10.8 220 10:51 11.01.2020
1001 Rain 12 1007 81 10000 11.3 220 10:30 11.01.2020
1002 Rain 12 1007 81 10000 10.3 220 09:57 11.01.2020
1003 Rain 12 1008 81 10000 11.3 210 09:37 11.01.2020
1004 Rain 12 1008 81 10000 11.3 210 09:37 11.01.2020
1005 Rain 12 1008 81 10000 11.3 210 09:19 11.01.2020
1006 Rain 12 1009 81 10000 10.8 210 08:42 11.01.2020
1007 Clouds 12 1009 81 10000 10.8 210 08:21 11.01.2020
1008 Clouds 12 1009 81 10000 10.8 210 07:44 11.01.2020
1009 Clouds 12 1010 81 10000 9.8 210 07:25 11.01.2020
1010 Clouds 12 1010 81 10000 8.2 200 06:50 11.01.2020
1011 Clouds 11 1011 81 10000 8.2 210 05:40 11.01.2020
1012 Clouds 11 1012 81 10000 10.3 200 04:46 11.01.2020
1013 Clouds 11 1012 81 10000 8.2 200 04:27 11.01.2020
1014 Clouds 10 1012 81 10000 8.7 200 02:49 11.01.2020
1015 Clouds 10 1013 81 10000 9.3 200 02:20 11.01.2020
1016 Clouds 10 1014 87 10000 9.8 200 01:42 11.01.2020
1017 Clouds 10 1014 87 10000 9.8 200 01:18 11.01.2020
1018 Clouds 10 1014 81 10000 10.3 200 00:38 11.01.2020
1019 Clouds 10 1015 81 10000 8.7 210 23:59 10.01.2020
1020 Clouds 10 1015 81 10000 8.7 210 23:40 10.01.2020
1021 Clouds 10 1015 81 10000 10.8 210 23:21 10.01.2020
1022 Clouds 10 1015 81 10000 8.7 210 22:57 10.01.2020
1023 Clouds 10 1015 87 10000 9.8 200 22:39 10.01.2020
1024 Clouds 9 1015 87 10000 9.8 200 22:20 10.01.2020
1025 Clouds 9 1016 87 10000 9.3 200 21:56 10.01.2020
1026 Clouds 9 1016 81 10000 9.3 200 21:36 10.01.2020
1027 Clouds 9 1016 81 10000 9.3 200 21:18 10.01.2020
1028 Clouds 9 1016 81 10000 8.7 200 20:43 10.01.2020
1029 Clouds 9 1016 81 10000 8.7 200 20:43 10.01.2020
1030 Clouds 9 1016 81 10000 8.7 200 20:24 10.01.2020
1031 Rain 8 1017 87 10000 8.7 200 19:56 10.01.2020
1032 Rain 8 1017 81 10000 8.2 200 19:37 10.01.2020
1033 Rain 8 1017 81 10000 8.2 200 19:19 10.01.2020
1034 Rain 8 1017 81 10000 8.2 200 19:19 10.01.2020
1035 Rain 8 1017 81 10000 8.2 190 18:42 10.01.2020
1036 Clouds 8 1018 75 10000 8.2 210 18:19 10.01.2020
1037 Clouds 8 1019 70 10000 8.2 210 17:57 10.01.2020
1038 Clouds 8 1019 70 10000 8.2 210 17:39 10.01.2020
1039 Clouds 8 1019 70 10000 8.2 200 17:20 10.01.2020
1040 Clouds 8 1019 70 10000 8.2 200 16:56 10.01.2020
1041 Clouds 8 1019 70 10000 6.7 190 16:37 10.01.2020
1042 Clouds 8 1019 70 10000 6.7 190 16:19 10.01.2020
1043 Clouds 8 1020 65 10000 6.7 200 15:56 10.01.2020
1044 Clouds 8 1020 65 10000 7.2 200 15:36 10.01.2020
1045 Clouds 8 1020 65 10000 7.2 200 15:18 10.01.2020
1046 Clouds 7 1020 65 10000 6.2 200 14:54 10.01.2020
1047 Clouds 7 1021 61 10000 5.1 200 14:36 10.01.2020
1048 Clouds 7 1021 61 10000 5.1 200 14:18 10.01.2020
1049 Clouds 7 1022 70 10000 5.1 200 13:42 10.01.2020
1050 Clouds 7 1022 70 10000 5.1 200 13:23 10.01.2020
1051 Clouds 6 1022 75 10000 3.6 210 12:58 10.01.2020
1052 Clouds 6 1022 75 10000 3.6 190 12:39 10.01.2020
1053 Clouds 6 1022 75 10000 3.6 190 12:19 10.01.2020
1054 Clouds 5 1022 86 10000 3.1 170 11:55 10.01.2020
1055 Clouds 4 1023 80 10000 3.1 200 11:37 10.01.2020
1056 Clouds 4 1023 80 10000 3.1 200 11:18 10.01.2020
1057 Clouds 4 1023 80 10000 3.1 200 11:18 10.01.2020
1058 Clouds 3 1022 93 10000 3.1 220 10:43 10.01.2020
1059 Clouds 2 1022 93 10000 3.1 220 10:24 10.01.2020
1060 Clouds 2 1022 93 10000 2.1 210 09:59 10.01.2020
1061 Clouds 2 1022 93 10000 2.1 210 09:40 10.01.2020
1062 Clouds 2 1022 93 10000 2.6 230 09:22 10.01.2020
1063 Clouds 2 1021 92 10000 3.1 250 08:43 10.01.2020
1064 Clouds 2 1022 93 10000 3.1 250 08:24 10.01.2020
1065 Clouds 2 1022 91 10000 4.6 260 07:46 10.01.2020
1066 Clouds 2 1021 91 10000 3.6 250 07:28 10.01.2020
1067 Clouds 2 1021 91 10000 4.1 260 06:50 10.01.2020
1068 Clouds 2 1021 93 10000 4.1 250 06:26 10.01.2020
1069 Clouds 2 1020 93 10000 4.1 250 05:51 10.01.2020
1070 Clouds 3 1018 93 10000 4.1 260 03:45 10.01.2020
1071 Clouds 2 1018 100 10000 5.1 260 03:22 10.01.2020
1072 Clouds 3 1017 100 10000 5.7 270 02:50 10.01.2020
1073 Clouds 3 1016 93 10000 6.7 270 01:47 10.01.2020
1074 Clouds 3 1016 93 10000 6.7 270 01:47 10.01.2020
1075 Clouds 3 1015 100 10000 5.1 270 01:28 10.01.2020
1076 Clouds 3 1015 93 10000 4.6 270 00:44 10.01.2020
1077 Clouds 2 1014 100 8000 5.7 270 23:58 09.01.2020
1078 Clouds 1 1014 100 4000 5.7 270 23:39 09.01.2020
1079 Clouds 1 1014 100 4000 5.7 270 23:39 09.01.2020
1080 Clouds 1 1014 100 4000 5.7 270 23:20 09.01.2020
1081 Fog 1 1013 94 800 5.7 280 22:58 09.01.2020
1082 Clouds 1 1012 94 10000 5.1 270 22:39 09.01.2020
1083 Clouds 1 1012 94 10000 5.1 270 22:39 09.01.2020
1084 Clouds 1 1012 94 10000 5.1 270 22:19 09.01.2020
1085 Clouds 1 1012 94 10000 5.1 270 22:19 09.01.2020
1086 Clouds 2 1012 94 10000 4.1 280 21:57 09.01.2020
1087 Clouds 1 1011 94 10000 4.6 290 21:38 09.01.2020
1088 Clouds 2 1011 94 10000 4.6 290 21:19 09.01.2020
1089 Clouds 2 1010 94 10000 5.1 280 20:58 09.01.2020
1090 Clouds 2 1010 94 10000 5.1 280 20:39 09.01.2020
1091 Clouds 2 1010 95 10000 4.6 280 20:20 09.01.2020
1092 Clouds 2 1009 95 10000 4.1 280 19:57 09.01.2020
1093 Clouds 2 1009 95 10000 4.1 280 19:38 09.01.2020
1094 Clouds 2 1009 93 10000 4.1 290 19:19 09.01.2020
1095 Clouds 2 1008 93 10000 4.6 290 18:55 09.01.2020
1096 Clouds 2 1008 93 10000 4.6 290 18:36 09.01.2020
1097 Clouds 3 1008 93 10000 5.1 300 18:18 09.01.2020
1098 Clouds 3 1007 86 10000 5.1 310 17:41 09.01.2020
1099 Clouds 3 1007 93 10000 4.6 310 17:18 09.01.2020
1100 Clouds 4 1006 86 10000 6.2 330 16:49 09.01.2020
1101 Clouds 5 1006 86 10000 4.6 320 16:24 09.01.2020
1102 Clouds 5 1005 81 10000 2.1 330 15:59 09.01.2020
1103 Clouds 5 1004 75 10000 2.1 350 15:40 09.01.2020
1104 Clouds 5 1004 75 10000 2.1 350 15:19 09.01.2020
1105 Clouds 5 1004 80 10000 2.6 320 14:43 09.01.2020
1106 Clouds 5 1004 86 10000 3.1 340 14:22 09.01.2020
1107 Clouds 4 1004 93 10000 3.6 350 13:57 09.01.2020
1108 Clouds 4 1004 93 10000 3.6 350 13:39 09.01.2020
1109 Clouds 4 1005 93 10000 2.6 330 13:20 09.01.2020
1110 Clouds 4 1005 93 10000 2.1 300 12:59 09.01.2020
1111 Clouds 4 1005 93 10000 2.1 300 12:40 09.01.2020
1112 Clouds 4 1005 93 10000 2.1 300 12:40 09.01.2020
1113 Clouds 4 1006 86 10000 2.6 280 12:20 09.01.2020
1114 Clouds 3 1006 93 10000 2.6 260 11:57 09.01.2020
1115 Rain 3 1006 93 10000 2.6 260 11:38 09.01.2020
1116 Rain 3 1005 93 10000 2.6 260 11:20 09.01.2020
1117 Clouds 3 1005 93 10000 3.6 280 10:43 09.01.2020
1118 Clouds 2 1005 93 10000 3.6 280 10:22 09.01.2020
1119 -273 0 0 0 0 0 09:58 09.01.2020
1120 Clouds 2 1004 93 10000 3.6 270 09:38 09.01.2020
1121 Rain 2 1004 93 10000 4.6 300 09:19 09.01.2020
1122 Rain 2 1004 93 8000 5.1 300 08:55 09.01.2020
1123 Rain 2 1004 93 8000 5.1 300 08:37 09.01.2020
1124 Rain 3 1003 93 8000 5.1 310 08:19 09.01.2020
1125 Rain 3 1002 100 8000 4.6 330 07:42 09.01.2020
1126 Rain 3 1002 93 8000 5.1 340 07:23 09.01.2020
1127 Rain 3 1001 93 8000 5.1 350 06:38 09.01.2020
1128 Rain 3 1002 93 8000 5.7 340 06:20 09.01.2020
1129 Rain 3 1001 93 8000 6.7 20 05:48 09.01.2020
1130 Rain 4 1003 93 6000 6.2 10 04:43 09.01.2020
1131 Rain 4 1003 100 6000 8.7 60 03:31 09.01.2020
1132 Rain 4 1005 96 0 1.79 68 02:52 09.01.2020
1133 Rain 4 1007 93 8000 6.7 100 02:24 09.01.2020
1134 Rain 4 1007 93 8000 6.7 100 01:38 09.01.2020
1135 Rain 4 1010 86 10000 3.1 130 00:42 09.01.2020
1136 Rain 4 1010 86 10000 3.1 130 00:42 09.01.2020
1137 Rain 5 1010 86 10000 3.1 130 00:21 09.01.2020
1138 Rain 5 1011 86 10000 4.6 160 23:42 08.01.2020
1139 Rain 5 1011 86 10000 4.6 160 23:42 08.01.2020
1140 Rain 5 1011 93 10000 4.1 90 23:24 08.01.2020
1141 Rain 5 1013 86 10000 2.6 100 22:58 08.01.2020
1142 Rain 5 1013 86 10000 2.6 100 22:38 08.01.2020
1143 Rain 5 1013 86 10000 2.6 100 22:20 08.01.2020
1144 Rain 5 1014 75 10000 2.1 120 21:57 08.01.2020
1145 Rain 6 1014 75 10000 2.1 120 21:38 08.01.2020
1146 Rain 6 1015 75 10000 2.1 140 21:19 08.01.2020
1147 Rain 5 1016 75 10000 1.5 0 20:57 08.01.2020
1148 Rain 5 1016 75 10000 1.5 0 20:38 08.01.2020
1149 Clouds 5 1017 75 10000 2.1 160 20:19 08.01.2020
1150 Clouds 5 1017 81 10000 2.1 140 19:55 08.01.2020
1151 Clouds 5 1017 81 10000 2.1 140 19:55 08.01.2020
1152 Clouds 5 1017 81 10000 2.1 140 19:36 08.01.2020
1153 Clouds 5 1018 81 10000 1 150 19:18 08.01.2020
1154 Clouds 5 1018 81 10000 1.5 140 18:54 08.01.2020
1155 Clouds 5 1018 81 10000 1.5 140 18:54 08.01.2020
1156 Clouds 5 1018 81 10000 1.5 140 18:36 08.01.2020
1157 Clouds 5 1018 80 10000 1 0 18:18 08.01.2020
1158 Clouds 5 1018 80 10000 1 0 18:18 08.01.2020
1159 Clouds 6 1019 81 10000 1.5 0 17:42 08.01.2020
1160 Clouds 6 1019 81 10000 2.6 230 17:23 08.01.2020
1161 Clouds 6 1019 75 10000 2.1 220 16:57 08.01.2020
1162 Clouds 7 1019 75 10000 2.1 220 16:39 08.01.2020
1163 Clouds 7 1020 75 10000 3.1 220 16:19 08.01.2020
1164 Clouds 7 1020 75 10000 3.1 220 16:19 08.01.2020
1165 Clouds 7 1020 75 10000 3.1 230 15:57 08.01.2020
1166 Clouds 7 1020 75 10000 3.1 230 15:39 08.01.2020
1167 Clouds 7 1020 75 10000 2.6 240 15:18 08.01.2020
1168 Clouds 7 1020 75 10000 3.1 240 14:55 08.01.2020
1169 Clouds 7 1020 75 10000 3.1 240 14:36 08.01.2020
1170 Clouds 7 1020 75 10000 4.1 250 14:18 08.01.2020
1171 Clouds 7 1020 70 10000 3.6 240 13:38 08.01.2020
1172 Clouds 7 1020 81 10000 3.6 230 13:18 08.01.2020
1173 Clouds 7 1020 81 10000 3.1 230 12:40 08.01.2020
1174 Rain 7 1021 81 10000 2.6 240 12:18 08.01.2020
1175 Rain 7 1020 75 8000 5.1 240 11:49 08.01.2020
1176 Clouds 7 1020 81 10000 3.6 240 11:20 08.01.2020
1177 Clouds 7 1020 81 10000 4.1 220 10:59 08.01.2020
1178 Clouds 7 1020 81 10000 4.1 220 10:41 08.01.2020
1179 Clouds 7 1020 81 10000 4.1 230 10:22 08.01.2020
1180 Clouds 7 1019 81 10000 4.6 230 09:58 08.01.2020
1181 Clouds 7 1019 81 10000 4.6 230 09:38 08.01.2020
1182 Clouds 7 1019 81 10000 3.6 230 09:18 08.01.2020
1183 Clouds 7 1019 81 10000 3.1 240 08:42 08.01.2020
1184 Clouds 7 1018 75 10000 3.6 240 08:23 08.01.2020
1185 Clouds 7 1018 75 10000 3.6 240 07:59 08.01.2020
1186 Clouds 7 1018 75 10000 3.6 240 07:59 08.01.2020
1187 Clouds 7 1018 75 10000 3.6 240 07:59 08.01.2020
1188 Clouds 7 1018 75 10000 3.6 240 07:41 08.01.2020
1189 Clouds 7 1018 75 10000 4.6 240 07:20 08.01.2020
1190 Clouds 8 1017 70 10000 4.1 240 06:42 08.01.2020
1191 Clouds 7 1017 75 10000 4.1 240 05:57 08.01.2020
1192 Clouds 8 1016 75 10000 4.6 250 05:27 08.01.2020
1193 Clouds 8 1016 75 10000 5.1 260 04:37 08.01.2020
1194 Clouds 9 1014 76 10000 8.7 270 02:48 08.01.2020
1195 Clouds 9 1014 76 10000 8.7 270 02:30 08.01.2020
1196 Clouds 10 1012 76 10000 9.3 260 01:58 08.01.2020
1197 Clouds 10 1012 76 10000 9.3 260 01:32 08.01.2020
1198 Clouds 11 1011 76 10000 10.3 260 00:51 08.01.2020
1199 Rain 11 1010 71 10000 9.8 260 00:23 08.01.2020
1200 Clouds 11 1010 71 10000 9.8 250 23:46 07.01.2020
1201 Clouds 11 1009 71 10000 9.3 250 23:21 07.01.2020
1202 Clouds 11 1009 71 10000 9.3 250 22:56 07.01.2020
1203 Clouds 11 1009 71 10000 9.3 250 22:37 07.01.2020
1204 Clouds 11 1008 76 10000 10.3 260 22:18 07.01.2020
1205 Clouds 12 1008 66 10000 11.3 260 21:42 07.01.2020
1206 Clouds 12 1007 71 10000 11.8 260 21:22 07.01.2020
1207 Clouds 12 1007 66 10000 11.3 250 20:58 07.01.2020
1208 Clouds 13 1007 66 10000 11.3 250 20:40 07.01.2020
1209 Clouds 13 1006 71 10000 9.8 250 20:21 07.01.2020
1210 Clouds 13 1006 76 10000 7.7 250 19:57 07.01.2020
1211 Clouds 14 1006 76 10000 7.7 250 19:37 07.01.2020
1212 Clouds 13 1005 82 10000 8.2 250 19:19 07.01.2020
1213 Clouds 13 1005 87 10000 8.7 240 18:56 07.01.2020
1214 Clouds 13 1005 87 10000 8.7 240 18:38 07.01.2020
1215 Clouds 13 1005 87 10000 8.7 240 18:18 07.01.2020
1216 Clouds 13 1004 87 10000 9.3 230 17:54 07.01.2020
1217 Clouds 13 1004 87 10000 9.3 230 17:36 07.01.2020
1218 Rain 13 1005 87 10000 7.7 240 17:18 07.01.2020
1219 Rain 13 1005 87 10000 7.7 230 16:54 07.01.2020
1220 Rain 13 1005 87 10000 7.7 230 16:36 07.01.2020
1221 Rain 13 1004 87 10000 10.8 220 16:18 07.01.2020
1222 Rain 14 1005 82 10000 8.7 230 15:42 07.01.2020
1223 Rain 14 1005 82 10000 8.7 230 15:23 07.01.2020
1224 Clouds 14 1005 82 10000 9.3 220 14:58 07.01.2020
1225 Clouds 14 1005 82 10000 9.3 220 14:38 07.01.2020
1226 Clouds 13 1006 87 10000 8.2 210 14:19 07.01.2020
1227 Clouds 13 1006 87 10000 8.2 210 14:19 07.01.2020
1228 Rain 13 1007 93 10000 9.8 210 13:44 07.01.2020
1229 Clouds 13 1008 82 10000 8.2 210 13:20 07.01.2020
1230 Clouds 12 1008 87 10000 8.2 200 12:55 07.01.2020
1231 Clouds 12 1008 87 10000 8.2 200 12:36 07.01.2020
1232 Clouds 12 1008 82 10000 7.2 210 12:18 07.01.2020
1233 Clouds 12 1009 82 10000 7.2 210 11:41 07.01.2020
1234 Clouds 13 1009 82 10000 6.7 210 11:22 07.01.2020
1235 Clouds 13 1010 82 10000 6.2 200 10:55 07.01.2020
1236 Clouds 13 1010 82 10000 6.2 200 10:37 07.01.2020
1237 Clouds 12 1010 87 10000 5.7 190 10:19 07.01.2020
1238 Clouds 11 1010 87 10000 6.2 190 09:38 07.01.2020
1239 Clouds 11 1010 87 10000 9.3 200 09:20 07.01.2020
1240 Rain 11 1010 87 10000 7.2 210 08:47 07.01.2020
1241 Clouds 11 1011 76 10000 8.7 210 08:28 07.01.2020
1242 Clouds 10 1011 76 10000 6.7 200 07:55 07.01.2020
1243 Clouds 11 1011 76 10000 6.7 200 07:34 07.01.2020
1244 Clouds 10 1012 71 10000 5.7 200 06:54 07.01.2020
1245 Clouds 10 1012 71 10000 5.7 200 06:35 07.01.2020
1246 Clouds 9 1013 71 10000 6.2 200 05:58 07.01.2020
1247 Clouds 9 1013 71 10000 6.2 200 05:39 07.01.2020
1248 Clouds 8 1015 75 10000 5.7 200 03:44 07.01.2020
1249 Clouds 7 1016 75 10000 4.1 200 02:38 07.01.2020
1250 Clouds 7 1016 75 10000 3.6 210 01:59 07.01.2020
1251 Clouds 7 1016 81 10000 4.1 210 01:35 07.01.2020
1252 Clouds 6 1017 87 10000 4.1 210 00:51 07.01.2020
1253 Clouds 6 1018 81 10000 3.6 220 00:20 07.01.2020
1254 Clouds 6 1017 81 10000 3.6 220 23:56 06.01.2020
1255 Clouds 6 1017 81 10000 3.6 220 23:37 06.01.2020
1256 Clouds 6 1018 81 10000 4.1 230 23:18 06.01.2020
1257 Clouds 6 1017 81 10000 3.6 230 22:43 06.01.2020
1258 Clouds 6 1016 81 10000 4.1 230 22:24 06.01.2020
1259 Clouds 6 1016 81 10000 4.1 220 21:58 06.01.2020
1260 Clouds 6 1016 81 10000 4.1 220 21:39 06.01.2020
1261 Clouds 5 1016 81 10000 3.6 230 21:20 06.01.2020
1262 Clouds 5 1016 81 10000 3.6 230 21:20 06.01.2020
1263 Clouds 5 1016 81 10000 3.6 230 21:20 06.01.2020
1264 Clouds 6 1016 81 10000 4.1 240 20:57 06.01.2020
1265 Clouds 6 1016 81 10000 4.1 240 20:38 06.01.2020
1266 Clouds 6 1016 81 10000 3.6 240 20:20 06.01.2020
1267 Clouds 6 1015 81 10000 4.1 240 19:56 06.01.2020
1268 Clouds 7 1015 81 10000 4.1 240 19:38 06.01.2020
1269 Clouds 7 1014 81 10000 5.1 250 19:19 06.01.2020
1270 Clouds 7 1014 81 10000 5.1 250 18:47 06.01.2020
1271 Clouds 7 1014 81 10000 5.1 250 18:47 06.01.2020
1272 Clouds 8 1013 81 10000 6.7 250 18:21 06.01.2020
1273 Clouds 8 1012 75 10000 7.7 260 17:58 06.01.2020
1274 Clouds 8 1012 75 10000 7.7 260 17:37 06.01.2020
1275 Clouds 8 1012 76 10000 6.2 260 17:18 06.01.2020
1276 Clouds 9 1011 76 10000 7.7 250 16:44 06.01.2020
1277 Clouds 9 1010 76 10000 7.2 260 16:25 06.01.2020
1278 Clouds 9 1010 76 10000 8.2 260 15:59 06.01.2020
1279 Clouds 9 1010 76 10000 8.2 260 15:38 06.01.2020
1280 Clouds 9 1009 71 10000 8.7 250 15:18 06.01.2020
1281 Clouds 10 1008 71 10000 9.3 260 14:56 06.01.2020
1282 Clouds 10 1008 71 10000 9.3 260 14:37 06.01.2020
1283 Clouds 10 1007 81 10000 7.7 260 14:18 06.01.2020
1284 Clouds 10 1006 81 10000 8.7 260 13:41 06.01.2020
1285 Rain 10 1006 87 10000 8.2 260 13:22 06.01.2020
1286 Drizzle 10 1006 87 9000 7.7 240 12:59 06.01.2020
1287 Drizzle 10 1006 87 9000 7.7 240 12:41 06.01.2020
1288 Rain 10 1005 87 10000 7.7 210 12:20 06.01.2020
1289 Rain 10 1005 87 10000 6.2 200 11:55 06.01.2020
1290 Rain 9 1005 87 10000 6.2 200 11:37 06.01.2020
1291 Rain 9 1006 93 9000 7.2 200 11:18 06.01.2020
1292 Rain 9 1006 87 9000 7.2 190 10:41 06.01.2020
1293 Rain 9 1007 87 9000 7.7 180 10:21 06.01.2020
1294 Rain 9 1007 87 9000 7.7 180 10:21 06.01.2020
1295 Rain 9 1007 87 9000 6.7 180 09:42 06.01.2020
1296 Clouds 9 1008 76 10000 7.7 170 09:24 06.01.2020
1297 Clouds 9 1009 71 10000 7.7 170 08:57 06.01.2020
1298 Clouds 9 1009 71 10000 7.7 170 08:38 06.01.2020
1299 Clouds 9 1009 71 10000 7.7 170 08:38 06.01.2020
1300 Clouds 9 1009 66 10000 10.3 170 07:58 06.01.2020
1301 Clouds 9 1009 66 10000 10.3 170 07:39 06.01.2020
1302 Clouds 9 1011 76 10000 11.8 200 06:53 06.01.2020
1303 Clouds 9 1011 76 10000 11.8 200 06:35 06.01.2020
1304 Rain 9 1012 76 10000 10.8 200 05:48 06.01.2020
1305 Clouds 9 1013 70 10000 9.8 200 05:23 06.01.2020
1306 Rain 8 1015 76 10000 4.6 190 04:23 06.01.2020
1307 Clouds 8 1015 76 10000 6.7 200 03:30 06.01.2020
1308 Clouds 8 1017 76 10000 7.2 200 02:27 06.01.2020
1309 Clouds 8 1018 70 10000 8.7 210 01:53 06.01.2020
1310 Clouds 8 1018 70 10000 8.7 210 01:30 06.01.2020
1311 Clouds 8 1019 70 10000 5.7 210 00:45 06.01.2020
1312 Clouds 8 1019 70 10000 3.6 190 00:26 06.01.2020
1313 Clouds 8 1020 70 10000 5.7 210 23:57 05.01.2020
1314 Clouds 8 1020 70 10000 5.7 210 23:38 05.01.2020
1315 Clouds 8 1021 75 10000 4.1 200 23:19 05.01.2020
1316 Clouds 9 1021 70 10000 6.2 220 22:40 05.01.2020
1317 Clouds 9 1021 81 10000 5.7 200 22:20 05.01.2020
1318 Clouds 9 1021 81 10000 5.7 200 22:20 05.01.2020
1319 Clouds 9 1022 81 10000 5.7 210 21:57 05.01.2020
1320 Clouds 9 1022 81 10000 5.7 210 21:39 05.01.2020
1321 Clouds 9 1023 81 10000 6.7 200 21:20 05.01.2020
1322 Clouds 9 1023 81 10000 5.1 200 20:56 05.01.2020
1323 Clouds 9 1023 81 10000 5.1 200 20:38 05.01.2020
1324 Clouds 9 1023 81 10000 6.7 200 20:19 05.01.2020
1325 Clouds 9 1023 81 10000 6.7 200 20:19 05.01.2020
1326 Clouds 9 1023 87 10000 7.2 210 19:58 05.01.2020
1327 Clouds 9 1024 87 10000 5.1 220 19:38 05.01.2020
1328 Clouds 9 1024 87 10000 5.1 220 19:19 05.01.2020
1329 Clouds 10 1024 81 10000 6.2 210 18:55 05.01.2020
1330 Clouds 10 1024 81 10000 6.2 210 18:37 05.01.2020
1331 Clouds 10 1024 81 10000 6.2 210 18:37 05.01.2020
1332 Clouds 10 1024 81 10000 6.2 210 18:19 05.01.2020
1333 Clouds 10 1024 81 10000 6.2 210 17:57 05.01.2020
1334 Clouds 10 1024 81 10000 6.2 210 17:38 05.01.2020
1335 Clouds 10 1024 81 10000 6.2 210 17:19 05.01.2020
1336 Clouds 10 1024 81 10000 6.2 220 16:55 05.01.2020
1337 Clouds 10 1024 81 10000 6.2 220 16:37 05.01.2020
1338 Clouds 10 1025 81 10000 5.7 220 16:19 05.01.2020
1339 Clouds 11 1025 81 10000 6.7 210 15:37 05.01.2020
1340 Clouds 10 1025 81 10000 5.1 210 15:18 05.01.2020
1341 Clouds 10 1025 81 10000 6.2 210 14:55 05.01.2020
1342 Clouds 10 1025 81 10000 6.2 210 14:37 05.01.2020
1343 Clouds 10 1025 87 10000 6.2 210 14:18 05.01.2020
1344 Rain 10 1025 87 10000 6.2 210 13:40 05.01.2020
1345 Rain 10 1025 87 10000 6.2 210 13:40 05.01.2020
1346 Rain 10 1026 87 10000 4.6 220 13:21 05.01.2020
1347 Rain 10 1026 87 10000 5.7 230 12:58 05.01.2020
1348 Rain 10 1026 87 10000 5.7 230 12:39 05.01.2020
1349 Clouds 10 1026 81 10000 4.6 210 12:21 05.01.2020
1350 Clouds 10 1027 81 10000 4.6 210 11:59 05.01.2020
1351 Clouds 10 1027 81 10000 4.6 210 11:40 05.01.2020
1352 Clouds 10 1027 81 10000 4.6 210 11:40 05.01.2020
1353 Clouds 9 1027 87 10000 4.1 210 11:19 05.01.2020
1354 Clouds 9 1027 87 10000 4.1 210 11:19 05.01.2020
1355 Drizzle 9 1027 87 10000 3.6 210 10:56 05.01.2020
1356 Drizzle 9 1027 87 10000 3.6 210 10:36 05.01.2020
1357 Clouds 9 1027 87 10000 4.1 210 10:18 05.01.2020
1358 Clouds 9 1027 81 10000 4.6 200 09:41 05.01.2020
1359 Clouds 8 1027 87 10000 3.6 200 09:21 05.01.2020
1360 Clouds 8 1027 87 10000 4.6 210 08:46 05.01.2020
1361 Clouds 8 1027 87 10000 3.6 200 08:27 05.01.2020
1362 Clouds 8 1027 87 10000 2.6 210 07:55 05.01.2020
1363 Clouds 8 1027 87 10000 2.6 210 07:36 05.01.2020
1364 Clouds 8 1027 87 10000 4.6 210 06:59 05.01.2020
1365 Clouds 8 1028 87 10000 4.6 210 05:58 05.01.2020
1366 Clouds 8 1028 87 10000 4.6 210 05:30 05.01.2020
1367 Clouds 8 1028 87 10000 4.1 220 04:43 05.01.2020
1368 Clouds 8 1029 87 10000 4.6 220 03:47 05.01.2020
1369 Clouds 8 1029 87 10000 4.1 210 02:45 05.01.2020
1370 Clouds 8 1030 93 10000 4.1 220 02:20 05.01.2020
1371 Clouds 8 1030 93 10000 3.6 200 01:46 05.01.2020
1372 Clouds 8 1030 87 10000 4.1 210 01:18 05.01.2020
1373 Clouds 8 1030 81 10000 3.1 210 00:41 05.01.2020
1374 Clouds 8 1030 87 10000 5.1 220 00:22 05.01.2020
1375 Clouds 8 1030 87 10000 5.1 220 23:59 04.01.2020
1376 Clouds 8 1030 87 10000 4.6 210 23:39 04.01.2020
1377 Clouds 8 1031 81 10000 3.6 210 23:19 04.01.2020
1378 Clouds 8 1031 81 10000 3.6 200 22:39 04.01.2020
1379 Clouds 8 1031 81 10000 3.6 180 22:21 04.01.2020
1380 Clouds 8 1031 81 10000 3.1 200 21:57 04.01.2020
1381 Clouds 8 1031 81 10000 3.1 200 21:38 04.01.2020
1382 Clouds 7 1031 87 10000 3.6 190 21:19 04.01.2020
1383 Clouds 7 1031 87 10000 2.6 200 20:57 04.01.2020
1384 Clouds 7 1031 87 10000 2.6 200 20:38 04.01.2020
1385 Clouds 7 1031 87 10000 3.6 220 20:20 04.01.2020
1386 Clouds 7 1031 81 10000 4.1 210 19:42 04.01.2020
1387 Clouds 7 1031 81 10000 4.1 210 19:42 04.01.2020
1388 Clouds 7 1032 87 10000 4.6 220 19:24 04.01.2020
1389 Clouds 8 1032 87 10000 4.6 210 18:59 04.01.2020
1390 Clouds 8 1032 87 10000 4.6 210 18:40 04.01.2020
1391 Clouds 8 1032 87 10000 4.1 220 18:22 04.01.2020
1392 Clouds 8 1032 87 10000 4.1 210 17:59 04.01.2020
1393 Clouds 8 1032 87 10000 4.1 210 17:40 04.01.2020
1394 Clouds 8 1031 87 10000 3.6 220 17:22 04.01.2020
1395 Clouds 8 1032 87 10000 3.6 230 16:54 04.01.2020
1396 Clouds 8 1032 87 10000 3.1 240 16:36 04.01.2020
1397 Clouds 8 1032 87 10000 3.1 240 16:18 04.01.2020
1398 Clouds 8 1032 87 10000 4.6 240 15:42 04.01.2020
1399 Clouds 8 1032 87 10000 4.6 240 15:42 04.01.2020
1400 Clouds 8 1032 87 10000 4.1 240 15:20 04.01.2020
1401 Clouds 8 1032 87 10000 4.1 230 14:58 04.01.2020
1402 Clouds 8 1032 87 10000 4.1 230 14:58 04.01.2020
1403 Clouds 8 1032 87 10000 4.1 230 14:40 04.01.2020
1404 Clouds 8 1032 87 10000 4.6 230 14:20 04.01.2020
1405 Drizzle 8 1032 87 10000 4.6 230 13:56 04.01.2020
1406 Drizzle 8 1032 87 10000 4.6 230 13:37 04.01.2020
1407 Drizzle 8 1032 87 10000 4.6 230 13:37 04.01.2020
1408 Clouds 8 1033 93 10000 4.1 230 13:18 04.01.2020
1409 Clouds 7 1033 93 10000 3.6 220 12:42 04.01.2020
1410 Clouds 7 1033 93 10000 2.6 230 12:20 04.01.2020
1411 Clouds 7 1033 93 10000 2.6 230 11:59 04.01.2020
1412 Clouds 7 1033 93 10000 3.6 230 11:40 04.01.2020
1413 Clouds 6 1033 93 10000 3.1 230 11:19 04.01.2020
1414 Drizzle 6 1033 93 3500 3.1 230 10:55 04.01.2020
1415 Drizzle 6 1033 93 3500 3.1 230 10:55 04.01.2020
1416 Drizzle 6 1033 93 3500 3.1 230 10:37 04.01.2020
1417 Clouds 6 1032 93 10000 3.1 240 10:19 04.01.2020
1418 Clouds 6 1032 93 10000 3.6 240 09:42 04.01.2020
1419 Clouds 6 1032 87 10000 4.1 250 09:23 04.01.2020
1420 Clouds 6 1032 87 10000 4.6 250 08:42 04.01.2020
1421 Clouds 6 1032 87 10000 4.1 250 08:21 04.01.2020
1422 Clouds 6 1031 87 10000 4.6 250 07:44 04.01.2020
1423 Clouds 6 1031 87 10000 5.1 240 07:26 04.01.2020
1424 Clouds 6 1031 87 10000 4.6 250 06:36 04.01.2020
1425 Clouds 6 1031 87 10000 4.6 250 05:45 04.01.2020
1426 Clouds 5 1031 93 10000 4.6 240 04:44 04.01.2020
1427 Drizzle 6 1031 93 10000 4.1 240 04:26 04.01.2020
1428 Clouds 6 1032 87 10000 3.6 240 03:19 04.01.2020
1429 Clouds 6 1031 87 10000 4.6 240 02:23 04.01.2020
1430 Clouds 6 1031 87 10000 4.6 240 02:23 04.01.2020
1431 Clouds 6 1031 87 10000 4.6 240 01:57 04.01.2020
1432 Clouds 6 1031 87 10000 4.6 240 01:32 04.01.2020
1433 Clouds 6 1031 87 10000 4.1 240 00:50 04.01.2020
1434 Clouds 6 1031 87 10000 3.6 240 00:28 04.01.2020
1435 Clouds 6 1031 87 10000 3.6 250 23:52 03.01.2020
1436 Clouds 6 1031 87 10000 4.1 250 23:27 03.01.2020
1437 Clouds 5 1031 87 10000 4.6 250 22:55 03.01.2020
1438 Clouds 5 1031 87 10000 4.6 250 22:55 03.01.2020
1439 Clouds 6 1031 87 10000 4.6 250 22:36 03.01.2020
1440 Clouds 5 1030 93 10000 4.6 250 22:18 03.01.2020
1441 Clouds 6 1030 87 10000 4.1 240 21:55 03.01.2020
1442 Clouds 5 1030 87 10000 4.1 240 21:37 03.01.2020
1443 Clouds 5 1030 93 10000 4.1 250 21:18 03.01.2020
1444 Clouds 5 1030 93 10000 5.1 250 20:43 03.01.2020
1445 Clouds 6 1030 87 10000 4.6 250 20:19 03.01.2020
1446 Clouds 6 1029 81 10000 5.1 250 19:59 03.01.2020
1447 Clouds 5 1029 81 10000 5.1 250 19:40 03.01.2020
1448 Clouds 6 1029 81 10000 4.1 250 19:22 03.01.2020
1449 Clouds 6 1029 81 10000 4.6 250 18:46 03.01.2020
1450 Clouds 6 1029 81 10000 5.1 250 18:26 03.01.2020
1451 Clouds 6 1029 81 10000 5.1 250 18:26 03.01.2020
1452 Clouds 6 1029 81 10000 5.7 260 17:57 03.01.2020
1453 Clouds 6 1029 81 10000 5.7 260 17:39 03.01.2020
1454 Clouds 6 1029 81 10000 6.7 270 17:19 03.01.2020
1455 Clouds 7 1028 75 10000 5.1 260 16:43 03.01.2020
1456 Clouds 7 1028 75 10000 5.7 270 16:24 03.01.2020
1457 Clouds 7 1028 75 10000 5.7 270 15:58 03.01.2020
1458 Clouds 7 1027 75 10000 5.7 270 15:40 03.01.2020
1459 Clouds 7 1027 75 10000 6.2 270 15:18 03.01.2020
1460 Clouds 7 1026 70 10000 6.2 270 14:39 03.01.2020
1461 Clouds 7 1026 75 10000 7.7 270 14:20 03.01.2020
1462 Clouds 6 1026 75 10000 5.7 270 13:56 03.01.2020
1463 Clouds 6 1026 75 10000 5.7 270 13:37 03.01.2020
1464 Clouds 6 1026 81 10000 5.7 270 13:19 03.01.2020
1465 Clouds 5 1026 80 10000 6.2 270 12:40 03.01.2020
1466 Clouds 5 1026 80 10000 6.2 270 12:21 03.01.2020
1467 Clouds 5 1025 86 10000 5.1 260 11:49 03.01.2020
1468 Clouds 4 1025 86 10000 5.7 270 11:30 03.01.2020
1469 Clouds 4 1024 86 10000 6.2 270 10:48 03.01.2020
1470 Clouds 4 1024 86 10000 6.2 270 10:28 03.01.2020
1471 Clouds 4 1022 86 10000 6.2 280 09:59 03.01.2020
1472 Clouds 4 1022 86 10000 6.2 280 09:41 03.01.2020
1473 Clouds 4 1022 86 10000 5.1 270 09:22 03.01.2020
1474 Clouds 4 1021 86 10000 4.6 270 08:57 03.01.2020
1475 Clouds 4 1021 86 10000 4.6 270 08:39 03.01.2020
1476 Clouds 4 1021 86 10000 5.1 270 08:20 03.01.2020
1477 Clouds 5 1020 86 10000 6.7 280 07:41 03.01.2020
1478 Clouds 5 1019 80 10000 6.7 290 07:19 03.01.2020
1479 Clouds 4 1018 93 10000 5.1 280 06:54 03.01.2020
1480 Clouds 5 1017 86 10000 5.1 280 06:35 03.01.2020
1481 Clouds 5 1017 86 10000 5.7 290 05:48 03.01.2020
1482 Clouds 5 1015 80 10000 6.2 300 04:31 03.01.2020
1483 Clouds 6 1014 86 10000 6.7 310 03:34 03.01.2020
1484 Clouds 6 1012 81 10000 6.7 330 02:47 03.01.2020
1485 Clouds 7 1010 93 10000 8.7 340 01:47 03.01.2020
1486 Drizzle 9 1008 100 7000 4.6 250 00:57 03.01.2020
1487 Drizzle 9 1008 100 7000 4.6 250 00:33 03.01.2020
1488 Drizzle 10 1007 93 10000 4.1 240 23:58 02.01.2020
1489 Drizzle 10 1007 93 10000 4.1 240 23:39 02.01.2020
1490 Rain 10 1007 93 5000 4.1 240 23:19 02.01.2020
1491 Rain 10 1006 93 7000 4.6 230 22:58 02.01.2020
1492 Rain 10 1007 93 5000 4.1 240 22:58 02.01.2020
1493 Rain 10 1006 93 7000 4.6 230 22:39 02.01.2020
1494 Clouds 10 1006 87 10000 5.1 230 22:19 02.01.2020
1495 Clouds 10 1006 87 10000 4.6 230 21:54 02.01.2020
1496 Clouds 10 1006 87 10000 4.6 230 21:36 02.01.2020
1497 Rain 10 1005 87 10000 4.6 230 21:18 02.01.2020
1498 Rain 10 1005 87 10000 5.7 230 20:40 02.01.2020
1499 Rain 10 1005 87 10000 4.1 240 20:21 02.01.2020
1500 Rain 11 1005 87 7000 5.1 230 19:56 02.01.2020
1501 Rain 11 1005 87 7000 5.1 230 19:56 02.01.2020
1502 Rain 11 1005 87 7000 5.1 230 19:38 02.01.2020
1503 Clouds 11 1004 81 10000 6.7 210 19:19 02.01.2020
1504 Clouds 11 1004 81 10000 6.7 210 18:59 02.01.2020
1505 Clouds 11 1004 81 10000 6.2 200 18:40 02.01.2020
1506 Clouds 11 1004 81 10000 5.7 210 18:22 02.01.2020
1507 Clouds 11 1004 81 10000 5.7 210 18:22 02.01.2020
1508 Clouds 11 1004 81 10000 6.2 210 17:57 02.01.2020
1509 Clouds 11 1004 81 10000 6.2 210 17:38 02.01.2020
1510 Clouds 11 1004 81 10000 6.2 220 17:19 02.01.2020
1511 Clouds 11 1004 87 10000 7.2 210 16:57 02.01.2020
1512 Clouds 11 1004 87 10000 7.2 210 16:38 02.01.2020
1513 Clouds 11 1004 87 10000 7.2 210 16:38 02.01.2020
1514 Clouds 11 1004 87 10000 6.2 210 16:20 02.01.2020
1515 Rain 11 1004 87 10000 7.2 200 15:56 02.01.2020
1516 Rain 11 1005 87 10000 6.7 200 15:37 02.01.2020
1517 Rain 11 1005 87 10000 6.7 200 15:19 02.01.2020
1518 Rain 11 1006 87 8000 4.6 190 14:54 02.01.2020
1519 Rain 11 1006 87 8000 4.6 190 14:36 02.01.2020
1520 Rain 11 1006 93 8000 6.7 190 14:18 02.01.2020
1521 Rain 11 1007 87 8000 6.7 190 13:47 02.01.2020
1522 Rain 11 1008 87 10000 6.2 180 13:29 02.01.2020
1523 Rain 11 1008 81 10000 4.6 180 12:44 02.01.2020
1524 Clouds 10 1009 81 10000 8.7 200 12:24 02.01.2020
1525 Clouds 10 1009 81 10000 8.7 200 12:24 02.01.2020
1526 Clouds 10 1009 81 10000 8.7 200 11:43 02.01.2020
1527 Clouds 10 1009 76 10000 6.2 190 11:24 02.01.2020
1528 Clouds 10 1009 81 10000 7.2 190 10:56 02.01.2020
1529 Clouds 10 1009 81 10000 7.2 190 10:37 02.01.2020
1530 Clouds 10 1010 81 10000 8.7 190 10:18 02.01.2020
1531 Clouds 10 1010 81 10000 7.2 220 09:41 02.01.2020
1532 Clouds 9 1010 81 10000 8.2 200 09:22 02.01.2020
1533 Clouds 9 1011 81 10000 8.2 210 08:44 02.01.2020
1534 Clouds 9 1011 81 10000 8.7 210 08:25 02.01.2020
1535 Clouds 8 1012 81 10000 2.6 190 07:48 02.01.2020
1536 Clouds 8 1012 81 10000 2.1 180 07:28 02.01.2020
1537 Clouds 8 1012 81 10000 2.6 240 06:43 02.01.2020
1538 Clouds 8 1013 81 10000 1.5 0 05:58 02.01.2020
1539 Clouds 8 1014 75 10000 2.1 180 04:38 02.01.2020
1540 Clouds 7 1015 81 10000 2.6 180 04:19 02.01.2020
1541 Clouds 8 1016 75 10000 3.1 210 02:25 02.01.2020
1542 Clouds 8 1016 75 10000 2.6 180 01:57 02.01.2020
1543 Clouds 8 1017 75 10000 3.6 200 01:30 02.01.2020
1544 Clouds 7 1018 81 10000 1.5 0 00:52 02.01.2020
1545 Clouds 7 1018 81 10000 1.5 0 00:28 02.01.2020
1546 Clouds 7 1018 86 10000 1 310 23:47 01.01.2020
1547 Clouds 6 1019 93 10000 0.5 360 23:24 01.01.2020
1548 Clouds 6 1019 93 10000 1.5 80 22:39 01.01.2020
1549 Clouds 5 1020 93 10000 1 0 22:21 01.01.2020
1550 Clouds 6 1020 93 10000 1 0 21:59 01.01.2020
1551 Clouds 6 1020 93 10000 1 0 21:41 01.01.2020
1552 Clouds 5 1020 93 10000 1 0 21:21 01.01.2020
1553 Clouds 5 1020 93 10000 1 0 20:58 01.01.2020
1554 Clouds 5 1021 93 10000 1 0 20:39 01.01.2020
1555 Clouds 5 1021 93 10000 1 0 20:20 01.01.2020
1556 Clouds 6 1022 80 10000 2.1 180 19:57 01.01.2020
1557 Clouds 6 1022 80 10000 2.1 180 19:39 01.01.2020
1558 Clouds 5 1022 80 10000 2.1 140 19:20 01.01.2020
1559 Clouds 6 1022 75 10000 2.1 150 18:57 01.01.2020
1560 Clouds 5 1022 75 10000 2.1 150 18:38 01.01.2020
1561 Clouds 6 1023 81 10000 2.6 170 18:20 01.01.2020
1562 Clouds 6 1023 75 10000 4.1 190 17:58 01.01.2020
1563 Clouds 6 1023 75 10000 4.1 190 17:40 01.01.2020
1564 Clouds 7 1023 75 10000 4.1 180 17:19 01.01.2020
1565 Clouds 7 1024 75 10000 4.1 220 16:57 01.01.2020
1566 Clouds 7 1024 75 10000 4.1 220 16:38 01.01.2020
1567 Clouds 7 1024 70 10000 4.1 210 16:19 01.01.2020
1568 Clouds 7 1024 70 10000 3.1 210 15:56 01.01.2020
1569 Clouds 7 1024 70 10000 3.1 210 15:37 01.01.2020
1570 Clouds 7 1024 81 10000 2.6 210 15:19 01.01.2020
1571 Clouds 7 1025 81 10000 3.6 220 14:42 01.01.2020
1572 Clouds 7 1025 75 10000 4.1 220 14:24 01.01.2020
1573 Clouds 7 1026 75 10000 1.5 0 13:57 01.01.2020
1574 Clouds 7 1026 75 10000 1.5 0 13:38 01.01.2020
1575 Clouds 7 1026 75 10000 1.5 0 13:20 01.01.2020
1576 Clouds 6 1026 81 10000 2.1 180 12:58 01.01.2020
1577 Clouds 6 1026 81 10000 2.1 180 12:40 01.01.2020
1578 Clouds 5 1026 81 10000 1.5 0 12:19 01.01.2020
1579 Clouds 5 1026 81 10000 1.5 0 12:19 01.01.2020
1580 Clouds 4 1027 86 10000 1.5 0 11:56 01.01.2020
1581 Clouds 4 1027 86 10000 1.5 0 11:38 01.01.2020
1582 Clouds 3 1027 93 10000 1.5 0 11:19 01.01.2020
1583 Clouds 2 1027 93 9000 1.5 160 10:54 01.01.2020
1584 Clouds 2 1027 93 9000 1.5 160 10:36 01.01.2020
1585 Clouds 2 1027 93 8000 1.5 0 10:18 01.01.2020
1586 Clouds 2 1027 93 8000 2.1 240 09:39 01.01.2020
1587 Clouds 2 1027 93 10000 2.1 240 09:20 01.01.2020
1588 Clouds 1 1028 95 10000 2.6 260 08:57 01.01.2020
1589 Clouds 2 1028 95 10000 2.6 260 08:37 01.01.2020
1590 Clouds 2 1028 95 10000 2.6 260 08:37 01.01.2020
1591 Clouds 2 1027 92 10000 3.6 270 08:19 01.01.2020
1592 Clouds 1 1027 92 10000 3.1 250 07:56 01.01.2020
1593 Clouds 2 1027 92 10000 3.1 250 07:38 01.01.2020
1594 Clouds 1 1027 92 10000 0.5 360 06:46 01.01.2020
1595 Clouds 2 1026 92 10000 2.1 130 06:22 01.01.2020
1596 Clouds 2 1027 92 10000 1 0 05:46 01.01.2020
1597 Clouds 5 1028 75 10000 2.1 200 03:48 01.01.2020
1598 Clouds 5 1029 70 10000 3.1 230 03:28 01.01.2020
1599 Clouds 6 1029 75 10000 3.1 220 02:59 01.01.2020
1600 Clouds 6 1029 75 10000 3.1 220 02:41 01.01.2020
1601 Clouds 6 1029 81 10000 2.6 220 02:21 01.01.2020
1602 Clouds 7 1029 81 10000 2.1 230 01:39 01.01.2020
1603 Clouds 7 1029 81 10000 2.1 220 01:21 01.01.2020
1604 Clouds 7 1029 81 10000 1.5 200 00:44 01.01.2020
1605 Clouds 7 1029 81 10000 1.5 200 00:44 01.01.2020
1606 Clouds 7 1029 75 10000 2.1 210 00:26 01.01.2020
1607 Clouds 7 1029 75 10000 1.5 0 23:43 31.12.2019
1608 Clouds 7 1029 75 10000 2.1 150 23:24 31.12.2019
1609 Clouds 7 1030 81 10000 3.1 150 22:59 31.12.2019
1610 Clouds 7 1030 81 10000 3.1 150 22:39 31.12.2019
1611 Clouds 8 1030 81 10000 2.6 140 22:20 31.12.2019
1612 Clouds 8 1030 81 10000 2.6 120 21:59 31.12.2019
1613 Clouds 8 1030 81 10000 2.6 120 21:41 31.12.2019
1614 Clouds 8 1030 81 10000 3.1 130 21:23 31.12.2019
1615 Clouds 8 1030 93 10000 3.6 120 20:57 31.12.2019
1616 Clouds 8 1030 81 10000 2.1 120 20:37 31.12.2019
1617 Clouds 8 1030 81 10000 2.1 120 20:19 31.12.2019
1618 Clouds 8 1030 81 10000 2.6 120 19:55 31.12.2019
1619 Clouds 8 1030 76 10000 1.5 120 19:37 31.12.2019
1620 Clouds 8 1030 76 10000 1.5 120 19:18 31.12.2019
1621 Clouds 8 1030 81 10000 2.1 150 18:54 31.12.2019
1622 Clouds 8 1030 81 10000 2.1 150 18:54 31.12.2019
1623 Clouds 8 1030 81 10000 2.1 150 18:36 31.12.2019
1624 Clouds 8 1030 93 10000 1 0 18:18 31.12.2019
1625 Clouds 8 1030 87 10000 1.5 0 17:55 31.12.2019
1626 Clouds 8 1030 87 10000 1.5 0 17:36 31.12.2019
1627 Clouds 8 1030 87 10000 2.6 120 17:18 31.12.2019
1628 Clouds 8 1030 87 10000 2.6 120 17:18 31.12.2019
1629 Clouds 8 1030 87 10000 2.1 110 16:55 31.12.2019
1630 Clouds 8 1030 87 10000 2.1 110 16:36 31.12.2019
1631 Clouds 8 1030 87 10000 2.1 110 16:18 31.12.2019
1632 Clouds 9 1030 87 10000 2.6 110 15:55 31.12.2019
1633 Clouds 8 1030 87 10000 1 0 15:37 31.12.2019
1634 Clouds 9 1030 87 10000 1 0 15:18 31.12.2019
1635 Clouds 9 1030 87 10000 1 0 15:18 31.12.2019
1636 Clouds 8 1030 93 10000 2.1 120 14:55 31.12.2019
1637 Clouds 8 1030 93 10000 2.1 120 14:36 31.12.2019
1638 Clouds 8 1031 93 10000 2.1 140 14:18 31.12.2019
1639 Clouds 8 1031 93 10000 2.1 120 13:54 31.12.2019
1640 Clouds 7 1032 87 10000 2.6 100 13:36 31.12.2019
1641 Clouds 7 1032 87 10000 2.6 100 13:18 31.12.2019
1642 Clouds 7 1032 93 10000 3.6 80 12:40 31.12.2019
1643 Clouds 7 1032 93 10000 3.6 80 12:40 31.12.2019
1644 Clouds 7 1032 87 10000 4.1 60 12:21 31.12.2019
1645 Clouds 7 1032 87 10000 4.1 60 12:21 31.12.2019
1646 Clouds 7 1032 87 10000 4.6 50 11:57 31.12.2019
1647 Clouds 7 1032 87 10000 4.6 50 11:39 31.12.2019
1648 Clouds 7 1032 87 10000 5.1 50 11:21 31.12.2019
1649 Clouds 7 1032 87 10000 5.1 50 10:58 31.12.2019
1650 Clouds 7 1032 87 10000 5.1 50 10:39 31.12.2019
1651 Clouds 7 1031 87 10000 4.1 60 10:20 31.12.2019
1652 Clouds 7 1031 87 10000 4.1 60 09:59 31.12.2019
1653 Clouds 7 1031 81 10000 4.6 70 09:40 31.12.2019
1654 Clouds 7 1030 87 10000 5.1 70 09:21 31.12.2019
1655 Clouds 6 1030 87 10000 4.6 80 08:58 31.12.2019
1656 Clouds 6 1030 87 10000 4.6 80 08:39 31.12.2019
1657 Clouds 6 1030 87 10000 5.1 70 08:20 31.12.2019
1658 Clouds 6 1030 86 10000 4.6 70 07:43 31.12.2019
1659 Clouds 6 1030 86 10000 4.6 70 07:22 31.12.2019
1660 Clouds 7 1030 81 10000 4.1 70 06:50 31.12.2019
1661 Clouds 7 1030 87 10000 3.1 80 05:58 31.12.2019
1662 Clouds 7 1031 93 10000 4.6 50 04:30 31.12.2019
1663 Clouds 7 1031 93 10000 4.1 70 03:38 31.12.2019
1664 Clouds 7 1030 87 10000 4.1 50 02:56 31.12.2019
1665 Clouds 7 1030 87 10000 4.6 50 02:19 31.12.2019
1666 Clouds 7 1031 87 10000 3.6 50 01:48 31.12.2019
1667 Clouds 7 1031 93 10000 3.6 50 01:27 31.12.2019
1668 Clouds 7 1031 100 10000 3.6 60 00:46 31.12.2019
1669 Clouds 7 1031 87 10000 3.6 60 00:22 31.12.2019
1670 Clouds 7 1030 93 10000 4.1 30 23:56 30.12.2019
1671 Clouds 7 1030 93 10000 4.1 30 23:38 30.12.2019
1672 Clouds 8 1029 93 10000 5.1 40 23:20 30.12.2019
1673 Clouds 8 1029 93 10000 4.6 40 22:58 30.12.2019
1674 Clouds 8 1029 93 10000 4.6 40 22:39 30.12.2019
1675 Clouds 8 1029 93 10000 3.6 50 22:20 30.12.2019
1676 Clouds 8 1029 93 10000 3.6 40 21:57 30.12.2019
1677 Clouds 8 1029 93 10000 3.6 40 21:38 30.12.2019
1678 Clouds 8 1029 93 10000 3.6 40 21:38 30.12.2019
1679 Clouds 8 1028 93 10000 4.6 30 21:19 30.12.2019
1680 Clouds 8 1029 93 10000 4.1 20 20:56 30.12.2019
1681 Clouds 8 1029 93 10000 4.1 20 20:38 30.12.2019
1682 Rain 9 1029 93 10000 3.6 20 20:20 30.12.2019
1683 Rain 9 1029 93 9000 3.1 10 19:57 30.12.2019
1684 Rain 9 1028 100 9000 4.6 20 19:38 30.12.2019
1685 Rain 10 1028 100 9000 4.6 20 19:19 30.12.2019
1686 Drizzle 10 1027 100 9000 2.1 340 18:56 30.12.2019
1687 Drizzle 10 1027 100 9000 2.1 340 18:38 30.12.2019
1688 Drizzle 10 1027 100 7000 2.1 270 18:20 30.12.2019
1689 Drizzle 10 1027 93 6000 3.1 270 17:55 30.12.2019
1690 Drizzle 10 1027 93 6000 3.1 270 17:37 30.12.2019
1691 Clouds 10 1027 93 10000 3.6 250 17:18 30.12.2019
1692 Clouds 10 1026 87 10000 4.1 250 16:57 30.12.2019
1693 Clouds 10 1026 87 10000 4.1 250 16:36 30.12.2019
1694 Clouds 10 1026 87 10000 4.1 250 16:36 30.12.2019
1695 Clouds 11 1026 87 10000 4.6 250 16:18 30.12.2019
1696 Clouds 11 1025 87 10000 4.1 240 15:55 30.12.2019
1697 Clouds 11 1025 87 10000 4.1 240 15:36 30.12.2019
1698 Clouds 11 1025 87 10000 4.6 240 15:18 30.12.2019
1699 Clouds 11 1025 87 10000 5.1 240 14:42 30.12.2019
1700 Clouds 11 1025 87 10000 6.2 230 14:19 30.12.2019
1701 Clouds 10 1024 81 10000 5.7 230 13:56 30.12.2019
1702 Clouds 10 1024 81 10000 5.7 230 13:37 30.12.2019
1703 Clouds 10 1024 81 10000 4.6 220 13:19 30.12.2019
1704 Clouds 10 1025 87 10000 5.7 230 12:43 30.12.2019
1705 Clouds 10 1025 87 10000 5.7 240 12:20 30.12.2019
1706 Clouds 10 1024 87 10000 4.6 220 11:59 30.12.2019
1707 Clouds 10 1024 87 10000 4.6 220 11:40 30.12.2019
1708 Clouds 10 1024 87 10000 6.2 230 11:19 30.12.2019
1709 Clouds 9 1024 81 10000 6.2 240 10:44 30.12.2019
1710 Clouds 9 1023 81 10000 5.7 250 10:22 30.12.2019
1711 Clouds 10 1023 81 10000 5.7 250 09:58 30.12.2019
1712 Clouds 10 1023 76 10000 3.1 260 09:40 30.12.2019
1713 Clouds 10 1022 66 10000 2.6 210 09:20 30.12.2019
1714 Clouds 10 1022 66 10000 4.1 210 08:50 30.12.2019
1715 Clouds 10 1022 66 10000 3.6 220 08:23 30.12.2019
1716 Clouds 10 1022 71 10000 2.6 210 07:56 30.12.2019
1717 Clouds 10 1022 71 10000 2.6 210 07:37 30.12.2019
1718 Clouds 9 1022 71 10000 1 0 06:52 30.12.2019
1719 Clouds 7 1022 93 10000 1.5 0 04:58 30.12.2019
1720 Clouds 8 1023 93 10000 1 0 03:57 30.12.2019
1721 Clouds 7 1023 87 10000 1 0 02:58 30.12.2019
1722 Clouds 8 1023 87 10000 1 0 02:40 30.12.2019
1723 Clouds 8 1023 93 10000 2.1 10 01:50 30.12.2019
1724 Clouds 8 1023 93 10000 2.1 340 01:21 30.12.2019
1725 Clouds 8 1023 93 10000 1 0 00:44 30.12.2019
1726 Clouds 8 1023 87 10000 2.6 130 00:19 30.12.2019
1727 Clouds 8 1023 87 10000 2.1 90 23:39 29.12.2019
1728 Clouds 8 1023 87 10000 2.1 90 23:39 29.12.2019
1729 Clouds 9 1023 75 10000 3.6 130 23:21 29.12.2019
1730 Clouds 9 1023 81 10000 3.1 180 22:43 29.12.2019
1731 Clouds 10 1023 66 10000 2.1 140 22:24 29.12.2019
1732 Clouds 10 1023 66 10000 2.1 140 21:59 29.12.2019
1733 Clouds 9 1023 76 10000 2.1 130 21:41 29.12.2019
1734 Clouds 10 1023 66 10000 3.1 140 21:21 29.12.2019
1735 Clouds 11 1024 62 10000 2.6 120 20:57 29.12.2019
1736 Clouds 11 1024 62 10000 2.6 120 20:39 29.12.2019
1737 Clouds 11 1023 54 10000 3.1 190 20:20 29.12.2019
1738 Clouds 11 1023 54 10000 3.1 190 20:20 29.12.2019
1739 Clouds 11 1023 54 10000 3.1 190 20:20 29.12.2019
1740 Clouds 10 1024 62 10000 4.1 200 19:59 29.12.2019
1741 Clouds 11 1024 62 10000 4.1 200 19:40 29.12.2019
1742 Clouds 11 1024 66 10000 4.6 190 19:21 29.12.2019
1743 Clouds 10 1024 71 10000 4.1 200 18:57 29.12.2019
1744 Clouds 10 1024 71 10000 4.1 200 18:38 29.12.2019
1745 Clouds 11 1024 76 10000 2.6 210 18:19 29.12.2019
1746 Clouds 11 1024 76 10000 3.1 220 17:58 29.12.2019
1747 Clouds 11 1024 76 10000 3.1 220 17:39 29.12.2019
1748 Clouds 11 1024 76 10000 3.1 250 17:20 29.12.2019
1749 Clouds 11 1024 76 10000 3.1 240 16:56 29.12.2019
1750 Clouds 11 1024 76 10000 3.1 240 16:37 29.12.2019
1751 Clouds 11 1024 76 10000 5.1 250 16:19 29.12.2019
1752 Clouds 11 1023 66 10000 6.2 240 15:57 29.12.2019
1753 Clouds 12 1023 66 10000 6.2 240 15:38 29.12.2019
1754 Clouds 12 1023 66 10000 2.6 30 15:19 29.12.2019
1755 Clouds 11 1023 54 10000 1 0 14:56 29.12.2019
1756 Clouds 11 1023 54 10000 1 0 14:38 29.12.2019
1757 Clouds 11 1023 54 10000 1.5 0 14:18 29.12.2019
1758 Clouds 11 1024 62 10000 2.6 120 13:57 29.12.2019
1759 Clouds 11 1024 62 10000 2.6 120 13:37 29.12.2019
1760 Clouds 11 1024 62 10000 2.6 120 13:37 29.12.2019
1761 Clouds 11 1024 66 10000 5.1 210 13:19 29.12.2019
1762 Clouds 11 1024 66 10000 1 0 12:45 29.12.2019
1763 Clouds 11 1024 71 10000 1.5 0 12:26 29.12.2019
1764 Clouds 11 1024 81 10000 1.5 0 11:57 29.12.2019
1765 Clouds 11 1024 81 10000 1.5 0 11:38 29.12.2019
1766 Clouds 11 1024 81 10000 1.5 0 11:20 29.12.2019
1767 Clouds 11 1024 71 10000 0.5 360 10:43 29.12.2019
1768 Clouds 11 1024 71 10000 1 0 10:24 29.12.2019
1769 Clouds 11 1024 71 10000 1.5 0 09:58 29.12.2019
1770 Clouds 10 1024 71 10000 1.5 0 09:39 29.12.2019
1771 Clouds 10 1025 76 10000 3.6 200 09:21 29.12.2019
1772 Clouds 10 1025 76 10000 2.1 230 08:47 29.12.2019
1773 Clouds 10 1024 76 10000 1.5 0 08:27 29.12.2019
1774 Clouds 10 1024 76 10000 1 0 07:55 29.12.2019
1775 Clouds 11 1025 76 10000 3.1 220 07:28 29.12.2019
1776 Clouds 11 1025 76 10000 4.6 220 06:56 29.12.2019
1777 Clouds 11 1024 76 10000 3.6 240 06:26 29.12.2019
1778 Clouds 11 1024 76 10000 2.1 210 05:52 29.12.2019
1779 Clouds 11 1025 81 10000 6.2 210 04:36 29.12.2019
1780 Clouds 11 1025 81 10000 7.7 220 03:54 29.12.2019
1781 Clouds 10 1025 81 10000 6.2 220 03:20 29.12.2019
1782 Clouds 11 1025 76 10000 4.1 210 02:20 29.12.2019
1783 Clouds 11 1025 66 10000 4.6 160 01:31 29.12.2019
1784 Clouds 11 1026 76 10000 1.5 0 00:58 29.12.2019
1785 Clouds 11 1026 76 10000 1.5 0 00:40 29.12.2019
1786 Clouds 11 1026 71 10000 1.5 0 00:21 29.12.2019
1787 Clouds 10 1026 66 10000 1 0 23:43 28.12.2019
1788 Clouds 11 1026 71 10000 2.6 110 23:18 28.12.2019
1789 Clouds 11 1026 71 10000 6.2 220 22:39 28.12.2019
1790 Clouds 11 1026 66 10000 4.6 220 22:21 28.12.2019
1791 Clouds 11 1026 54 10000 4.6 200 21:58 28.12.2019
1792 Clouds 11 1026 54 10000 4.6 200 21:39 28.12.2019
1793 Clouds 11 1026 43 10000 3.6 180 21:21 28.12.2019
1794 Clouds 11 1025 50 10000 2.1 200 20:57 28.12.2019
1795 Clouds 11 1025 50 10000 2.1 200 20:37 28.12.2019
1796 Clouds 10 1026 50 10000 4.1 170 20:19 28.12.2019
1797 Clouds 10 1026 66 10000 5.1 180 19:56 28.12.2019
1798 Clouds 10 1026 66 10000 5.1 180 19:38 28.12.2019
1799 Clouds 10 1025 76 10000 3.6 190 19:19 28.12.2019
1800 Clouds 10 1025 66 10000 2.1 90 18:56 28.12.2019
1801 Clouds 10 1025 66 10000 2.1 90 18:56 28.12.2019
1802 Clouds 10 1025 66 10000 2.1 90 18:38 28.12.2019
1803 Clouds 10 1026 66 10000 1 0 18:18 28.12.2019
1804 Clouds 11 1026 71 10000 3.6 230 17:43 28.12.2019
1805 Clouds 11 1026 71 10000 3.6 250 17:22 28.12.2019
1806 Clouds 11 1026 71 10000 3.6 250 16:59 28.12.2019
1807 Clouds 12 1026 62 10000 2.6 90 16:41 28.12.2019
1808 Clouds 11 1026 62 10000 3.1 360 16:23 28.12.2019
1809 Clouds 12 1025 54 10000 2.1 110 15:43 28.12.2019
1810 Clouds 11 1026 62 10000 3.6 250 15:23 28.12.2019
1811 Clouds 11 1026 62 10000 2.6 240 14:56 28.12.2019
1812 Clouds 11 1026 62 10000 2.6 240 14:37 28.12.2019
1813 Clouds 11 1026 66 10000 5.1 210 14:19 28.12.2019
1814 Clouds 11 1026 76 10000 7.7 220 13:42 28.12.2019
1815 Clouds 11 1026 62 10000 2.6 240 13:21 28.12.2019
1816 Clouds 11 1026 62 10000 2.6 240 13:21 28.12.2019
1817 Clouds 10 1026 71 10000 2.1 190 12:58 28.12.2019
1818 Clouds 10 1026 71 10000 2.1 190 12:40 28.12.2019
1819 Clouds 10 1026 81 10000 2.1 100 12:21 28.12.2019
1820 Clouds 10 1026 62 10000 1.5 0 11:40 28.12.2019
1821 Clouds 10 1026 62 10000 2.1 170 11:22 28.12.2019
1822 Clouds 10 1026 66 10000 2.1 150 10:59 28.12.2019
1823 Clouds 10 1026 66 10000 2.1 150 10:41 28.12.2019
1824 Clouds 10 1027 71 10000 1 0 10:20 28.12.2019
1825 Clouds 10 1026 71 10000 4.6 200 09:55 28.12.2019
1826 Clouds 10 1026 71 10000 4.6 200 09:36 28.12.2019
1827 Clouds 10 1026 76 10000 1.5 0 09:18 28.12.2019
1828 Clouds 10 1027 76 10000 3.1 190 08:43 28.12.2019
1829 Clouds 10 1027 76 10000 4.6 250 08:24 28.12.2019
1830 Clouds 10 1027 76 10000 2.6 310 07:48 28.12.2019
1831 Clouds 10 1027 76 10000 1.5 0 07:23 28.12.2019
1832 Clouds 10 1026 76 10000 5.7 220 05:51 28.12.2019
1833 Clouds 10 1026 87 10000 1 0 03:48 28.12.2019
1834 Clouds 10 1026 93 10000 3.1 130 02:51 28.12.2019
1835 Clouds 10 1027 100 10000 3.6 130 02:20 28.12.2019
1836 Clouds 10 1027 93 10000 1 0 01:56 28.12.2019
1837 Clouds 10 1027 93 10000 1.5 0 01:23 28.12.2019
1838 Clouds 11 1027 93 10000 1.5 0 00:48 28.12.2019
1839 Clouds 10 1026 93 10000 2.1 170 00:30 28.12.2019
1840 Clouds 11 1026 87 10000 3.1 100 23:58 27.12.2019
1841 Clouds 11 1026 87 10000 3.1 100 23:39 27.12.2019
1842 Clouds 11 1026 87 10000 1.5 0 23:19 27.12.2019
1843 Clouds 11 1027 87 10000 4.1 210 22:56 27.12.2019
1844 Clouds 11 1027 87 10000 4.1 210 22:37 27.12.2019
1845 Clouds 11 1026 87 10000 4.6 200 22:19 27.12.2019
1846 Clouds 11 1026 93 10000 4.6 220 21:43 27.12.2019
1847 Clouds 11 1026 93 10000 2.1 230 21:25 27.12.2019
1848 Clouds 11 1026 93 10000 3.1 210 20:57 27.12.2019
1849 Clouds 11 1026 93 10000 3.1 210 20:38 27.12.2019
1850 Clouds 12 1025 93 10000 2.1 190 20:20 27.12.2019
1851 Clouds 11 1025 93 10000 2.6 230 19:41 27.12.2019
1852 Clouds 11 1025 93 10000 3.1 230 19:20 27.12.2019
1853 Clouds 11 1025 93 10000 3.1 230 19:20 27.12.2019
1854 Clouds 11 1025 93 10000 3.6 220 18:57 27.12.2019
1855 Clouds 11 1025 93 10000 3.6 220 18:37 27.12.2019
1856 Clouds 11 1025 93 10000 3.1 210 18:19 27.12.2019
1857 Clouds 11 1025 93 10000 3.6 210 17:55 27.12.2019
1858 Clouds 11 1025 93 10000 3.6 210 17:37 27.12.2019
1859 Clouds 12 1024 93 10000 4.6 220 17:18 27.12.2019
1860 Clouds 12 1024 87 10000 5.1 210 16:43 27.12.2019
1861 Clouds 12 1024 87 10000 5.1 230 16:23 27.12.2019
1862 Clouds 12 1023 87 10000 4.6 230 15:58 27.12.2019
1863 Clouds 12 1023 87 10000 4.6 230 15:40 27.12.2019
1864 Clouds 12 1023 82 10000 4.6 230 15:19 27.12.2019
1865 Clouds 12 1023 82 10000 3.6 200 14:56 27.12.2019
1866 Clouds 12 1023 82 10000 3.6 200 14:38 27.12.2019
1867 Clouds 12 1023 82 10000 5.1 200 14:20 27.12.2019
1868 Clouds 12 1023 87 10000 5.1 220 13:47 27.12.2019
1869 Clouds 11 1023 93 10000 4.6 220 13:24 27.12.2019
1870 Clouds 11 1023 93 10000 0.5 360 12:56 27.12.2019
1871 Clouds 11 1023 93 10000 0.5 360 12:37 27.12.2019
1872 Clouds 11 1022 93 10000 1 0 12:18 27.12.2019
1873 Clouds 10 1022 93 10000 1.5 0 11:42 27.12.2019
1874 Clouds 9 1021 100 10000 1.5 0 11:22 27.12.2019
1875 Clouds 9 1022 93 10000 0.5 0 10:54 27.12.2019
1876 Clouds 9 1022 93 10000 0.5 0 10:36 27.12.2019
1877 Clouds 9 1021 100 10000 1.5 0 10:18 27.12.2019
1878 Clouds 9 1021 100 10000 2.1 150 09:40 27.12.2019
1879 Clouds 9 1021 100 10000 2.1 170 09:21 27.12.2019
1880 Clouds 9 1020 100 10000 2.6 140 08:54 27.12.2019
1881 Clouds 9 1020 100 10000 2.6 140 08:34 27.12.2019
1882 Mist 10 1020 93 1500 3.1 130 07:49 27.12.2019
1883 Fog 10 1020 93 800 3.6 130 07:28 27.12.2019
1884 Fog 9 1020 93 800 3.1 140 06:36 27.12.2019
1885 Clouds 9 1020 100 10000 2.6 140 04:58 27.12.2019
1886 Drizzle 8 1019 100 5000 3.1 140 02:53 27.12.2019
1887 Drizzle 8 1019 100 5000 3.1 140 01:59 27.12.2019
1888 Drizzle 8 1019 93 8000 2.1 150 01:24 27.12.2019
1889 Drizzle 8 1019 100 8000 2.1 150 00:54 27.12.2019
1890 Drizzle 8 1019 100 8000 2.1 150 00:34 27.12.2019
1891 Drizzle 8 1018 93 8000 3.1 200 23:59 26.12.2019
1892 Rain 8 1017 87 10000 2.6 190 23:41 26.12.2019
1893 Clouds 8 1017 87 10000 1.5 0 23:21 26.12.2019
1894 Clouds 8 1016 87 10000 2.1 220 22:45 26.12.2019
1895 -273 0 0 0 0 0 22:22 26.12.2019
1896 Clouds 9 1015 87 10000 2.6 260 21:58 26.12.2019
1897 Clouds 9 1015 87 10000 2.6 260 21:38 26.12.2019
1898 Clouds 9 1015 87 10000 3.1 250 21:20 26.12.2019
1899 Clouds 9 1014 87 10000 2.6 240 20:45 26.12.2019
1900 Clouds 9 1014 87 10000 2.6 240 20:45 26.12.2019
1901 Clouds 9 1014 87 10000 2.6 240 20:23 26.12.2019
1902 Clouds 9 1013 87 10000 3.1 240 19:59 26.12.2019
1903 Clouds 9 1013 87 10000 3.1 240 19:39 26.12.2019
1904 Clouds 9 1013 87 10000 3.1 240 19:39 26.12.2019
1905 Clouds 9 1013 87 10000 2.6 230 19:20 26.12.2019
1906 Clouds 9 1012 87 10000 3.1 230 18:57 26.12.2019
1907 Clouds 9 1012 87 10000 3.1 230 18:38 26.12.2019
1908 Clouds 8 1012 87 10000 2.6 240 18:19 26.12.2019
1909 Clouds 8 1011 87 10000 2.6 230 17:43 26.12.2019
1910 Clouds 8 1011 87 10000 2.6 230 17:43 26.12.2019
1911 Clouds 9 1011 87 10000 2.1 230 17:22 26.12.2019
1912 Rain 9 1010 93 10000 2.1 260 16:58 26.12.2019
1913 Rain 9 1010 93 10000 2.1 260 16:40 26.12.2019
1914 Rain 9 1010 93 5000 3.1 230 16:21 26.12.2019
1915 Clouds 9 1009 87 10000 3.1 220 15:41 26.12.2019
1916 Clouds 9 1009 87 10000 3.1 230 15:21 26.12.2019
1917 Clouds 9 1009 87 10000 2.6 200 14:58 26.12.2019
1918 Clouds 9 1009 87 10000 2.6 200 14:38 26.12.2019
1919 Clouds 10 1009 93 10000 2.1 150 14:20 26.12.2019
1920 Clouds 9 1008 93 10000 1.5 0 13:43 26.12.2019
1921 Clouds 9 1008 100 10000 2.6 150 13:21 26.12.2019
1922 Rain 8 1008 93 8000 4.1 130 12:56 26.12.2019
1923 Rain 8 1008 93 8000 4.1 130 12:37 26.12.2019
1924 Rain 8 1008 93 8000 5.7 140 12:19 26.12.2019
1925 Rain 8 1008 93 8000 5.1 140 11:56 26.12.2019
1926 Rain 8 1008 93 8000 5.1 140 11:37 26.12.2019
1927 Rain 7 1008 100 8000 6.2 140 11:19 26.12.2019
1928 Rain 7 1008 93 8000 5.1 130 10:41 26.12.2019
1929 Rain 7 1008 93 8000 6.2 130 10:18 26.12.2019
1930 Rain 7 1008 93 10000 5.7 130 09:45 26.12.2019
1931 Rain 7 1008 87 10000 5.1 100 09:26 26.12.2019
1932 Rain 7 1008 87 10000 6.2 110 08:42 26.12.2019
1933 Rain 7 1008 87 10000 6.2 110 08:24 26.12.2019
1934 Rain 7 1009 87 10000 6.7 110 07:53 26.12.2019
1935 Rain 7 1009 87 10000 6.7 110 07:26 26.12.2019
1936 Rain 7 1009 87 10000 5.7 120 06:53 26.12.2019
1937 Rain 7 1009 87 10000 5.7 120 06:32 26.12.2019
1938 Rain 7 1010 81 10000 7.7 130 05:45 26.12.2019
1939 Rain 7 1011 75 10000 8.2 130 04:55 26.12.2019
1940 Rain 7 1011 75 10000 8.2 130 04:29 26.12.2019
1941 Clouds 7 1013 75 10000 7.7 130 02:54 26.12.2019
1942 Clouds 7 1013 75 10000 7.7 130 02:34 26.12.2019
1943 Clouds 7 1014 75 10000 7.7 130 01:46 26.12.2019
1944 Clouds 7 1014 81 10000 8.7 130 01:28 26.12.2019
1945 Clouds 7 1016 81 10000 7.7 130 00:49 26.12.2019
1946 Clouds 7 1016 81 10000 7.2 130 00:25 26.12.2019
1947 Clouds 7 1017 75 10000 7.7 140 23:58 25.12.2019
1948 Clouds 7 1017 75 10000 7.7 140 23:39 25.12.2019
1949 Clouds 6 1017 81 10000 7.2 130 23:21 25.12.2019
1950 Clouds 7 1017 81 10000 7.7 140 22:58 25.12.2019
1951 Clouds 7 1017 81 10000 7.7 140 22:39 25.12.2019
1952 Clouds 7 1018 87 10000 7.2 130 22:20 25.12.2019
1953 Clouds 6 1018 87 10000 4.6 130 21:57 25.12.2019
1954 Clouds 6 1018 87 10000 4.6 130 21:39 25.12.2019
1955 Clouds 6 1019 87 10000 5.1 120 21:19 25.12.2019
1956 Clouds 6 1019 87 10000 5.1 120 20:54 25.12.2019
1957 Clouds 6 1019 87 10000 5.1 120 20:36 25.12.2019
1958 Clouds 6 1020 81 10000 4.6 130 20:18 25.12.2019
1959 Clouds 6 1020 87 10000 4.6 130 19:42 25.12.2019
1960 Clouds 5 1020 93 10000 2.6 120 19:22 25.12.2019
1961 Clouds 5 1021 93 10000 3.1 120 18:56 25.12.2019
1962 Clouds 5 1021 93 10000 3.1 120 18:36 25.12.2019
1963 Clouds 4 1021 100 10000 2.6 120 18:18 25.12.2019
1964 Clouds 4 1021 93 10000 3.6 100 17:40 25.12.2019
1965 Clouds 4 1022 86 10000 3.1 100 17:19 25.12.2019
1966 Clouds 4 1022 93 10000 3.1 90 16:56 25.12.2019
1967 Clouds 5 1022 93 10000 3.1 90 16:37 25.12.2019
1968 Clouds 5 1022 93 10000 2.6 110 16:18 25.12.2019
1969 Clouds 5 1023 86 10000 2.6 90 15:56 25.12.2019
1970 Clouds 5 1023 86 10000 2.6 90 15:37 25.12.2019
1971 Clouds 5 1023 86 10000 1.5 0 15:18 25.12.2019
1972 Clouds 5 1023 81 10000 1 60 14:56 25.12.2019
1973 Clouds 5 1023 81 10000 1 60 14:37 25.12.2019
1974 Clear 5 1024 75 10000 1 0 14:18 25.12.2019
1975 Clear 5 1024 75 10000 1.5 0 13:42 25.12.2019
1976 Clear 4 1024 80 10000 1.5 0 13:21 25.12.2019
1977 Clear 4 1024 80 10000 2.1 250 12:56 25.12.2019
1978 Clear 4 1024 80 10000 2.1 250 12:38 25.12.2019
1979 Clear 3 1024 86 10000 2.1 250 12:18 25.12.2019
1980 Clear 2 1024 86 10000 2.1 270 11:42 25.12.2019
1981 Clear 1 1024 93 10000 2.6 270 11:22 25.12.2019
1982 Clear 1 1024 93 10000 3.1 260 10:58 25.12.2019
1983 Clear 1 1024 93 10000 3.1 260 10:36 25.12.2019
1984 Clear 1 1024 95 10000 2.1 250 10:18 25.12.2019
1985 Clear 2 1023 93 10000 4.1 240 09:43 25.12.2019
1986 Clear 1 1023 93 10000 4.1 250 09:25 25.12.2019
1987 Clear 2 1023 93 10000 3.1 250 08:45 25.12.2019
1988 Clear 2 1023 93 10000 3.1 250 08:25 25.12.2019
1989 Clear 2 1022 86 10000 4.1 260 07:45 25.12.2019
1990 Clear 2 1022 93 10000 3.6 250 07:23 25.12.2019
1991 Clear 2 1022 100 10000 2.1 230 06:41 25.12.2019
1992 Clear 3 1021 93 10000 2.1 240 06:21 25.12.2019
1993 Clear 3 1021 93 10000 4.6 270 04:47 25.12.2019
1994 Clear 3 1020 93 10000 5.7 270 04:25 25.12.2019
1995 Clear 3 1020 86 10000 6.7 270 03:52 25.12.2019
1996 Clear 3 1020 86 10000 6.7 270 03:32 25.12.2019
1997 Clear 3 1020 86 10000 5.1 260 02:32 25.12.2019
1998 Clear 3 1019 86 10000 4.6 260 01:54 25.12.2019
1999 Clear 3 1019 86 10000 5.1 260 01:24 25.12.2019
2000 Clear 3 1018 93 10000 5.7 260 00:46 25.12.2019
2001 Clear 3 1018 93 10000 6.2 270 00:27 25.12.2019
2002 Clear 3 1018 93 10000 3.6 260 23:42 24.12.2019
2003 Clear 4 1017 86 10000 4.6 260 23:21 24.12.2019
2004 Clear 4 1017 86 10000 4.6 260 22:58 24.12.2019
2005 Clear 4 1016 93 10000 5.1 260 22:37 24.12.2019
2006 Clear 4 1016 86 10000 5.1 260 22:19 24.12.2019
2007 Clear 4 1015 93 10000 6.2 270 21:41 24.12.2019
2008 Clear 5 1015 93 10000 5.7 260 21:22 24.12.2019
2009 Clouds 5 1014 86 10000 5.7 260 20:45 24.12.2019
2010 Clouds 5 1014 86 10000 5.1 260 20:24 24.12.2019
2011 Clouds 5 1013 86 10000 5.1 260 19:57 24.12.2019
2012 Clouds 5 1013 86 10000 5.1 260 19:38 24.12.2019
2013 Clouds 5 1012 93 10000 4.1 260 19:18 24.12.2019
2014 Clouds 5 1012 93 10000 4.6 260 18:42 24.12.2019
2015 Clouds 5 1011 93 10000 5.7 280 18:20 24.12.2019
2016 Clouds 6 1010 93 10000 6.2 280 17:45 24.12.2019
2017 Clouds 6 1009 93 10000 6.7 290 17:24 24.12.2019
2018 Clouds 6 1008 87 10000 6.7 290 16:59 24.12.2019
2019 Clouds 6 1008 87 10000 6.7 290 16:40 24.12.2019
2020 Clouds 6 1008 87 10000 6.7 300 16:22 24.12.2019
2021 Clouds 6 1007 87 10000 6.7 290 15:58 24.12.2019
2022 Clouds 6 1007 87 10000 6.7 290 15:58 24.12.2019
2023 Clouds 6 1007 87 10000 6.7 290 15:38 24.12.2019
2024 Clouds 6 1006 87 10000 7.2 300 15:20 24.12.2019
2025 Clouds 6 1006 87 10000 6.2 300 14:59 24.12.2019
2026 Clouds 6 1006 87 10000 6.2 300 14:40 24.12.2019
2027 Clouds 7 1005 87 10000 7.7 300 14:22 24.12.2019
2028 Clouds 7 1004 93 10000 6.2 300 13:56 24.12.2019
2029 Clouds 7 1004 93 10000 6.2 300 13:38 24.12.2019
2030 Drizzle 7 1004 87 9000 6.2 300 13:20 24.12.2019
2031 Drizzle 7 1003 93 8000 6.2 270 12:57 24.12.2019
2032 Drizzle 7 1003 93 8000 6.2 270 12:38 24.12.2019
2033 Clouds 8 1002 93 10000 5.1 260 12:19 24.12.2019
2034 Drizzle 8 1002 93 4500 5.7 260 11:57 24.12.2019
2035 Drizzle 8 1002 93 4500 5.7 260 11:38 24.12.2019
2036 Clouds 7 1001 93 10000 5.1 250 11:20 24.12.2019
2037 Clouds 7 1000 87 10000 5.7 250 10:57 24.12.2019
2038 Clouds 7 1000 87 10000 5.7 250 10:57 24.12.2019
2039 Clouds 7 1000 87 10000 5.7 250 10:38 24.12.2019
2040 Clouds 7 1000 81 10000 5.7 250 10:20 24.12.2019
2041 Clouds 7 999 81 10000 6.2 240 09:56 24.12.2019
2042 Clouds 7 999 81 10000 6.2 240 09:38 24.12.2019
2043 Clouds 7 999 81 10000 5.1 240 09:20 24.12.2019
2044 Clouds 7 999 87 10000 5.1 230 08:47 24.12.2019
2045 Clouds 7 999 87 10000 5.1 230 08:24 24.12.2019
2046 Clouds 7 999 87 10000 4.1 230 07:56 24.12.2019
2047 Clouds 7 999 87 10000 4.1 230 07:38 24.12.2019
2048 Clouds 7 999 87 10000 4.6 220 07:20 24.12.2019
2049 Clouds 7 999 87 10000 5.7 220 06:39 24.12.2019
2050 Clouds 7 999 81 10000 5.7 230 06:19 24.12.2019
2051 Clouds 7 999 87 10000 4.1 220 05:50 24.12.2019
2052 Clouds 7 999 93 10000 1.5 0 05:19 24.12.2019
2053 Rain 5 1000 93 10000 3.1 140 04:21 24.12.2019
2054 Rain 5 1000 93 10000 3.6 150 03:45 24.12.2019
2055 Rain 5 1001 100 10000 3.6 130 02:28 24.12.2019
2056 Rain 6 1002 93 5000 2.1 150 01:54 24.12.2019
2057 Drizzle 6 1003 93 9000 2.1 140 01:25 24.12.2019
2058 Drizzle 6 1003 93 9000 2.1 130 00:56 24.12.2019
2059 Drizzle 6 1003 93 9000 2.1 130 00:37 24.12.2019
2060 Rain 6 1004 87 7000 2.1 140 00:19 24.12.2019
2061 Rain 6 1004 87 10000 1.5 160 23:42 23.12.2019
2062 Rain 6 1004 86 10000 1.5 140 23:23 23.12.2019
2063 Clouds 6 1004 86 10000 1.5 160 22:57 23.12.2019
2064 Clouds 6 1004 86 10000 1.5 160 22:38 23.12.2019
2065 Clouds 5 1005 86 10000 1.5 0 22:19 23.12.2019
2066 Clouds 5 1005 86 10000 2.1 210 21:56 23.12.2019
2067 Clouds 5 1005 86 10000 2.1 210 21:36 23.12.2019
2068 Clouds 5 1005 86 10000 2.1 210 21:36 23.12.2019
2069 Clouds 5 1005 86 10000 2.6 210 21:18 23.12.2019
2070 Clouds 5 1006 93 10000 2.6 220 20:58 23.12.2019
2071 Clouds 5 1006 93 10000 2.6 220 20:40 23.12.2019
2072 Clouds 5 1006 93 10000 3.1 220 20:18 23.12.2019
2073 Clouds 5 1006 86 10000 3.6 220 19:56 23.12.2019
2074 Clouds 6 1006 86 10000 3.6 220 19:38 23.12.2019
2075 Clouds 6 1006 87 10000 2.6 220 19:20 23.12.2019
2076 Clouds 6 1006 87 10000 2.6 220 18:58 23.12.2019
2077 Clouds 6 1007 87 10000 2.6 210 18:39 23.12.2019
2078 Clouds 6 1006 87 10000 4.1 220 18:20 23.12.2019
2079 Clouds 6 1007 87 10000 4.1 220 17:57 23.12.2019
2080 Clouds 6 1007 87 10000 4.1 220 17:39 23.12.2019
2081 Clouds 6 1007 81 10000 4.6 220 17:19 23.12.2019
2082 Clouds 7 1007 81 10000 4.6 220 16:55 23.12.2019
2083 Clouds 7 1007 81 10000 4.6 220 16:37 23.12.2019
2084 Clouds 7 1006 75 10000 3.6 230 16:18 23.12.2019
2085 Clouds 7 1006 75 10000 4.1 230 15:55 23.12.2019
2086 Clouds 7 1006 75 10000 4.1 230 15:36 23.12.2019
2087 Clouds 7 1006 75 10000 4.1 240 15:18 23.12.2019
2088 Clouds 8 1006 75 10000 5.1 250 14:45 23.12.2019
2089 Clouds 8 1006 75 10000 5.1 240 14:26 23.12.2019
2090 Clouds 7 1006 75 10000 5.7 240 13:59 23.12.2019
2091 Clouds 8 1006 75 10000 5.7 240 13:41 23.12.2019
2092 Clouds 8 1005 75 10000 7.2 250 13:22 23.12.2019
2093 Clouds 8 1005 75 10000 7.2 250 13:22 23.12.2019
2094 Clouds 7 1005 81 10000 7.7 260 12:59 23.12.2019
2095 Clouds 7 1005 81 10000 7.7 260 12:40 23.12.2019
2096 Clouds 7 1005 81 10000 7.2 250 12:21 23.12.2019
2097 Clouds 7 1005 81 10000 7.2 250 12:21 23.12.2019
2098 Clouds 7 1004 81 10000 7.2 250 11:55 23.12.2019
2099 Clouds 7 1004 81 10000 7.2 250 11:37 23.12.2019
2100 Clouds 6 1004 87 10000 6.7 250 11:18 23.12.2019
2101 Clouds 6 1004 87 10000 7.2 250 10:54 23.12.2019
2102 Clouds 6 1004 87 10000 7.2 250 10:36 23.12.2019
2103 Clouds 6 1003 87 10000 7.2 250 10:18 23.12.2019
2104 Clouds 6 1003 81 10000 6.7 250 09:40 23.12.2019
2105 Clouds 6 1002 87 10000 7.2 250 09:22 23.12.2019
2106 Clouds 6 1002 81 10000 6.7 250 08:59 23.12.2019
2107 Clouds 6 1002 81 10000 6.7 250 08:40 23.12.2019
2108 Clouds 6 1002 81 10000 6.2 260 08:22 23.12.2019
2109 Clouds 5 1001 86 10000 6.7 260 07:48 23.12.2019
2110 Clouds 6 1001 81 10000 5.7 250 07:21 23.12.2019
2111 Clouds 6 1000 81 10000 4.1 240 06:57 23.12.2019
2112 Clouds 6 1000 81 10000 4.1 240 06:30 23.12.2019
2113 Clouds 6 999 81 10000 5.1 250 05:56 23.12.2019
2114 Clouds 6 999 87 10000 4.6 250 05:30 23.12.2019
2115 Clouds 6 998 87 10000 5.7 250 04:39 23.12.2019
2116 Clouds 6 997 87 10000 4.6 250 03:28 23.12.2019
2117 Clouds 6 997 93 10000 5.7 250 02:43 23.12.2019
2118 Clouds 6 996 87 10000 6.2 250 02:19 23.12.2019
2119 Clouds 6 995 87 10000 7.7 260 01:44 23.12.2019
2120 Clouds 6 995 87 10000 6.7 260 01:26 23.12.2019
2121 Clouds 6 994 93 10000 5.7 260 00:44 23.12.2019
2122 Clouds 7 994 87 10000 7.2 260 00:24 23.12.2019
2123 Clouds 7 993 87 10000 7.2 270 23:40 22.12.2019
2124 Clouds 7 992 93 10000 5.7 260 23:22 22.12.2019
2125 Drizzle 7 991 93 10000 4.6 250 22:58 22.12.2019
2126 Drizzle 7 991 93 10000 4.6 250 22:40 22.12.2019
2127 Drizzle 7 990 93 10000 4.6 250 22:22 22.12.2019
2128 Clouds 7 990 87 10000 3.6 240 21:59 22.12.2019
2129 Clouds 7 990 87 10000 3.6 240 21:40 22.12.2019
2130 Clouds 7 989 87 10000 4.1 230 21:21 22.12.2019
2131 Clouds 6 989 87 10000 4.1 230 20:59 22.12.2019
2132 Clouds 6 989 87 10000 4.1 230 20:39 22.12.2019
2133 Clouds 7 989 87 10000 4.6 240 20:19 22.12.2019
2134 Clouds 7 988 81 10000 4.1 230 19:57 22.12.2019
2135 Clouds 7 988 81 10000 4.1 230 19:39 22.12.2019
2136 Clouds 6 988 93 10000 4.1 230 19:20 22.12.2019
2137 Clouds 7 987 87 10000 4.1 240 18:42 22.12.2019
2138 Clouds 7 987 87 10000 3.6 230 18:24 22.12.2019
2139 Clouds 7 986 87 10000 4.6 250 17:56 22.12.2019
2140 Clouds 7 986 87 10000 4.6 250 17:56 22.12.2019
2141 Clouds 7 986 87 10000 4.6 250 17:38 22.12.2019
2142 Clouds 7 986 87 10000 5.1 250 17:19 22.12.2019
2143 Clouds 7 986 87 10000 5.1 250 17:19 22.12.2019
2144 Clouds 7 985 87 10000 5.1 250 16:57 22.12.2019
2145 Clouds 7 985 87 10000 5.1 250 16:57 22.12.2019
2146 Clouds 7 985 87 10000 5.1 250 16:39 22.12.2019
2147 Clouds 7 985 87 10000 5.1 260 16:21 22.12.2019
2148 Clouds 7 985 87 10000 4.6 250 15:56 22.12.2019
2149 Clouds 7 985 87 10000 4.6 250 15:38 22.12.2019
2150 Clouds 7 984 87 10000 5.1 260 15:20 22.12.2019
2151 Clouds 7 984 87 10000 4.1 250 14:55 22.12.2019
2152 Clouds 7 984 87 10000 4.1 250 14:55 22.12.2019
2153 Clouds 7 984 87 10000 4.1 250 14:37 22.12.2019
2154 Clouds 7 984 87 10000 6.7 270 14:18 22.12.2019
2155 Clouds 7 983 81 10000 3.6 250 13:55 22.12.2019
2156 Clouds 7 983 81 10000 3.6 250 13:36 22.12.2019
2157 Clouds 7 983 81 10000 3.6 250 13:36 22.12.2019
2158 Clouds 7 983 87 10000 3.1 230 13:18 22.12.2019
2159 Clouds 6 983 87 10000 4.1 230 12:55 22.12.2019
2160 Clouds 7 983 87 10000 4.1 230 12:55 22.12.2019
2161 Clouds 6 983 87 10000 4.1 230 12:37 22.12.2019
2162 Clouds 6 982 87 10000 4.1 240 12:18 22.12.2019
2163 Clouds 6 982 87 10000 4.1 240 11:55 22.12.2019
2164 Clouds 6 982 87 10000 4.1 240 11:36 22.12.2019
2165 Clouds 6 982 93 10000 4.1 230 11:18 22.12.2019
2166 Clouds 5 981 86 10000 4.1 230 10:54 22.12.2019
2167 Clouds 5 981 86 10000 4.1 230 10:36 22.12.2019
2168 Clouds 5 981 86 10000 4.1 230 10:18 22.12.2019
2169 Clouds 5 981 86 10000 4.1 230 09:41 22.12.2019
2170 Clouds 5 980 87 10000 4.1 230 09:22 22.12.2019
2171 Clouds 6 980 87 10000 4.1 230 08:59 22.12.2019
2172 Clouds 5 980 87 10000 4.1 230 08:39 22.12.2019
2173 Clouds 5 980 93 10000 4.6 230 08:21 22.12.2019
2174 Clouds 5 980 87 10000 4.1 230 07:39 22.12.2019
2175 Clouds 5 979 93 10000 4.1 230 07:20 22.12.2019
2176 Clouds 5 979 93 10000 3.6 220 06:41 22.12.2019
2177 Clouds 5 979 86 10000 2.1 190 05:56 22.12.2019
2178 Rain 5 979 80 10000 2.6 200 05:24 22.12.2019
2179 Clouds 4 978 86 10000 1 170 04:30 22.12.2019
2180 Clouds 4 978 80 10000 1.5 0 03:56 22.12.2019
2181 Clouds 4 978 93 10000 2.1 250 02:42 22.12.2019
2182 Clouds 4 978 93 10000 2.1 250 02:42 22.12.2019
2183 Clouds 4 977 100 8000 3.1 260 01:51 22.12.2019
2184 Clouds 4 977 100 7000 3.6 270 01:30 22.12.2019
2185 Clouds 4 977 100 7000 3.6 270 01:30 22.12.2019
2186 Drizzle 4 976 100 5000 4.1 270 00:47 22.12.2019
2187 Mist 4 976 100 5000 4.6 270 00:24 22.12.2019
2188 Mist 4 975 100 5000 4.6 280 23:57 21.12.2019
2189 Mist 4 975 100 5000 4.6 280 23:38 21.12.2019
2190 Mist 4 975 93 5000 3.6 270 23:19 21.12.2019
2191 Clouds 4 974 100 6000 3.1 270 22:41 21.12.2019
2192 Mist 3 974 100 4000 2.6 270 22:20 21.12.2019
2193 Mist 3 973 100 5000 2.6 270 21:57 21.12.2019
2194 Mist 3 973 100 5000 2.6 270 21:38 21.12.2019
2195 Mist 3 973 93 4000 3.1 270 21:20 21.12.2019
2196 Fog 3 973 93 900 3.1 300 20:59 21.12.2019
2197 Fog 3 973 93 900 3.1 300 20:39 21.12.2019
2198 Clouds 3 973 93 6000 2.6 280 20:21 21.12.2019
2199 Clouds 3 972 93 8000 2.1 270 19:58 21.12.2019
2200 Clouds 3 972 93 8000 2.1 270 19:40 21.12.2019
2201 Clouds 4 972 100 8000 2.6 290 19:19 21.12.2019
2202 Clouds 4 972 100 8000 1.5 0 18:45 21.12.2019
2203 Clouds 4 972 93 8000 2.6 320 18:24 21.12.2019
2204 Clouds 4 972 93 8000 2.6 310 17:57 21.12.2019
2205 Clouds 4 972 93 8000 2.6 310 17:57 21.12.2019
2206 Clouds 4 972 93 8000 2.6 310 17:39 21.12.2019
2207 Clouds 5 972 93 8000 1 300 17:21 21.12.2019
2208 Clouds 5 972 93 8000 1 300 16:59 21.12.2019
2209 Clouds 5 971 93 8000 2.1 330 16:41 21.12.2019
2210 Clouds 5 971 100 8000 1 280 16:19 21.12.2019
2211 Clouds 5 971 93 8000 1 0 15:57 21.12.2019
2212 Clouds 5 971 93 8000 1 0 15:38 21.12.2019
2213 Clouds 5 971 93 6000 1.5 0 15:19 21.12.2019
2214 Clouds 5 972 100 6000 3.1 280 14:56 21.12.2019
2215 Clouds 5 972 100 6000 3.1 280 14:37 21.12.2019
2216 Clouds 5 972 93 8000 3.6 280 14:18 21.12.2019
2217 Clouds 5 972 100 8000 3.1 270 13:55 21.12.2019
2218 Clouds 5 972 100 8000 3.1 270 13:37 21.12.2019
2219 Clouds 5 973 93 8000 3.1 280 13:18 21.12.2019
2220 Clouds 5 973 93 2000 4.1 280 12:54 21.12.2019
2221 Clouds 5 973 93 2000 4.1 280 12:36 21.12.2019
2222 Fog 4 973 100 800 3.6 270 12:18 21.12.2019
2223 Mist 3 973 100 4000 2.6 320 11:41 21.12.2019
2224 Clouds 3 973 100 10000 2.6 290 11:23 21.12.2019
2225 Rain 3 974 100 10000 1.5 0 10:56 21.12.2019
2226 Rain 3 974 100 10000 1.5 0 10:37 21.12.2019
2227 Rain 2 974 100 900 2.6 260 10:19 21.12.2019
2228 Fog 2 974 100 800 2.6 290 09:42 21.12.2019
2229 Fog 2 974 100 900 2.6 360 09:21 21.12.2019
2230 Clouds 2 974 93 10000 1.5 0 08:57 21.12.2019
2231 Clouds 2 974 93 10000 1.5 0 08:37 21.12.2019
2232 Clouds 3 974 100 10000 1.5 0 08:18 21.12.2019
2233 Clouds 2 974 100 10000 1.5 360 07:41 21.12.2019
2234 Clouds 3 974 100 10000 1 0 07:22 21.12.2019
2235 Rain 3 974 100 10000 0.5 0 06:44 21.12.2019
2236 Clouds 3 975 100 10000 1.5 0 06:25 21.12.2019
2237 Clouds 2 975 89 10000 1 0 05:47 21.12.2019
2238 Clouds 3 975 100 10000 2.6 110 04:58 21.12.2019
2239 Clouds 2 976 90 10000 2.1 110 03:57 21.12.2019
2240 Clouds 3 976 90 10000 1.5 150 02:51 21.12.2019
2241 Clouds 4 976 93 10000 2.1 130 01:57 21.12.2019
2242 Clouds 3 977 91 10000 2.6 110 01:27 21.12.2019
2243 Clouds 3 977 93 10000 2.6 130 00:52 21.12.2019
2244 Clouds 2 977 93 10000 2.6 130 00:32 21.12.2019
2245 Clouds 2 977 91 10000 1.5 0 23:57 20.12.2019
2246 Clouds 2 977 91 10000 1.5 0 23:37 20.12.2019
2247 Clear 2 977 90 10000 1.5 0 23:18 20.12.2019
2248 Clear 2 977 100 10000 1 170 22:40 20.12.2019
2249 Clear 1 977 90 10000 1 210 22:21 20.12.2019
2250 Clear 1 977 90 10000 1 210 21:58 20.12.2019
2251 Clear 1 977 90 10000 1 0 21:39 20.12.2019
2252 Clear 2 977 90 10000 1.5 190 21:19 20.12.2019
2253 Clear 2 978 90 10000 1.5 190 20:41 20.12.2019
2254 Clouds 2 978 92 10000 1.5 0 20:20 20.12.2019
2255 Clouds 3 978 86 10000 1.5 0 19:59 20.12.2019
2256 Clouds 3 978 86 10000 1.5 0 19:40 20.12.2019
2257 Clouds 3 978 86 10000 1.5 0 19:19 20.12.2019
2258 Clouds 3 978 93 10000 1 180 18:54 20.12.2019
2259 Clouds 3 978 93 10000 1 180 18:36 20.12.2019
2260 Clouds 4 978 93 10000 1.5 0 18:18 20.12.2019
2261 Clouds 4 977 87 10000 2.1 240 17:42 20.12.2019
2262 Clouds 5 977 87 10000 2.1 240 17:21 20.12.2019
2263 Clouds 5 977 87 10000 2.6 240 16:59 20.12.2019
2264 Clouds 5 977 87 10000 2.1 240 16:39 20.12.2019
2265 Clouds 6 977 87 10000 2.1 240 16:20 20.12.2019
2266 Clouds 6 977 87 10000 3.1 240 15:56 20.12.2019
2267 Clouds 6 977 87 10000 3.1 250 15:38 20.12.2019
2268 Clouds 6 977 87 10000 3.1 250 15:19 20.12.2019
2269 Clouds 6 977 87 10000 3.1 250 15:19 20.12.2019
2270 Clouds 7 977 87 10000 4.1 250 14:54 20.12.2019
2271 Clouds 6 977 87 10000 4.1 250 14:54 20.12.2019
2272 Clouds 6 977 93 10000 4.1 270 14:36 20.12.2019
2273 Clouds 6 977 93 10000 4.1 270 14:18 20.12.2019
2274 Clouds 6 978 93 10000 3.6 260 13:41 20.12.2019
2275 Clouds 6 978 93 10000 4.1 250 13:20 20.12.2019
2276 Clouds 6 978 93 10000 4.6 250 12:57 20.12.2019
2277 Clouds 5 978 93 10000 4.6 260 12:38 20.12.2019
2278 Clouds 5 978 93 10000 4.6 260 12:19 20.12.2019
2279 Mist 5 978 93 5000 4.6 260 11:58 20.12.2019
2280 Mist 4 978 93 5000 4.1 260 11:39 20.12.2019
2281 Mist 5 978 93 5000 4.1 260 11:19 20.12.2019
2282 Clouds 4 978 100 10000 4.1 250 10:57 20.12.2019
2283 Clouds 5 978 100 10000 3.1 240 10:39 20.12.2019
2284 Clouds 5 978 100 10000 3.1 240 10:20 20.12.2019
2285 Clouds 5 978 100 10000 2.6 250 09:44 20.12.2019
2286 Clouds 5 978 100 10000 2.6 250 09:44 20.12.2019
2287 Clouds 5 978 93 10000 3.1 250 09:22 20.12.2019
2288 Clouds 5 978 93 10000 3.1 250 08:59 20.12.2019
2289 Clouds 4 978 93 10000 3.1 250 08:41 20.12.2019
2290 Clouds 4 977 93 10000 4.6 260 08:22 20.12.2019
2291 Clouds 5 977 93 10000 4.1 260 07:58 20.12.2019
2292 Clouds 5 977 93 10000 4.1 250 07:39 20.12.2019
2293 Drizzle 5 977 93 10000 4.1 250 07:18 20.12.2019
2294 Drizzle 5 977 93 10000 4.1 250 06:48 20.12.2019
2295 Drizzle 5 977 93 10000 4.1 250 06:48 20.12.2019
2296 Drizzle 5 977 100 10000 3.6 240 06:30 20.12.2019
2297 Drizzle 5 977 100 10000 3.1 240 05:49 20.12.2019
2298 Drizzle 5 977 93 10000 3.6 250 05:21 20.12.2019
2299 Clouds 6 977 93 10000 5.7 270 03:50 20.12.2019
2300 Drizzle 6 977 93 7000 4.1 280 03:28 20.12.2019
2301 Fog 6 977 100 900 0.5 0 02:33 20.12.2019
2302 Drizzle 6 977 93 5000 0.5 360 01:36 20.12.2019
2303 Drizzle 6 977 93 5000 0.5 360 01:36 20.12.2019
2304 Rain 7 977 100 5000 4.85 236 00:58 20.12.2019
2305 Rain 7 977 93 10000 0.5 360 00:39 20.12.2019
2306 Clouds 7 977 100 10000 1.5 0 23:59 19.12.2019
2307 Clouds 7 977 100 10000 2.1 220 23:40 19.12.2019
2308 Clouds 7 977 100 10000 1.5 0 23:40 19.12.2019
2309 Clouds 7 977 100 10000 2.1 220 23:22 19.12.2019
2310 Clouds 7 977 100 9000 2.1 210 22:41 19.12.2019
2311 Clouds 7 977 100 9000 1 0 22:23 19.12.2019
2312 Rain 7 977 93 9000 0.5 220 21:59 19.12.2019
2313 Rain 7 977 93 9000 0.5 220 21:59 19.12.2019
2314 Rain 7 978 100 9000 1.5 0 21:41 19.12.2019
2315 Rain 7 978 100 9000 1.5 0 21:20 19.12.2019
2316 Rain 7 978 93 7000 0.5 0 20:58 19.12.2019
2317 Rain 7 978 93 5000 1 0 20:38 19.12.2019
2318 Rain 7 978 93 5000 1 0 20:20 19.12.2019
2319 Rain 7 978 93 5000 1 0 20:20 19.12.2019
2320 Rain 7 979 93 9000 2.1 230 19:59 19.12.2019
2321 Rain 7 979 93 9000 2.1 230 19:59 19.12.2019
2322 Rain 7 979 93 8000 4.6 280 19:40 19.12.2019
2323 Rain 7 979 93 8000 4.6 280 19:20 19.12.2019
2324 Rain 8 979 93 8000 3.1 300 18:59 19.12.2019
2325 Rain 8 980 93 8000 2.6 60 18:40 19.12.2019
2326 Rain 8 980 93 8000 2.6 60 18:20 19.12.2019
2327 Rain 8 981 93 8000 3.1 90 17:56 19.12.2019
2328 Rain 8 982 93 7000 4.6 120 17:38 19.12.2019
2329 Rain 8 982 93 7000 4.6 120 17:18 19.12.2019
2330 Rain 9 983 93 7000 6.2 130 16:56 19.12.2019
2331 Rain 9 983 93 7000 6.2 130 16:56 19.12.2019
2332 Rain 9 983 93 7000 6.2 130 16:56 19.12.2019
2333 Rain 9 983 100 7000 5.7 120 16:38 19.12.2019
2334 Rain 9 983 100 7000 5.7 120 16:19 19.12.2019
2335 Rain 9 984 93 6000 4.6 120 15:58 19.12.2019
2336 Rain 9 985 93 6000 3.6 130 15:38 19.12.2019
2337 Rain 9 985 93 6000 3.6 130 15:38 19.12.2019
2338 Rain 9 985 93 6000 3.6 130 15:19 19.12.2019
2339 Rain 9 986 93 10000 4.1 140 14:57 19.12.2019
2340 Clouds 9 986 93 10000 5.7 120 14:39 19.12.2019
2341 Clouds 9 986 93 10000 5.7 120 14:18 19.12.2019
2342 Clouds 9 988 87 10000 4.6 130 13:39 19.12.2019
2343 Clouds 9 988 87 10000 4.6 130 13:20 19.12.2019
2344 Rain 9 988 87 10000 4.6 140 12:58 19.12.2019
2345 Rain 9 989 87 10000 3.1 140 12:40 19.12.2019
2346 Rain 9 989 87 10000 3.1 140 12:19 19.12.2019
2347 Rain 9 989 87 10000 3.6 120 11:59 19.12.2019
2348 Clouds 8 989 93 10000 1.5 0 11:41 19.12.2019
2349 Clouds 8 989 93 10000 1.5 0 11:19 19.12.2019
2350 Clouds 8 989 87 10000 1 0 10:59 19.12.2019
2351 Clouds 8 989 87 10000 1.5 0 10:38 19.12.2019
2352 Clouds 8 989 87 10000 1.5 0 10:38 19.12.2019
2353 Clouds 8 989 87 10000 1.5 0 10:20 19.12.2019
2354 Rain 8 989 87 10000 2.1 140 09:56 19.12.2019
2355 Clouds 8 989 87 10000 3.6 150 09:37 19.12.2019
2356 Clouds 8 989 87 10000 3.6 150 09:37 19.12.2019
2357 Clouds 8 989 87 10000 3.6 150 09:19 19.12.2019
2358 Clouds 8 989 87 10000 4.6 150 08:55 19.12.2019
2359 Clouds 8 989 87 10000 4.6 150 08:55 19.12.2019
2360 Clouds 8 989 87 10000 5.7 160 08:36 19.12.2019
2361 Clouds 8 989 87 10000 5.7 160 08:18 19.12.2019
2362 Clouds 7 989 87 10000 3.6 150 07:41 19.12.2019
2363 Clouds 7 989 87 10000 3.6 150 07:23 19.12.2019
2364 Clouds 8 989 87 10000 3.6 150 06:58 19.12.2019
2365 Clouds 8 989 81 10000 4.1 160 06:39 19.12.2019
2366 Clouds 8 989 76 10000 2.1 140 06:21 19.12.2019
2367 Clouds 9 989 76 10000 1 0 05:42 19.12.2019
2368 Clouds 9 989 76 10000 1 0 05:18 19.12.2019
2369 Clouds 9 989 76 10000 6.7 190 03:51 19.12.2019
2370 Clouds 9 989 76 10000 3.6 200 02:25 19.12.2019
2371 Clouds 9 988 71 10000 8.7 200 01:24 19.12.2019
2372 Clouds 10 987 71 10000 9.3 200 00:55 19.12.2019
2373 Clouds 10 987 71 10000 9.3 180 00:36 19.12.2019
2374 Clouds 10 986 71 10000 11.3 190 00:18 19.12.2019
2375 Clouds 10 985 71 10000 11.8 200 23:43 18.12.2019
2376 Clouds 10 985 71 10000 11.8 200 23:43 18.12.2019
2377 Clouds 10 985 71 10000 11.8 200 23:19 18.12.2019
2378 Rain 10 984 71 10000 10.3 200 22:56 18.12.2019
2379 Rain 10 984 76 10000 10.3 180 22:38 18.12.2019
2380 Rain 11 984 76 10000 10.3 180 22:20 18.12.2019
2381 Rain 11 983 81 10000 11.3 160 21:58 18.12.2019
2382 Drizzle 11 983 87 8000 8.2 150 21:39 18.12.2019
2383 Drizzle 11 983 87 8000 8.2 150 21:20 18.12.2019
2384 Drizzle 11 984 93 8000 10.8 150 20:56 18.12.2019
2385 Drizzle 10 984 93 5000 12.3 150 20:38 18.12.2019
2386 Drizzle 10 984 93 5000 12.3 150 20:19 18.12.2019
2387 Drizzle 10 985 93 4000 11.3 150 19:56 18.12.2019
2388 Drizzle 9 986 93 4000 11.8 140 19:37 18.12.2019
2389 Drizzle 9 986 93 4000 11.8 140 19:18 18.12.2019
2390 Drizzle 9 987 100 4500 9.8 140 18:45 18.12.2019
2391 Drizzle 8 987 100 4500 9.8 140 18:25 18.12.2019
2392 Drizzle 8 988 93 4000 9.8 140 17:58 18.12.2019
2393 Drizzle 9 989 87 4000 9.8 140 17:39 18.12.2019
2394 Drizzle 9 989 87 4000 9.8 140 17:39 18.12.2019
2395 Drizzle 9 989 87 4000 9.8 140 17:20 18.12.2019
2396 Drizzle 9 990 87 3000 10.3 140 16:58 18.12.2019
2397 Drizzle 9 990 87 3000 10.3 140 16:40 18.12.2019
2398 Drizzle 9 990 87 3000 10.3 140 16:40 18.12.2019
2399 Drizzle 8 991 100 3000 9.8 140 16:21 18.12.2019
2400 Drizzle 8 991 100 3500 11.8 150 15:56 18.12.2019
2401 Drizzle 8 991 100 3500 11.8 150 15:38 18.12.2019
2402 Drizzle 9 992 93 4000 11.3 150 15:20 18.12.2019
2403 Drizzle 8 993 93 4000 12.3 150 14:43 18.12.2019
2404 Rain 8 994 93 4500 10.3 150 14:22 18.12.2019
2405 Rain 8 995 93 6000 10.8 150 13:58 18.12.2019
2406 Rain 8 995 93 6000 10.8 150 13:39 18.12.2019
2407 Rain 8 995 93 5000 10.8 150 13:20 18.12.2019
2408 Rain 8 996 93 6000 9.8 140 12:59 18.12.2019
2409 Rain 8 996 93 6000 9.8 140 12:39 18.12.2019
2410 Rain 8 997 93 6000 10.8 140 12:20 18.12.2019
2411 Rain 8 997 93 6000 10.3 140 11:56 18.12.2019
2412 Rain 8 997 93 6000 10.3 140 11:38 18.12.2019
2413 Rain 8 997 93 6000 10.3 140 11:38 18.12.2019
2414 Rain 8 998 93 7000 8.2 140 11:19 18.12.2019
2415 Drizzle 8 998 87 9000 8.2 140 10:57 18.12.2019
2416 Drizzle 8 998 87 9000 8.2 140 10:57 18.12.2019
2417 Drizzle 7 998 87 9000 8.2 140 10:38 18.12.2019
2418 Rain 7 998 81 10000 7.2 140 10:20 18.12.2019
2419 Clouds 7 999 81 10000 7.7 140 09:50 18.12.2019
2420 Clouds 7 999 81 10000 7.7 140 09:50 18.12.2019
2421 Clouds 7 999 81 10000 7.2 140 09:19 18.12.2019
2422 Rain 6 999 87 10000 8.2 160 08:41 18.12.2019
2423 Rain 6 1000 87 10000 5.7 140 08:23 18.12.2019
2424 Rain 6 1000 87 10000 6.2 160 07:55 18.12.2019
2425 Clouds 5 1000 87 10000 6.2 160 07:36 18.12.2019
2426 Clouds 5 1000 93 10000 4.6 140 07:18 18.12.2019
2427 Clouds 3 1001 100 10000 2.6 130 06:49 18.12.2019
2428 Clouds 2 1001 88 10000 3.1 90 06:22 18.12.2019
2429 Clouds 1 1002 92 10000 2.1 130 05:27 18.12.2019
2430 Clouds 1 1002 93 10000 2.1 150 03:31 18.12.2019
2431 Clouds 1 1002 89 10000 1.5 0 02:41 18.12.2019
2432 Clouds 1 1002 100 10000 2.1 160 02:23 18.12.2019
2433 Clouds 0 1003 100 10000 1.5 150 01:42 18.12.2019
2434 Clouds 0 1002 100 10000 1.5 120 01:23 18.12.2019
2435 Clouds -1 1002 100 10000 1.5 160 00:42 18.12.2019
2436 Clouds 0 1002 100 10000 1.5 140 00:23 18.12.2019
2437 Clouds 0 1002 100 10000 1 180 23:57 17.12.2019
2438 Clouds 0 1002 100 10000 1 180 23:39 17.12.2019
2439 Clear -1 1002 100 10000 1 190 23:19 17.12.2019
2440 Fog -1 1002 100 10000 0.5 140 22:56 17.12.2019
2441 Fog -1 1002 100 10000 0.5 140 22:38 17.12.2019
2442 Fog -1 1002 100 5000 0.5 140 22:19 17.12.2019
2443 Clouds 0 1001 92 6000 1.5 270 21:55 17.12.2019
2444 Clouds 0 1001 92 6000 1.5 270 21:37 17.12.2019
2445 Clouds 0 1001 92 7000 2.6 290 21:19 17.12.2019
2446 Clouds 0 1001 100 9000 2.6 290 20:57 17.12.2019
2447 Clouds 1 1001 100 9000 2.6 290 20:38 17.12.2019
2448 Clouds 1 1001 93 9000 2.6 270 20:18 17.12.2019
2449 Clouds 1 1001 93 9000 2.6 270 19:56 17.12.2019
2450 Clouds 1 1001 93 9000 2.6 270 19:37 17.12.2019
2451 Clouds 1 1000 93 10000 3.1 270 19:18 17.12.2019
2452 Clouds 1 1000 93 10000 2.6 250 18:43 17.12.2019
2453 Clouds 1 1000 93 10000 2.6 250 18:43 17.12.2019
2454 Clouds 2 1000 93 10000 2.1 250 18:23 17.12.2019
2455 Clouds 2 1000 93 10000 3.1 250 17:59 17.12.2019
2456 Clouds 2 1000 93 10000 3.1 250 17:41 17.12.2019
2457 Clouds 2 1000 93 10000 3.1 250 17:41 17.12.2019
2458 Clouds 3 1000 86 10000 2.6 250 17:19 17.12.2019
2459 Clouds 3 999 86 10000 3.1 250 16:56 17.12.2019
2460 Clouds 4 999 86 10000 3.1 250 16:37 17.12.2019
2461 Clouds 4 999 86 10000 3.1 260 16:19 17.12.2019
2462 Clouds 4 999 93 10000 2.6 240 15:56 17.12.2019
2463 Clouds 4 999 93 10000 2.6 240 15:37 17.12.2019
2464 Clouds 4 999 93 10000 3.6 250 15:19 17.12.2019
2465 Clouds 4 999 100 9000 4.1 250 14:55 17.12.2019
2466 Clouds 4 999 100 9000 4.1 250 14:37 17.12.2019
2467 Clouds 4 999 100 9000 3.6 260 14:18 17.12.2019
2468 Clouds 4 999 100 9000 3.6 260 14:18 17.12.2019
2469 Clouds 4 998 93 9000 3.6 260 13:55 17.12.2019
2470 Clouds 4 998 93 9000 3.6 260 13:37 17.12.2019
2471 Clouds 4 998 100 7000 3.6 260 13:18 17.12.2019
2472 Mist 4 998 100 3000 4.1 260 12:41 17.12.2019
2473 Clouds 4 999 100 7000 3.6 260 12:19 17.12.2019
2474 Clouds 3 999 93 7000 4.1 250 11:59 17.12.2019
2475 Clouds 3 999 93 7000 4.1 250 11:59 17.12.2019
2476 Clouds 3 999 93 7000 4.1 250 11:38 17.12.2019
2477 Clouds 3 998 93 7000 3.6 260 11:19 17.12.2019
2478 Clouds 3 998 100 9000 3.6 260 10:59 17.12.2019
2479 Clouds 3 998 100 9000 3.6 260 10:41 17.12.2019
2480 Clouds 3 998 100 9000 3.6 260 10:41 17.12.2019
2481 Clouds 3 997 93 9000 4.1 260 10:22 17.12.2019
2482 Drizzle 3 997 93 10000 4.6 260 09:59 17.12.2019
2483 Drizzle 3 997 93 10000 4.6 260 09:41 17.12.2019
2484 Drizzle 3 997 93 10000 3.1 250 09:20 17.12.2019
2485 Drizzle 3 997 93 10000 4.1 250 08:56 17.12.2019
2486 Drizzle 3 997 93 10000 4.1 250 08:38 17.12.2019
2487 Clouds 3 996 93 10000 3.6 240 08:19 17.12.2019
2488 Clouds 3 996 93 10000 3.1 240 07:47 17.12.2019
2489 Clouds 3 996 86 10000 3.6 250 07:27 17.12.2019
2490 Clouds 3 996 86 10000 3.1 240 06:59 17.12.2019
2491 Clouds 3 996 86 10000 3.1 240 06:35 17.12.2019
2492 Clouds 3 996 80 10000 3.6 240 05:53 17.12.2019
2493 Clouds 3 996 80 10000 3.6 230 05:35 17.12.2019
2494 Clouds 3 996 80 10000 3.1 220 04:31 17.12.2019
2495 Clear 3 996 91 10000 4.1 220 02:34 17.12.2019
2496 Clear 3 996 89 10000 4.1 220 01:55 17.12.2019
2497 Clear 3 996 88 10000 4.6 220 00:59 17.12.2019
2498 Clear 3 996 88 10000 4.6 220 00:38 17.12.2019
2499 Clear 3 996 88 10000 3.6 220 00:19 17.12.2019
2500 Clear 3 995 88 10000 4.1 230 23:41 16.12.2019
2501 Clear 3 996 88 10000 3.6 220 23:19 16.12.2019
2502 Clear 3 996 88 10000 3.6 220 23:19 16.12.2019
2503 Clear 3 996 88 10000 3.6 220 23:19 16.12.2019
2504 Clear 3 996 88 10000 3.6 220 23:19 16.12.2019
2505 Clear 3 996 88 10000 4.6 230 22:56 16.12.2019
2506 Clear 3 996 88 10000 4.6 230 22:37 16.12.2019
2507 Clouds 2 996 88 10000 4.1 220 22:19 16.12.2019
2508 Clouds 2 996 88 10000 4.1 220 22:19 16.12.2019
2509 Clouds 2 996 88 10000 3.1 200 21:55 16.12.2019
2510 Clouds 2 996 88 10000 3.1 200 21:55 16.12.2019
2511 Clouds 2 996 88 10000 3.1 200 21:37 16.12.2019
2512 Clouds 2 996 88 10000 3.1 210 21:19 16.12.2019
2513 Clouds 2 996 88 10000 3.6 210 20:57 16.12.2019
2514 Clouds 2 996 88 10000 3.6 210 20:37 16.12.2019
2515 Clouds 2 996 88 10000 4.1 220 20:19 16.12.2019
2516 Clouds 2 996 88 10000 4.1 210 19:56 16.12.2019
2517 Clouds 2 996 88 10000 4.1 210 19:56 16.12.2019
2518 Clouds 2 996 88 10000 4.1 210 19:37 16.12.2019
2519 Clouds 2 996 88 10000 4.1 210 19:18 16.12.2019
2520 Clouds 3 996 88 10000 4.1 210 18:56 16.12.2019
2521 Clouds 3 996 88 10000 3.6 210 18:37 16.12.2019
2522 Clouds 3 996 88 10000 3.6 210 18:19 16.12.2019
2523 Clouds 4 996 88 10000 3.6 210 17:57 16.12.2019
2524 Clouds 3 996 88 10000 3.6 210 17:38 16.12.2019
2525 Clouds 4 996 88 10000 3.6 210 17:38 16.12.2019
2526 Clouds 4 996 83 10000 4.1 210 17:19 16.12.2019
2527 Clouds 4 996 75 10000 5.1 220 16:55 16.12.2019
2528 Clouds 5 996 75 10000 5.1 220 16:37 16.12.2019
2529 Clouds 5 996 70 10000 4.6 210 16:18 16.12.2019
2530 Clouds 5 996 70 10000 5.1 210 15:57 16.12.2019
2531 Clouds 5 996 70 10000 5.1 220 15:38 16.12.2019
2532 Clouds 5 996 70 10000 5.1 220 15:19 16.12.2019
2533 Clouds 6 996 70 10000 4.1 230 14:54 16.12.2019
2534 Clouds 6 996 70 10000 4.1 230 14:36 16.12.2019
2535 Clouds 6 996 70 10000 4.1 240 14:18 16.12.2019
2536 Clouds 5 996 70 10000 5.1 220 13:55 16.12.2019
2537 Clouds 5 996 70 10000 5.1 220 13:36 16.12.2019
2538 Clouds 5 996 70 10000 4.6 220 13:18 16.12.2019
2539 Clouds 5 996 70 10000 4.6 220 13:18 16.12.2019
2540 Clouds 5 996 75 10000 4.1 220 12:54 16.12.2019
2541 Clouds 5 996 75 10000 4.1 220 12:36 16.12.2019
2542 Clouds 5 996 75 10000 4.6 220 12:18 16.12.2019
2543 Clouds 4 996 80 10000 4.1 230 11:55 16.12.2019
2544 Clouds 4 996 80 10000 4.1 230 11:37 16.12.2019
2545 Clouds 3 996 91 10000 4.1 230 11:19 16.12.2019
2546 Clouds 3 995 89 10000 4.6 210 10:40 16.12.2019
2547 Clouds 3 995 89 10000 4.6 210 10:40 16.12.2019
2548 Clouds 3 995 89 10000 4.1 230 10:21 16.12.2019
2549 Clouds 2 995 89 10000 4.1 230 09:59 16.12.2019
2550 Clouds 3 995 91 10000 4.1 220 09:41 16.12.2019
2551 Clouds 3 994 91 10000 4.6 230 09:23 16.12.2019
2552 Clouds 3 993 86 10000 5.1 250 08:40 16.12.2019
2553 Clouds 3 993 86 10000 4.6 230 08:19 16.12.2019
2554 Clouds 2 993 89 10000 4.6 230 07:53 16.12.2019
2555 Clouds 2 993 89 10000 4.6 230 07:31 16.12.2019
2556 Clouds 3 992 86 10000 4.6 230 06:57 16.12.2019
2557 Clouds 3 992 86 10000 4.6 230 06:39 16.12.2019
2558 Clouds 3 992 86 10000 4.1 230 06:18 16.12.2019
2559 Clouds 3 991 86 10000 5.7 250 05:41 16.12.2019
2560 Clouds 3 991 86 10000 7.2 260 05:22 16.12.2019
2561 Rain 4 988 86 10000 5.7 230 03:28 16.12.2019
2562 Clouds 5 987 75 10000 6.7 230 01:46 16.12.2019
2563 Clouds 5 987 75 10000 6.2 220 01:21 16.12.2019
2564 Clouds 5 986 75 10000 6.7 220 00:39 16.12.2019
2565 Clouds 5 986 83 10000 6.7 220 00:19 16.12.2019
2566 Clouds 5 986 83 10000 7.7 220 23:44 15.12.2019
2567 Clouds 5 986 76 10000 7.2 220 23:25 15.12.2019
2568 Clouds 5 986 76 10000 6.7 220 22:57 15.12.2019
2569 Clouds 5 986 76 10000 6.7 220 22:39 15.12.2019
2570 Clouds 5 986 76 10000 7.7 220 22:19 15.12.2019
2571 Clouds 5 987 76 10000 4.6 200 21:58 15.12.2019
2572 Clouds 5 987 76 10000 4.6 200 21:39 15.12.2019
2573 Clouds 5 987 80 10000 4.1 180 21:20 15.12.2019
2574 Clouds 5 987 80 10000 4.1 180 21:20 15.12.2019
2575 Clouds 5 987 80 10000 4.6 180 20:58 15.12.2019
2576 Clouds 5 987 80 10000 4.6 180 20:58 15.12.2019
2577 Clouds 5 987 80 10000 4.6 180 20:40 15.12.2019
2578 Clouds 4 987 75 10000 4.6 190 20:22 15.12.2019
2579 Clouds 4 987 75 10000 5.7 190 19:58 15.12.2019
2580 Clouds 4 987 81 10000 6.2 190 19:40 15.12.2019
2581 Clouds 4 987 82 10000 6.2 190 19:20 15.12.2019
2582 Clouds 4 987 81 10000 2.6 180 18:58 15.12.2019
2583 Clouds 4 987 81 10000 2.6 180 18:58 15.12.2019
2584 Clouds 4 987 82 10000 2.6 180 18:39 15.12.2019
2585 Clouds 4 987 80 10000 2.1 200 18:19 15.12.2019
2586 Clouds 4 987 80 10000 2.6 190 17:57 15.12.2019
2587 Clouds 4 987 80 10000 3.6 180 17:38 15.12.2019
2588 Clouds 4 987 80 10000 3.6 180 17:19 15.12.2019
2589 Clouds 4 987 80 10000 4.1 210 16:59 15.12.2019
2590 Clouds 4 987 80 10000 4.1 210 16:41 15.12.2019
2591 Clouds 4 987 80 10000 3.6 220 16:21 15.12.2019
2592 Clouds 5 987 80 10000 4.1 210 15:56 15.12.2019
2593 Clouds 5 987 80 10000 4.1 210 15:56 15.12.2019
2594 Clouds 4 987 80 10000 4.1 210 15:38 15.12.2019
2595 Clouds 4 987 75 10000 2.6 150 15:19 15.12.2019
2596 Clouds 4 987 75 10000 2.6 150 15:19 15.12.2019
2597 Rain 4 988 80 10000 3.1 150 14:56 15.12.2019
2598 Rain 4 988 80 10000 3.1 150 14:37 15.12.2019
2599 Rain 3 988 76 10000 4.1 160 14:18 15.12.2019
2600 Rain 4 988 69 10000 2.1 140 13:58 15.12.2019
2601 Rain 4 988 69 10000 2.1 140 13:37 15.12.2019
2602 Rain 3 988 69 10000 2.1 150 13:19 15.12.2019
2603 Clouds 3 989 69 10000 2.1 170 12:57 15.12.2019
2604 Clouds 3 989 69 10000 2.1 170 12:39 15.12.2019
2605 Clouds 3 989 76 10000 1.5 0 12:20 15.12.2019
2606 Clouds 2 989 76 10000 2.1 190 11:56 15.12.2019
2607 Clouds 1 989 86 10000 3.1 210 11:36 15.12.2019
2608 Clouds 1 989 86 10000 3.1 210 11:18 15.12.2019
2609 Clouds 1 989 86 10000 3.6 200 10:55 15.12.2019
2610 Clouds 1 988 86 10000 3.6 170 10:36 15.12.2019
2611 Clouds 1 988 86 10000 3.6 170 10:18 15.12.2019
2612 Clouds 1 987 91 10000 5.7 250 09:40 15.12.2019
2613 Clouds 1 987 86 10000 5.1 250 09:20 15.12.2019
2614 Clouds 1 987 91 10000 5.1 250 08:58 15.12.2019
2615 Clouds 1 987 91 10000 5.1 250 08:39 15.12.2019
2616 Clouds 1 987 88 10000 4.6 250 08:20 15.12.2019
2617 Clouds 1 986 88 10000 5.1 250 07:56 15.12.2019
2618 Clouds 1 985 88 10000 7.2 260 07:34 15.12.2019
2619 Clouds 2 985 88 10000 6.2 250 06:44 15.12.2019
2620 Clouds 2 984 93 10000 4.6 250 06:19 15.12.2019
2621 Rain 2 983 88 10000 6.7 260 05:26 15.12.2019
2622 Clouds 2 982 95 10000 7.7 250 04:47 15.12.2019
2623 Clouds 2 981 95 10000 5.7 240 03:22 15.12.2019
2624 Clouds 2 981 95 10000 5.7 240 02:33 15.12.2019
2625 Clouds 2 980 92 10000 5.1 240 01:46 15.12.2019
2626 Clouds 2 981 94 10000 6.2 240 01:28 15.12.2019
2627 Clouds 2 981 94 10000 3.6 240 00:54 15.12.2019
2628 Clouds 2 981 94 10000 3.6 240 00:35 15.12.2019
2629 Clouds 3 980 86 10000 3.1 230 23:58 14.12.2019
2630 Clouds 3 980 86 10000 3.1 230 23:58 14.12.2019
2631 Clouds 2 980 86 10000 3.1 230 23:39 14.12.2019
2632 Clouds 2 980 86 10000 4.6 220 23:19 14.12.2019
2633 Clouds 3 980 86 10000 4.6 240 22:57 14.12.2019
2634 Clouds 3 980 86 10000 4.6 240 22:39 14.12.2019
2635 Clouds 3 981 80 10000 2.6 230 22:20 14.12.2019
2636 Clouds 3 981 93 10000 3.1 220 21:55 14.12.2019
2637 Clouds 3 981 93 10000 3.1 220 21:55 14.12.2019
2638 Clouds 3 981 93 10000 3.1 220 21:37 14.12.2019
2639 Clouds 4 982 93 10000 3.1 230 21:18 14.12.2019
2640 Clouds 4 982 69 10000 3.1 210 20:55 14.12.2019
2641 Clouds 3 982 69 10000 3.1 210 20:37 14.12.2019
2642 Clouds 3 983 64 10000 2.6 190 20:18 14.12.2019
2643 Clouds 3 983 64 10000 2.6 190 20:18 14.12.2019
2644 Clouds 3 983 64 10000 3.1 190 19:40 14.12.2019
2645 Clouds 2 983 69 10000 3.6 190 19:21 14.12.2019
2646 Clouds 3 984 64 10000 4.1 220 18:57 14.12.2019
2647 Clouds 3 984 64 10000 4.1 220 18:39 14.12.2019
2648 Clouds 3 984 69 10000 4.6 220 18:21 14.12.2019
2649 Clouds 3 984 64 10000 6.2 220 17:59 14.12.2019
2650 Clouds 3 984 64 10000 6.2 220 17:41 14.12.2019
2651 Clouds 4 985 64 10000 6.7 220 17:22 14.12.2019
2652 Clouds 5 985 65 10000 7.2 220 16:41 14.12.2019
2653 Clouds 5 985 73 10000 7.7 220 16:19 14.12.2019
2654 Clouds 5 985 73 10000 6.7 230 15:56 14.12.2019
2655 Clouds 5 985 73 10000 6.7 230 15:38 14.12.2019
2656 Clouds 4 985 73 10000 7.2 220 15:19 14.12.2019
2657 Clouds 4 985 73 10000 6.2 230 14:56 14.12.2019
2658 Clouds 4 985 73 10000 6.2 230 14:37 14.12.2019
2659 Clouds 4 985 73 10000 6.2 230 14:37 14.12.2019
2660 Clouds 5 985 75 10000 6.7 230 14:18 14.12.2019
2661 Clouds 4 985 71 10000 7.2 240 13:44 14.12.2019
2662 Clouds 4 985 69 10000 7.7 240 13:19 14.12.2019
2663 Clouds 3 985 71 10000 6.7 230 12:58 14.12.2019
2664 Clouds 3 985 71 10000 6.7 230 12:39 14.12.2019
2665 Clouds 3 985 69 10000 7.7 240 12:20 14.12.2019
2666 Clouds 2 985 69 10000 7.2 240 11:58 14.12.2019
2667 Clouds 2 985 71 10000 7.2 240 11:39 14.12.2019
2668 Clouds 2 984 83 10000 6.7 240 11:19 14.12.2019
2669 Clouds 2 984 83 10000 5.7 240 10:56 14.12.2019
2670 Clouds 2 984 83 10000 5.7 240 10:38 14.12.2019
2671 Clouds 2 984 83 10000 7.2 240 10:20 14.12.2019
2672 Clouds 2 983 83 10000 6.2 240 09:43 14.12.2019
2673 Clouds 2 983 93 10000 6.2 240 09:23 14.12.2019
2674 Rain 2 983 86 8000 6.7 240 08:59 14.12.2019
2675 Rain 2 983 86 8000 6.7 240 08:59 14.12.2019
2676 Rain 2 983 86 8000 6.7 240 08:40 14.12.2019
2677 Rain 3 982 68 10000 5.7 230 08:19 14.12.2019
2678 Clouds 3 982 68 10000 7.2 240 07:40 14.12.2019
2679 Clouds 3 982 68 10000 6.7 230 07:21 14.12.2019
2680 Clouds 3 982 68 10000 5.7 230 06:55 14.12.2019
2681 Clouds 3 982 68 10000 6.7 230 06:36 14.12.2019
2682 Clouds 3 982 68 10000 5.7 230 05:52 14.12.2019
2683 Clouds 3 981 71 10000 7.2 250 04:29 14.12.2019
2684 Clouds 3 981 80 10000 6.7 240 02:24 14.12.2019
2685 Clouds 3 980 86 10000 5.7 240 01:44 14.12.2019
2686 Clouds 3 980 77 10000 6.2 250 01:20 14.12.2019
2687 Clouds 4 980 80 10000 6.7 260 00:43 14.12.2019
2688 Clouds 4 980 86 10000 5.7 250 00:22 14.12.2019
2689 Clouds 4 980 86 10000 4.6 250 23:42 13.12.2019
2690 Clouds 4 979 86 10000 5.1 240 23:20 13.12.2019
2691 Clouds 4 979 86 10000 5.7 240 22:59 13.12.2019
2692 Clouds 4 979 86 10000 5.7 240 22:40 13.12.2019
2693 Clouds 4 979 80 10000 5.1 250 22:18 13.12.2019
2694 Clouds 4 979 86 10000 4.6 240 21:46 13.12.2019
2695 Clouds 5 979 80 10000 5.7 250 21:22 13.12.2019
2696 Clouds 5 979 80 10000 5.7 240 20:59 13.12.2019
2697 Clouds 5 979 80 10000 5.7 240 20:40 13.12.2019
2698 Clouds 5 979 80 10000 4.6 250 20:21 13.12.2019
2699 Clouds 5 979 80 10000 4.6 250 19:57 13.12.2019
2700 Clouds 5 979 75 10000 5.1 240 19:39 13.12.2019
2701 Clouds 5 979 75 10000 5.1 240 19:20 13.12.2019
2702 Clouds 5 979 80 10000 4.1 240 18:56 13.12.2019
2703 Clouds 5 979 80 10000 4.6 240 18:38 13.12.2019
2704 Clouds 5 979 80 10000 4.6 240 18:38 13.12.2019
2705 Clouds 5 979 80 10000 4.6 240 18:18 13.12.2019
2706 Clouds 5 979 80 10000 4.6 240 18:18 13.12.2019
2707 Clouds 5 980 70 10000 5.7 250 17:41 13.12.2019
2708 Clouds 5 980 70 10000 5.7 250 17:19 13.12.2019
2709 Clouds 5 980 70 10000 5.7 250 17:19 13.12.2019
2710 Clouds 6 980 70 10000 6.7 250 16:58 13.12.2019
2711 Clouds 6 980 70 10000 6.7 260 16:39 13.12.2019
2712 Clouds 6 980 70 10000 6.7 260 16:20 13.12.2019
2713 Rain 6 980 65 10000 10.3 260 15:43 13.12.2019
2714 Rain 7 980 65 10000 10.3 260 15:22 13.12.2019
2715 Rain 6 980 70 10000 10.8 260 14:57 13.12.2019
2716 Rain 7 980 70 10000 11.3 270 14:39 13.12.2019
2717 Rain 7 980 70 10000 11.3 270 14:20 13.12.2019
2718 Rain 7 980 70 10000 10.8 260 13:45 13.12.2019
2719 Rain 7 980 70 10000 9.8 260 13:27 13.12.2019
2720 Clouds 7 980 70 10000 10.3 260 12:59 13.12.2019
2721 Clouds 6 980 75 10000 9.8 260 12:41 13.12.2019
2722 Clouds 6 980 75 10000 9.8 260 12:19 13.12.2019
2723 Rain 6 979 75 10000 9.3 250 11:45 13.12.2019
2724 Clouds 6 979 75 10000 9.3 260 11:27 13.12.2019
2725 Clouds 6 978 75 10000 8.7 250 10:58 13.12.2019
2726 Clouds 5 978 80 10000 8.7 250 10:40 13.12.2019
2727 Clouds 5 978 80 10000 8.7 250 10:21 13.12.2019
2728 Clouds 5 978 80 10000 8.7 250 09:43 13.12.2019
2729 Clouds 5 978 80 10000 9.3 260 09:22 13.12.2019
2730 Clouds 5 977 80 10000 8.2 260 08:55 13.12.2019
2731 Clouds 5 977 80 10000 9.3 260 08:37 13.12.2019
2732 Clouds 5 977 80 10000 9.3 260 08:19 13.12.2019
2733 Clouds 5 976 80 10000 10.3 260 07:43 13.12.2019
2734 Clouds 5 976 80 10000 10.3 260 07:19 13.12.2019
2735 Clouds 5 976 80 10000 9.3 260 06:46 13.12.2019
2736 Clouds 5 975 80 10000 11.3 270 06:27 13.12.2019
2737 Rain 5 975 86 10000 10.8 260 05:41 13.12.2019
2738 Rain 5 975 86 10000 10.8 260 05:20 13.12.2019
2739 Clouds 5 974 86 10000 8.2 250 04:29 13.12.2019
2740 Clouds 5 974 86 10000 7.2 250 03:29 13.12.2019
2741 Clouds 5 973 86 10000 8.7 260 02:31 13.12.2019
2742 Clouds 5 973 86 10000 9.3 260 01:39 13.12.2019
2743 Clouds 5 973 86 10000 8.2 270 00:51 13.12.2019
2744 Clouds 5 973 93 10000 8.7 270 00:29 13.12.2019
2745 Clouds 5 973 93 10000 8.2 270 23:46 12.12.2019
2746 Rain 5 973 93 10000 7.7 270 23:27 12.12.2019
2747 Rain 5 972 93 9000 9.8 290 22:57 12.12.2019
2748 Rain 4 972 93 8000 11.3 270 22:39 12.12.2019
2749 Rain 5 972 93 8000 11.3 270 22:21 12.12.2019
2750 Rain 5 972 93 8000 6.7 270 21:56 12.12.2019
2751 Rain 6 972 93 8000 4.6 250 21:37 12.12.2019
2752 Rain 6 972 93 8000 4.6 250 21:19 12.12.2019
2753 Rain 6 972 93 8000 4.6 250 21:19 12.12.2019
2754 Rain 6 972 93 7000 4.1 230 20:59 12.12.2019
2755 Rain 6 973 93 10000 3.1 230 20:40 12.12.2019
2756 Rain 7 973 93 10000 3.1 230 20:22 12.12.2019
2757 Rain 7 974 93 10000 3.1 230 19:56 12.12.2019
2758 Rain 7 974 93 10000 3.1 230 19:37 12.12.2019
2759 Rain 7 974 93 10000 3.1 230 19:19 12.12.2019
2760 Rain 7 975 93 10000 2.1 240 18:56 12.12.2019
2761 Clouds 7 975 87 10000 3.6 240 18:38 12.12.2019
2762 Clouds 7 975 87 10000 3.6 240 18:19 12.12.2019
2763 Clouds 7 976 93 10000 5.1 250 17:57 12.12.2019
2764 Clouds 7 976 93 10000 4.6 260 17:38 12.12.2019
2765 Clouds 7 976 93 10000 4.6 260 17:19 12.12.2019
2766 Clouds 8 976 87 10000 7.2 270 16:55 12.12.2019
2767 Clouds 8 977 87 10000 7.2 270 16:36 12.12.2019
2768 Clouds 8 977 87 10000 7.2 270 16:18 12.12.2019
2769 Clouds 8 978 87 10000 8.7 270 15:42 12.12.2019
2770 Clouds 8 978 87 10000 8.7 270 15:20 12.12.2019
2771 Clouds 8 978 93 10000 8.2 270 14:59 12.12.2019
2772 Clouds 8 979 93 10000 7.7 270 14:38 12.12.2019
2773 Clouds 8 979 93 10000 7.7 270 14:19 12.12.2019
2774 Drizzle 8 979 93 10000 5.1 260 13:56 12.12.2019
2775 Clouds 8 979 100 10000 3.1 250 13:38 12.12.2019
2776 Clouds 7 979 100 10000 3.1 250 13:20 12.12.2019
2777 Drizzle 7 980 100 10000 3.1 240 12:56 12.12.2019
2778 Drizzle 7 980 93 10000 3.6 240 12:38 12.12.2019
2779 Clouds 7 981 100 10000 2.1 210 12:19 12.12.2019
2780 Rain 7 981 100 10000 2.1 210 11:54 12.12.2019
2781 Rain 6 981 100 10000 1.5 180 11:36 12.12.2019
2782 Rain 6 982 100 10000 1 0 11:18 12.12.2019
2783 Rain 6 982 100 10000 1 0 10:41 12.12.2019
2784 Rain 6 982 100 10000 1 0 10:23 12.12.2019
2785 Rain 6 982 100 10000 1 0 10:23 12.12.2019
2786 Rain 6 983 100 10000 2.1 150 09:59 12.12.2019
2787 Rain 6 983 93 10000 1.5 0 09:41 12.12.2019
2788 Rain 6 983 93 10000 1.5 0 09:23 12.12.2019
2789 Rain 5 984 100 10000 2.1 140 08:55 12.12.2019
2790 Rain 5 985 93 10000 2.6 150 08:37 12.12.2019
2791 Rain 5 985 93 10000 2.6 150 08:18 12.12.2019
2792 Rain 5 986 93 10000 2.6 150 07:41 12.12.2019
2793 Rain 5 986 93 10000 2.6 150 07:23 12.12.2019
2794 Rain 5 987 93 10000 3.1 150 06:44 12.12.2019
2795 Clouds 5 988 86 10000 4.1 140 06:24 12.12.2019
2796 Rain 4 990 93 10000 4.1 140 05:36 12.12.2019
2797 Rain 4 991 86 10000 3.1 120 04:51 12.12.2019
2798 Rain 3 995 80 10000 5.1 200 02:57 12.12.2019
2799 Clouds 3 996 80 10000 4.6 200 02:37 12.12.2019
2800 Clouds 3 996 80 10000 4.6 200 02:18 12.12.2019
2801 Clouds 3 997 82 10000 4.1 220 01:36 12.12.2019
2802 Clouds 3 998 82 10000 4.6 220 00:58 12.12.2019
2803 Clouds 3 998 82 10000 5.1 220 00:38 12.12.2019
2804 Clouds 3 998 82 10000 5.1 220 00:18 12.12.2019
2805 Clouds 3 999 82 10000 5.1 220 23:40 11.12.2019
2806 Clouds 3 999 82 10000 5.1 220 23:19 11.12.2019
2807 Clouds 3 999 82 10000 4.1 220 22:57 11.12.2019
2808 Clouds 3 999 82 10000 4.6 230 22:38 11.12.2019
2809 Clouds 3 999 82 10000 4.6 230 22:19 11.12.2019
2810 Clouds 2 999 82 10000 4.6 240 21:55 11.12.2019
2811 Clouds 2 1000 82 10000 4.1 240 21:37 11.12.2019
2812 Clouds 2 1000 82 10000 4.1 240 21:19 11.12.2019
2813 Clouds 2 1000 82 10000 5.1 240 20:55 11.12.2019
2814 Clouds 2 1000 82 10000 6.2 250 20:37 11.12.2019
2815 Clear 3 1000 79 10000 6.2 250 20:18 11.12.2019
2816 Clouds 3 1000 86 10000 6.2 250 19:43 11.12.2019
2817 Clouds 3 1000 86 10000 6.2 250 19:23 11.12.2019
2818 Clouds 3 999 86 10000 6.2 250 19:00 11.12.2019
2819 Clouds 3 999 86 10000 6.7 250 18:40 11.12.2019
2820 Clouds 3 999 86 10000 6.7 250 18:20 11.12.2019
2821 Clouds 4 999 80 10000 6.2 250 17:57 11.12.2019
2822 Clouds 4 999 80 10000 6.7 250 17:38 11.12.2019
2823 Clouds 4 999 80 10000 6.7 250 17:18 11.12.2019
2824 Clouds 4 999 80 10000 6.7 250 16:56 11.12.2019
2825 Clouds 4 998 75 10000 7.2 260 16:37 11.12.2019
2826 Clouds 4 998 75 10000 7.2 260 16:37 11.12.2019
2827 Clouds 4 998 75 10000 7.2 260 16:19 11.12.2019
2828 Clouds 4 998 75 10000 6.2 260 15:57 11.12.2019
2829 Clouds 5 998 75 10000 7.7 260 15:37 11.12.2019
2830 Clouds 5 998 75 10000 7.7 260 15:19 11.12.2019
2831 Clouds 5 998 75 10000 7.7 250 14:55 11.12.2019
2832 Clouds 5 998 75 10000 6.7 250 14:36 11.12.2019
2833 Clouds 5 998 75 10000 6.7 250 14:18 11.12.2019
2834 Clouds 4 998 80 10000 7.2 250 13:43 11.12.2019
2835 Clouds 4 998 80 10000 7.2 250 13:23 11.12.2019
2836 Clouds 4 998 80 10000 6.7 260 12:58 11.12.2019
2837 Clouds 4 998 80 10000 7.7 250 12:39 11.12.2019
2838 Clouds 4 998 80 10000 7.7 250 12:21 11.12.2019
2839 Clouds 4 998 80 10000 6.2 250 11:58 11.12.2019
2840 Clouds 4 998 86 10000 5.7 240 11:39 11.12.2019
2841 Clouds 3 998 86 10000 5.7 240 11:19 11.12.2019
2842 Clouds 3 998 86 10000 5.7 240 11:19 11.12.2019
2843 Clouds 3 998 86 10000 6.2 250 10:59 11.12.2019
2844 Clouds 3 998 86 10000 5.7 240 10:39 11.12.2019
2845 Clouds 3 998 86 10000 5.7 240 10:21 11.12.2019
2846 Clouds 3 998 86 10000 5.7 230 09:55 11.12.2019
2847 Clouds 3 998 88 10000 5.1 240 09:37 11.12.2019
2848 Clouds 3 998 88 10000 5.1 240 09:19 11.12.2019
2849 Clouds 4 998 80 10000 5.1 230 08:55 11.12.2019
2850 Clouds 3 998 86 10000 5.1 230 08:36 11.12.2019
2851 Clouds 3 998 86 10000 5.1 230 08:18 11.12.2019
2852 Clouds 4 998 80 10000 5.7 230 07:42 11.12.2019
2853 Clouds 4 999 80 10000 5.7 230 07:42 11.12.2019
2854 Clouds 4 999 80 10000 5.7 230 07:22 11.12.2019
2855 Clouds 4 999 80 10000 6.7 230 06:45 11.12.2019
2856 Clouds 4 999 80 10000 7.2 230 06:24 11.12.2019
2857 Clouds 4 1000 80 10000 6.7 230 05:52 11.12.2019
2858 Clouds 4 1000 80 10000 6.2 230 05:28 11.12.2019
2859 Clouds 4 1000 75 10000 6.7 230 04:48 11.12.2019
2860 Clouds 4 1001 80 10000 6.7 240 03:18 11.12.2019
2861 Clouds 4 1002 80 10000 6.7 240 01:56 11.12.2019
2862 Clouds 4 1002 80 10000 7.2 240 01:21 11.12.2019
2863 Clouds 4 1001 80 10000 7.7 250 00:36 11.12.2019
2864 Clouds 5 1001 80 10000 7.7 250 00:18 11.12.2019
2865 Clouds 5 1001 80 10000 7.7 250 23:41 10.12.2019
2866 Clouds 5 1001 80 10000 7.7 250 23:21 10.12.2019
2867 Clouds 5 1001 80 10000 6.7 240 22:42 10.12.2019
2868 Clouds 5 1001 86 10000 5.7 240 22:24 10.12.2019
2869 Clouds 5 1001 86 10000 5.7 240 22:24 10.12.2019
2870 Clouds 4 1000 86 10000 5.1 240 21:58 10.12.2019
2871 Clouds 4 1000 80 10000 6.2 250 21:39 10.12.2019
2872 Clouds 4 1000 80 10000 6.2 250 21:21 10.12.2019
2873 Clouds 5 1000 80 10000 6.2 240 20:58 10.12.2019
2874 Clouds 5 999 80 10000 6.2 240 20:38 10.12.2019
2875 Clouds 5 999 80 10000 6.2 240 20:19 10.12.2019
2876 Clouds 5 999 80 10000 6.2 240 20:19 10.12.2019
2877 Clouds 5 999 80 10000 6.2 240 20:19 10.12.2019
2878 Clouds 5 999 80 10000 6.7 250 19:56 10.12.2019
2879 Clouds 5 998 80 10000 6.7 240 19:37 10.12.2019
2880 Clouds 5 998 80 10000 6.7 240 19:19 10.12.2019
2881 Clouds 5 997 81 10000 5.7 240 18:42 10.12.2019
2882 Clouds 5 996 81 10000 5.7 250 18:21 10.12.2019
2883 Rain 6 996 87 10000 7.7 260 17:59 10.12.2019
2884 Rain 6 995 87 10000 9.8 270 17:41 10.12.2019
2885 Rain 6 995 87 10000 9.8 270 17:22 10.12.2019
2886 Rain 6 993 87 8000 8.7 270 16:57 10.12.2019
2887 Rain 7 993 93 8000 7.7 270 16:39 10.12.2019
2888 Rain 7 993 93 8000 7.7 270 16:19 10.12.2019
2889 Rain 7 993 93 8000 7.7 270 16:19 10.12.2019
2890 Rain 7 992 93 8000 12.9 270 15:39 10.12.2019
2891 Rain 8 992 93 8000 12.9 270 15:18 10.12.2019
2892 Rain 9 989 81 8000 9.3 230 14:56 10.12.2019
2893 Rain 11 989 87 8000 10.3 210 14:38 10.12.2019
2894 Rain 13 989 87 8000 10.3 210 14:20 10.12.2019
2895 Rain 13 989 87 8000 10.3 210 14:20 10.12.2019
2896 Rain 13 990 82 10000 9.3 200 13:58 10.12.2019
2897 Rain 13 991 87 10000 9.3 200 13:40 10.12.2019
2898 Rain 13 991 87 10000 9.3 200 13:20 10.12.2019
2899 Clouds 13 992 82 10000 10.8 200 12:48 10.12.2019
2900 Clouds 13 993 87 10000 11.3 200 12:28 10.12.2019
2901 Clouds 13 994 87 10000 10.3 200 11:56 10.12.2019
2902 Clouds 13 995 82 10000 9.8 200 11:38 10.12.2019
2903 Clouds 13 995 82 10000 9.8 200 11:19 10.12.2019
2904 Clouds 13 995 82 10000 9.8 200 11:19 10.12.2019
2905 Clouds 13 996 87 10000 9.8 200 10:43 10.12.2019
2906 Clouds 13 996 87 10000 9.3 200 10:24 10.12.2019
2907 Rain 13 997 87 10000 8.7 190 09:57 10.12.2019
2908 Rain 13 998 87 9000 9.8 190 09:39 10.12.2019
2909 Rain 12 999 87 10000 8.7 190 09:20 10.12.2019
2910 Rain 12 999 87 10000 8.7 190 08:58 10.12.2019
2911 Rain 12 1001 81 10000 9.8 190 08:39 10.12.2019
2912 Rain 11 1001 81 10000 9.8 190 08:20 10.12.2019
2913 Rain 11 1002 81 10000 10.8 190 07:45 10.12.2019
2914 Rain 11 1002 76 10000 8.7 200 07:27 10.12.2019
2915 Clouds 10 1003 81 10000 8.7 190 06:50 10.12.2019
2916 Rain 10 1004 76 10000 10.8 190 06:25 10.12.2019
2917 Clouds 10 1006 76 10000 8.2 190 05:57 10.12.2019
2918 Rain 10 1007 76 10000 10.8 190 05:38 10.12.2019
2919 Clouds 9 1011 81 10000 6.2 200 03:55 10.12.2019
2920 Clouds 9 1011 76 10000 5.1 170 03:24 10.12.2019
2921 Clouds 8 1015 75 10000 3.6 180 01:56 10.12.2019
2922 Clouds 8 1015 75 10000 3.1 190 01:28 10.12.2019
2923 Clouds 8 1015 75 10000 3.1 190 01:28 10.12.2019
2924 Clouds 7 1016 70 10000 3.1 170 00:58 10.12.2019
2925 Clouds 6 1017 75 10000 3.1 170 00:26 10.12.2019
2926 Clouds 6 1017 75 10000 2.6 180 23:58 09.12.2019
2927 Clouds 6 1018 81 10000 4.6 180 23:39 09.12.2019
2928 Clouds 6 1018 81 10000 4.6 180 23:20 09.12.2019
2929 Clouds 6 1019 81 10000 4.1 200 22:55 09.12.2019
2930 Clear 5 1020 81 10000 3.6 210 22:37 09.12.2019
2931 Clear 6 1020 81 10000 3.6 210 22:18 09.12.2019
2932 Clear 5 1020 86 10000 3.6 190 21:55 09.12.2019
2933 Clear 5 1020 86 10000 3.1 200 21:37 09.12.2019
2934 Clear 5 1020 86 10000 3.1 200 21:18 09.12.2019
2935 Clear 5 1020 81 10000 3.6 220 20:55 09.12.2019
2936 Clear 5 1020 81 10000 2.6 230 20:37 09.12.2019
2937 Clear 5 1020 81 10000 2.6 230 20:18 09.12.2019
2938 Clouds 5 1020 86 10000 2.6 220 19:54 09.12.2019
2939 Clouds 5 1021 86 10000 2.1 210 19:36 09.12.2019
2940 Clouds 5 1021 86 10000 2.1 210 19:18 09.12.2019
2941 Clouds 5 1021 87 10000 2.6 220 18:40 09.12.2019
2942 Clouds 5 1021 87 10000 2.6 220 18:20 09.12.2019
2943 Clouds 6 1021 81 10000 2.6 230 17:59 09.12.2019
2944 Clouds 6 1021 81 10000 2.6 230 17:41 09.12.2019
2945 Clouds 6 1021 81 10000 2.6 220 17:21 09.12.2019
2946 Clouds 6 1021 81 10000 2.6 250 16:58 09.12.2019
2947 Clouds 7 1021 75 10000 2.6 250 16:40 09.12.2019
2948 Clouds 7 1021 75 10000 2.6 250 16:21 09.12.2019
2949 Clouds 8 1021 75 10000 3.1 240 15:57 09.12.2019
2950 Clouds 8 1020 70 10000 4.1 270 15:38 09.12.2019
2951 Clouds 8 1020 70 10000 4.1 270 15:38 09.12.2019
2952 Clouds 8 1020 70 10000 4.1 270 15:19 09.12.2019
2953 Clouds 8 1020 70 10000 5.1 270 14:59 09.12.2019
2954 Clouds 8 1020 70 10000 5.1 270 14:41 09.12.2019
2955 Clouds 8 1020 70 10000 5.1 270 14:41 09.12.2019
2956 Clouds 8 1020 70 10000 6.7 280 14:18 09.12.2019
2957 Clouds 8 1019 70 10000 5.7 280 13:56 09.12.2019
2958 Clouds 8 1019 75 10000 6.2 290 13:37 09.12.2019
2959 Clouds 7 1019 75 10000 6.2 290 13:19 09.12.2019
2960 Clouds 7 1018 75 10000 7.7 290 12:55 09.12.2019
2961 Clouds 6 1018 81 10000 7.2 280 12:36 09.12.2019
2962 Clouds 6 1018 81 10000 7.2 280 12:18 09.12.2019
2963 Clouds 6 1017 86 10000 5.7 270 11:40 09.12.2019
2964 Clouds 6 1017 86 10000 5.7 270 11:22 09.12.2019
2965 Clouds 6 1016 86 10000 5.1 260 10:59 09.12.2019
2966 Clouds 6 1016 80 10000 4.6 270 10:39 09.12.2019
2967 Clouds 6 1016 80 10000 4.6 270 10:39 09.12.2019
2968 Clouds 5 1016 80 10000 4.6 270 10:19 09.12.2019
2969 Clouds 5 1015 80 10000 5.1 270 09:45 09.12.2019
2970 Clouds 5 1014 86 10000 5.1 280 09:25 09.12.2019
2971 Clouds 5 1013 86 10000 6.2 280 08:57 09.12.2019
2972 Clouds 6 1011 81 10000 8.2 290 08:39 09.12.2019
2973 Clouds 6 1011 81 10000 8.2 290 08:20 09.12.2019
2974 Clouds 6 1010 81 10000 7.7 290 07:52 09.12.2019
2975 Clouds 6 1009 81 10000 9.3 300 07:33 09.12.2019
2976 Clouds 6 1008 81 10000 9.3 300 06:58 09.12.2019
2977 Clouds 6 1007 81 10000 7.7 300 06:30 09.12.2019
2978 Clouds 7 1004 75 10000 9.3 300 05:42 09.12.2019
2979 Clouds 7 1004 75 10000 9.3 300 05:20 09.12.2019
2980 Clouds 8 1001 75 10000 10.8 310 04:27 09.12.2019
2981 Clouds 8 1001 75 10000 10.8 310 04:27 09.12.2019
2982 Clouds 8 994 75 10000 13.4 310 02:29 09.12.2019
2983 Rain 8 992 81 10000 14.9 300 01:46 09.12.2019
2984 Rain 7 988 93 10000 15.9 270 00:58 09.12.2019
2985 Rain 7 987 87 5000 12.9 270 00:33 09.12.2019
2986 Rain 6 987 87 10000 9.3 260 23:55 08.12.2019
2987 Rain 6 987 87 10000 9.3 260 23:55 08.12.2019
2988 Rain 6 987 87 10000 8.2 260 23:37 08.12.2019
2989 Rain 6 987 87 10000 8.2 260 23:18 08.12.2019
2990 Rain 6 987 87 10000 9.8 260 22:56 08.12.2019
2991 Rain 6 987 87 10000 7.2 260 22:38 08.12.2019
2992 Rain 6 987 87 10000 7.2 260 22:38 08.12.2019
2993 Rain 6 987 87 10000 7.2 260 22:18 08.12.2019
2994 Rain 6 987 87 10000 7.2 260 22:18 08.12.2019
2995 Clouds 6 987 87 10000 7.2 250 21:55 08.12.2019
2996 Drizzle 6 987 87 10000 7.2 250 21:37 08.12.2019
2997 Drizzle 6 987 87 10000 7.2 250 21:19 08.12.2019
2998 Drizzle 6 986 87 10000 6.2 240 20:55 08.12.2019
2999 Rain 5 986 87 10000 6.7 230 20:37 08.12.2019
3000 Rain 5 986 87 10000 6.7 230 20:18 08.12.2019
3001 Rain 5 986 93 10000 8.2 230 19:55 08.12.2019
3002 Rain 6 986 81 10000 9.3 220 19:36 08.12.2019
3003 Rain 5 986 81 10000 9.3 220 19:18 08.12.2019
3004 Rain 5 986 81 10000 9.3 220 19:18 08.12.2019
3005 Rain 5 986 81 10000 9.3 220 19:18 08.12.2019
3006 Rain 6 986 81 10000 8.2 230 18:54 08.12.2019
3007 Rain 6 987 81 10000 8.2 230 18:36 08.12.2019
3008 Rain 6 987 81 10000 8.2 230 18:18 08.12.2019
3009 Clouds 5 988 80 10000 7.7 230 17:54 08.12.2019
3010 Rain 5 988 81 10000 8.2 230 17:36 08.12.2019
3011 Rain 5 988 81 10000 8.2 230 17:18 08.12.2019
3012 Rain 5 989 86 10000 8.7 240 16:42 08.12.2019
3013 Rain 5 989 86 10000 8.2 230 16:24 08.12.2019
3014 Clouds 6 990 75 10000 7.7 230 15:59 08.12.2019
3015 Clouds 6 990 81 10000 7.2 240 15:37 08.12.2019
3016 Rain 6 991 81 10000 8.2 230 15:18 08.12.2019
3017 Rain 6 991 81 10000 8.2 230 14:46 08.12.2019
3018 Clouds 6 991 81 10000 7.7 230 14:25 08.12.2019
3019 Rain 6 992 87 10000 6.7 230 13:59 08.12.2019
3020 Rain 5 992 86 10000 9.3 250 13:41 08.12.2019
3021 Rain 6 992 86 10000 9.3 250 13:22 08.12.2019
3022 Rain 6 993 87 6000 6.2 250 12:59 08.12.2019
3023 Rain 6 993 87 6000 7.2 230 12:40 08.12.2019
3024 Rain 6 993 87 6000 7.2 230 12:19 08.12.2019
3025 Rain 6 993 87 6000 7.2 230 12:19 08.12.2019
3026 Rain 6 993 86 10000 7.7 230 11:58 08.12.2019
3027 Clouds 6 993 75 10000 7.2 230 11:37 08.12.2019
3028 Clouds 6 993 75 10000 7.2 230 11:19 08.12.2019
3029 Rain 5 993 86 10000 7.2 240 10:55 08.12.2019
3030 Rain 5 994 86 10000 7.2 240 10:37 08.12.2019
3031 Rain 5 994 86 10000 7.2 240 10:18 08.12.2019
3032 Rain 6 994 81 10000 7.7 240 09:55 08.12.2019
3033 Rain 6 994 81 9000 6.7 240 09:36 08.12.2019
3034 Rain 6 994 81 9000 6.7 240 09:18 08.12.2019
3035 Clouds 6 994 75 10000 6.7 240 08:41 08.12.2019
3036 Clouds 6 994 75 10000 6.7 240 08:23 08.12.2019
3037 Rain 7 994 81 10000 6.7 240 07:55 08.12.2019
3038 Drizzle 7 994 81 10000 10.3 240 07:36 08.12.2019
3039 Rain 7 994 81 8000 10.8 250 07:18 08.12.2019
3040 Rain 7 994 81 10000 7.2 250 06:40 08.12.2019
3041 Rain 7 994 81 10000 7.2 250 06:20 08.12.2019
3042 Rain 7 994 81 10000 7.2 250 05:23 08.12.2019
3043 Rain 7 994 87 10000 8.7 260 04:46 08.12.2019
3044 Rain 8 993 87 9000 15.4 270 03:39 08.12.2019
3045 Clouds 9 992 87 10000 12.9 260 02:42 08.12.2019
3046 Rain 10 992 81 10000 11.8 260 02:20 08.12.2019
3047 Drizzle 11 991 81 10000 13.4 260 01:35 08.12.2019
3048 Drizzle 12 991 93 9000 10.8 250 00:53 08.12.2019
3049 Drizzle 12 991 93 8000 8.7 230 00:24 08.12.2019
3050 Rain 12 991 93 10000 9.3 230 23:57 07.12.2019
3051 Rain 12 991 87 10000 10.3 220 23:37 07.12.2019
3052 Rain 12 992 93 10000 9.8 210 23:18 07.12.2019
3053 Rain 12 992 93 10000 9.8 210 22:55 07.12.2019
3054 Rain 11 993 87 10000 10.3 210 22:37 07.12.2019
3055 Rain 11 993 87 10000 10.3 210 22:18 07.12.2019
3056 Rain 11 994 93 10000 9.3 200 21:55 07.12.2019
3057 Rain 11 995 87 10000 8.2 200 21:37 07.12.2019
3058 Rain 11 995 87 10000 8.2 200 21:18 07.12.2019
3059 Rain 11 998 81 10000 7.2 210 20:38 07.12.2019
3060 Rain 11 998 81 10000 7.2 210 20:38 07.12.2019
3061 Rain 11 998 81 10000 7.2 210 20:20 07.12.2019
3062 Clouds 11 999 81 10000 7.7 200 19:58 07.12.2019
3063 Clouds 11 1000 81 10000 7.7 210 19:39 07.12.2019
3064 Clouds 11 1000 81 10000 7.7 210 19:21 07.12.2019
3065 Clouds 11 1000 81 10000 7.7 210 18:58 07.12.2019
3066 Clouds 11 1001 81 10000 8.7 220 18:40 07.12.2019
3067 Clouds 11 1001 81 10000 8.7 220 18:18 07.12.2019
3068 Clouds 10 1002 87 10000 6.7 220 17:56 07.12.2019
3069 Clouds 10 1003 87 10000 7.2 220 17:37 07.12.2019
3070 Clouds 10 1003 87 10000 7.2 220 17:19 07.12.2019
3071 Clouds 11 1004 81 10000 5.7 220 16:56 07.12.2019
3072 Clouds 11 1004 81 10000 5.1 230 16:36 07.12.2019
3073 Clouds 11 1004 81 10000 5.1 230 16:18 07.12.2019
3074 Clouds 11 1004 81 10000 5.1 230 16:18 07.12.2019
3075 Clouds 12 1005 76 10000 6.7 230 15:41 07.12.2019
3076 Clouds 12 1005 76 10000 6.7 230 15:23 07.12.2019
3077 Clouds 12 1005 76 10000 6.7 230 15:23 07.12.2019
3078 Clouds 12 1005 76 10000 6.2 230 14:56 07.12.2019
3079 Clouds 12 1006 81 10000 6.2 230 14:38 07.12.2019
3080 Clouds 12 1006 81 10000 6.2 230 14:18 07.12.2019
3081 Clouds 11 1007 87 10000 5.7 230 13:40 07.12.2019
3082 Clouds 11 1007 87 10000 5.7 230 13:20 07.12.2019
3083 Clouds 11 1008 87 10000 5.1 230 12:55 07.12.2019
3084 Clouds 11 1008 93 10000 6.2 230 12:37 07.12.2019
3085 Clouds 10 1008 93 10000 6.2 230 12:18 07.12.2019
3086 Clouds 9 1009 93 10000 4.6 230 11:42 07.12.2019
3087 Clouds 9 1009 93 10000 4.6 230 11:23 07.12.2019
3088 Clouds 9 1009 93 10000 5.1 230 10:58 07.12.2019
3089 Clouds 9 1009 93 10000 4.6 240 10:37 07.12.2019
3090 Clouds 8 1009 93 10000 4.6 240 10:18 07.12.2019
3091 Clouds 8 1009 87 10000 4.6 240 09:40 07.12.2019
3092 Clouds 8 1009 87 10000 4.6 240 09:21 07.12.2019
3093 Clouds 8 1009 87 10000 4.6 240 09:21 07.12.2019
3094 Clouds 7 1010 93 10000 4.6 240 08:46 07.12.2019
3095 Clouds 7 1010 93 10000 4.6 230 08:25 07.12.2019
3096 Clouds 7 1010 93 10000 4.6 240 07:54 07.12.2019
3097 Clouds 7 1010 93 10000 4.1 240 07:30 07.12.2019
3098 Clouds 7 1010 93 10000 3.6 240 06:53 07.12.2019
3099 Clouds 7 1010 93 10000 3.6 240 06:53 07.12.2019
3100 Clouds 7 1010 93 10000 5.1 260 06:28 07.12.2019
3101 Clouds 7 1010 93 10000 5.1 250 05:50 07.12.2019
3102 Clouds 7 1009 93 10000 4.1 240 04:49 07.12.2019
3103 Clouds 7 1010 87 10000 4.6 240 03:52 07.12.2019
3104 Clouds 7 1009 93 10000 4.6 250 02:50 07.12.2019
3105 Clouds 7 1009 93 10000 4.6 250 02:19 07.12.2019
3106 Clouds 7 1009 87 10000 5.1 250 01:30 07.12.2019
3107 Clouds 7 1009 87 10000 5.1 250 00:42 07.12.2019
3108 Clouds 7 1008 93 10000 5.1 250 00:18 07.12.2019
3109 Clouds 7 1008 93 10000 4.1 250 23:44 06.12.2019
3110 Clouds 7 1008 93 10000 4.6 250 23:23 06.12.2019
3111 Clouds 7 1007 93 10000 5.1 250 22:58 06.12.2019
3112 Clouds 7 1007 93 10000 5.1 250 22:58 06.12.2019
3113 Clouds 7 1007 93 10000 4.6 250 22:36 06.12.2019
3114 Clouds 8 1007 93 10000 4.6 250 22:18 06.12.2019
3115 Clouds 8 1006 87 10000 5.7 260 21:41 06.12.2019
3116 Clouds 8 1006 87 10000 5.7 260 21:21 06.12.2019
3117 Clouds 8 1006 93 10000 4.6 260 20:59 06.12.2019
3118 Clouds 7 1006 93 10000 4.1 250 20:41 06.12.2019
3119 Clouds 7 1006 93 10000 4.1 250 20:41 06.12.2019
3120 Clouds 7 1006 93 10000 4.1 250 20:21 06.12.2019
3121 Clouds 8 1005 87 10000 7.7 270 19:54 06.12.2019
3122 Clouds 8 1005 87 10000 6.7 260 19:36 06.12.2019
3123 Clouds 8 1005 87 10000 6.7 260 19:18 06.12.2019
3124 Clouds 8 1004 93 10000 6.2 270 18:44 06.12.2019
3125 Clouds 8 1003 87 10000 7.7 270 18:22 06.12.2019
3126 Clouds 8 1002 87 10000 10.3 280 17:58 06.12.2019
3127 Clouds 8 1002 87 10000 8.7 270 17:40 06.12.2019
3128 Clouds 8 1002 87 10000 8.7 270 17:40 06.12.2019
3129 Clouds 8 1002 87 10000 8.7 270 17:22 06.12.2019
3130 Clouds 9 1002 87 10000 8.2 270 16:58 06.12.2019
3131 Clouds 9 1001 81 10000 8.7 270 16:39 06.12.2019
3132 Clouds 9 1001 81 10000 8.7 270 16:20 06.12.2019
3133 Clouds 9 1001 81 10000 9.3 270 15:41 06.12.2019
3134 Clouds 9 1000 87 10000 8.2 270 15:23 06.12.2019
3135 Rain 9 1000 81 10000 10.3 280 14:58 06.12.2019
3136 Clouds 9 999 81 10000 10.8 280 14:40 06.12.2019
3137 Clouds 9 999 81 10000 10.8 280 14:20 06.12.2019
3138 Clouds 9 999 81 10000 10.8 270 13:55 06.12.2019
3139 Rain 9 998 87 9000 9.8 260 13:37 06.12.2019
3140 Rain 9 998 87 9000 9.8 260 13:19 06.12.2019
3141 Clouds 9 999 93 10000 7.7 260 12:39 06.12.2019
3142 Clouds 9 999 93 10000 7.7 260 12:21 06.12.2019
3143 Clouds 10 998 87 10000 7.2 250 11:43 06.12.2019
3144 Clouds 10 998 87 10000 7.2 250 11:23 06.12.2019
3145 Clouds 10 998 87 10000 7.7 250 10:57 06.12.2019
3146 Clouds 9 998 93 10000 5.7 240 10:38 06.12.2019
3147 Clouds 9 998 93 10000 5.7 240 10:20 06.12.2019
3148 Drizzle 9 998 93 5000 6.2 240 09:56 06.12.2019
3149 Clouds 9 998 93 10000 6.2 250 09:37 06.12.2019
3150 Clouds 9 998 93 10000 6.2 250 09:19 06.12.2019
3151 Clouds 9 998 87 10000 7.2 250 08:43 06.12.2019
3152 Clouds 9 998 87 10000 7.7 260 08:25 06.12.2019
3153 Drizzle 10 998 87 10000 7.7 250 07:42 06.12.2019
3154 Drizzle 11 999 87 10000 5.7 240 07:22 06.12.2019
3155 Drizzle 11 999 87 10000 5.7 240 06:53 06.12.2019
3156 Drizzle 12 999 87 10000 6.2 240 06:25 06.12.2019
3157 Drizzle 11 999 100 10000 6.2 240 05:51 06.12.2019
3158 Drizzle 12 1001 93 10000 5.7 230 03:57 06.12.2019
3159 Drizzle 12 1002 100 10000 4.6 230 01:48 06.12.2019
3160 Drizzle 11 1003 93 10000 5.7 230 00:57 06.12.2019
3161 Drizzle 12 1003 93 10000 6.2 240 00:24 06.12.2019
3162 Clouds 12 1003 93 10000 6.2 240 23:56 05.12.2019
3163 Drizzle 12 1003 87 10000 6.7 250 23:21 05.12.2019
3164 Drizzle 11 1003 87 10000 7.2 250 22:59 05.12.2019
3165 Drizzle 12 1003 87 10000 7.2 250 22:39 05.12.2019
3166 Clouds 12 1003 87 10000 8.2 250 22:20 05.12.2019
3167 Clouds 12 1003 87 10000 8.2 250 22:20 05.12.2019
3168 Clouds 12 1003 87 10000 8.2 250 22:20 05.12.2019
3169 Clouds 12 1003 87 10000 8.2 250 21:58 05.12.2019
3170 Clouds 12 1003 87 10000 8.2 250 21:40 05.12.2019
3171 Clouds 12 1003 87 10000 8.2 250 21:22 05.12.2019
3172 Clouds 12 1003 87 10000 7.2 240 20:58 05.12.2019
3173 Clouds 12 1004 87 10000 6.2 230 20:40 05.12.2019
3174 Clouds 12 1004 87 10000 6.2 230 20:19 05.12.2019
3175 Clouds 12 1004 87 10000 6.2 230 20:19 05.12.2019
3176 Drizzle 12 1004 87 10000 6.7 230 19:43 05.12.2019
3177 Drizzle 11 1004 87 10000 7.2 240 19:25 05.12.2019
3178 Clouds 11 1004 87 10000 6.7 230 18:59 05.12.2019
3179 Clouds 11 1004 87 10000 6.7 230 18:39 05.12.2019
3180 Clouds 11 1004 87 10000 7.7 230 18:21 05.12.2019
3181 Drizzle 11 1004 93 10000 7.7 230 17:59 05.12.2019
3182 Drizzle 11 1004 93 10000 7.7 230 17:38 05.12.2019
3183 Clouds 11 1004 87 10000 8.2 230 17:19 05.12.2019
3184 Clouds 11 1004 87 10000 8.2 230 16:55 05.12.2019
3185 Clouds 11 1004 87 10000 8.2 230 16:37 05.12.2019
3186 Clouds 11 1005 87 10000 8.2 230 16:18 05.12.2019
3187 Drizzle 10 1005 93 6000 8.2 230 15:55 05.12.2019
3188 Drizzle 10 1005 93 6000 8.2 230 15:36 05.12.2019
3189 Drizzle 10 1006 87 8000 8.2 230 15:18 05.12.2019
3190 Clouds 10 1006 87 10000 9.8 230 14:54 05.12.2019
3191 Clouds 10 1006 87 10000 9.8 230 14:36 05.12.2019
3192 Clouds 10 1006 87 10000 9.8 230 14:18 05.12.2019
3193 Clouds 10 1007 81 10000 10.3 230 13:54 05.12.2019
3194 Clouds 9 1008 87 10000 9.3 230 13:36 05.12.2019
3195 Clouds 9 1008 87 10000 9.3 230 13:18 05.12.2019
3196 Clouds 9 1009 81 10000 9.8 220 12:41 05.12.2019
3197 Drizzle 9 1010 81 10000 8.2 220 12:23 05.12.2019
3198 Drizzle 8 1011 87 8000 8.7 220 11:56 05.12.2019
3199 Drizzle 8 1011 87 8000 8.7 220 11:37 05.12.2019
3200 Clouds 8 1011 81 10000 8.7 220 11:18 05.12.2019
3201 Clouds 8 1012 75 10000 7.2 210 10:54 05.12.2019
3202 Clouds 8 1012 75 10000 7.2 210 10:54 05.12.2019
3203 Clouds 8 1012 75 10000 7.2 210 10:36 05.12.2019
3204 Clouds 8 1012 75 10000 6.7 210 10:18 05.12.2019
3205 Clouds 8 1013 75 10000 6.7 210 09:42 05.12.2019
3206 Clouds 7 1013 81 10000 6.7 210 09:20 05.12.2019
3207 Clouds 7 1014 75 10000 6.2 220 08:57 05.12.2019
3208 Clouds 7 1014 75 10000 6.2 220 08:37 05.12.2019
3209 Clouds 6 1014 75 10000 6.2 220 08:19 05.12.2019
3210 Clouds 7 1015 75 10000 5.1 220 07:49 05.12.2019
3211 Clouds 6 1015 81 10000 5.1 220 07:31 05.12.2019
3212 Clouds 6 1016 81 10000 4.1 220 06:56 05.12.2019
3213 Clouds 6 1016 81 10000 4.1 220 06:37 05.12.2019
3214 Clouds 6 1016 81 10000 4.1 220 06:18 05.12.2019
3215 Clouds 6 1016 81 10000 5.1 220 05:44 05.12.2019
3216 Clouds 6 1016 81 10000 4.6 230 05:19 05.12.2019
3217 Clouds 6 1016 81 10000 4.1 230 03:52 05.12.2019
3218 Clouds 6 1016 87 10000 6.2 250 02:42 05.12.2019
3219 Clouds 6 1017 87 10000 5.1 240 02:23 05.12.2019
3220 Clouds 5 1017 87 10000 4.1 240 01:51 05.12.2019
3221 Clouds 5 1017 81 10000 4.1 230 01:24 05.12.2019
3222 Clouds 5 1018 87 10000 4.1 240 00:47 05.12.2019
3223 Clouds 6 1017 81 10000 4.1 240 00:22 05.12.2019
3224 Clouds 6 1017 81 10000 4.6 240 23:56 04.12.2019
3225 Clouds 6 1017 81 10000 4.6 240 23:37 04.12.2019
3226 Clouds 6 1017 81 10000 4.1 240 23:19 04.12.2019
3227 Clouds 6 1018 81 10000 3.6 230 22:39 04.12.2019
3228 Clouds 6 1018 81 10000 3.6 230 22:20 04.12.2019
3229 Clouds 6 1017 81 10000 3.6 220 21:58 04.12.2019
3230 Clouds 5 1017 81 10000 3.6 220 21:39 04.12.2019
3231 Clouds 5 1017 81 10000 3.1 220 21:20 04.12.2019
3232 Clouds 5 1017 81 10000 3.1 210 20:58 04.12.2019
3233 Clouds 6 1017 81 10000 3.1 210 20:40 04.12.2019
3234 Clouds 6 1017 81 10000 3.1 210 20:21 04.12.2019
3235 Clouds 6 1017 81 10000 2.6 210 19:58 04.12.2019
3236 Clouds 6 1017 81 10000 2.6 210 19:38 04.12.2019
3237 Clouds 6 1017 87 10000 3.1 230 19:20 04.12.2019
3238 Clouds 6 1017 81 10000 3.1 220 18:42 04.12.2019
3239 Clouds 6 1017 81 10000 3.1 230 18:24 04.12.2019
3240 Clouds 7 1016 75 10000 3.1 250 18:00 04.12.2019
3241 Clouds 7 1016 75 10000 3.1 250 17:40 04.12.2019
3242 Clouds 7 1016 87 10000 3.6 250 17:21 04.12.2019
3243 Clouds 8 1016 81 10000 3.1 250 16:57 04.12.2019
3244 Clouds 8 1016 81 10000 3.1 250 16:39 04.12.2019
3245 Clouds 8 1016 81 10000 4.1 250 16:19 04.12.2019
3246 Clouds 9 1015 81 10000 3.6 250 15:55 04.12.2019
3247 Clouds 9 1015 81 10000 3.6 250 15:55 04.12.2019
3248 Clouds 9 1015 81 10000 3.6 250 15:37 04.12.2019
3249 Clouds 9 1015 87 10000 4.1 250 15:19 04.12.2019
3250 Clouds 9 1015 87 10000 4.1 250 15:19 04.12.2019
3251 Clouds 9 1015 87 10000 4.6 240 14:44 04.12.2019
3252 Clouds 9 1015 87 10000 5.7 240 14:23 04.12.2019
3253 Clouds 9 1015 87 10000 5.7 240 14:23 04.12.2019
3254 Clouds 9 1015 87 10000 5.7 240 13:58 04.12.2019
3255 Clouds 9 1015 87 10000 5.7 240 13:38 04.12.2019
3256 Clouds 9 1015 81 10000 5.7 240 13:19 04.12.2019
3257 Clouds 9 1015 76 10000 5.7 230 12:44 04.12.2019
3258 Clouds 9 1015 81 10000 5.7 210 12:24 04.12.2019
3259 Rain 9 1015 76 10000 5.7 220 11:55 04.12.2019
3260 Rain 9 1015 76 10000 5.7 220 11:37 04.12.2019
3261 Rain 8 1015 70 10000 4.6 210 11:19 04.12.2019
3262 Clouds 8 1015 75 10000 5.1 190 10:43 04.12.2019
3263 Clouds 8 1015 66 10000 4.1 190 10:23 04.12.2019
3264 Clouds 8 1015 70 10000 4.6 190 09:55 04.12.2019
3265 Clouds 8 1015 70 10000 4.6 190 09:55 04.12.2019
3266 Clouds 8 1015 70 10000 4.6 190 09:37 04.12.2019
3267 Clouds 8 1015 66 10000 5.7 200 09:18 04.12.2019
3268 Clouds 8 1014 75 10000 5.7 200 08:39 04.12.2019
3269 Clouds 7 1014 75 10000 4.6 200 08:20 04.12.2019
3270 Clouds 7 1014 70 10000 4.1 200 07:48 04.12.2019
3271 Clouds 7 1014 70 10000 4.6 190 07:30 04.12.2019
3272 Clouds 7 1014 70 10000 4.6 190 07:30 04.12.2019
3273 Clouds 7 1014 70 10000 4.6 180 06:34 04.12.2019
3274 Clouds 7 1014 70 10000 5.7 190 05:48 04.12.2019
3275 Clouds 7 1015 75 10000 3.1 190 04:58 04.12.2019
3276 Clouds 7 1015 70 10000 4.1 190 04:25 04.12.2019
3277 Clouds 8 1016 70 10000 6.2 200 02:47 04.12.2019
3278 Clouds 8 1017 70 10000 4.1 180 00:52 04.12.2019
3279 Clouds 7 1017 75 10000 4.6 190 00:25 04.12.2019
3280 Clouds 7 1017 75 10000 4.6 190 23:58 03.12.2019
3281 Clouds 6 1018 81 10000 5.1 200 23:40 03.12.2019
3282 Clouds 7 1018 75 10000 2.1 180 23:19 03.12.2019
3283 Clouds 7 1019 81 10000 1.5 0 22:40 03.12.2019
3284 Clouds 7 1019 81 10000 1.5 0 22:19 03.12.2019
3285 Clouds 6 1019 81 10000 2.1 200 21:58 03.12.2019
3286 Clouds 6 1019 81 10000 2.1 200 21:38 03.12.2019
3287 Clouds 6 1019 75 10000 1.5 0 21:19 03.12.2019
3288 Clouds 6 1019 75 10000 3.6 220 20:58 03.12.2019
3289 Clouds 6 1019 75 10000 3.6 220 20:39 03.12.2019
3290 Clouds 6 1019 75 10000 6.2 220 20:18 03.12.2019
3291 Clouds 6 1020 75 10000 4.1 220 19:55 03.12.2019
3292 Clouds 6 1020 75 10000 4.1 220 19:37 03.12.2019
3293 Clouds 6 1020 75 10000 2.1 170 19:18 03.12.2019
3294 Clouds 7 1020 75 10000 2.1 150 18:56 03.12.2019
3295 Clouds 7 1020 75 10000 2.1 150 18:37 03.12.2019
3296 Clouds 7 1020 75 10000 1 0 18:19 03.12.2019
3297 Clouds 7 1020 75 10000 0.5 360 17:54 03.12.2019
3298 Clouds 7 1020 75 10000 0.5 360 17:36 03.12.2019
3299 Clouds 7 1020 75 10000 0.5 360 17:36 03.12.2019
3300 Clouds 6 1020 75 10000 2.1 110 17:18 03.12.2019
3301 Clouds 7 1020 70 10000 0.5 0 16:40 03.12.2019
3302 Clouds 8 1021 66 10000 1.5 0 16:21 03.12.2019
3303 Clouds 8 1021 66 10000 1.5 0 15:59 03.12.2019
3304 Clouds 8 1021 66 10000 2.1 110 15:40 03.12.2019
3305 Clouds 8 1021 66 10000 1.5 0 15:20 03.12.2019
3306 Clouds 8 1021 66 10000 1.5 0 14:58 03.12.2019
3307 Clouds 8 1022 70 10000 2.1 160 14:40 03.12.2019
3308 Clouds 8 1022 75 10000 1.5 0 14:19 03.12.2019
3309 Clouds 7 1024 75 10000 1.5 0 13:39 03.12.2019
3310 Clouds 7 1024 75 10000 1.5 0 13:39 03.12.2019
3311 Clouds 7 1024 75 10000 1.5 0 13:20 03.12.2019
3312 Clouds 7 1024 75 10000 1.5 0 13:20 03.12.2019
3313 Clouds 7 1024 75 10000 2.6 150 12:58 03.12.2019
3314 Clouds 6 1024 75 10000 2.6 150 12:38 03.12.2019
3315 Rain 6 1024 75 10000 4.1 220 12:18 03.12.2019
3316 Rain 6 1025 81 10000 3.6 200 11:58 03.12.2019
3317 Rain 5 1025 81 10000 3.6 200 11:38 03.12.2019
3318 Clouds 3 1025 80 10000 2.6 160 11:19 03.12.2019
3319 Clouds 3 1025 80 10000 2.6 160 11:19 03.12.2019
3320 Clouds 2 1025 86 10000 3.6 210 10:56 03.12.2019
3321 Clouds 2 1025 86 10000 3.6 210 10:38 03.12.2019
3322 Clouds 1 1026 86 10000 3.1 210 10:19 03.12.2019
3323 Clouds 1 1026 93 10000 3.1 220 09:45 03.12.2019
3324 Clouds 0 1026 77 10000 3.1 220 09:24 03.12.2019
3325 Clouds 0 1026 77 10000 1.5 0 08:56 03.12.2019
3326 Clouds 0 1026 77 10000 1.5 0 08:38 03.12.2019
3327 Clouds 0 1026 79 10000 2.1 220 08:20 03.12.2019
3328 Clouds 0 1026 93 10000 2.1 230 07:51 03.12.2019
3329 Clouds 0 1026 93 10000 2.1 230 07:51 03.12.2019
3330 Clouds 0 1026 79 10000 2.6 220 07:28 03.12.2019
3331 Clouds 0 1027 79 10000 2.6 220 06:42 03.12.2019
3332 Clouds 0 1027 79 10000 3.1 220 06:20 03.12.2019
3333 Clouds 0 1028 83 10000 2.1 260 04:59 03.12.2019
3334 Clouds 0 1028 83 10000 1 0 03:42 03.12.2019
3335 Clouds 0 1029 83 10000 1 0 03:21 03.12.2019
3336 Clouds 1 1029 93 10000 2.6 210 02:52 03.12.2019
3337 Clouds 1 1029 93 10000 2.6 210 02:32 03.12.2019
3338 Clouds 1 1030 85 10000 2.6 230 01:57 03.12.2019
3339 Clouds 1 1030 85 10000 2.6 230 01:38 03.12.2019
3340 Clouds 1 1030 84 10000 2.1 230 01:18 03.12.2019
3341 Clouds 1 1030 84 10000 2.1 220 00:40 03.12.2019
3342 Clouds 1 1030 84 10000 1 0 00:21 03.12.2019
3343 Clouds 2 1030 84 10000 1.5 0 23:44 02.12.2019
3344 Clouds 2 1030 81 10000 2.1 230 23:21 02.12.2019
3345 Clouds 2 1030 81 10000 2.1 240 22:56 02.12.2019
3346 Clouds 2 1030 81 10000 2.1 240 22:56 02.12.2019
3347 Clouds 2 1030 81 10000 2.1 240 22:37 02.12.2019
3348 Clouds 2 1030 86 10000 2.1 240 22:19 02.12.2019
3349 Clouds 3 1030 81 10000 2.6 240 21:39 02.12.2019
3350 Clouds 3 1030 81 10000 3.6 250 21:20 02.12.2019
3351 Clouds 3 1031 81 10000 2.6 240 20:57 02.12.2019
3352 Clouds 3 1031 81 10000 2.6 240 20:57 02.12.2019
3353 Clouds 3 1031 81 10000 2.6 240 20:57 02.12.2019
3354 Clouds 3 1031 81 10000 2.6 240 20:39 02.12.2019
3355 Clouds 3 1031 84 10000 2.6 240 20:20 02.12.2019
3356 Clouds 3 1031 84 10000 2.6 230 19:56 02.12.2019
3357 Clouds 3 1031 84 10000 2.6 230 19:38 02.12.2019
3358 Clouds 3 1031 80 10000 2.6 230 19:20 02.12.2019
3359 Clouds 3 1031 80 10000 2.6 220 18:48 02.12.2019
3360 Clouds 4 1031 80 10000 2.6 240 18:24 02.12.2019
3361 Clouds 4 1031 80 10000 2.6 260 17:59 02.12.2019
3362 Clouds 4 1031 80 10000 2.6 260 17:41 02.12.2019
3363 Clouds 4 1031 80 10000 2.6 240 17:20 02.12.2019
3364 Clouds 4 1031 80 10000 2.6 240 17:20 02.12.2019
3365 Clouds 4 1031 75 10000 3.1 230 16:57 02.12.2019
3366 Clouds 5 1031 75 10000 3.1 230 16:39 02.12.2019
3367 Clouds 5 1031 75 10000 3.1 240 16:18 02.12.2019
3368 Clouds 5 1031 75 10000 3.1 240 16:18 02.12.2019
3369 Clouds 5 1031 75 10000 3.6 250 15:55 02.12.2019
3370 Clouds 5 1031 75 10000 3.6 250 15:37 02.12.2019
3371 Clouds 5 1032 80 10000 2.6 230 15:19 02.12.2019
3372 Clouds 5 1032 75 10000 3.1 240 14:40 02.12.2019
3373 Clouds 5 1032 80 10000 3.1 240 14:20 02.12.2019
3374 Clouds 5 1033 80 10000 3.1 240 13:58 02.12.2019
3375 Clouds 5 1033 80 10000 3.1 240 13:40 02.12.2019
3376 Clouds 4 1033 80 10000 3.6 250 13:20 02.12.2019
3377 Clouds 4 1033 86 10000 4.1 250 12:59 02.12.2019
3378 Clouds 4 1033 86 10000 4.1 250 12:40 02.12.2019
3379 Clouds 3 1033 86 10000 2.6 250 12:20 02.12.2019
3380 Clouds 3 1033 86 10000 2.6 250 11:56 02.12.2019
3381 Clouds 3 1033 86 10000 2.6 250 11:37 02.12.2019
3382 Clouds 2 1033 89 10000 3.1 250 11:18 02.12.2019
3383 Clouds 2 1033 89 10000 2.6 250 10:55 02.12.2019
3384 Clouds 2 1033 89 10000 2.6 250 10:37 02.12.2019
3385 Clouds 1 1033 89 10000 2.6 250 10:19 02.12.2019
3386 Clouds 1 1033 89 10000 3.1 260 09:41 02.12.2019
3387 Clouds 1 1033 89 10000 3.1 260 09:19 02.12.2019
3388 Clouds 1 1033 89 10000 3.6 260 08:57 02.12.2019
3389 Clouds 1 1033 89 10000 3.6 260 08:38 02.12.2019
3390 Clouds 1 1033 91 10000 3.6 270 08:20 02.12.2019
3391 Clouds 1 1033 91 10000 3.1 260 07:44 02.12.2019
3392 Clouds 1 1033 91 10000 3.6 260 07:21 02.12.2019
3393 Clouds 1 1033 91 10000 3.6 270 06:56 02.12.2019
3394 Clouds 1 1033 91 10000 3.6 270 06:38 02.12.2019
3395 Clouds 0 1033 91 10000 3.6 260 05:34 02.12.2019
3396 Clouds 0 1033 91 10000 3.6 270 04:26 02.12.2019
3397 Clouds 0 1033 91 10000 2.6 260 02:53 02.12.2019
3398 Clouds 0 1033 91 10000 3.6 270 02:27 02.12.2019
3399 Rain -1 1033 100 10000 2.6 270 01:26 02.12.2019
3400 Clouds 0 1032 100 10000 2.1 250 00:57 02.12.2019
3401 Clouds 0 1032 91 10000 4.1 310 00:25 02.12.2019
3402 Clouds 0 1032 100 10000 3.1 290 23:54 01.12.2019
3403 Clouds 0 1032 100 10000 3.1 290 23:36 01.12.2019
3404 Clouds 0 1032 100 10000 2.1 280 23:18 01.12.2019
3405 Clouds 1 1032 90 10000 2.6 290 22:54 01.12.2019
3406 Clouds 1 1032 90 10000 2.6 290 22:36 01.12.2019
3407 Clouds 1 1032 90 10000 3.6 310 22:18 01.12.2019
3408 Clouds 1 1032 90 10000 4.1 310 21:54 01.12.2019
3409 Clouds 1 1032 90 10000 4.1 310 21:54 01.12.2019
3410 Clouds 1 1032 90 10000 4.1 310 21:36 01.12.2019
3411 Clouds 1 1032 90 10000 4.6 310 21:18 01.12.2019
3412 Clouds 1 1032 90 10000 4.1 310 20:42 01.12.2019
3413 Clouds 1 1032 90 10000 4.1 310 20:42 01.12.2019
3414 Clouds 2 1032 92 10000 4.6 300 20:24 01.12.2019
3415 Clouds 2 1032 89 10000 4.6 300 19:59 01.12.2019
3416 Clouds 2 1032 89 10000 4.1 300 19:40 01.12.2019
3417 Clouds 2 1031 93 10000 3.6 280 19:22 01.12.2019
3418 Clouds 2 1031 100 10000 3.6 300 18:58 01.12.2019
3419 Clouds 2 1031 100 10000 3.6 300 18:39 01.12.2019
3420 Clouds 2 1031 93 10000 3.6 310 18:20 01.12.2019
3421 Clouds 2 1031 93 10000 3.1 310 18:00 01.12.2019
3422 Clouds 2 1031 93 10000 3.1 310 17:59 01.12.2019
3423 Clouds 2 1031 93 10000 3.1 310 17:41 01.12.2019
3424 Clouds 4 1031 86 10000 3.6 320 17:23 01.12.2019
3425 Clouds 4 1031 86 10000 3.6 320 17:23 01.12.2019
3426 Clouds 4 1031 86 10000 3.6 320 17:23 01.12.2019
3427 Clouds 5 1030 86 10000 3.6 320 16:56 01.12.2019
3428 Clouds 5 1030 86 10000 3.6 320 16:38 01.12.2019
3429 Clouds 5 1030 86 10000 3.6 330 16:20 01.12.2019
3430 Clouds 5 1030 86 10000 3.1 300 15:49 01.12.2019
3431 Clouds 5 1029 93 10000 3.6 300 15:31 01.12.2019
3432 Clouds 5 1029 93 10000 3.6 300 15:31 01.12.2019
3433 Clouds 5 1029 86 10000 3.6 310 14:43 01.12.2019
3434 Clouds 5 1029 93 10000 3.6 310 14:20 01.12.2019
3435 Clouds 5 1029 93 10000 3.6 310 13:59 01.12.2019
3436 Rain 5 1029 81 10000 3.6 320 13:39 01.12.2019
3437 Rain 5 1029 93 10000 3.1 320 13:19 01.12.2019
3438 Rain 4 1029 93 10000 2.6 310 12:44 01.12.2019
3439 Rain 4 1029 93 10000 3.6 350 11:58 01.12.2019
3440 Rain 4 1029 93 7000 3.6 350 11:39 01.12.2019
3441 Rain 3 1028 100 9000 2.6 50 11:19 01.12.2019
3442 Rain 3 1028 100 9000 3.1 60 10:43 01.12.2019
3443 Rain 3 1027 93 10000 3.1 360 10:21 01.12.2019
3444 Rain 2 1027 100 10000 3.6 340 09:57 01.12.2019
3445 Clouds 2 1027 100 10000 3.6 340 09:38 01.12.2019
3446 Clouds 2 1027 93 10000 3.1 330 09:20 01.12.2019
3447 Clouds 2 1027 93 10000 3.1 330 09:20 01.12.2019
3448 Clouds 2 1026 100 10000 2.6 320 08:44 01.12.2019
3449 Clouds 1 1026 100 10000 2.1 360 08:19 01.12.2019
3450 Rain 2 1025 100 10000 1.5 0 07:50 01.12.2019
3451 Rain 2 1025 100 10000 1.5 0 07:50 01.12.2019
3452 Rain 2 1025 100 10000 1.5 0 07:30 01.12.2019
3453 Rain 2 1025 100 10000 2.1 350 06:56 01.12.2019
3454 Rain 2 1025 100 10000 2.1 300 06:25 01.12.2019
3455 Clouds 2 1024 93 10000 2.1 280 05:46 01.12.2019
3456 Rain 1 1024 100 10000 1.5 0 04:34 01.12.2019
3457 Clouds 1 1023 85 10000 1 0 02:47 01.12.2019
3458 Clouds 1 1023 85 10000 1 0 02:29 01.12.2019
3459 Clouds 1 1023 90 10000 2.1 320 01:56 01.12.2019
3460 Clouds 1 1023 89 10000 2.1 320 01:38 01.12.2019
3461 Clouds 1 1023 89 10000 2.6 360 00:59 01.12.2019
3462 Clouds 2 1023 89 10000 2.6 360 00:39 01.12.2019
3463 Clouds 2 1023 89 10000 2.1 360 00:20 01.12.2019
3464 Clouds 2 1023 93 10000 2.6 350 23:41 30.11.2019
3465 Clouds 3 1023 93 10000 2.6 10 23:22 30.11.2019
3466 Clouds 3 1022 93 10000 3.1 10 22:49 30.11.2019
3467 Clouds 3 1022 93 10000 3.1 20 22:29 30.11.2019
3468 Clouds 3 1022 90 10000 2.1 20 21:57 30.11.2019
3469 Clouds 3 1022 90 10000 2.1 20 21:39 30.11.2019
3470 Clouds 3 1022 93 10000 2.6 20 21:19 30.11.2019
3471 Clouds 3 1022 90 10000 2.6 40 20:55 30.11.2019
3472 Clouds 3 1022 90 10000 2.6 40 20:36 30.11.2019
3473 Clouds 3 1021 93 10000 2.6 20 20:18 30.11.2019
3474 Clouds 4 1021 85 10000 3.1 50 19:55 30.11.2019
3475 Clouds 4 1021 85 10000 3.1 50 19:36 30.11.2019
3476 Clouds 5 1021 86 10000 2.1 70 19:18 30.11.2019
3477 Clouds 5 1020 80 10000 2.6 70 18:54 30.11.2019
3478 Clouds 5 1020 80 10000 2.6 70 18:36 30.11.2019
3479 Clouds 5 1020 80 10000 3.1 70 18:18 30.11.2019
3480 Clouds 6 1020 80 10000 3.6 70 17:55 30.11.2019
3481 Clouds 6 1020 80 10000 3.6 70 17:36 30.11.2019
3482 Clouds 6 1020 80 10000 3.6 80 17:36 30.11.2019
3483 Clouds 6 1020 80 10000 3.6 80 17:18 30.11.2019
3484 Clouds 6 1019 80 10000 4.1 100 16:42 30.11.2019
3485 Clouds 6 1019 81 10000 3.6 110 16:22 30.11.2019
3486 Clouds 7 1019 75 10000 3.6 110 15:55 30.11.2019
3487 Clouds 7 1019 75 10000 3.6 110 15:37 30.11.2019
3488 Clouds 7 1019 70 10000 4.6 110 15:18 30.11.2019
3489 Clouds 7 1019 70 10000 4.6 110 14:55 30.11.2019
3490 Clouds 8 1019 70 10000 4.6 110 14:37 30.11.2019
3491 Clouds 7 1019 70 10000 4.6 110 14:18 30.11.2019
3492 Clouds 7 1019 75 10000 4.6 110 13:45 30.11.2019
3493 Clouds 7 1019 81 10000 5.1 110 13:25 30.11.2019
3494 Clouds 7 1019 75 10000 4.1 110 12:58 30.11.2019
3495 Clouds 7 1019 75 10000 4.1 110 12:39 30.11.2019
3496 Clouds 7 1019 75 10000 4.6 120 12:21 30.11.2019
3497 Clouds 6 1019 75 10000 5.1 110 11:42 30.11.2019
3498 Clouds 6 1019 75 10000 5.7 110 11:19 30.11.2019
3499 Clouds 6 1019 75 10000 5.7 110 11:19 30.11.2019
3500 Clouds 6 1019 75 10000 4.6 110 10:55 30.11.2019
3501 Clouds 6 1019 75 10000 4.6 110 10:55 30.11.2019
3502 Clouds 6 1019 75 10000 4.6 110 10:37 30.11.2019
3503 Clouds 6 1019 81 10000 5.1 110 10:18 30.11.2019
3504 Clouds 6 1018 81 10000 5.1 100 09:46 30.11.2019
3505 Clouds 6 1018 81 10000 5.1 110 09:23 30.11.2019
3506 Clouds 6 1018 87 10000 4.6 110 08:44 30.11.2019
3507 Clouds 6 1018 87 10000 3.6 110 08:20 30.11.2019
3508 Clouds 6 1017 87 10000 4.6 110 07:56 30.11.2019
3509 Clouds 6 1017 87 10000 4.6 110 07:37 30.11.2019
3510 Clouds 6 1018 87 10000 5.7 100 06:56 30.11.2019
3511 Clouds 6 1018 87 10000 5.1 100 06:29 30.11.2019
3512 Clouds 6 1018 87 10000 4.6 110 05:49 30.11.2019
3513 Clouds 5 1018 81 10000 4.6 110 03:48 30.11.2019
3514 Clouds 6 1018 81 10000 5.1 110 02:39 30.11.2019
3515 Clouds 5 1018 75 10000 5.7 110 02:21 30.11.2019
3516 Clouds 4 1018 75 10000 5.1 100 01:25 30.11.2019
3517 Clouds 4 1019 75 10000 5.1 110 00:50 30.11.2019
3518 Clouds 4 1019 75 10000 5.1 110 00:31 30.11.2019
3519 Clouds 3 1019 80 10000 4.1 100 23:59 29.11.2019
3520 Clouds 3 1019 80 10000 4.1 100 23:40 29.11.2019
3521 Clouds 3 1019 75 10000 3.6 110 23:20 29.11.2019
3522 Clouds 3 1019 75 10000 3.6 120 22:42 29.11.2019
3523 Clouds 2 1018 81 10000 4.1 110 22:23 29.11.2019
3524 Clouds 2 1019 81 10000 3.1 110 21:44 29.11.2019
3525 Clouds 2 1019 80 10000 2.1 130 21:24 29.11.2019
3526 Clouds 2 1019 86 10000 2.6 110 20:57 29.11.2019
3527 Clouds 2 1019 86 10000 2.6 110 20:38 29.11.2019
3528 Clouds 3 1019 93 10000 3.6 100 20:19 29.11.2019
3529 Clouds 3 1019 86 10000 3.1 90 19:57 29.11.2019
3530 Clouds 3 1019 86 10000 3.1 90 19:38 29.11.2019
3531 Clouds 4 1019 86 10000 2.1 100 19:19 29.11.2019
3532 Clouds 4 1019 87 10000 2.6 140 18:54 29.11.2019
3533 Clouds 4 1019 87 10000 2.6 140 18:36 29.11.2019
3534 Rain 4 1019 93 10000 2.6 150 18:18 29.11.2019
3535 Rain 5 1018 86 10000 3.1 110 17:41 29.11.2019
3536 Clouds 6 1018 75 10000 3.1 90 17:22 29.11.2019
3537 Clouds 6 1018 81 10000 3.6 80 16:44 29.11.2019
3538 Rain 6 1018 81 10000 3.1 90 16:21 29.11.2019
3539 Rain 6 1018 81 10000 3.6 90 15:59 29.11.2019
3540 Rain 6 1018 81 10000 3.6 90 15:59 29.11.2019
3541 Rain 6 1018 81 10000 3.6 90 15:39 29.11.2019
3542 Rain 7 1018 81 10000 3.6 90 15:21 29.11.2019
3543 Rain 6 1018 81 10000 3.6 90 15:21 29.11.2019
3544 Rain 6 1017 87 10000 3.1 70 14:41 29.11.2019
3545 Rain 6 1018 87 10000 2.1 120 14:22 29.11.2019
3546 Rain 6 1018 87 10000 3.1 160 13:58 29.11.2019
3547 Rain 6 1018 87 10000 3.1 160 13:38 29.11.2019
3548 Rain 5 1018 93 10000 1.5 0 13:20 29.11.2019
3549 Clouds 5 1017 93 10000 1.5 0 12:44 29.11.2019
3550 Clouds 5 1017 93 10000 1.5 0 12:25 29.11.2019
3551 Clouds 4 1017 93 10000 1.5 0 11:57 29.11.2019
3552 Clouds 4 1017 93 10000 1.5 0 11:38 29.11.2019
3553 Clouds 3 1016 80 10000 2.6 20 11:19 29.11.2019
3554 Clouds 2 1016 80 10000 2.6 10 10:58 29.11.2019
3555 Clouds 2 1016 80 10000 2.6 10 10:39 29.11.2019
3556 Clouds 2 1016 80 10000 3.6 20 10:21 29.11.2019
3557 Clouds 2 1015 80 10000 3.1 20 09:59 29.11.2019
3558 Clouds 2 1015 80 10000 3.1 20 09:39 29.11.2019
3559 Clouds 2 1015 80 10000 3.1 20 09:20 29.11.2019
3560 Clouds 2 1014 80 10000 3.6 20 08:55 29.11.2019
3561 Clouds 2 1014 80 10000 3.6 20 08:37 29.11.2019
3562 Clouds 2 1014 80 10000 3.6 20 08:18 29.11.2019
3563 Clouds 2 1014 80 10000 3.1 10 07:41 29.11.2019
3564 -273 0 0 0 0 0 07:23 29.11.2019
3565 Clouds 3 1013 93 10000 3.1 20 06:49 29.11.2019
3566 Clouds 3 1013 80 10000 2.1 10 06:28 29.11.2019
3567 Clouds 3 1012 86 10000 2.1 10 05:32 29.11.2019
3568 Clouds 4 1012 80 10000 3.1 350 05:32 29.11.2019
3569 Clouds 3 1012 86 10000 2.1 10 05:32 29.11.2019
3570 Clouds 3 1012 86 10000 2.1 10 05:32 29.11.2019
3571 Clouds 4 1011 83 10000 1.5 350 04:57 29.11.2019
3572 Clouds 4 1010 83 10000 3.6 50 03:41 29.11.2019
3573 Clouds 4 1010 83 10000 3.6 40 03:18 29.11.2019
3574 Clouds 5 1010 86 10000 4.1 40 02:24 29.11.2019
3575 Clouds 5 1009 86 10000 5.1 50 01:40 29.11.2019
3576 Clouds 5 1009 86 10000 4.6 40 01:20 29.11.2019
3577 Clouds 5 1009 86 10000 4.6 40 01:20 29.11.2019
3578 Clouds 6 1008 80 10000 3.6 40 00:40 29.11.2019
3579 Clouds 6 1008 75 10000 4.6 40 00:18 29.11.2019
3580 Clouds 6 1007 75 10000 4.1 50 23:41 28.11.2019
3581 Clouds 6 1007 81 10000 5.1 60 23:21 28.11.2019
3582 Clouds 6 1007 81 10000 5.1 60 22:56 28.11.2019
3583 Clouds 7 1006 75 10000 4.6 60 22:37 28.11.2019
3584 Clouds 7 1006 75 10000 4.6 60 22:19 28.11.2019
3585 Clouds 7 1006 75 10000 4.6 60 21:54 28.11.2019
3586 Clouds 7 1006 81 10000 5.1 60 21:36 28.11.2019
3587 Clouds 7 1006 81 10000 5.1 60 21:18 28.11.2019
3588 Clouds 7 1005 81 10000 4.6 60 20:41 28.11.2019
3589 Clouds 7 1005 81 10000 5.1 60 20:22 28.11.2019
3590 Clouds 7 1004 81 10000 6.2 60 19:57 28.11.2019
3591 Clouds 7 1004 81 10000 6.2 60 19:57 28.11.2019
3592 Clouds 7 1004 81 10000 6.2 60 19:38 28.11.2019
3593 Clouds 7 1004 87 10000 5.7 60 19:19 28.11.2019
3594 Clouds 7 1003 81 10000 6.2 60 18:57 28.11.2019
3595 Clouds 7 1003 81 10000 6.2 60 18:39 28.11.2019
3596 Clouds 7 1003 81 10000 6.7 60 18:18 28.11.2019
3597 Clouds 8 1002 87 10000 5.7 60 17:58 28.11.2019
3598 Clouds 8 1002 87 10000 5.7 60 17:40 28.11.2019
3599 Rain 8 1002 87 9000 5.7 60 17:20 28.11.2019
3600 Rain 8 1001 100 9000 5.7 40 16:40 28.11.2019
3601 Rain 8 1001 93 6000 5.1 40 16:19 28.11.2019
3602 Rain 8 1001 93 10000 4.1 40 15:58 28.11.2019
3603 Rain 8 1001 93 10000 4.1 40 15:39 28.11.2019
3604 Rain 8 1000 93 10000 3.6 40 15:19 28.11.2019
3605 Rain 8 1000 93 10000 4.1 40 14:58 28.11.2019
3606 Rain 8 1000 93 10000 4.1 40 14:39 28.11.2019
3607 Rain 8 1000 100 10000 4.1 40 14:19 28.11.2019
3608 Rain 8 999 87 10000 4.1 40 13:43 28.11.2019
3609 Drizzle 8 999 100 6000 3.1 360 13:23 28.11.2019
3610 Drizzle 8 999 100 6000 3.1 300 12:56 28.11.2019
3611 Drizzle 8 999 100 6000 3.1 300 12:38 28.11.2019
3612 Rain 8 999 93 10000 2.6 320 12:20 28.11.2019
3613 Rain 8 998 100 10000 2.6 300 11:55 28.11.2019
3614 Rain 8 998 100 10000 2.6 300 11:55 28.11.2019
3615 Rain 7 998 100 10000 2.6 300 11:37 28.11.2019
3616 Rain 7 998 100 10000 2.6 300 11:37 28.11.2019
3617 Rain 7 998 100 10000 2.6 300 11:18 28.11.2019
3618 Clouds 7 998 100 10000 3.1 290 10:42 28.11.2019
3619 Clouds 7 997 93 10000 3.1 290 10:21 28.11.2019
3620 Clouds 7 996 100 10000 3.6 290 09:56 28.11.2019
3621 Clouds 7 996 100 10000 3.6 290 09:56 28.11.2019
3622 Clouds 7 996 100 10000 3.6 290 09:38 28.11.2019
3623 Clouds 7 996 100 10000 4.1 270 09:18 28.11.2019
3624 Clouds 7 996 93 10000 3.6 270 08:40 28.11.2019
3625 Clouds 7 995 93 10000 4.6 280 08:21 28.11.2019
3626 Clouds 7 995 100 10000 4.6 290 07:55 28.11.2019
3627 Clouds 7 995 100 10000 4.6 290 07:36 28.11.2019
3628 Clouds 7 994 100 10000 4.1 290 07:18 28.11.2019
3629 Clouds 7 993 93 10000 3.6 280 06:37 28.11.2019
3630 Clouds 7 993 100 10000 3.6 290 05:53 28.11.2019
3631 Clouds 7 993 100 10000 3.6 290 05:34 28.11.2019
3632 Clouds 6 992 100 6000 4.6 280 03:52 28.11.2019
3633 Mist 6 992 100 5000 4.1 270 02:30 28.11.2019
3634 Rain 6 991 100 8000 4.1 290 01:23 28.11.2019
3635 Clouds 6 991 100 8000 3.6 290 00:39 28.11.2019
3636 Clouds 6 991 100 7000 3.6 290 00:18 28.11.2019
3637 Clouds 6 990 100 6000 3.6 270 23:38 27.11.2019
3638 Mist 6 990 100 5000 3.1 270 23:20 27.11.2019
3639 Clouds 7 990 100 9000 2.6 260 22:56 27.11.2019
3640 Clouds 7 990 100 9000 2.6 260 22:37 27.11.2019
3641 Clouds 7 989 93 9000 2.6 260 22:18 27.11.2019
3642 Clouds 7 989 93 9000 3.1 280 21:55 27.11.2019
3643 Clouds 7 989 93 9000 3.1 280 21:36 27.11.2019
3644 Clouds 7 989 93 10000 3.1 290 21:18 27.11.2019
3645 Clouds 7 989 100 10000 3.1 290 20:56 27.11.2019
3646 Clouds 7 989 100 10000 3.1 290 20:36 27.11.2019
3647 Clouds 7 989 100 10000 3.1 290 20:18 27.11.2019
3648 Clouds 7 989 100 10000 3.1 290 20:18 27.11.2019
3649 Clouds 7 989 100 10000 2.6 300 19:55 27.11.2019
3650 Clouds 8 989 100 10000 2.6 300 19:37 27.11.2019
3651 Clouds 8 988 93 10000 3.1 310 19:18 27.11.2019
3652 Clouds 8 988 100 10000 2.1 300 18:38 27.11.2019
3653 Clouds 8 988 100 10000 2.1 300 18:38 27.11.2019
3654 Clouds 8 988 93 10000 2.1 310 18:20 27.11.2019
3655 Clouds 8 988 93 10000 2.1 310 17:59 27.11.2019
3656 Clouds 8 987 93 10000 2.6 330 17:41 27.11.2019
3657 Clouds 9 987 87 10000 3.6 350 17:23 27.11.2019
3658 Clouds 9 987 93 10000 4.1 10 16:58 27.11.2019
3659 -273 0 0 0 0 0 16:58 27.11.2019
3660 Clouds 9 987 93 10000 4.1 10 16:40 27.11.2019
3661 Clouds 9 987 93 10000 4.1 10 16:40 27.11.2019
3662 Clouds 9 987 93 10000 4.1 10 16:21 27.11.2019
3663 Clouds 9 987 93 10000 4.1 10 16:21 27.11.2019
3664 -273 0 0 0 0 0 15:58 27.11.2019
3665 Clouds 9 986 93 10000 5.7 20 15:58 27.11.2019
3666 Clouds 9 986 93 10000 5.7 20 15:40 27.11.2019
3667 Clouds 10 986 93 10000 4.1 30 15:21 27.11.2019
3668 Clouds 10 986 93 10000 4.1 40 14:58 27.11.2019
3669 Clouds 10 986 93 10000 4.1 40 14:39 27.11.2019
3670 Clouds 10 986 93 10000 4.1 40 14:21 27.11.2019
3671 Clouds 10 986 93 10000 4.1 40 13:58 27.11.2019
3672 Clouds 10 986 93 10000 4.1 40 13:39 27.11.2019
3673 Clouds 10 985 93 10000 4.1 40 13:19 27.11.2019
3674 Clouds 10 985 93 10000 4.1 40 12:57 27.11.2019
3675 Clouds 10 985 93 10000 4.1 40 12:39 27.11.2019
3676 Rain 9 985 93 10000 2.6 20 12:19 27.11.2019
3677 Clouds 9 984 100 10000 2.6 350 11:39 27.11.2019
3678 Rain 9 984 100 10000 2.6 350 11:19 27.11.2019
3679 Rain 8 984 100 10000 2.6 10 10:59 27.11.2019
3680 Rain 8 984 100 10000 2.6 10 10:41 27.11.2019
3681 Rain 8 984 93 10000 3.1 50 10:23 27.11.2019
3682 Rain 8 984 93 10000 3.1 50 10:23 27.11.2019
3683 Rain 8 983 93 9000 3.1 70 09:45 27.11.2019
3684 Clouds 8 983 100 10000 4.1 60 09:26 27.11.2019
3685 Clouds 8 983 93 10000 3.6 70 08:58 27.11.2019
3686 Clouds 8 983 93 10000 3.6 70 08:40 27.11.2019
3687 Rain 8 982 100 10000 3.6 60 08:21 27.11.2019
3688 Rain 8 982 100 10000 3.6 80 07:46 27.11.2019
3689 Rain 8 982 93 10000 3.6 50 07:28 27.11.2019
3690 Rain 7 982 100 10000 3.6 30 06:47 27.11.2019
3691 Rain 7 981 93 10000 3.6 50 06:29 27.11.2019
3692 Rain 7 981 93 10000 2.6 70 05:43 27.11.2019
3693 Rain 7 981 100 10000 3.1 90 05:19 27.11.2019
3694 Rain 7 981 100 10000 2.6 100 04:41 27.11.2019
3695 Rain 7 981 93 10000 3.1 90 03:55 27.11.2019
3696 Rain 7 981 93 10000 3.6 90 03:23 27.11.2019
3697 Clouds 7 981 93 10000 3.6 100 02:54 27.11.2019
3698 Rain 7 981 93 10000 3.6 120 01:39 27.11.2019
3699 Clouds 7 981 93 10000 3.6 140 00:45 27.11.2019
3700 Clouds 8 980 93 10000 4.1 140 00:26 27.11.2019
3701 Rain 8 980 87 10000 5.1 130 23:49 26.11.2019
3702 Rain 8 981 93 10000 4.1 130 23:27 26.11.2019
3703 Rain 8 981 87 8000 5.1 140 22:59 26.11.2019
3704 Rain 8 981 87 8000 5.1 140 22:38 26.11.2019
3705 Rain 8 981 93 10000 4.1 130 22:19 26.11.2019
3706 Rain 8 981 87 10000 4.1 140 21:58 26.11.2019
3707 Rain 8 981 87 10000 4.1 140 21:58 26.11.2019
3708 Clouds 8 981 87 10000 4.1 140 21:38 26.11.2019
3709 Clouds 8 981 87 10000 4.1 140 21:19 26.11.2019
3710 Rain 8 981 87 10000 4.1 140 20:55 26.11.2019
3711 Rain 8 981 87 10000 4.1 140 20:37 26.11.2019
3712 Clouds 9 981 81 10000 4.1 140 20:18 26.11.2019
3713 Clouds 9 981 81 10000 4.1 140 19:55 26.11.2019
3714 Clouds 9 981 81 10000 4.1 140 19:37 26.11.2019
3715 Clouds 9 981 87 10000 6.2 150 19:18 26.11.2019
3716 Clouds 9 981 76 10000 4.1 150 18:56 26.11.2019
3717 Clouds 9 981 76 10000 4.1 150 18:38 26.11.2019
3718 Clouds 9 981 81 10000 6.2 150 18:20 26.11.2019
3719 Rain 9 980 81 10000 5.7 150 17:54 26.11.2019
3720 Rain 10 980 81 10000 4.1 150 17:36 26.11.2019
3721 Rain 10 980 81 10000 4.1 150 17:18 26.11.2019
3722 Rain 10 980 81 10000 5.7 160 16:54 26.11.2019
3723 Rain 10 980 81 10000 5.7 160 16:36 26.11.2019
3724 Clouds 11 980 81 10000 5.7 150 16:18 26.11.2019
3725 Rain 11 980 76 10000 6.7 170 15:56 26.11.2019
3726 Rain 11 980 76 10000 6.7 170 15:56 26.11.2019
3727 Rain 11 980 76 10000 6.7 170 15:37 26.11.2019
3728 Clouds 11 980 87 10000 4.1 160 15:18 26.11.2019
3729 Clouds 11 980 87 10000 4.1 140 14:43 26.11.2019
3730 Drizzle 11 980 93 9000 4.1 140 14:24 26.11.2019
3731 Drizzle 11 980 93 5000 4.6 140 13:43 26.11.2019
3732 Drizzle 11 980 93 6000 6.2 140 13:24 26.11.2019
3733 Drizzle 10 981 93 4500 8.2 140 12:57 26.11.2019
3734 Drizzle 10 981 100 3000 7.7 100 12:36 26.11.2019
3735 Drizzle 10 981 100 3000 7.7 100 12:18 26.11.2019
3736 Drizzle 10 982 93 1800 10.3 80 11:55 26.11.2019
3737 Drizzle 9 983 100 1800 9.8 80 11:36 26.11.2019
3738 Drizzle 9 983 100 1800 9.8 80 11:36 26.11.2019
3739 Drizzle 9 983 100 1800 9.8 80 11:18 26.11.2019
3740 Drizzle 9 983 100 1800 9.8 80 11:18 26.11.2019
3741 Drizzle 8 984 100 1800 11.8 90 10:55 26.11.2019
3742 Drizzle 8 984 100 1800 11.8 90 10:37 26.11.2019
3743 Drizzle 8 985 100 2500 9.8 100 10:18 26.11.2019
3744 Drizzle 8 985 93 2500 8.7 110 09:42 26.11.2019
3745 Rain 9 986 93 6000 8.7 110 09:23 26.11.2019
3746 Rain 9 987 93 10000 7.7 110 08:47 26.11.2019
3747 Rain 8 987 93 10000 6.2 110 08:28 26.11.2019
3748 Rain 8 988 100 10000 5.1 100 07:57 26.11.2019
3749 Rain 8 988 100 10000 5.1 100 07:38 26.11.2019
3750 Rain 8 989 93 10000 4.6 90 07:19 26.11.2019
3751 Rain 8 989 93 10000 3.6 110 06:46 26.11.2019
3752 Rain 8 991 93 10000 2.1 140 05:59 26.11.2019
3753 Clouds 8 991 100 10000 2.6 130 05:19 26.11.2019
3754 Clouds 8 993 93 10000 1.5 220 03:21 26.11.2019
3755 Clouds 8 995 100 10000 3.1 230 01:37 26.11.2019
3756 Clouds 8 995 100 10000 3.1 230 01:19 26.11.2019
3757 Clouds 9 995 93 10000 3.1 220 00:41 26.11.2019
3758 Rain 9 995 100 9000 2.6 210 23:59 25.11.2019
3759 Rain 9 995 100 9000 2.6 210 23:38 25.11.2019
3760 Clouds 9 995 100 9000 2.1 190 23:19 25.11.2019
3761 Drizzle 10 995 100 8000 1.5 0 22:40 25.11.2019
3762 Clouds 10 995 100 5000 1.5 190 22:19 25.11.2019
3763 Rain 10 995 100 5000 1.5 210 21:59 25.11.2019
3764 Rain 10 995 100 5000 1.5 210 21:41 25.11.2019
3765 Rain 10 995 100 4000 2.6 210 21:23 25.11.2019
3766 Rain 10 995 100 9000 0.5 180 20:58 25.11.2019
3767 Rain 10 995 100 9000 0.5 180 20:40 25.11.2019
3768 Rain 10 995 100 6000 0.5 0 20:20 25.11.2019
3769 Rain 10 995 100 6000 1 0 19:57 25.11.2019
3770 Rain 10 995 100 6000 1 0 19:39 25.11.2019
3771 Rain 10 995 93 4000 1 0 19:20 25.11.2019
3772 Rain 10 995 100 2000 1.5 0 18:58 25.11.2019
3773 Rain 10 995 100 2000 1.5 0 18:58 25.11.2019
3774 Rain 10 995 100 800 2.1 140 18:40 25.11.2019
3775 Rain 11 995 100 800 2.1 140 18:22 25.11.2019
3776 Rain 11 996 100 500 2.1 130 17:58 25.11.2019
3777 Fog 11 996 100 500 2.1 130 17:40 25.11.2019
3778 Fog 11 995 93 0 2.1 150 17:22 25.11.2019
3779 Mist 11 995 100 5000 2.1 130 16:59 25.11.2019
3780 Mist 11 995 100 5000 2.1 130 16:59 25.11.2019
3781 Mist 11 995 100 5000 2.1 130 16:41 25.11.2019
3782 Drizzle 11 995 100 9000 2.6 140 16:22 25.11.2019
3783 Drizzle 12 995 100 3500 3.1 140 15:56 25.11.2019
3784 Drizzle 12 995 100 3500 3.1 140 15:37 25.11.2019
3785 Drizzle 12 995 100 5000 3.1 140 15:19 25.11.2019
3786 Drizzle 12 995 100 5000 3.1 140 15:19 25.11.2019
3787 Mist 12 995 93 5000 2.1 120 14:44 25.11.2019
3788 Clouds 11 995 100 10000 2.6 140 14:26 25.11.2019
3789 Clouds 11 996 100 9000 2.6 140 13:58 25.11.2019
3790 Clouds 11 996 100 9000 2.6 140 13:38 25.11.2019
3791 Clouds 11 996 100 9000 2.6 140 13:38 25.11.2019
3792 Clouds 11 996 100 8000 2.6 150 13:20 25.11.2019
3793 Mist 11 996 93 4000 2.6 140 12:58 25.11.2019
3794 Mist 11 996 93 4000 2.6 140 12:39 25.11.2019
3795 Drizzle 11 996 100 3500 3.1 140 12:19 25.11.2019
3796 Drizzle 11 996 100 7000 3.1 130 11:40 25.11.2019
3797 Mist 10 996 100 4500 3.6 140 11:21 25.11.2019
3798 Drizzle 10 996 100 3000 3.6 120 10:59 25.11.2019
3799 Drizzle 10 996 100 3000 3.6 120 10:41 25.11.2019
3800 Drizzle 10 996 100 3000 3.6 120 10:41 25.11.2019
3801 Drizzle 10 996 93 3500 3.6 140 10:19 25.11.2019
3802 Drizzle 10 996 93 3000 4.1 130 09:44 25.11.2019
3803 Drizzle 10 996 93 4000 4.6 130 09:26 25.11.2019
3804 Drizzle 10 996 100 4000 4.1 130 08:57 25.11.2019
3805 Drizzle 9 996 100 4000 4.1 130 08:38 25.11.2019
3806 Drizzle 9 996 100 4000 5.7 130 08:18 25.11.2019
3807 Drizzle 9 996 100 4000 5.1 120 07:39 25.11.2019
3808 Drizzle 9 996 100 4000 5.7 120 07:18 25.11.2019
3809 Drizzle 9 995 100 4000 6.2 120 06:38 25.11.2019
3810 Rain 9 996 100 5000 5.7 120 06:18 25.11.2019
3811 Rain 9 996 100 5000 5.1 110 05:32 25.11.2019
3812 Rain 9 996 100 5000 5.7 120 04:50 25.11.2019
3813 Rain 9 997 93 10000 5.7 120 02:45 25.11.2019
3814 Rain 9 997 100 10000 5.7 130 01:56 25.11.2019
3815 Rain 9 997 100 10000 5.7 130 01:36 25.11.2019
3816 Rain 9 997 93 6000 5.1 130 01:18 25.11.2019
3817 Rain 9 997 93 6000 6.2 140 00:21 25.11.2019
3818 Rain 10 997 93 6000 5.7 130 23:45 24.11.2019
3819 Rain 10 997 93 6000 5.7 130 23:45 24.11.2019
3820 Rain 9 997 93 10000 5.1 140 23:21 24.11.2019
3821 Rain 9 997 93 10000 4.6 140 22:58 24.11.2019
3822 Rain 9 997 93 10000 4.6 140 22:39 24.11.2019
3823 Rain 9 998 100 10000 4.1 130 22:19 24.11.2019
3824 Rain 9 998 93 10000 3.6 130 21:57 24.11.2019
3825 Rain 9 998 93 10000 3.6 130 21:39 24.11.2019
3826 Drizzle 9 998 93 8000 3.6 140 21:20 24.11.2019
3827 Drizzle 9 998 93 6000 5.1 120 20:58 24.11.2019
3828 Drizzle 9 998 93 6000 5.1 120 20:38 24.11.2019
3829 Rain 9 998 100 7000 2.6 110 20:18 24.11.2019
3830 Rain 9 998 100 8000 3.6 110 19:56 24.11.2019
3831 Clouds 9 998 100 8000 3.6 110 19:38 24.11.2019
3832 Clouds 9 998 93 8000 3.1 110 19:20 24.11.2019
3833 Rain 9 999 100 9000 4.1 100 18:57 24.11.2019
3834 Rain 9 999 100 9000 4.1 100 18:37 24.11.2019
3835 Rain 9 999 93 9000 3.1 90 18:19 24.11.2019
3836 Clouds 9 999 93 8000 2.1 130 17:55 24.11.2019
3837 Clouds 9 999 93 8000 3.6 140 17:37 24.11.2019
3838 Clouds 9 999 93 8000 3.6 140 17:19 24.11.2019
3839 Clouds 9 999 93 8000 3.6 140 17:19 24.11.2019
3840 Clouds 9 999 93 10000 4.1 120 16:56 24.11.2019
3841 Clouds 9 999 93 10000 4.1 120 16:38 24.11.2019
3842 Clouds 9 999 93 10000 3.6 130 16:19 24.11.2019
3843 Clouds 9 999 93 10000 3.6 130 16:19 24.11.2019
3844 Clouds 9 999 93 10000 2.1 130 15:43 24.11.2019
3845 Clouds 9 1000 93 10000 2.6 130 15:25 24.11.2019
3846 Clouds 9 1000 93 10000 3.1 140 14:57 24.11.2019
3847 Clouds 9 1000 93 10000 3.1 140 14:57 24.11.2019
3848 Clouds 9 1000 93 10000 3.1 140 14:38 24.11.2019
3849 Clouds 9 1000 93 10000 3.1 140 14:38 24.11.2019
3850 Clouds 9 1000 93 8000 2.1 140 14:18 24.11.2019
3851 Clouds 8 1000 100 7000 1.5 120 13:41 24.11.2019
3852 Mist 8 1001 100 4000 2.1 90 13:22 24.11.2019
3853 Mist 8 1001 100 3000 0.5 0 12:59 24.11.2019
3854 Mist 7 1001 100 3000 0.5 0 12:40 24.11.2019
3855 Mist 7 1001 100 2500 1 0 12:18 24.11.2019
3856 Mist 7 1001 100 2500 2.1 280 11:56 24.11.2019
3857 Mist 7 1001 100 2500 1.5 270 11:37 24.11.2019
3858 Mist 7 1001 100 2500 1.5 270 11:18 24.11.2019
3859 Mist 7 1002 100 2500 1.5 270 10:46 24.11.2019
3860 Mist 7 1002 100 2500 2.1 260 10:28 24.11.2019
3861 Mist 7 1002 100 2500 2.1 260 10:28 24.11.2019
3862 Mist 7 1001 93 2500 0.5 0 09:55 24.11.2019
3863 Mist 7 1001 93 2500 0.5 0 09:37 24.11.2019
3864 Mist 7 1001 100 3000 0.5 360 09:18 24.11.2019
3865 Clouds 7 1001 100 6000 0.5 0 08:44 24.11.2019
3866 Clouds 7 1001 100 6000 1.5 0 08:22 24.11.2019
3867 Clouds 7 1001 100 8000 1 0 07:57 24.11.2019
3868 Clouds 7 1001 100 8000 1 0 07:57 24.11.2019
3869 Clouds 7 1001 100 8000 1 0 07:37 24.11.2019
3870 Clouds 7 1001 100 8000 1.5 0 07:18 24.11.2019
3871 Clouds 7 1001 100 8000 0.5 0 06:19 24.11.2019
3872 Clouds 7 1001 100 8000 0.5 0 06:19 24.11.2019
3873 Clouds 7 1001 100 8000 0.5 0 06:19 24.11.2019
3874 Clouds 7 1001 100 10000 1.5 0 04:48 24.11.2019
3875 Clouds 6 1001 100 8000 3.6 280 03:33 24.11.2019
3876 Clouds 6 1001 100 10000 3.1 280 01:59 24.11.2019
3877 Clouds 6 1001 100 10000 3.1 280 01:39 24.11.2019
3878 Clouds 7 1001 93 10000 2.1 290 01:20 24.11.2019
3879 Clouds 7 1001 100 10000 3.1 300 00:47 24.11.2019
3880 Clouds 7 1001 100 10000 2.6 320 00:23 24.11.2019
3881 Clouds 7 1001 100 10000 2.1 350 23:45 23.11.2019
3882 Clouds 8 1001 93 10000 2.6 350 23:22 23.11.2019
3883 Clouds 8 1001 100 10000 2.1 350 22:59 23.11.2019
3884 Clouds 8 1001 100 10000 2.1 350 22:59 23.11.2019
3885 Clouds 8 1001 100 10000 2.1 350 22:40 23.11.2019
3886 Clouds 8 1001 100 10000 2.1 340 22:22 23.11.2019
3887 Clouds 8 1001 100 10000 2.6 340 21:58 23.11.2019
3888 Clouds 8 1001 100 10000 2.6 340 21:40 23.11.2019
3889 Clouds 8 1001 100 10000 3.1 330 21:21 23.11.2019
3890 Clouds 8 1001 100 10000 3.6 320 20:55 23.11.2019
3891 Clouds 8 1001 100 10000 3.6 320 20:36 23.11.2019
3892 Clouds 8 1000 100 10000 3.6 330 20:18 23.11.2019
3893 Clouds 8 1000 100 10000 3.6 330 19:54 23.11.2019
3894 Clouds 9 1000 100 10000 3.6 330 19:36 23.11.2019
3895 Clouds 9 1000 93 10000 3.1 330 19:18 23.11.2019
3896 Clouds 9 999 93 10000 3.1 350 18:39 23.11.2019
3897 Clouds 9 999 93 10000 3.1 30 18:20 23.11.2019
3898 Clouds 9 998 93 10000 3.1 30 17:54 23.11.2019
3899 Clouds 9 998 93 10000 3.1 30 17:54 23.11.2019
3900 Clouds 9 998 93 10000 3.6 40 17:36 23.11.2019
3901 Clouds 9 998 93 10000 3.6 40 17:18 23.11.2019
3902 Clouds 9 998 93 10000 4.1 50 16:54 23.11.2019
3903 Clouds 9 998 93 10000 4.1 50 16:36 23.11.2019
3904 Clouds 9 998 93 10000 4.1 50 16:18 23.11.2019
3905 Rain 9 998 87 10000 4.6 60 15:40 23.11.2019
3906 Rain 9 997 93 10000 4.6 50 15:19 23.11.2019
3907 Rain 9 997 93 10000 4.6 50 15:19 23.11.2019
3908 Rain 9 997 93 10000 4.1 40 14:58 23.11.2019
3909 Rain 9 997 93 10000 4.1 40 14:40 23.11.2019
3910 Clouds 9 997 93 10000 4.6 20 14:21 23.11.2019
3911 Clouds 9 997 93 10000 5.1 30 13:56 23.11.2019
3912 Clouds 9 997 93 10000 5.1 30 13:38 23.11.2019
3913 Rain 9 997 93 10000 5.1 30 13:18 23.11.2019
3914 Rain 9 997 93 10000 5.1 40 12:42 23.11.2019
3915 Rain 9 997 93 10000 6.2 40 12:24 23.11.2019
3916 Rain 9 996 93 10000 6.2 40 11:45 23.11.2019
3917 Rain 9 996 93 10000 6.2 50 11:23 23.11.2019
3918 Rain 8 996 93 10000 6.2 40 10:56 23.11.2019
3919 Rain 8 996 93 10000 6.2 40 10:37 23.11.2019
3920 Rain 8 995 93 9000 7.2 50 10:18 23.11.2019
3921 Rain 8 995 87 10000 6.7 50 09:40 23.11.2019
3922 Rain 8 995 93 10000 6.2 60 09:18 23.11.2019
3923 Rain 8 995 87 10000 5.7 60 08:41 23.11.2019
3924 Rain 8 994 87 10000 6.2 70 08:19 23.11.2019
3925 Rain 8 994 87 10000 6.2 70 07:42 23.11.2019
3926 Clouds 8 994 87 10000 6.7 70 06:58 23.11.2019
3927 Clouds 8 994 87 10000 6.7 70 06:38 23.11.2019
3928 Clouds 8 994 93 10000 5.7 70 06:19 23.11.2019
3929 Clouds 8 994 93 10000 6.2 80 05:32 23.11.2019
3930 Rain 7 993 93 10000 7.2 50 04:58 23.11.2019
3931 Rain 7 993 93 10000 7.2 50 04:34 23.11.2019
3932 Rain 7 993 93 10000 6.7 80 03:32 23.11.2019
3933 Rain 7 993 93 10000 5.1 100 02:39 23.11.2019
3934 Rain 7 993 93 10000 5.1 100 02:39 23.11.2019
3935 Rain 6 992 100 10000 4.6 80 01:40 23.11.2019
3936 Rain 6 992 100 10000 2.6 30 00:49 23.11.2019
3937 Rain 6 992 100 10000 2.6 70 00:20 23.11.2019
3938 Rain 6 992 100 10000 3.1 100 23:56 22.11.2019
3939 Rain 6 992 100 10000 3.1 100 23:37 22.11.2019
3940 Rain 6 992 93 10000 2.6 100 23:18 22.11.2019
3941 Rain 6 992 93 10000 2.6 110 22:55 22.11.2019
3942 Rain 6 992 93 10000 2.6 110 22:37 22.11.2019
3943 Rain 6 992 100 10000 1.5 100 22:18 22.11.2019
3944 Rain 6 992 100 10000 1.5 100 22:18 22.11.2019
3945 Rain 5 992 100 10000 2.6 10 21:40 22.11.2019
3946 Rain 5 991 93 10000 2.1 320 21:21 22.11.2019
3947 Rain 5 991 93 10000 2.1 280 20:55 22.11.2019
3948 Rain 5 991 93 10000 2.1 280 20:37 22.11.2019
3949 Rain 5 991 93 10000 1 0 20:19 22.11.2019
3950 Rain 5 991 93 10000 2.6 80 19:39 22.11.2019
3951 Rain 5 991 93 10000 1 0 19:21 22.11.2019
3952 Rain 5 991 100 10000 3.1 350 18:59 22.11.2019
3953 Rain 5 991 100 10000 3.1 350 18:38 22.11.2019
3954 Rain 5 991 93 10000 3.1 50 18:20 22.11.2019
3955 Rain 6 990 93 10000 1.5 100 17:42 22.11.2019
3956 Rain 6 990 87 10000 4.1 170 17:23 22.11.2019
3957 Rain 6 990 87 10000 4.1 170 16:55 22.11.2019
3958 Rain 6 990 87 10000 4.1 170 16:37 22.11.2019
3959 Rain 6 990 87 10000 4.1 170 16:18 22.11.2019
3960 Rain 7 990 93 5000 4.6 170 15:39 22.11.2019
3961 Rain 7 990 87 10000 5.1 110 15:20 22.11.2019
3962 Rain 7 990 87 5000 4.6 90 14:54 22.11.2019
3963 Rain 8 990 87 5000 4.6 90 14:36 22.11.2019
3964 Rain 8 990 87 5000 4.6 90 14:36 22.11.2019
3965 Rain 8 990 81 10000 5.1 100 14:18 22.11.2019
3966 Rain 8 990 87 10000 5.1 100 13:39 22.11.2019
3967 Rain 8 990 87 10000 5.1 110 13:20 22.11.2019
3968 Rain 8 991 87 10000 6.2 110 12:58 22.11.2019
3969 Rain 8 991 87 10000 6.2 110 12:40 22.11.2019
3970 Rain 8 991 93 5000 5.7 100 12:20 22.11.2019
3971 Clouds 7 991 93 10000 5.1 100 11:58 22.11.2019
3972 Clouds 7 991 93 10000 5.1 100 11:37 22.11.2019
3973 Clouds 7 991 87 10000 4.1 100 11:18 22.11.2019
3974 Clouds 7 991 87 10000 4.1 100 11:18 22.11.2019
3975 Clouds 7 991 87 10000 4.1 100 11:18 22.11.2019
3976 Drizzle 7 991 93 10000 4.6 110 10:54 22.11.2019
3977 Drizzle 7 991 93 10000 4.6 110 10:36 22.11.2019
3978 Drizzle 7 991 93 10000 5.1 100 10:18 22.11.2019
3979 Drizzle 7 991 93 4000 4.6 100 09:41 22.11.2019
3980 Drizzle 7 991 93 8000 4.1 100 09:21 22.11.2019
3981 Drizzle 7 991 93 7000 4.1 100 08:58 22.11.2019
3982 Drizzle 7 991 93 7000 4.1 100 08:38 22.11.2019
3983 Drizzle 7 991 93 7000 4.1 100 08:38 22.11.2019
3984 Drizzle 7 991 93 8000 5.7 90 08:20 22.11.2019
3985 Rain 7 991 93 10000 4.6 90 07:42 22.11.2019
3986 Rain 7 991 93 10000 3.6 100 07:20 22.11.2019
3987 Clouds 7 992 93 10000 3.6 90 06:47 22.11.2019
3988 Rain 6 992 100 10000 3.1 100 06:27 22.11.2019
3989 Rain 6 992 100 8000 5.1 90 05:33 22.11.2019
3990 Rain 6 993 100 5000 5.1 100 03:26 22.11.2019
3991 Rain 6 993 100 5000 5.7 100 02:43 22.11.2019
3992 Rain 6 994 100 8000 4.6 100 02:23 22.11.2019
3993 Rain 6 994 100 7000 4.6 90 01:43 22.11.2019
3994 Rain 6 994 93 8000 5.1 90 01:18 22.11.2019
3995 Rain 6 995 100 9000 4.1 90 00:43 22.11.2019
3996 Rain 6 995 93 9000 5.7 100 00:22 22.11.2019
3997 Rain 6 995 87 10000 5.1 100 23:43 21.11.2019
3998 Rain 6 995 87 10000 5.7 90 23:24 21.11.2019
3999 Rain 6 996 87 10000 5.1 100 22:56 21.11.2019
4000 Rain 6 996 87 10000 5.1 100 22:38 21.11.2019
4001 Rain 6 996 81 10000 5.1 110 22:19 21.11.2019
4002 Rain 6 996 81 10000 4.6 100 21:54 21.11.2019
4003 Clouds 6 996 81 10000 4.6 100 21:36 21.11.2019
4004 Clouds 6 996 81 10000 5.1 100 21:18 21.11.2019
4005 Clouds 6 997 81 10000 5.7 110 20:57 21.11.2019
4006 Clouds 6 997 81 10000 5.7 110 20:57 21.11.2019
4007 Clouds 6 997 81 10000 5.7 110 20:37 21.11.2019
4008 Clouds 6 997 81 10000 4.6 100 20:18 21.11.2019
4009 Clouds 6 997 81 10000 4.1 110 19:56 21.11.2019
4010 Clouds 6 997 81 10000 4.1 110 19:37 21.11.2019
4011 Clouds 6 997 81 10000 4.6 120 19:19 21.11.2019
4012 Clouds 6 997 81 10000 4.6 120 18:42 21.11.2019
4013 Clouds 6 998 75 10000 4.6 120 18:21 21.11.2019
4014 Clouds 6 998 75 10000 4.1 120 17:58 21.11.2019
4015 Clouds 6 998 75 10000 4.1 120 17:39 21.11.2019
4016 Clouds 6 998 75 10000 4.1 120 17:21 21.11.2019
4017 Clouds 7 998 81 10000 5.1 110 16:57 21.11.2019
4018 Clouds 7 998 81 10000 5.1 110 16:39 21.11.2019
4019 Clouds 6 998 87 10000 5.1 110 16:20 21.11.2019
4020 Clouds 7 998 81 10000 5.7 110 15:44 21.11.2019
4021 Clouds 7 998 81 10000 5.1 100 15:22 21.11.2019
4022 Clouds 7 998 81 10000 4.6 110 14:59 21.11.2019
4023 Clouds 7 998 81 10000 4.6 110 14:38 21.11.2019
4024 Clouds 7 999 81 10000 5.1 120 14:20 21.11.2019
4025 Clouds 7 999 81 10000 5.1 130 13:59 21.11.2019
4026 Clouds 7 999 81 10000 5.1 130 13:37 21.11.2019
4027 Clouds 7 999 81 10000 4.6 130 13:19 21.11.2019
4028 Rain 7 1000 81 10000 6.2 140 12:42 21.11.2019
4029 Rain 6 1000 87 10000 5.1 130 12:24 21.11.2019
4030 Rain 6 1000 93 6000 5.1 130 11:56 21.11.2019
4031 Rain 6 1000 93 6000 5.7 120 11:38 21.11.2019
4032 Rain 6 1000 93 6000 5.7 120 11:20 21.11.2019
4033 Rain 6 1000 93 6000 5.7 120 11:19 21.11.2019
4034 Rain 7 1000 87 4500 5.1 130 10:43 21.11.2019
4035 Rain 7 1000 87 7000 5.1 120 10:25 21.11.2019
4036 Rain 7 1000 87 7000 6.2 130 09:59 21.11.2019
4037 Rain 7 1000 87 7000 6.2 130 09:41 21.11.2019
4038 Rain 7 1000 87 6000 5.1 130 09:22 21.11.2019
4039 Rain 7 1000 87 6000 5.7 140 08:54 21.11.2019
4040 Rain 7 1000 87 6000 5.7 140 08:36 21.11.2019
4041 Rain 7 1000 93 6000 6.2 140 08:18 21.11.2019
4042 Rain 7 1000 93 6000 6.2 140 07:37 21.11.2019
4043 Rain 7 999 93 6000 6.7 130 07:18 21.11.2019
4044 Rain 7 999 93 6000 6.7 130 06:42 21.11.2019
4045 Rain 7 999 81 10000 7.2 130 06:24 21.11.2019
4046 Clouds 7 1000 81 10000 7.7 140 04:55 21.11.2019
4047 Clouds 8 1000 81 10000 7.7 140 02:54 21.11.2019
4048 Clouds 8 1000 81 10000 7.7 140 02:33 21.11.2019
4049 Clouds 7 1000 75 10000 7.7 140 01:52 21.11.2019
4050 Clouds 7 1001 75 10000 7.7 140 01:21 21.11.2019
4051 Clouds 7 1001 75 10000 7.7 130 00:41 21.11.2019
4052 Rain 7 1001 75 10000 8.2 140 00:20 21.11.2019
4053 Clouds 7 1001 75 10000 7.2 130 23:51 20.11.2019
4054 Clouds 7 1001 70 10000 7.7 140 23:23 20.11.2019
4055 Clouds 7 1002 75 10000 8.7 140 22:58 20.11.2019
4056 Clouds 7 1002 75 10000 8.7 140 22:40 20.11.2019
4057 Clouds 7 1002 75 10000 8.2 140 22:20 20.11.2019
4058 Clouds 7 1002 75 10000 8.2 140 21:59 20.11.2019
4059 Clouds 7 1002 75 10000 7.7 140 21:39 20.11.2019
4060 Clouds 7 1002 70 10000 9.3 140 21:21 20.11.2019
4061 Clouds 7 1002 75 10000 8.7 140 20:57 20.11.2019
4062 Clouds 7 1002 75 10000 8.7 140 20:39 20.11.2019
4063 Rain 7 1002 70 10000 8.2 140 20:21 20.11.2019
4064 Clouds 7 1002 75 10000 7.7 140 19:57 20.11.2019
4065 Clouds 7 1002 75 10000 7.7 140 19:37 20.11.2019
4066 Clouds 8 1002 75 10000 8.7 140 19:19 20.11.2019
4067 Clouds 8 1002 75 10000 8.7 140 18:59 20.11.2019
4068 Clouds 8 1002 75 10000 9.8 140 18:39 20.11.2019
4069 Clouds 8 1002 75 10000 9.8 140 18:21 20.11.2019
4070 Clouds 8 1002 81 10000 9.3 140 17:57 20.11.2019
4071 Clouds 8 1002 81 10000 9.3 140 17:39 20.11.2019
4072 Rain 8 1002 81 10000 9.8 140 17:20 20.11.2019
4073 Clouds 8 1002 81 10000 10.8 140 16:57 20.11.2019
4074 Clouds 9 1002 81 10000 10.8 140 16:39 20.11.2019
4075 Clouds 9 1001 81 10000 10.8 150 16:18 20.11.2019
4076 Clouds 9 1002 81 10000 10.3 150 15:55 20.11.2019
4077 Clouds 9 1002 81 10000 10.3 150 15:36 20.11.2019
4078 Clouds 9 1002 81 10000 10.3 150 15:18 20.11.2019
4079 Clouds 9 1002 81 10000 11.3 150 14:40 20.11.2019
4080 Clouds 9 1002 81 10000 9.3 160 14:22 20.11.2019
4081 Clouds 9 1002 81 10000 9.3 160 14:22 20.11.2019
4082 Clouds 9 1002 81 10000 9.3 160 14:22 20.11.2019
4083 Clouds 9 1002 81 10000 9.3 160 14:22 20.11.2019
4084 Clouds 9 1002 81 10000 9.3 160 14:22 20.11.2019
4085 Rain 9 1002 87 10000 10.8 150 13:58 20.11.2019
4086 Rain 9 1002 87 10000 10.8 150 13:39 20.11.2019
4087 Rain 9 1003 93 9000 10.3 160 13:20 20.11.2019
4088 Rain 9 1003 93 7000 10.8 150 12:55 20.11.2019
4089 Rain 9 1003 93 7000 10.8 150 12:37 20.11.2019
4090 Rain 9 1003 93 4000 10.8 150 12:19 20.11.2019
4091 Rain 9 1003 93 10000 8.7 150 11:45 20.11.2019
4092 Rain 9 1003 93 10000 9.3 150 11:22 20.11.2019
4093 Rain 8 1003 93 6000 8.7 150 10:56 20.11.2019
4094 Rain 8 1003 93 6000 8.7 150 10:38 20.11.2019
4095 Rain 8 1002 93 6000 7.7 140 10:20 20.11.2019
4096 Rain 9 1002 93 7000 7.2 150 09:44 20.11.2019
4097 Rain 9 1002 87 10000 6.2 150 09:23 20.11.2019
4098 Rain 9 1002 93 10000 5.7 160 08:59 20.11.2019
4099 Rain 9 1002 93 10000 5.7 160 08:39 20.11.2019
4100 Rain 9 1002 93 10000 7.7 160 08:21 20.11.2019
4101 Rain 9 1002 93 10000 7.7 150 07:48 20.11.2019
4102 Rain 9 1002 100 10000 9.3 150 07:28 20.11.2019
4103 Rain 9 1002 100 9000 8.2 150 06:50 20.11.2019
4104 Rain 9 1002 100 9000 8.2 150 06:22 20.11.2019
4105 Rain 9 1002 100 6000 8.7 150 05:42 20.11.2019
4106 Rain 6 1003 100 10000 3.6 140 03:45 20.11.2019
4107 Clouds 4 1004 100 10000 1.5 0 02:22 20.11.2019
4108 Clouds 3 1004 100 10000 2.6 110 01:33 20.11.2019
4109 Clouds 2 1005 93 10000 2.6 120 00:42 20.11.2019
4110 Clouds 2 1006 100 10000 1 0 23:59 19.11.2019
4111 Clouds 2 1006 100 10000 2.6 110 23:27 19.11.2019
4112 Clouds 2 1006 100 10000 2.1 130 22:59 19.11.2019
4113 Clouds 2 1006 100 10000 2.1 130 22:41 19.11.2019
4114 Clouds 2 1006 93 10000 3.6 110 22:19 19.11.2019
4115 Clouds 2 1006 93 10000 2.6 90 21:57 19.11.2019
4116 Clouds 2 1006 93 10000 2.6 90 21:38 19.11.2019
4117 Clouds 2 1007 88 10000 1 0 21:19 19.11.2019
4118 Clouds 2 1007 100 10000 1.5 0 20:56 19.11.2019
4119 Clouds 2 1007 100 10000 1.5 0 20:56 19.11.2019
4120 Clouds 2 1007 100 10000 1.5 0 20:56 19.11.2019
4121 Clouds 2 1007 100 10000 1.5 0 20:38 19.11.2019
4122 Clouds 3 1007 93 10000 2.47 192 20:20 19.11.2019
4123 Clouds 3 1007 94 10000 0.5 0 19:56 19.11.2019
4124 Clouds 3 1007 94 10000 0.5 0 19:38 19.11.2019
4125 Clouds 4 1007 86 10000 0.5 360 19:19 19.11.2019
4126 Clouds 4 1007 86 10000 1 0 18:55 19.11.2019
4127 Clouds 4 1007 86 10000 1 0 18:55 19.11.2019
4128 Clouds 5 1007 86 10000 1 0 18:36 19.11.2019
4129 Clouds 5 1007 86 10000 1 0 18:36 19.11.2019
4130 Clouds 5 1007 81 10000 2.1 260 18:18 19.11.2019
4131 Clouds 6 1007 75 10000 0.5 0 17:55 19.11.2019
4132 Clouds 7 1007 75 10000 0.5 0 17:37 19.11.2019
4133 Clouds 7 1007 75 10000 0.5 0 17:37 19.11.2019
4134 Clouds 7 1007 76 10000 1.5 0 17:18 19.11.2019
4135 Clouds 8 1007 81 10000 2.6 260 16:43 19.11.2019
4136 Clouds 9 1006 81 10000 4.1 220 16:23 19.11.2019
4137 Clouds 9 1006 76 10000 4.1 220 15:57 19.11.2019
4138 Clouds 9 1006 76 10000 4.1 220 15:39 19.11.2019
4139 Clouds 10 1006 71 10000 5.1 210 15:20 19.11.2019
4140 Clouds 10 1006 76 10000 4.6 180 14:55 19.11.2019
4141 Drizzle 10 1006 87 10000 7.7 160 14:37 19.11.2019
4142 Clouds 10 1006 76 10000 4.6 180 14:37 19.11.2019
4143 Drizzle 10 1006 87 10000 7.7 160 14:19 19.11.2019
4144 Drizzle 10 1006 87 10000 7.7 160 13:40 19.11.2019
4145 Drizzle 10 1007 87 10000 8.2 150 13:19 19.11.2019
4146 Rain 10 1007 81 10000 7.7 150 12:41 19.11.2019
4147 Clouds 10 1007 81 10000 8.2 150 12:22 19.11.2019
4148 Clouds 10 1008 81 10000 8.2 160 11:58 19.11.2019
4149 Clouds 9 1008 81 10000 8.2 160 11:38 19.11.2019
4150 Clouds 9 1008 76 10000 3.6 160 11:19 19.11.2019
4151 Clouds 9 1008 87 10000 4.1 140 10:48 19.11.2019
4152 Drizzle 9 1008 87 10000 4.1 130 10:23 19.11.2019
4153 Drizzle 9 1009 87 10000 7.7 150 09:58 19.11.2019
4154 Drizzle 9 1009 87 10000 7.7 150 09:40 19.11.2019
4155 Clouds 9 1009 87 10000 8.2 150 09:18 19.11.2019
4156 Clouds 9 1009 81 10000 5.1 140 08:41 19.11.2019
4157 Clouds 9 1009 81 10000 7.2 150 08:23 19.11.2019
4158 Clouds 8 1009 81 10000 6.7 150 07:57 19.11.2019
4159 Clouds 8 1009 81 10000 6.7 150 07:38 19.11.2019
4160 Clouds 8 1010 81 10000 7.2 160 07:20 19.11.2019
4161 Clouds 8 1010 81 10000 3.6 140 06:49 19.11.2019
4162 Rain 8 1010 81 10000 3.6 150 06:29 19.11.2019
4163 Clouds 8 1011 81 10000 3.1 150 05:24 19.11.2019
4164 Clouds 7 1012 81 10000 4.1 130 03:47 19.11.2019
4165 Clouds 6 1012 81 10000 5.7 150 03:29 19.11.2019
4166 Clouds 7 1013 81 10000 3.1 150 02:55 19.11.2019
4167 Clouds 5 1013 93 10000 1.5 0 01:59 19.11.2019
4168 Clouds 5 1014 93 10000 1.5 140 01:27 19.11.2019
4169 Clouds 3 1014 100 10000 1 170 00:21 19.11.2019
4170 Clouds 4 1014 93 10000 1.5 0 23:56 18.11.2019
4171 Clouds 4 1014 93 10000 1.5 0 23:37 18.11.2019
4172 Clouds 4 1015 93 10000 1.5 130 23:18 18.11.2019
4173 Clouds 4 1015 86 10000 1 170 22:42 18.11.2019
4174 Clouds 5 1015 86 10000 1.5 0 22:23 18.11.2019
4175 Clouds 5 1015 86 10000 1.5 170 21:55 18.11.2019
4176 Clouds 5 1015 86 10000 1.5 170 21:36 18.11.2019
4177 Clouds 5 1015 86 10000 2.6 170 21:18 18.11.2019
4178 Clouds 4 1015 86 10000 3.6 150 20:42 18.11.2019
4179 Clouds 4 1016 86 10000 3.1 150 20:20 18.11.2019
4180 Clouds 4 1016 86 10000 2.6 150 19:58 18.11.2019
4181 Clouds 4 1016 86 10000 2.6 150 19:58 18.11.2019
4182 Clouds 4 1016 86 10000 2.6 150 19:39 18.11.2019
4183 Clouds 5 1016 86 10000 2.6 150 19:21 18.11.2019
4184 Clouds 5 1016 86 10000 2.1 150 18:57 18.11.2019
4185 Clouds 4 1016 86 10000 2.1 150 18:38 18.11.2019
4186 Clouds 5 1016 86 10000 2.1 150 18:38 18.11.2019
4187 Clouds 5 1016 87 10000 2.6 150 18:19 18.11.2019
4188 Clouds 5 1016 87 10000 2.6 140 17:59 18.11.2019
4189 Clouds 6 1016 87 10000 2.6 140 17:38 18.11.2019
4190 Clouds 6 1016 81 10000 2.1 130 17:19 18.11.2019
4191 Clouds 7 1016 81 10000 2.6 150 16:43 18.11.2019
4192 Clouds 7 1017 70 10000 2.6 150 16:24 18.11.2019
4193 -273 0 0 0 0 0 15:59 18.11.2019
4194 Clouds 8 1017 70 10000 2.6 140 15:40 18.11.2019
4195 Clouds 8 1017 66 10000 2.6 140 15:22 18.11.2019
4196 Clouds 8 1017 66 10000 2.6 140 14:58 18.11.2019
4197 Clouds 8 1017 66 10000 2.6 140 14:39 18.11.2019
4198 Clouds 7 1018 75 10000 2.1 110 14:20 18.11.2019
4199 Clouds 7 1018 75 10000 1.5 0 13:43 18.11.2019
4200 Clouds 6 1018 75 10000 1 0 13:25 18.11.2019
4201 Clouds 5 1018 81 10000 1 0 12:45 18.11.2019
4202 Clouds 4 1019 86 10000 1 0 12:20 18.11.2019
4203 Clouds 4 1019 86 10000 1 0 11:58 18.11.2019
4204 Clouds 3 1019 86 10000 1 0 11:40 18.11.2019
4205 Clouds 1 1019 100 10000 2.1 280 11:22 18.11.2019
4206 Clouds 0 1019 85 10000 1.5 260 10:44 18.11.2019
4207 Clouds 0 1019 85 10000 1 0 10:26 18.11.2019
4208 Clouds -1 1019 85 10000 1 0 09:59 18.11.2019
4209 Clouds -1 1019 100 10000 3.1 280 09:38 18.11.2019
4210 Clouds -1 1019 92 10000 3.1 270 09:20 18.11.2019
4211 Clouds -1 1019 92 10000 3.1 280 08:57 18.11.2019
4212 Clouds -2 1019 92 10000 3.1 280 08:39 18.11.2019
4213 Clouds -2 1019 100 10000 2.1 260 08:19 18.11.2019
4214 Clouds -2 1019 92 10000 3.1 270 07:45 18.11.2019
4215 Clouds -2 1019 100 10000 3.6 280 07:25 18.11.2019
4216 Clouds -1 1019 92 10000 3.6 280 06:49 18.11.2019
4217 Clouds -1 1020 100 10000 4.6 280 06:28 18.11.2019
4218 Clouds -1 1020 89 10000 3.1 280 05:44 18.11.2019
4219 Clouds 0 1019 90 10000 2.6 260 03:59 18.11.2019
4220 Clouds 1 1020 92 10000 4.1 310 01:40 18.11.2019
4221 Clouds 2 1020 92 10000 3.6 310 00:54 18.11.2019
4222 Clouds 2 1020 93 10000 4.6 310 00:20 18.11.2019
4223 Clouds 3 1020 93 10000 4.1 310 23:41 17.11.2019
4224 Clouds 3 1020 93 10000 4.1 310 23:22 17.11.2019
4225 Clouds 4 1020 86 10000 5.1 320 22:57 17.11.2019
4226 Clouds 4 1020 86 10000 5.1 320 22:57 17.11.2019
4227 Clouds 4 1020 86 10000 5.1 320 22:39 17.11.2019
4228 Clouds 4 1020 93 10000 4.1 340 22:21 17.11.2019
4229 Clouds 5 1020 93 10000 4.1 340 21:57 17.11.2019
4230 Clouds 5 1020 93 10000 4.1 340 21:38 17.11.2019
4231 Clouds 5 1020 86 10000 5.1 330 21:18 17.11.2019
4232 Clouds 5 1019 86 10000 4.1 340 20:55 17.11.2019
4233 Clouds 5 1019 93 10000 4.1 350 20:36 17.11.2019
4234 Clouds 5 1019 93 10000 4.1 350 20:18 17.11.2019
4235 Clouds 6 1019 87 10000 5.1 330 19:55 17.11.2019
4236 Clouds 6 1019 87 10000 5.1 330 19:36 17.11.2019
4237 Clouds 6 1019 87 10000 5.1 330 19:18 17.11.2019
4238 Clouds 5 1018 87 10000 4.6 330 18:54 17.11.2019
4239 Clouds 5 1018 87 10000 4.6 330 18:36 17.11.2019
4240 Clouds 5 1018 86 10000 4.6 320 18:18 17.11.2019
4241 Clouds 5 1018 86 10000 4.1 310 17:56 17.11.2019
4242 Clouds 5 1018 86 10000 4.1 310 17:38 17.11.2019
4243 Clouds 6 1017 81 10000 4.1 320 17:18 17.11.2019
4244 Clouds 6 1017 81 10000 3.6 310 16:55 17.11.2019
4245 Clouds 6 1017 81 10000 3.6 310 16:37 17.11.2019
4246 Clouds 7 1017 75 10000 4.1 330 16:19 17.11.2019
4247 Clouds 7 1017 81 10000 5.1 330 15:41 17.11.2019
4248 Clouds 7 1017 75 10000 5.1 340 15:19 17.11.2019
4249 Clouds 7 1016 75 10000 4.1 340 14:57 17.11.2019
4250 Clouds 7 1016 75 10000 4.1 340 14:39 17.11.2019
4251 Clouds 7 1016 75 10000 3.6 340 14:20 17.11.2019
4252 Clouds 7 1016 75 10000 5.1 340 13:59 17.11.2019
4253 Clouds 7 1016 75 10000 5.1 340 13:40 17.11.2019
4254 Clouds 7 1016 75 10000 5.1 340 13:20 17.11.2019
4255 Clouds 6 1015 75 10000 4.6 330 12:45 17.11.2019
4256 Clouds 5 1015 75 10000 4.6 320 12:24 17.11.2019
4257 Clouds 5 1015 80 10000 4.1 310 11:59 17.11.2019
4258 Clouds 5 1015 80 10000 4.1 310 11:40 17.11.2019
4259 Clouds 4 1015 86 10000 3.6 310 11:21 17.11.2019
4260 Clouds 3 1014 93 10000 4.1 300 10:58 17.11.2019
4261 Clouds 3 1014 93 10000 4.1 300 10:40 17.11.2019
4262 Clouds 2 1014 95 10000 4.1 300 10:21 17.11.2019
4263 Clouds 2 1014 95 10000 4.1 310 09:42 17.11.2019
4264 Clouds 1 1013 95 10000 4.1 300 09:23 17.11.2019
4265 Clouds 1 1012 95 10000 4.1 300 08:44 17.11.2019
4266 Clouds 1 1012 89 10000 4.1 290 08:25 17.11.2019
4267 Clouds 1 1012 89 10000 4.1 290 07:57 17.11.2019
4268 Clouds 1 1012 89 10000 4.1 290 07:39 17.11.2019
4269 Clouds 1 1012 89 10000 4.1 270 07:19 17.11.2019
4270 Clouds 2 1011 89 10000 3.6 270 06:51 17.11.2019
4271 Clouds 2 1011 89 10000 3.1 260 06:29 17.11.2019
4272 Clouds 2 1011 89 10000 3.1 260 06:29 17.11.2019
4273 Clouds 2 1011 93 10000 3.6 270 04:57 17.11.2019
4274 Clouds 3 1010 93 10000 4.1 270 03:59 17.11.2019
4275 Clouds 3 1010 93 10000 4.1 270 03:59 17.11.2019
4276 Clouds 3 1010 93 10000 4.1 270 03:35 17.11.2019
4277 Clouds 2 1010 93 10000 4.1 270 02:59 17.11.2019
4278 Clouds 2 1010 93 10000 4.1 270 01:50 17.11.2019
4279 Clouds 3 1010 93 10000 2.1 250 00:59 17.11.2019
4280 Clouds 3 1009 93 10000 3.6 270 00:23 17.11.2019
4281 Clouds 3 1009 93 10000 4.1 270 23:59 16.11.2019
4282 Clouds 3 1009 93 10000 4.1 270 23:40 16.11.2019
4283 Clouds 3 1009 93 10000 4.6 270 23:18 16.11.2019
4284 Clouds 3 1009 93 10000 4.1 310 22:42 16.11.2019
4285 Clouds 3 1009 93 10000 4.1 310 22:42 16.11.2019
4286 Clouds 3 1009 93 10000 4.1 310 22:20 16.11.2019
4287 Clouds 4 1009 93 10000 4.1 290 21:58 16.11.2019
4288 Clouds 4 1009 93 10000 4.1 290 21:39 16.11.2019
4289 Clouds 4 1009 93 10000 5.1 290 21:21 16.11.2019
4290 Clouds 4 1009 100 10000 3.6 270 20:57 16.11.2019
4291 Clouds 4 1009 100 10000 3.6 270 20:38 16.11.2019
4292 Clouds 4 1009 100 10000 4.6 290 20:18 16.11.2019
4293 Clouds 4 1009 93 10000 5.1 290 19:41 16.11.2019
4294 Clouds 4 1009 100 10000 5.1 290 19:22 16.11.2019
4295 Clouds 4 1009 93 10000 4.6 280 18:56 16.11.2019
4296 Clouds 4 1009 93 10000 4.6 280 18:38 16.11.2019
4297 Clouds 4 1009 93 10000 3.6 280 18:20 16.11.2019
4298 Clouds 4 1009 93 10000 3.6 260 17:39 16.11.2019
4299 Clouds 4 1009 93 10000 3.6 270 17:21 16.11.2019
4300 Clouds 4 1009 93 10000 3.6 270 16:59 16.11.2019
4301 Clouds 4 1009 93 10000 3.6 270 16:59 16.11.2019
4302 Clouds 4 1009 93 10000 3.6 270 16:41 16.11.2019
4303 Clouds 4 1009 93 10000 4.1 270 16:22 16.11.2019
4304 Clouds 4 1009 93 10000 4.1 270 15:42 16.11.2019
4305 Clouds 4 1009 93 10000 4.6 280 15:24 16.11.2019
4306 Clouds 4 1009 93 10000 4.6 280 15:24 16.11.2019
4307 Clouds 5 1009 86 10000 3.6 270 14:59 16.11.2019
4308 Clouds 5 1009 86 10000 3.6 270 14:40 16.11.2019
4309 Clouds 5 1009 93 10000 3.6 270 14:21 16.11.2019
4310 Clouds 4 1009 93 10000 3.6 260 13:56 16.11.2019
4311 Clouds 4 1009 93 10000 3.6 260 13:38 16.11.2019
4312 Clouds 4 1009 93 10000 4.1 270 13:19 16.11.2019
4313 Clouds 4 1010 86 10000 3.6 270 12:56 16.11.2019
4314 Clouds 4 1010 86 10000 3.6 270 12:38 16.11.2019
4315 Clouds 4 1010 93 10000 3.1 270 12:19 16.11.2019
4316 Clouds 4 1010 93 10000 3.6 270 11:43 16.11.2019
4317 Clouds 3 1010 93 10000 4.1 270 11:25 16.11.2019
4318 Clouds 2 1010 100 10000 5.1 270 10:56 16.11.2019
4319 Clouds 2 1010 100 10000 5.1 270 10:37 16.11.2019
4320 Clouds 2 1010 94 10000 2.6 270 10:19 16.11.2019
4321 Clouds 2 1010 94 10000 3.6 270 09:42 16.11.2019
4322 Clouds 2 1010 94 10000 2.6 270 09:20 16.11.2019
4323 Clouds 2 1010 93 10000 3.1 260 08:57 16.11.2019
4324 Clouds 2 1010 93 10000 3.1 260 08:37 16.11.2019
4325 Clouds 2 1010 100 10000 3.6 280 08:18 16.11.2019
4326 Clouds 2 1010 100 10000 3.1 310 07:41 16.11.2019
4327 Clouds 2 1010 100 10000 3.6 310 07:19 16.11.2019
4328 Clouds 2 1010 100 10000 3.6 310 06:44 16.11.2019
4329 Clouds 2 1010 95 10000 3.1 300 06:25 16.11.2019
4330 Clouds 2 1011 93 10000 3.6 320 04:49 16.11.2019
4331 Clouds 2 1011 93 10000 4.6 320 03:26 16.11.2019
4332 Clouds 2 1011 93 10000 4.6 320 03:26 16.11.2019
4333 Clouds 2 1011 100 10000 5.1 320 02:55 16.11.2019
4334 Clouds 2 1011 100 10000 5.1 320 02:55 16.11.2019
4335 Clouds 2 1012 93 10000 5.1 320 01:44 16.11.2019
4336 Clouds 2 1012 93 10000 5.1 310 01:18 16.11.2019
4337 Clouds 3 1013 93 10000 4.6 320 00:37 16.11.2019
4338 Clouds 3 1013 93 10000 4.1 330 00:18 16.11.2019
4339 Clouds 3 1013 86 10000 4.6 320 23:39 15.11.2019
4340 Clouds 4 1013 86 10000 4.6 340 23:20 15.11.2019
4341 Clouds 4 1013 86 10000 4.6 340 23:20 15.11.2019
4342 Clouds 4 1013 86 10000 5.1 330 22:43 15.11.2019
4343 Clouds 4 1013 86 10000 6.7 320 22:20 15.11.2019
4344 Clouds 5 1014 80 10000 7.2 320 22:00 15.11.2019
4345 Clouds 5 1014 80 10000 7.2 320 21:40 15.11.2019
4346 Clouds 5 1014 80 10000 7.2 320 21:40 15.11.2019
4347 Clouds 5 1014 80 10000 6.2 330 21:20 15.11.2019
4348 Clouds 5 1013 80 10000 6.7 330 20:58 15.11.2019
4349 Clouds 5 1013 80 10000 6.7 330 20:39 15.11.2019
4350 Clouds 5 1013 80 10000 6.7 330 20:21 15.11.2019
4351 Clouds 6 1014 75 10000 6.2 330 19:58 15.11.2019
4352 Clouds 6 1014 75 10000 6.2 330 19:39 15.11.2019
4353 Clouds 6 1014 75 10000 6.7 350 19:20 15.11.2019
4354 Clouds 6 1014 81 10000 6.2 340 18:58 15.11.2019
4355 Clouds 6 1014 81 10000 6.2 340 18:39 15.11.2019
4356 Clouds 6 1014 81 10000 6.7 340 18:21 15.11.2019
4357 Clouds 6 1014 81 10000 7.2 340 17:42 15.11.2019
4358 Clouds 6 1014 75 10000 6.7 340 17:24 15.11.2019
4359 Clouds 6 1014 75 10000 7.7 350 16:56 15.11.2019
4360 Clouds 7 1014 75 10000 7.7 350 16:37 15.11.2019
4361 Clouds 7 1014 70 10000 7.7 350 16:19 15.11.2019
4362 Clouds 7 1014 75 10000 8.2 350 15:38 15.11.2019
4363 Clouds 7 1014 75 10000 7.7 350 15:20 15.11.2019
4364 Clouds 7 1014 75 10000 8.2 350 14:57 15.11.2019
4365 Clouds 7 1014 75 10000 8.2 350 14:38 15.11.2019
4366 Clouds 7 1014 70 10000 7.7 350 14:19 15.11.2019
4367 Clouds 7 1015 70 10000 7.2 340 13:58 15.11.2019
4368 Clouds 6 1015 70 10000 7.2 340 13:39 15.11.2019
4369 Clouds 6 1015 75 10000 6.7 350 13:20 15.11.2019
4370 Clouds 6 1015 75 10000 6.2 340 12:57 15.11.2019
4371 Clouds 6 1015 75 10000 6.2 340 12:39 15.11.2019
4372 Clouds 5 1015 75 10000 7.7 360 12:20 15.11.2019
4373 Clouds 5 1015 80 10000 8.2 350 11:57 15.11.2019
4374 Clouds 5 1015 80 10000 8.2 350 11:38 15.11.2019
4375 Clouds 5 1015 80 10000 5.7 340 11:19 15.11.2019
4376 Clouds 4 1015 80 10000 6.2 340 10:41 15.11.2019
4377 Clouds 4 1015 80 10000 6.2 340 10:41 15.11.2019
4378 Clouds 4 1015 80 10000 7.2 340 10:22 15.11.2019
4379 Clouds 3 1015 86 10000 6.7 340 09:58 15.11.2019
4380 Clouds 3 1015 86 10000 6.7 340 09:40 15.11.2019
4381 Clouds 3 1014 82 10000 7.7 340 09:19 15.11.2019
4382 Clouds 3 1014 82 10000 7.7 340 08:44 15.11.2019
4383 Clouds 2 1014 84 10000 7.2 330 08:22 15.11.2019
4384 Clouds 2 1014 84 10000 7.2 330 07:48 15.11.2019
4385 Clouds 2 1014 84 10000 7.2 330 07:28 15.11.2019
4386 Clouds 2 1014 84 10000 6.7 330 06:44 15.11.2019
4387 Clouds 2 1014 84 10000 7.7 340 06:25 15.11.2019
4388 Clouds 2 1014 84 10000 7.2 340 05:40 15.11.2019
4389 Clouds 2 1014 84 10000 7.2 340 05:20 15.11.2019
4390 Clouds 2 1014 84 10000 7.2 340 03:48 15.11.2019
4391 Clouds 2 1014 84 10000 7.2 340 03:22 15.11.2019
4392 Clouds 2 1013 79 10000 6.7 340 02:18 15.11.2019
4393 Clouds 2 1013 80 10000 6.7 340 01:33 15.11.2019
4394 Clouds 2 1013 80 10000 7.7 340 00:49 15.11.2019
4395 Clouds 2 1013 80 10000 7.2 330 00:31 15.11.2019
4396 Clouds 3 1013 74 10000 7.2 340 23:50 14.11.2019
4397 Clouds 3 1013 74 10000 7.2 340 23:28 14.11.2019
4398 Clouds 3 1013 74 10000 6.2 340 22:58 14.11.2019
4399 Clouds 3 1013 74 10000 6.2 340 22:39 14.11.2019
4400 Clouds 3 1012 78 10000 7.7 350 22:20 14.11.2019
4401 Clouds 3 1012 78 10000 7.2 340 21:55 14.11.2019
4402 Clouds 3 1012 78 10000 7.2 340 21:36 14.11.2019
4403 Clouds 3 1012 78 10000 7.2 330 21:18 14.11.2019
4404 Clouds 3 1012 78 10000 6.7 340 20:41 14.11.2019
4405 Clouds 3 1012 78 10000 7.7 340 20:22 14.11.2019
4406 Clouds 3 1011 78 10000 6.7 350 19:58 14.11.2019
4407 Clouds 3 1011 78 10000 6.7 350 19:40 14.11.2019
4408 Clouds 3 1011 78 10000 6.2 350 19:18 14.11.2019
4409 Clouds 4 1010 78 10000 6.7 340 18:55 14.11.2019
4410 Clouds 4 1010 69 10000 6.7 340 18:36 14.11.2019
4411 Clouds 4 1010 69 10000 6.7 340 18:18 14.11.2019
4412 Clouds 5 1009 78 10000 6.7 350 17:39 14.11.2019
4413 Clouds 5 1009 72 10000 6.7 350 17:20 14.11.2019
4414 Clouds 5 1009 72 10000 7.7 350 16:58 14.11.2019
4415 Clouds 6 1009 72 10000 8.2 360 16:39 14.11.2019
4416 Clouds 6 1009 72 10000 8.2 360 16:21 14.11.2019
4417 Clouds 6 1008 72 10000 7.7 360 15:58 14.11.2019
4418 Clouds 6 1008 72 10000 7.7 360 15:39 14.11.2019
4419 Clouds 6 1008 70 10000 8.7 360 15:20 14.11.2019
4420 Clouds 6 1007 70 10000 8.2 350 14:58 14.11.2019
4421 Clouds 6 1007 70 10000 8.2 350 14:40 14.11.2019
4422 Clouds 6 1007 75 10000 7.7 350 14:22 14.11.2019
4423 Clouds 6 1007 70 10000 7.7 360 13:55 14.11.2019
4424 Clouds 6 1007 70 10000 7.7 360 13:36 14.11.2019
4425 Clouds 6 1007 75 10000 8.2 360 13:18 14.11.2019
4426 Clouds 5 1007 80 10000 8.7 360 12:42 14.11.2019
4427 Clouds 5 1006 80 10000 9.8 10 12:24 14.11.2019
4428 Clouds 4 1006 86 10000 8.2 350 11:56 14.11.2019
4429 Clouds 5 1005 75 10000 10.3 10 11:37 14.11.2019
4430 Clouds 4 1006 86 10000 8.2 350 11:37 14.11.2019
4431 Rain 5 1005 75 10000 10.3 10 11:19 14.11.2019
4432 Rain 4 1005 86 10000 9.8 10 10:57 14.11.2019
4433 Rain 4 1005 86 10000 9.8 10 10:37 14.11.2019
4434 Rain 4 1004 86 10000 7.7 360 10:19 14.11.2019
4435 Rain 4 1002 86 10000 7.2 340 09:42 14.11.2019
4436 Rain 4 1002 86 10000 7.2 340 09:24 14.11.2019
4437 Rain 4 1002 86 10000 7.2 340 08:59 14.11.2019
4438 Rain 4 1002 86 10000 7.2 340 08:40 14.11.2019
4439 Rain 4 1002 86 10000 8.2 350 08:22 14.11.2019
4440 Rain 4 1001 93 10000 7.7 350 07:42 14.11.2019
4441 Rain 5 1000 80 10000 8.2 350 07:24 14.11.2019
4442 Drizzle 5 1000 86 10000 8.7 10 06:46 14.11.2019
4443 Rain 6 999 87 10000 9.3 10 06:20 14.11.2019
4444 Clouds 6 998 75 10000 8.7 20 05:38 14.11.2019
4445 Clouds 7 997 81 10000 7.7 30 04:38 14.11.2019
4446 Clouds 7 995 75 10000 8.7 40 03:27 14.11.2019
4447 Clouds 7 994 75 10000 10.3 50 02:35 14.11.2019
4448 Clouds 7 993 75 10000 10.8 60 01:40 14.11.2019
4449 Clouds 6 991 81 10000 11.3 70 00:57 14.11.2019
4450 Clouds 6 991 81 10000 11.3 70 00:37 14.11.2019
4451 Drizzle 7 990 87 10000 10.8 80 00:18 14.11.2019
4452 Rain 5 989 81 8000 9.3 70 23:38 13.11.2019
4453 Rain 6 989 87 10000 9.3 80 23:19 13.11.2019
4454 Rain 5 988 93 10000 4.6 120 22:42 13.11.2019
4455 -273 0 0 0 0 0 22:23 13.11.2019
4456 Rain 3 988 93 10000 8.7 110 22:23 13.11.2019
4457 Rain 4 987 93 8000 10.3 100 21:57 13.11.2019
4458 Rain 4 987 93 8000 10.3 100 21:39 13.11.2019
4459 Rain 4 987 93 9000 7.7 100 21:21 13.11.2019
4460 Rain 4 986 93 9000 8.7 100 20:58 13.11.2019
4461 Rain 4 986 93 9000 8.7 100 20:58 13.11.2019
4462 Rain 4 986 93 9000 8.7 100 20:38 13.11.2019
4463 Rain 4 986 93 9000 8.7 100 20:38 13.11.2019
4464 Rain 4 986 93 6000 6.7 120 20:20 13.11.2019
4465 Rain 4 986 93 7000 7.7 120 19:59 13.11.2019
4466 Rain 4 986 93 7000 7.7 120 19:40 13.11.2019
4467 Rain 4 986 87 9000 8.2 110 19:18 13.11.2019
4468 Rain 4 985 93 7000 9.8 120 18:56 13.11.2019
4469 Rain 4 985 93 7000 9.8 120 18:37 13.11.2019
4470 Rain 5 986 87 8000 8.2 130 18:18 13.11.2019
4471 Rain 4 986 93 6000 6.7 110 17:56 13.11.2019
4472 Rain 4 986 93 6000 6.7 110 17:38 13.11.2019
4473 Rain 4 986 93 6000 5.1 130 17:19 13.11.2019
4474 Rain 5 987 87 7000 3.6 130 16:56 13.11.2019
4475 Rain 5 987 87 7000 3.6 130 16:37 13.11.2019
4476 Rain 5 987 87 7000 3.6 130 16:37 13.11.2019
4477 Rain 5 988 87 8000 4.1 120 16:18 13.11.2019
4478 Rain 5 988 81 10000 5.1 120 15:56 13.11.2019
4479 Rain 5 988 81 10000 5.1 120 15:56 13.11.2019
4480 Clouds 6 988 81 10000 5.1 120 15:37 13.11.2019
4481 Clouds 6 989 81 10000 4.6 130 15:18 13.11.2019
4482 Clouds 6 990 81 10000 5.1 160 14:41 13.11.2019
4483 Clouds 6 990 81 10000 5.7 150 14:20 13.11.2019
4484 Clouds 6 990 81 10000 5.7 150 14:20 13.11.2019
4485 Clouds 6 992 75 10000 4.6 140 13:38 13.11.2019
4486 Clouds 6 992 75 10000 4.6 140 13:20 13.11.2019
4487 Clouds 6 993 81 10000 3.6 150 12:58 13.11.2019
4488 Clouds 6 993 81 10000 3.6 150 12:40 13.11.2019
4489 Clouds 6 994 81 10000 3.6 140 12:21 13.11.2019
4490 Clouds 5 995 75 10000 3.6 150 11:55 13.11.2019
4491 Clouds 5 995 75 10000 3.6 150 11:37 13.11.2019
4492 Clouds 5 996 86 10000 3.1 170 11:18 13.11.2019
4493 Rain 5 996 86 10000 3.1 180 10:55 13.11.2019
4494 Rain 4 996 86 10000 3.1 180 10:37 13.11.2019
4495 Clouds 4 997 93 10000 3.1 200 10:18 13.11.2019
4496 Drizzle 4 998 86 10000 3.1 200 09:41 13.11.2019
4497 Clouds 4 998 86 10000 3.1 190 09:20 13.11.2019
4498 Clouds 4 999 86 10000 2.6 200 08:41 13.11.2019
4499 Clouds 4 999 86 10000 3.1 230 08:23 13.11.2019
4500 Clouds 4 1000 80 10000 3.6 240 07:58 13.11.2019
4501 Clouds 4 1000 80 10000 3.6 240 07:39 13.11.2019
4502 Clouds 4 1000 86 10000 2.1 240 07:18 13.11.2019
4503 Clouds 4 1001 86 10000 2.6 230 06:41 13.11.2019
4504 Clouds 4 1001 86 10000 4.1 240 06:18 13.11.2019
4505 Clouds 3 1001 86 10000 4.1 240 05:47 13.11.2019
4506 Clouds 3 1002 93 10000 4.1 250 04:59 13.11.2019
4507 Clouds 3 1003 86 10000 5.7 260 03:51 13.11.2019
4508 Clouds 3 1004 93 10000 3.1 240 01:50 13.11.2019
4509 Clouds 3 1004 93 10000 2.6 240 01:25 13.11.2019
4510 Clouds 3 1004 93 10000 4.1 260 00:42 13.11.2019
4511 Clouds 3 1004 93 10000 6.2 270 23:56 12.11.2019
4512 Clouds 3 1004 93 10000 6.2 270 23:37 12.11.2019
4513 Clouds 4 1005 93 10000 5.1 270 23:18 12.11.2019
4514 Clouds 4 1005 93 10000 5.1 270 22:40 12.11.2019
4515 Clouds 4 1005 93 10000 6.2 270 22:18 12.11.2019
4516 Clouds 4 1004 93 10000 5.7 270 21:54 12.11.2019
4517 Clouds 4 1004 93 10000 5.7 270 21:36 12.11.2019
4518 Clouds 4 1004 86 10000 6.7 270 21:18 12.11.2019
4519 Clouds 4 1004 86 10000 4.6 270 20:54 12.11.2019
4520 Clouds 5 1004 86 10000 4.6 270 20:36 12.11.2019
4521 Clouds 5 1004 80 10000 6.2 270 20:18 12.11.2019
4522 Clouds 5 1004 86 10000 5.7 270 19:54 12.11.2019
4523 Clouds 5 1004 86 10000 5.7 270 19:36 12.11.2019
4524 Clouds 6 1003 81 10000 5.1 270 19:18 12.11.2019
4525 Clouds 6 1003 81 10000 5.7 290 18:41 12.11.2019
4526 Clouds 6 1003 81 10000 7.7 300 18:23 12.11.2019
4527 Clouds 6 1003 81 10000 7.2 300 17:58 12.11.2019
4528 Clouds 6 1003 81 10000 7.2 300 17:40 12.11.2019
4529 Clouds 7 1002 75 10000 7.7 290 17:21 12.11.2019
4530 Clouds 7 1002 75 10000 8.2 300 16:59 12.11.2019
4531 Clouds 7 1002 75 10000 8.2 300 16:40 12.11.2019
4532 Clouds 8 1002 75 10000 9.8 300 16:22 12.11.2019
4533 Clouds 8 1002 75 10000 8.7 300 15:42 12.11.2019
4534 Clouds 8 1002 75 10000 9.8 290 15:23 12.11.2019
4535 Clouds 8 1001 75 10000 9.8 300 14:57 12.11.2019
4536 Clouds 8 1001 75 10000 9.8 300 14:39 12.11.2019
4537 Clouds 8 1001 75 10000 10.3 300 14:19 12.11.2019
4538 Clouds 7 1001 75 10000 10.3 300 13:57 12.11.2019
4539 Clouds 7 1001 75 10000 10.3 300 13:57 12.11.2019
4540 Clouds 7 1001 75 10000 10.3 300 13:38 12.11.2019
4541 Clouds 7 1001 75 10000 10.8 290 13:19 12.11.2019
4542 Clouds 7 1001 81 10000 10.8 280 12:43 12.11.2019
4543 Clouds 6 1000 81 10000 10.3 280 12:20 12.11.2019
4544 Clouds 6 1000 81 10000 10.8 270 11:59 12.11.2019
4545 Clouds 6 999 86 10000 11.3 270 11:41 12.11.2019
4546 Clouds 5 999 86 10000 11.3 270 11:22 12.11.2019
4547 Clouds 5 999 75 10000 11.8 270 10:57 12.11.2019
4548 Clouds 5 999 75 10000 11.8 270 10:38 12.11.2019
4549 Clouds 5 999 80 10000 11.8 270 10:20 12.11.2019
4550 Clouds 4 999 80 10000 13.9 280 09:56 12.11.2019
4551 Clouds 4 999 80 10000 13.9 280 09:38 12.11.2019
4552 Clouds 4 999 80 10000 13.9 280 09:38 12.11.2019
4553 Clouds 4 999 80 10000 9.8 270 09:18 12.11.2019
4554 Clouds 4 999 80 10000 9.8 260 08:41 12.11.2019
4555 Clouds 4 999 80 10000 9.8 260 08:41 12.11.2019
4556 Clouds 4 999 80 10000 10.3 260 08:22 12.11.2019
4557 Clouds 4 999 80 10000 10.3 260 07:41 12.11.2019
4558 Clouds 3 999 74 10000 8.2 260 07:23 12.11.2019
4559 Clouds 3 999 86 10000 7.7 260 06:45 12.11.2019
4560 Clouds 3 999 86 10000 10.3 260 06:23 12.11.2019
4561 Clouds 3 999 74 10000 10.8 260 05:46 12.11.2019
4562 Clouds 3 1000 86 10000 7.7 260 04:50 12.11.2019
4563 Clouds 3 1000 86 10000 7.7 260 04:50 12.11.2019
4564 Clouds 3 1000 76 10000 6.7 260 03:49 12.11.2019
4565 Clouds 3 1001 86 10000 4.6 240 01:49 12.11.2019
4566 Clouds 3 1001 86 10000 6.2 260 01:22 12.11.2019
4567 Clouds 3 1001 86 10000 6.2 260 01:22 12.11.2019
4568 Clouds 3 1001 86 10000 7.7 260 00:48 12.11.2019
4569 Clouds 3 1001 86 10000 7.2 260 00:29 12.11.2019
4570 Clouds 3 1001 86 10000 7.7 260 23:45 11.11.2019
4571 Clouds 3 1001 86 10000 8.7 270 23:23 11.11.2019
4572 Clouds 3 1001 86 10000 7.2 270 22:58 11.11.2019
4573 Clouds 3 1001 86 10000 7.2 270 22:36 11.11.2019
4574 Clouds 3 1001 93 10000 8.2 260 22:18 11.11.2019
4575 Rain 4 1001 86 10000 8.2 260 21:57 11.11.2019
4576 Rain 4 1001 86 10000 8.2 260 21:38 11.11.2019
4577 Clouds 4 1001 86 10000 8.2 260 21:19 11.11.2019
4578 Clouds 4 1001 80 10000 8.7 270 20:43 11.11.2019
4579 Clouds 4 1001 86 10000 8.7 260 20:20 11.11.2019
4580 Rain 4 1001 86 10000 8.7 260 19:59 11.11.2019
4581 Rain 4 1001 86 10000 8.7 260 19:41 11.11.2019
4582 Clouds 5 1001 75 10000 7.7 270 19:19 11.11.2019
4583 Clouds 5 1001 75 10000 7.7 270 18:56 11.11.2019
4584 Clouds 5 1001 75 10000 8.2 260 18:37 11.11.2019
4585 Clouds 5 1001 75 10000 8.2 260 18:19 11.11.2019
4586 Clouds 6 1001 70 10000 9.3 270 17:42 11.11.2019
4587 Clouds 6 1001 75 10000 8.2 270 17:24 11.11.2019
4588 Rain 7 1001 75 10000 8.7 270 16:43 11.11.2019
4589 Rain 7 1001 70 10000 8.7 270 16:24 11.11.2019
4590 Rain 7 1001 70 10000 8.7 270 15:58 11.11.2019
4591 Clouds 7 1001 70 10000 9.3 270 15:40 11.11.2019
4592 Clouds 7 1001 75 10000 9.8 270 15:19 11.11.2019
4593 Clouds 7 1001 75 10000 9.8 270 15:19 11.11.2019
4594 Clouds 7 1002 75 10000 7.7 260 14:44 11.11.2019
4595 Clouds 7 1002 75 10000 9.8 270 14:25 11.11.2019
4596 Clouds 7 1002 75 10000 7.7 260 13:58 11.11.2019
4597 Clouds 7 1002 75 10000 7.7 260 13:38 11.11.2019
4598 Clouds 7 1002 81 10000 7.2 260 13:19 11.11.2019
4599 Clouds 7 1002 81 10000 7.2 260 13:19 11.11.2019
4600 Clouds 6 1002 81 10000 7.2 260 12:57 11.11.2019
4601 Clouds 6 1002 75 10000 7.7 250 12:39 11.11.2019
4602 Clouds 6 1002 75 10000 7.7 250 12:39 11.11.2019
4603 Clouds 6 1002 75 10000 7.7 250 12:21 11.11.2019
4604 Clouds 6 1002 81 10000 6.7 250 11:42 11.11.2019
4605 Clouds 6 1002 80 10000 6.2 250 11:22 11.11.2019
4606 Clouds 5 1002 86 10000 5.1 250 10:57 11.11.2019
4607 Clouds 5 1002 86 10000 5.1 250 10:38 11.11.2019
4608 Rain 5 1002 86 10000 7.2 260 10:18 11.11.2019
4609 Rain 4 1002 86 10000 8.2 260 09:54 11.11.2019
4610 Rain 4 1002 86 10000 8.2 260 09:36 11.11.2019
4611 Clouds 4 1002 86 10000 9.3 260 09:18 11.11.2019
4612 Clouds 4 1002 80 10000 7.2 250 08:37 11.11.2019
4613 Clouds 4 1002 86 10000 6.2 250 08:19 11.11.2019
4614 Clouds 4 1002 86 10000 6.2 250 07:54 11.11.2019
4615 Clouds 4 1002 86 10000 6.2 250 07:36 11.11.2019
4616 Clouds 4 1002 86 10000 6.2 250 07:36 11.11.2019
4617 Clouds 4 1002 86 10000 6.2 250 07:18 11.11.2019
4618 Clouds 4 1002 86 10000 7.2 260 06:41 11.11.2019
4619 Clouds 4 1001 86 10000 7.2 260 06:20 11.11.2019
4620 Rain 4 1001 86 10000 9.8 270 05:49 11.11.2019
4621 Clouds 5 1001 86 10000 8.2 270 03:56 11.11.2019
4622 Clouds 5 1000 81 10000 7.2 260 02:55 11.11.2019
4623 Clouds 6 1000 87 10000 5.7 250 02:19 11.11.2019
4624 Clouds 6 1001 87 10000 6.2 250 01:51 11.11.2019
4625 Clouds 6 1001 87 10000 6.2 250 01:31 11.11.2019
4626 Clouds 6 1001 93 10000 5.7 220 00:41 11.11.2019
4627 Rain 6 1001 93 10000 7.2 230 23:58 10.11.2019
4628 Rain 6 1001 93 10000 7.2 230 23:38 10.11.2019
4629 Rain 6 1001 87 10000 6.7 180 23:19 10.11.2019
4630 Rain 5 1003 100 10000 5.7 160 22:57 10.11.2019
4631 Rain 5 1003 100 10000 5.7 160 22:57 10.11.2019
4632 Rain 5 1003 100 10000 5.7 160 22:38 10.11.2019
4633 Rain 5 1004 93 10000 5.1 170 22:20 10.11.2019
4634 Rain 5 1006 93 10000 6.2 170 21:56 10.11.2019
4635 Rain 4 1006 93 10000 6.2 170 21:38 10.11.2019
4636 Rain 5 1007 86 10000 6.2 170 21:20 10.11.2019
4637 Rain 5 1008 86 10000 5.1 180 20:41 10.11.2019
4638 Rain 5 1008 81 10000 3.1 170 20:22 10.11.2019
4639 Rain 5 1008 81 10000 3.1 170 19:56 10.11.2019
4640 Rain 6 1010 75 10000 3.6 190 19:38 10.11.2019
4641 Clouds 6 1009 75 10000 3.6 180 19:19 10.11.2019
4642 Clouds 6 1009 81 10000 4.6 170 18:58 10.11.2019
4643 Clouds 6 1009 81 10000 4.6 170 18:40 10.11.2019
4644 Clouds 6 1009 81 10000 4.6 170 18:19 10.11.2019
4645 Clouds 6 1009 75 10000 4.6 160 17:57 10.11.2019
4646 Clouds 5 1009 75 10000 4.6 160 17:38 10.11.2019
4647 Clouds 6 1010 81 10000 5.1 170 17:20 10.11.2019
4648 Clouds 6 1012 70 10000 5.1 160 16:58 10.11.2019
4649 Clouds 6 1012 70 10000 5.1 160 16:39 10.11.2019
4650 Clouds 6 1012 70 10000 5.1 160 16:39 10.11.2019
4651 Clouds 6 1012 87 10000 2.6 170 16:20 10.11.2019
4652 Clouds 6 1013 81 10000 1.5 0 15:56 10.11.2019
4653 Clouds 6 1013 81 10000 1.5 0 15:36 10.11.2019
4654 Clouds 6 1014 75 10000 1.5 0 15:18 10.11.2019
4655 Clouds 6 1015 75 10000 2.1 170 14:41 10.11.2019
4656 Clouds 6 1015 81 10000 2.6 210 14:23 10.11.2019
4657 Clouds 6 1015 81 10000 2.6 210 13:58 10.11.2019
4658 Clouds 6 1015 81 10000 1.5 0 13:40 10.11.2019
4659 Clouds 5 1016 86 10000 2.1 260 13:20 10.11.2019
4660 Clouds 6 1016 87 10000 0.5 360 12:44 10.11.2019
4661 Clouds 5 1016 87 10000 0.5 360 12:21 10.11.2019
4662 Clouds 5 1016 93 10000 1 0 11:57 10.11.2019
4663 Clouds 5 1016 93 10000 1 0 11:57 10.11.2019
4664 Clouds 4 1016 93 10000 1 0 11:39 10.11.2019
4665 Clouds 4 1016 93 10000 1.5 0 11:21 10.11.2019
4666 Clouds 3 1016 93 10000 1.5 0 10:59 10.11.2019
4667 Clouds 3 1016 93 10000 2.1 330 10:40 10.11.2019
4668 Clouds 2 1016 93 10000 3.6 340 10:20 10.11.2019
4669 Clouds 2 1016 100 10000 3.6 340 09:43 10.11.2019
4670 Clouds 2 1016 100 10000 3.6 340 09:43 10.11.2019
4671 Clouds 1 1016 100 10000 3.1 340 09:23 10.11.2019
4672 Clouds 1 1016 100 10000 4.6 320 08:43 10.11.2019
4673 Clouds 2 1015 93 10000 3.6 320 08:21 10.11.2019
4674 Clouds 2 1015 100 10000 3.6 320 07:58 10.11.2019
4675 Clouds 2 1015 100 10000 3.6 320 07:40 10.11.2019
4676 Clouds 3 1015 100 10000 4.1 330 07:21 10.11.2019
4677 Clouds 3 1015 100 10000 4.1 330 07:21 10.11.2019
4678 Rain 3 1015 93 10000 3.6 350 06:26 10.11.2019
4679 Clouds 3 1013 93 10000 3.1 330 04:46 10.11.2019
4680 Rain 4 1012 93 8000 3.6 350 03:19 10.11.2019
4681 Rain 4 1011 100 6000 4.6 340 01:44 10.11.2019
4682 Rain 4 1011 100 6000 4.6 340 01:19 10.11.2019
4683 Rain 4 1010 100 6000 6.2 320 00:40 10.11.2019
4684 Rain 4 1010 100 10000 5.7 330 23:43 09.11.2019
4685 Rain 4 1009 100 10000 5.1 330 23:21 09.11.2019
4686 Rain 4 1009 100 10000 5.1 330 22:59 09.11.2019
4687 Rain 4 1008 100 10000 6.2 350 22:40 09.11.2019
4688 Rain 4 1007 100 10000 7.7 330 22:19 09.11.2019
4689 Rain 4 1007 93 10000 7.7 320 21:55 09.11.2019
4690 Rain 4 1007 93 10000 7.7 320 21:37 09.11.2019
4691 Rain 4 1007 93 10000 7.7 320 21:37 09.11.2019
4692 Rain 4 1006 93 10000 8.2 320 21:19 09.11.2019
4693 Rain 4 1005 93 10000 8.7 320 20:41 09.11.2019
4694 Rain 5 1005 93 10000 8.7 310 20:22 09.11.2019
4695 Rain 5 1004 93 10000 9.8 320 19:57 09.11.2019
4696 Rain 5 1004 93 10000 9.8 320 19:38 09.11.2019
4697 Rain 5 1004 86 10000 9.8 320 19:19 09.11.2019
4698 Rain 5 1004 86 10000 9.8 320 18:40 09.11.2019
4699 Clouds 5 1003 86 10000 10.3 320 18:19 09.11.2019
4700 Clouds 6 1002 86 10000 10.3 320 17:58 09.11.2019
4701 Clouds 6 1002 86 10000 10.3 320 17:58 09.11.2019
4702 Clouds 6 1002 86 10000 10.3 320 17:40 09.11.2019
4703 Clouds 6 1001 86 10000 11.3 310 17:22 09.11.2019
4704 Clouds 6 1000 81 10000 10.3 310 16:42 09.11.2019
4705 Clouds 7 1000 81 10000 11.8 300 16:21 09.11.2019
4706 Clouds 7 999 81 10000 12.3 310 15:57 09.11.2019
4707 Clouds 7 999 81 10000 12.3 310 15:39 09.11.2019
4708 Clouds 7 999 81 10000 11.8 300 15:20 09.11.2019
4709 Clouds 7 999 81 10000 11.3 300 14:42 09.11.2019
4710 Clouds 7 998 81 10000 11.3 300 14:22 09.11.2019
4711 Clouds 7 998 87 10000 12.3 300 13:57 09.11.2019
4712 Clouds 7 998 87 10000 12.3 300 13:37 09.11.2019
4713 Clouds 7 998 87 10000 11.8 290 13:19 09.11.2019
4714 Rain 7 998 93 10000 8.7 280 12:50 09.11.2019
4715 Rain 6 998 93 10000 8.7 280 12:29 09.11.2019
4716 Clouds 6 998 93 10000 8.7 280 11:57 09.11.2019
4717 Clouds 6 998 93 10000 8.7 280 11:39 09.11.2019
4718 Clouds 6 998 93 10000 8.2 270 11:19 09.11.2019
4719 Clouds 6 998 93 10000 6.7 270 10:42 09.11.2019
4720 Clouds 6 998 93 10000 6.7 270 10:20 09.11.2019
4721 Clouds 6 998 93 10000 6.2 270 09:59 09.11.2019
4722 Clouds 6 998 93 10000 6.2 270 09:59 09.11.2019
4723 Clouds 6 998 93 10000 6.2 270 09:59 09.11.2019
4724 Clouds 6 998 93 10000 6.2 270 09:40 09.11.2019
4725 Rain 6 998 93 10000 6.7 260 09:19 09.11.2019
4726 Rain 6 998 93 10000 2.6 240 08:43 09.11.2019
4727 Rain 6 998 93 8000 2.1 260 08:24 09.11.2019
4728 Rain 6 999 93 8000 3.1 170 07:49 09.11.2019
4729 Rain 6 1000 100 8000 2.6 120 07:25 09.11.2019
4730 Rain 6 1000 100 8000 3.1 140 06:57 09.11.2019
4731 Rain 6 1000 100 8000 3.1 140 06:39 09.11.2019
4732 Rain 7 1001 87 8000 5.1 150 06:20 09.11.2019
4733 Rain 6 1002 87 8000 5.1 160 05:38 09.11.2019
4734 Clouds 6 1004 75 10000 4.6 150 04:29 09.11.2019
4735 Clouds 5 1007 75 10000 3.1 140 02:47 09.11.2019
4736 Clouds 5 1008 75 10000 5.7 150 02:24 09.11.2019
4737 Clouds 4 1009 75 10000 3.6 160 01:18 09.11.2019
4738 Clouds 4 1010 75 10000 3.1 150 00:39 09.11.2019
4739 Clouds 3 1011 80 10000 2.6 170 00:21 09.11.2019
4740 Clouds 3 1011 86 10000 2.1 180 23:40 08.11.2019
4741 Clouds 3 1012 86 10000 2.1 170 23:22 08.11.2019
4742 Clouds 3 1012 86 10000 2.1 170 22:56 08.11.2019
4743 Clouds 3 1012 86 10000 2.1 170 22:38 08.11.2019
4744 Clouds 3 1011 80 10000 2.6 170 22:19 08.11.2019
4745 Clouds 3 1012 93 10000 2.1 150 21:41 08.11.2019
4746 Clouds 3 1012 86 10000 1.5 170 21:23 08.11.2019
4747 Clouds 3 1013 86 10000 1.5 0 20:57 08.11.2019
4748 Clouds 2 1013 86 10000 1.5 0 20:38 08.11.2019
4749 Clouds 3 1013 86 10000 1 0 20:18 08.11.2019
4750 Clouds 3 1013 85 10000 0.5 360 19:40 08.11.2019
4751 Clouds 3 1013 93 10000 2.6 100 19:19 08.11.2019
4752 Clouds 3 1013 93 10000 2.6 100 19:19 08.11.2019
4753 Clouds 3 1013 85 10000 2.6 90 18:57 08.11.2019
4754 Clouds 3 1013 85 10000 2.6 90 18:57 08.11.2019
4755 Clouds 4 1013 85 10000 2.1 100 18:39 08.11.2019
4756 Clouds 4 1013 85 10000 2.1 100 18:20 08.11.2019
4757 Clouds 5 1013 85 10000 2.6 100 17:56 08.11.2019
4758 Clouds 5 1013 85 10000 2.6 100 17:38 08.11.2019
4759 Clouds 6 1013 70 10000 2.6 110 17:20 08.11.2019
4760 Clouds 7 1013 65 10000 1 0 16:59 08.11.2019
4761 Clouds 7 1013 65 10000 1 0 16:40 08.11.2019
4762 Clouds 7 1013 65 10000 2.1 50 16:20 08.11.2019
4763 Clouds 8 1013 75 10000 2.6 50 15:59 08.11.2019
4764 Clouds 8 1013 75 10000 2.6 50 15:40 08.11.2019
4765 Clouds 8 1013 61 10000 2.6 20 15:22 08.11.2019
4766 Clouds 8 1013 61 10000 2.6 20 15:22 08.11.2019
4767 Clouds 7 1013 65 10000 3.6 360 14:56 08.11.2019
4768 Clouds 8 1013 65 10000 3.6 360 14:37 08.11.2019
4769 Clouds 8 1013 65 10000 3.6 360 14:37 08.11.2019
4770 Clouds 8 1013 65 10000 3.6 20 14:19 08.11.2019
4771 Clouds 8 1013 70 10000 4.1 10 13:58 08.11.2019
4772 Clouds 8 1013 70 10000 4.1 10 13:38 08.11.2019
4773 Clouds 7 1013 70 10000 5.1 20 13:19 08.11.2019
4774 Clouds 7 1013 70 10000 5.1 10 12:44 08.11.2019
4775 Clouds 6 1013 75 10000 5.1 10 12:26 08.11.2019
4776 Clouds 6 1013 81 10000 4.6 360 11:57 08.11.2019
4777 Clouds 6 1013 81 10000 4.6 360 11:39 08.11.2019
4778 Clouds 5 1013 86 10000 4.1 350 11:20 08.11.2019
4779 Clouds 5 1013 86 10000 4.1 350 11:20 08.11.2019
4780 Clouds 5 1013 86 10000 4.1 350 11:20 08.11.2019
4781 Clouds 5 1012 80 10000 4.6 350 10:57 08.11.2019
4782 Clouds 4 1012 80 10000 4.6 350 10:39 08.11.2019
4783 Clouds 3 1012 93 10000 4.1 340 10:20 08.11.2019
4784 Clouds 2 1012 86 10000 5.1 330 09:42 08.11.2019
4785 Clouds 3 1012 86 10000 5.1 320 09:24 08.11.2019
4786 Clouds 3 1012 93 10000 4.1 310 08:59 08.11.2019
4787 Clouds 3 1012 93 10000 4.1 310 08:38 08.11.2019
4788 Clouds 4 1011 93 10000 4.1 320 08:19 08.11.2019
4789 Clouds 4 1011 93 10000 4.6 320 07:41 08.11.2019
4790 Clouds 4 1011 86 10000 3.6 310 07:22 08.11.2019
4791 Clouds 4 1010 86 10000 4.6 330 06:41 08.11.2019
4792 Clouds 4 1010 86 10000 4.6 330 06:23 08.11.2019
4793 Clouds 5 1010 86 10000 5.1 330 05:55 08.11.2019
4794 Clouds 5 1010 86 10000 5.1 330 05:55 08.11.2019
4795 Clouds 5 1009 86 10000 4.6 350 05:24 08.11.2019
4796 Clouds 6 1008 87 10000 5.7 40 03:46 08.11.2019
4797 Clouds 7 1008 81 10000 5.1 10 03:24 08.11.2019
4798 Clouds 7 1007 81 10000 6.2 10 02:52 08.11.2019
4799 Clouds 8 1006 75 10000 6.7 30 01:49 08.11.2019
4800 Clouds 8 1006 81 10000 7.7 40 01:30 08.11.2019
4801 Clouds 7 1005 75 10000 7.7 30 00:37 08.11.2019
4802 Rain 7 1005 81 10000 8.2 30 00:18 08.11.2019
4803 Rain 7 1004 81 10000 7.2 20 23:43 07.11.2019
4804 Rain 7 1003 87 10000 7.7 20 23:24 07.11.2019
4805 Rain 7 1003 81 10000 8.7 30 22:43 07.11.2019
4806 Drizzle 7 1002 81 10000 8.7 30 22:22 07.11.2019
4807 Rain 7 1001 81 10000 9.3 30 21:58 07.11.2019
4808 Rain 7 1001 81 10000 9.3 30 21:38 07.11.2019
4809 Rain 7 1001 87 10000 7.7 30 21:19 07.11.2019
4810 Drizzle 7 1000 87 9000 7.2 30 20:58 07.11.2019
4811 Drizzle 7 1000 87 9000 7.2 30 20:39 07.11.2019
4812 Rain 7 1000 87 10000 7.7 30 20:21 07.11.2019
4813 Drizzle 7 999 93 10000 8.7 30 19:56 07.11.2019
4814 Drizzle 7 999 93 10000 8.7 30 19:37 07.11.2019
4815 Rain 7 998 81 10000 8.7 50 19:18 07.11.2019
4816 Rain 7 998 93 10000 8.2 40 18:55 07.11.2019
4817 Rain 7 998 93 10000 8.2 40 18:37 07.11.2019
4818 Rain 7 998 93 10000 8.2 40 18:37 07.11.2019
4819 Rain 7 997 93 10000 6.7 20 18:19 07.11.2019
4820 Rain 7 996 93 10000 7.2 20 17:40 07.11.2019
4821 Rain 6 996 93 10000 7.2 20 17:22 07.11.2019
4822 Rain 7 996 93 10000 6.7 30 16:59 07.11.2019
4823 Rain 6 995 93 8000 8.2 30 16:40 07.11.2019
4824 Rain 6 995 93 8000 8.2 30 16:20 07.11.2019
4825 Rain 6 995 93 8000 7.7 30 15:59 07.11.2019
4826 Rain 6 994 93 8000 6.7 30 15:39 07.11.2019
4827 Rain 6 994 93 8000 6.7 30 15:19 07.11.2019
4828 Rain 6 994 100 8000 8.2 30 14:45 07.11.2019
4829 Rain 6 993 100 8000 6.7 40 14:27 07.11.2019
4830 Rain 6 993 93 8000 7.2 40 13:57 07.11.2019
4831 Rain 6 993 93 8000 7.7 30 13:39 07.11.2019
4832 Rain 6 993 93 8000 7.7 30 13:21 07.11.2019
4833 Rain 6 993 93 8000 7.7 30 13:21 07.11.2019
4834 Rain 6 992 100 8000 7.7 360 12:58 07.11.2019
4835 Rain 6 992 100 8000 7.7 360 12:58 07.11.2019
4836 Rain 6 992 100 8000 7.7 360 12:58 07.11.2019
4837 Rain 6 992 93 8000 7.7 350 12:40 07.11.2019
4838 Rain 6 992 93 8000 7.7 350 12:22 07.11.2019
4839 Rain 6 992 93 10000 9.3 360 11:59 07.11.2019
4840 Rain 6 991 87 10000 8.7 10 11:40 07.11.2019
4841 Rain 6 991 87 10000 8.7 10 11:21 07.11.2019
4842 Rain 6 991 87 9000 7.7 20 10:41 07.11.2019
4843 Rain 6 991 87 9000 7.7 20 10:19 07.11.2019
4844 Rain 6 991 87 9000 7.7 20 10:19 07.11.2019
4845 Rain 5 990 93 9000 5.1 360 09:44 07.11.2019
4846 Rain 5 990 93 9000 5.1 360 09:23 07.11.2019
4847 Rain 4 990 100 6000 3.1 280 08:57 07.11.2019
4848 Rain 4 990 100 6000 3.1 280 08:57 07.11.2019
4849 Drizzle 4 990 93 9000 5.1 280 08:38 07.11.2019
4850 Drizzle 4 990 93 9000 5.1 280 08:19 07.11.2019
4851 Drizzle 4 990 93 9000 5.1 280 08:19 07.11.2019
4852 Drizzle 4 990 93 9000 4.1 270 07:41 07.11.2019
4853 Drizzle 5 990 93 9000 4.1 270 07:22 07.11.2019
4854 Drizzle 5 990 100 10000 4.6 270 06:49 07.11.2019
4855 Rain 5 990 100 10000 5.1 270 06:29 07.11.2019
4856 Clouds 4 990 100 10000 4.6 260 05:58 07.11.2019
4857 -273 0 0 0 0 0 05:39 07.11.2019
4858 Clouds 4 990 100 10000 4.6 260 05:21 07.11.2019
4859 Drizzle 5 990 100 7000 6.2 280 04:42 07.11.2019
4860 Drizzle 5 991 93 6000 6.7 270 02:59 07.11.2019
4861 -273 0 0 0 0 0 02:58 07.11.2019
4862 -273 0 0 0 0 0 02:58 07.11.2019
4863 Drizzle 6 991 100 9000 5.1 260 00:47 07.11.2019
4864 Drizzle 6 991 100 9000 5.1 260 00:20 07.11.2019
4865 Drizzle 6 992 100 9000 3.6 250 23:47 06.11.2019
4866 Drizzle 6 992 100 9000 1.5 0 23:22 06.11.2019
4867 Drizzle 6 992 100 9000 1 0 22:56 06.11.2019
4868 Drizzle 6 993 100 9000 1.5 0 22:37 06.11.2019
4869 Drizzle 6 993 100 9000 1.5 0 22:18 06.11.2019
4870 Rain 6 993 100 9000 2.6 90 21:42 06.11.2019
4871 Rain 6 993 100 9000 2.6 90 21:20 06.11.2019
4872 Rain 6 994 100 9000 2.1 120 20:58 06.11.2019
4873 Rain 6 994 100 8000 2.6 140 20:40 06.11.2019
4874 Rain 6 994 100 8000 2.6 140 20:21 06.11.2019
4875 Rain 6 994 93 10000 2.6 150 19:58 06.11.2019
4876 Rain 6 995 93 10000 2.6 140 19:39 06.11.2019
4877 Rain 6 995 93 10000 2.6 140 19:21 06.11.2019
4878 Rain 6 995 87 10000 3.1 150 18:57 06.11.2019
4879 Rain 6 995 87 10000 3.1 150 18:38 06.11.2019
4880 Rain 7 996 87 10000 3.6 170 18:19 06.11.2019
4881 Rain 7 996 81 10000 4.1 160 17:54 06.11.2019
4882 Rain 7 996 75 10000 3.1 140 17:36 06.11.2019
4883 Rain 7 996 75 10000 3.1 140 17:18 06.11.2019
4884 Clouds 7 997 70 10000 3.1 140 16:54 06.11.2019
4885 Clouds 8 997 70 10000 3.1 140 16:36 06.11.2019
4886 Clouds 8 998 75 10000 3.1 140 16:36 06.11.2019
4887 Clouds 8 998 75 10000 3.1 140 16:18 06.11.2019
4888 Clouds 8 998 70 10000 3.6 140 15:54 06.11.2019
4889 Clouds 8 998 70 10000 3.6 140 15:36 06.11.2019
4890 Clouds 9 999 66 10000 2.6 130 15:18 06.11.2019
4891 Clouds 9 999 61 10000 3.6 180 14:54 06.11.2019
4892 Clouds 9 999 61 10000 3.6 180 14:36 06.11.2019
4893 Clouds 9 1000 61 10000 2.1 200 14:18 06.11.2019
4894 Clouds 8 1000 70 10000 1.5 0 13:38 06.11.2019
4895 Clouds 8 1000 70 10000 1.5 0 13:38 06.11.2019
4896 Clouds 8 1001 70 10000 2.1 230 13:20 06.11.2019
4897 Clouds 7 1001 81 10000 2.1 240 12:55 06.11.2019
4898 Clouds 7 1001 81 10000 2.1 240 12:37 06.11.2019
4899 Clouds 7 1002 81 10000 1.5 0 12:19 06.11.2019
4900 Clouds 6 1002 87 10000 2.6 260 11:57 06.11.2019
4901 Clouds 6 1002 87 10000 2.6 260 11:36 06.11.2019
4902 Clouds 6 1003 87 10000 2.6 260 11:18 06.11.2019
4903 Clouds 6 1003 87 10000 2.1 250 10:56 06.11.2019
4904 Clouds 5 1003 87 10000 2.1 250 10:37 06.11.2019
4905 Clouds 5 1003 93 10000 2.1 240 10:19 06.11.2019
4906 Clouds 5 1003 93 10000 2.1 240 10:19 06.11.2019
4907 Clouds 5 1003 93 10000 2.1 250 09:42 06.11.2019
4908 Clouds 4 1004 93 10000 3.1 250 09:21 06.11.2019
4909 Clouds 4 1004 93 10000 2.6 240 08:56 06.11.2019
4910 Clouds 4 1004 93 10000 2.6 240 08:38 06.11.2019
4911 Clouds 4 1004 93 10000 3.1 250 08:19 06.11.2019
4912 Clouds 4 1004 93 10000 2.1 250 07:47 06.11.2019
4913 Clouds 4 1004 93 10000 2.6 250 07:29 06.11.2019
4914 Clouds 4 1005 93 10000 3.1 250 06:59 06.11.2019
4915 Clouds 4 1005 93 10000 3.1 250 06:38 06.11.2019
4916 Clouds 4 1005 93 10000 3.1 250 06:20 06.11.2019
4917 Clouds 5 1007 86 10000 2.1 240 03:52 06.11.2019
4918 Clouds 5 1008 100 10000 2.6 250 02:18 06.11.2019
4919 Clouds 6 1008 93 10000 1.5 0 00:55 06.11.2019
4920 Clouds 6 1008 93 10000 2.6 270 00:26 06.11.2019
4921 Clouds 6 1008 93 10000 3.6 270 23:57 05.11.2019
4922 Clouds 7 1009 93 10000 3.6 280 23:37 05.11.2019
4923 Clouds 7 1008 93 10000 3.6 270 23:37 05.11.2019
4924 Clouds 7 1009 93 10000 3.6 280 23:18 05.11.2019
4925 Clouds 7 1009 93 10000 3.6 280 22:42 05.11.2019
4926 Clouds 7 1009 93 10000 3.1 280 22:19 05.11.2019
4927 Clouds 7 1009 93 10000 3.1 280 22:19 05.11.2019
4928 Rain 8 1009 87 10000 3.6 300 21:57 05.11.2019
4929 Rain 8 1009 87 10000 3.6 300 21:39 05.11.2019
4930 Rain 8 1009 87 10000 3.6 300 21:20 05.11.2019
4931 Clouds 8 1009 87 10000 3.1 300 20:56 05.11.2019
4932 Clouds 8 1009 87 10000 3.1 300 20:38 05.11.2019
4933 Clouds 8 1009 87 10000 3.1 310 20:20 05.11.2019
4934 Clouds 8 1009 93 10000 3.1 300 19:54 05.11.2019
4935 Clouds 8 1009 93 10000 3.1 300 19:36 05.11.2019
4936 Clouds 8 1009 93 10000 3.6 290 19:18 05.11.2019
4937 Clouds 8 1009 93 10000 3.1 310 18:55 05.11.2019
4938 Clouds 8 1009 93 10000 3.1 310 18:37 05.11.2019
4939 Rain 8 1009 93 10000 2.6 310 18:18 05.11.2019
4940 Rain 9 1008 87 10000 2.1 320 17:39 05.11.2019
4941 Rain 9 1008 87 10000 1.5 310 17:21 05.11.2019
4942 Rain 9 1009 87 10000 2.6 330 16:59 05.11.2019
4943 Rain 10 1009 87 10000 2.6 330 16:41 05.11.2019
4944 Rain 10 1008 87 10000 3.6 330 16:20 05.11.2019
4945 Clouds 10 1008 81 10000 4.1 330 15:41 05.11.2019
4946 Clouds 10 1008 76 10000 4.6 350 15:20 05.11.2019
4947 Clouds 10 1008 76 10000 4.6 350 14:59 05.11.2019
4948 Clouds 10 1008 76 10000 4.6 350 14:41 05.11.2019
4949 Clouds 10 1008 76 10000 5.7 350 14:22 05.11.2019
4950 Clouds 10 1007 76 10000 6.2 350 13:58 05.11.2019
4951 Clouds 10 1007 76 10000 6.2 350 13:40 05.11.2019
4952 Clouds 10 1007 76 10000 6.7 350 13:22 05.11.2019
4953 Clouds 9 1007 76 10000 6.2 350 12:41 05.11.2019
4954 Clouds 9 1007 87 10000 6.2 350 12:22 05.11.2019
4955 Clouds 9 1006 81 10000 6.2 340 11:57 05.11.2019
4956 Clouds 9 1006 81 10000 6.2 340 11:38 05.11.2019
4957 Clouds 9 1006 81 10000 6.7 340 11:20 05.11.2019
4958 Clouds 8 1006 87 10000 6.7 340 10:48 05.11.2019
4959 Clouds 8 1005 93 10000 5.7 330 10:27 05.11.2019
4960 Clouds 8 1005 93 10000 5.7 330 09:59 05.11.2019
4961 Clouds 7 1005 93 10000 5.7 330 09:41 05.11.2019
4962 Clouds 8 1004 87 10000 5.1 340 09:21 05.11.2019
4963 Clouds 7 1004 87 10000 6.2 330 08:59 05.11.2019
4964 Clouds 7 1004 87 10000 6.2 330 08:59 05.11.2019
4965 Clouds 7 1004 87 10000 6.2 330 08:37 05.11.2019
4966 Clouds 7 1003 87 10000 6.2 340 08:19 05.11.2019
4967 Clouds 8 1003 87 10000 7.2 330 07:46 05.11.2019
4968 Clouds 8 1003 87 10000 7.2 330 07:26 05.11.2019
4969 Clouds 8 1002 81 10000 6.7 330 06:52 05.11.2019
4970 Clouds 8 1002 81 10000 7.2 340 06:33 05.11.2019
4971 Clouds 8 1001 87 10000 6.7 340 05:49 05.11.2019
4972 Clouds 8 1001 87 10000 7.2 350 05:21 05.11.2019
4973 Clouds 9 1000 81 10000 7.7 360 04:23 05.11.2019
4974 Clouds 9 998 81 10000 9.8 20 03:32 05.11.2019
4975 Clouds 9 998 81 10000 10.3 10 02:43 05.11.2019
4976 Clouds 9 997 81 10000 9.8 10 01:56 05.11.2019
4977 Clouds 9 995 93 10000 9.8 10 00:48 05.11.2019
4978 Clouds 9 995 93 10000 9.8 10 00:27 05.11.2019
4979 Rain 9 994 93 10000 7.7 360 23:43 04.11.2019
4980 Rain 9 994 93 10000 7.2 350 23:19 04.11.2019
4981 Rain 8 993 93 10000 6.7 360 22:57 04.11.2019
4982 Rain 8 993 93 10000 6.7 360 22:57 04.11.2019
4983 Clouds 8 993 93 10000 6.7 360 22:39 04.11.2019
4984 Clouds 9 993 93 10000 6.7 360 22:20 04.11.2019
4985 Clouds 9 993 93 10000 6.7 360 22:20 04.11.2019
4986 Clouds 9 993 93 10000 6.7 360 22:20 04.11.2019
4987 Rain 8 992 93 10000 7.2 350 21:55 04.11.2019
4988 Rain 8 992 93 10000 7.2 350 21:55 04.11.2019
4989 Rain 8 992 93 10000 7.2 350 21:37 04.11.2019
4990 Rain 8 992 87 10000 6.7 350 21:18 04.11.2019
4991 Rain 8 992 87 10000 6.7 350 21:18 04.11.2019
4992 Rain 8 991 87 10000 6.2 350 20:55 04.11.2019
4993 Rain 9 991 87 10000 6.2 350 20:37 04.11.2019
4994 Clouds 9 991 87 10000 6.2 350 20:18 04.11.2019
4995 Rain 9 990 87 9000 7.2 10 19:43 04.11.2019
4996 Rain 9 989 87 9000 7.2 20 19:25 04.11.2019
4997 Rain 9 989 87 9000 7.2 20 18:59 04.11.2019
4998 Rain 9 989 87 9000 6.7 20 18:41 04.11.2019
4999 Rain 9 988 87 9000 5.1 50 18:23 04.11.2019
5000 Rain 9 987 87 7000 7.2 20 17:59 04.11.2019
5001 Rain 8 987 87 7000 7.2 20 17:37 04.11.2019
5002 Rain 8 987 87 9000 7.7 20 17:19 04.11.2019
5003 Rain 8 986 93 8000 6.2 20 16:44 04.11.2019
5004 Rain 8 986 93 6000 6.7 30 16:25 04.11.2019
5005 Rain 8 986 93 6000 6.7 30 16:25 04.11.2019
5006 Rain 8 985 93 6000 5.7 40 15:59 04.11.2019
5007 Rain 8 985 93 6000 5.7 40 15:41 04.11.2019
5008 Rain 9 985 93 6000 4.1 30 15:21 04.11.2019
5009 Rain 8 984 93 8000 4.1 70 14:58 04.11.2019
5010 Rain 8 984 93 8000 4.1 70 14:40 04.11.2019
5011 Rain 8 983 93 8000 5.7 70 14:20 04.11.2019
5012 Rain 8 983 87 6000 4.1 90 13:58 04.11.2019
5013 Rain 8 983 87 6000 4.1 90 13:39 04.11.2019
5014 Rain 8 982 93 8000 6.7 10 13:21 04.11.2019
5015 Rain 8 982 100 5000 5.1 30 12:55 04.11.2019
5016 Rain 8 982 100 5000 5.1 30 12:37 04.11.2019
5017 Rain 8 982 100 5000 5.1 360 12:18 04.11.2019
5018 Rain 8 981 100 7000 5.7 20 11:42 04.11.2019
5019 Rain 8 981 93 6000 7.7 40 11:23 04.11.2019
5020 Rain 8 981 93 6000 7.7 40 11:23 04.11.2019
5021 Rain 7 980 93 6000 6.2 350 10:58 04.11.2019
5022 Rain 7 980 93 6000 6.2 350 10:39 04.11.2019
5023 Rain 7 980 100 6000 7.2 330 10:20 04.11.2019
5024 Rain 6 980 100 5000 5.1 320 09:44 04.11.2019
5025 Rain 6 980 100 4000 4.1 310 09:26 04.11.2019
5026 Rain 6 980 100 3000 4.1 310 08:56 04.11.2019
5027 Rain 6 980 100 3000 4.1 310 08:37 04.11.2019
5028 Clouds 6 980 100 10000 3.6 300 08:18 04.11.2019
5029 Clouds 6 979 100 9000 3.1 280 07:42 04.11.2019
5030 Clouds 5 980 100 9000 2.1 280 07:20 04.11.2019
5031 Clouds 5 979 100 9000 2.1 280 06:49 04.11.2019
5032 Clouds 5 979 100 9000 2.6 310 06:18 04.11.2019
5033 Clouds 6 979 100 10000 1.5 0 05:37 04.11.2019
5034 Rain 6 979 93 9000 1 320 04:37 04.11.2019
5035 Drizzle 6 979 93 10000 1.5 280 03:42 04.11.2019
5036 Rain 7 979 100 10000 2.6 310 01:38 04.11.2019
5037 Rain 7 979 100 10000 2.6 300 01:18 04.11.2019
5038 Rain 7 979 93 10000 2.1 260 00:22 04.11.2019
5039 Clouds 7 979 93 10000 2.6 260 23:59 03.11.2019
5040 Clouds 7 979 93 10000 2.6 260 23:39 03.11.2019
5041 Clouds 7 979 100 10000 2.1 240 23:20 03.11.2019
5042 Clouds 7 979 100 10000 2.6 260 22:56 03.11.2019
5043 Clouds 7 979 100 10000 2.6 260 22:38 03.11.2019
5044 Rain 8 980 93 8000 3.6 240 22:19 03.11.2019
5045 Rain 7 980 100 8000 2.6 240 21:43 03.11.2019
5046 Rain 7 980 93 8000 3.1 240 21:22 03.11.2019
5047 Rain 7 980 93 8000 3.1 240 21:22 03.11.2019
5048 Rain 7 980 100 8000 1 0 20:58 03.11.2019
5049 Rain 7 980 100 8000 1 0 20:38 03.11.2019
5050 Clouds 7 980 93 8000 1.5 0 20:19 03.11.2019
5051 Clouds 7 980 100 8000 2.6 260 19:57 03.11.2019
5052 Clouds 7 980 100 8000 2.6 260 19:57 03.11.2019
5053 Clouds 7 980 100 8000 2.6 260 19:39 03.11.2019
5054 Clouds 7 980 100 8000 2.6 260 19:39 03.11.2019
5055 Fog 7 981 100 800 2.1 250 19:20 03.11.2019
5056 Fog 7 981 100 600 2.6 310 18:57 03.11.2019
5057 Fog 7 981 100 600 2.6 310 18:37 03.11.2019
5058 Mist 8 981 100 1200 2.6 280 18:18 03.11.2019
5059 Clouds 8 981 100 5000 2.6 280 17:42 03.11.2019
5060 Fog 8 981 100 500 3.1 260 17:22 03.11.2019
5061 Fog 8 981 100 500 3.6 270 16:59 03.11.2019
5062 Fog 9 981 93 900 4.1 270 16:41 03.11.2019
5063 Fog 9 981 93 900 4.1 270 16:22 03.11.2019
5064 Mist 9 981 100 3500 4.6 270 15:58 03.11.2019
5065 Mist 10 981 100 3500 4.6 270 15:40 03.11.2019
5066 Clouds 10 982 93 5000 4.1 270 15:21 03.11.2019
5067 Clouds 9 982 93 4000 4.6 280 14:44 03.11.2019
5068 Clouds 9 982 100 9000 4.1 260 14:20 03.11.2019
5069 Mist 9 982 100 2500 4.6 270 13:59 03.11.2019
5070 Mist 9 982 100 2500 4.6 270 13:59 03.11.2019
5071 Mist 9 982 100 2500 4.6 270 13:41 03.11.2019
5072 Mist 9 982 100 1200 5.1 270 13:18 03.11.2019
5073 Fog 9 983 100 800 4.6 270 12:55 03.11.2019
5074 Fog 9 983 100 800 4.6 270 12:36 03.11.2019
5075 Mist 8 983 100 1200 4.1 270 12:18 03.11.2019
5076 Mist 8 982 100 1200 4.6 270 11:42 03.11.2019
5077 Mist 7 982 100 4000 5.1 260 11:22 03.11.2019
5078 Mist 6 982 100 5000 5.1 270 10:55 03.11.2019
5079 Mist 6 982 100 5000 5.1 270 10:37 03.11.2019
5080 Mist 6 982 100 5000 5.7 270 10:19 03.11.2019
5081 Mist 6 982 100 5000 5.7 270 10:19 03.11.2019
5082 Mist 6 982 100 3000 5.1 280 09:43 03.11.2019
5083 Mist 6 982 100 4000 4.1 270 09:25 03.11.2019
5084 Mist 6 982 100 3500 5.1 270 08:56 03.11.2019
5085 Mist 6 982 100 3500 5.1 270 08:37 03.11.2019
5086 Clouds 6 981 100 6000 4.1 270 08:19 03.11.2019
5087 Mist 6 981 100 1500 4.1 270 07:45 03.11.2019
5088 Mist 6 981 100 1500 4.1 270 07:45 03.11.2019
5089 Mist 6 981 100 1300 4.6 270 07:22 03.11.2019
5090 Mist 6 980 100 1700 4.1 270 06:39 03.11.2019
5091 Fog 6 980 100 700 4.6 280 05:54 03.11.2019
5092 Fog 6 980 100 700 4.6 280 05:34 03.11.2019
5093 Fog 6 979 100 600 4.1 290 04:53 03.11.2019
5094 Mist 6 978 100 2000 3.6 290 03:59 03.11.2019
5095 Clouds 6 978 100 7000 3.6 300 03:21 03.11.2019
5096 Clouds 6 977 93 10000 3.6 300 02:23 03.11.2019
5097 Rain 6 977 100 10000 3.1 320 01:49 03.11.2019
5098 Clouds 6 977 100 10000 3.6 340 01:27 03.11.2019
5099 Clouds 6 976 100 10000 2.1 320 00:59 03.11.2019
5100 Clouds 6 976 100 10000 2.1 320 00:38 03.11.2019
5101 Rain 7 976 100 10000 1.5 0 00:20 03.11.2019
5102 Rain 8 975 93 10000 1 0 23:54 02.11.2019
5103 Rain 8 975 93 10000 3.6 210 23:36 02.11.2019
5104 Rain 8 975 93 10000 3.6 210 23:18 02.11.2019
5105 Rain 8 975 93 10000 3.6 210 23:18 02.11.2019
5106 Rain 8 975 93 7000 2.6 220 22:54 02.11.2019
5107 Rain 8 975 93 7000 2.6 220 22:36 02.11.2019
5108 Rain 9 975 93 6000 1 0 22:18 02.11.2019
5109 Rain 9 974 93 6000 2.6 60 21:55 02.11.2019
5110 Drizzle 9 974 100 6000 1.5 0 21:36 02.11.2019
5111 Drizzle 9 974 100 6000 1.5 0 21:18 02.11.2019
5112 Drizzle 9 974 100 6000 1.5 0 21:18 02.11.2019
5113 Drizzle 9 974 100 6000 1.5 0 21:18 02.11.2019
5114 Drizzle 9 974 100 4000 3.1 340 20:41 02.11.2019
5115 Drizzle 10 973 93 4000 5.1 280 20:22 02.11.2019
5116 Drizzle 10 973 93 6000 5.7 270 19:59 02.11.2019
5117 Drizzle 10 973 93 6000 5.7 270 19:38 02.11.2019
5118 Drizzle 10 973 93 6000 5.7 270 19:19 02.11.2019
5119 Rain 10 973 93 4000 5.1 270 18:54 02.11.2019
5120 Rain 10 973 93 4000 5.1 270 18:36 02.11.2019
5121 Rain 10 972 93 4000 5.1 270 18:18 02.11.2019
5122 Rain 10 972 93 3500 4.6 270 17:55 02.11.2019
5123 Rain 10 972 93 3500 4.6 270 17:36 02.11.2019
5124 Rain 10 972 93 6000 5.7 270 17:18 02.11.2019
5125 Rain 10 972 93 3500 6.2 270 16:39 02.11.2019
5126 Rain 10 972 100 3000 3.1 270 16:20 02.11.2019
5127 Rain 10 972 93 2500 1.5 0 15:44 02.11.2019
5128 Rain 10 973 93 3000 2.6 230 15:22 02.11.2019
5129 Rain 10 973 87 10000 3.1 240 14:58 02.11.2019
5130 Rain 10 973 87 10000 3.1 240 14:40 02.11.2019
5131 Clouds 10 973 87 10000 3.6 240 14:21 02.11.2019
5132 Clouds 10 973 93 10000 3.6 230 13:40 02.11.2019
5133 Clouds 10 973 87 10000 3.1 230 13:21 02.11.2019
5134 Clouds 10 973 87 10000 3.1 240 12:59 02.11.2019
5135 Clouds 9 973 87 10000 3.1 240 12:40 02.11.2019
5136 Clouds 9 973 81 10000 2.1 230 12:21 02.11.2019
5137 Clouds 9 973 87 10000 2.6 240 11:55 02.11.2019
5138 Clouds 9 973 87 10000 2.6 240 11:36 02.11.2019
5139 Clouds 8 973 87 10000 2.1 260 11:18 02.11.2019
5140 Clouds 8 973 93 10000 1.5 0 10:42 02.11.2019
5141 Clouds 8 973 93 10000 2.1 240 10:23 02.11.2019
5142 Clouds 8 973 93 10000 2.6 260 09:43 02.11.2019
5143 Clouds 7 973 100 10000 2.6 260 09:22 02.11.2019
5144 Clouds 6 973 93 10000 2.6 250 08:57 02.11.2019
5145 Clouds 6 973 93 10000 2.6 250 08:57 02.11.2019
5146 Clouds 6 973 93 10000 2.6 250 08:37 02.11.2019
5147 Clouds 5 973 93 10000 2.1 250 08:18 02.11.2019
5148 Clouds 6 973 100 10000 2.1 270 07:44 02.11.2019
5149 Clouds 6 974 93 10000 0.5 250 07:25 02.11.2019
5150 Clouds 6 974 93 10000 0.5 250 06:52 02.11.2019
5151 Clouds 6 974 93 10000 0.5 250 06:52 02.11.2019
5152 Clouds 6 974 93 10000 0.5 250 06:52 02.11.2019
5153 Clouds 6 974 93 10000 1 210 06:24 02.11.2019
5154 Clouds 7 974 93 10000 2.1 190 05:44 02.11.2019
5155 Clouds 9 975 87 10000 5.1 200 04:25 02.11.2019
5156 Clouds 9 976 87 10000 3.6 220 03:52 02.11.2019
5157 Clouds 9 976 81 10000 4.1 210 03:31 02.11.2019
5158 Drizzle 10 977 87 10000 4.1 240 02:29 02.11.2019
5159 Clouds 10 977 87 10000 5.1 220 01:29 02.11.2019
5160 Clouds 10 978 87 10000 4.6 220 00:58 02.11.2019
5161 Clouds 11 978 87 10000 5.1 230 00:30 02.11.2019
5162 Clouds 11 978 87 10000 5.1 230 23:57 01.11.2019
5163 Clouds 11 978 87 10000 5.1 230 23:39 01.11.2019
5164 Clouds 11 978 87 10000 5.1 240 23:19 01.11.2019
5165 Rain 12 978 93 10000 4.6 240 22:42 01.11.2019
5166 Rain 12 978 93 10000 5.1 240 22:21 01.11.2019
5167 Rain 12 978 93 10000 5.7 230 21:43 01.11.2019
5168 Rain 13 979 93 10000 6.2 200 21:24 01.11.2019
5169 Clouds 13 979 100 10000 2.6 170 20:59 01.11.2019
5170 Clouds 13 979 100 10000 2.6 170 20:41 01.11.2019
5171 Drizzle 13 980 100 3000 2.6 140 20:23 01.11.2019
5172 Drizzle 13 980 100 3000 2.6 140 19:59 01.11.2019
5173 Drizzle 13 980 100 3000 2.6 140 19:59 01.11.2019
5174 Drizzle 13 980 100 3000 3.1 140 19:40 01.11.2019
5175 Rain 12 981 100 8000 4.6 140 19:21 01.11.2019
5176 Rain 13 982 100 8000 4.1 140 18:41 01.11.2019
5177 Rain 13 983 93 8000 4.1 140 18:21 01.11.2019
5178 Rain 13 984 93 7000 3.6 130 17:59 01.11.2019
5179 Rain 13 984 93 7000 3.6 130 17:41 01.11.2019
5180 Rain 13 985 93 10000 3.1 120 17:22 01.11.2019
5181 Clouds 13 986 93 10000 2.1 170 16:40 01.11.2019
5182 Clouds 13 987 93 10000 2.6 190 16:20 01.11.2019
5183 Clouds 13 987 87 10000 3.1 210 15:58 01.11.2019
5184 Clouds 13 987 87 10000 3.1 210 15:40 01.11.2019
5185 Clouds 13 988 87 10000 3.1 210 15:22 01.11.2019
5186 Clouds 13 989 87 10000 3.6 240 14:44 01.11.2019
5187 Clouds 13 989 87 10000 3.1 240 14:25 01.11.2019
5188 Clouds 13 990 87 10000 3.6 230 13:59 01.11.2019
5189 Clouds 13 990 87 10000 3.6 230 13:40 01.11.2019
5190 Clouds 13 990 87 10000 3.6 230 13:40 01.11.2019
5191 Clouds 13 990 93 10000 4.6 230 13:21 01.11.2019
5192 Clouds 13 991 93 10000 3.6 220 12:55 01.11.2019
5193 Clouds 13 991 93 10000 3.6 220 12:37 01.11.2019
5194 Drizzle 13 991 93 4500 4.1 220 12:18 01.11.2019
5195 Clouds 13 992 93 10000 3.6 220 11:41 01.11.2019
5196 Clouds 13 992 93 10000 4.1 230 11:23 01.11.2019
5197 Clouds 13 992 93 10000 3.6 230 10:43 01.11.2019
5198 Clouds 13 992 93 10000 3.6 230 10:25 01.11.2019
5199 Clouds 13 993 93 10000 4.1 230 09:58 01.11.2019
5200 Clouds 13 993 93 10000 4.1 230 09:40 01.11.2019
5201 Drizzle 13 993 93 10000 3.6 230 09:21 01.11.2019
5202 Drizzle 13 993 93 7000 3.6 220 08:46 01.11.2019
5203 Drizzle 13 994 100 6000 4.1 220 08:23 01.11.2019
5204 Drizzle 13 994 100 8000 2.1 200 07:57 01.11.2019
5205 Drizzle 13 994 100 8000 2.1 200 07:57 01.11.2019
5206 Drizzle 13 994 100 8000 2.1 200 07:39 01.11.2019
5207 Drizzle 13 994 100 7000 2.6 200 07:20 01.11.2019
5208 Clouds 13 995 93 10000 1.5 180 06:47 01.11.2019
5209 Clouds 13 995 93 10000 4.1 160 06:22 01.11.2019
5210 Drizzle 13 995 93 10000 4.6 150 05:44 01.11.2019
5211 Rain 13 998 93 10000 5.7 150 04:29 01.11.2019
5212 Clouds 12 1000 100 10000 5.7 130 03:24 01.11.2019
5213 Rain 12 1003 100 4500 3.6 130 01:37 01.11.2019
5214 Rain 12 1005 93 7000 2.6 140 00:42 01.11.2019
5215 Rain 12 1005 93 7000 3.1 140 00:19 01.11.2019
5216 Rain 12 1006 100 7000 2.6 120 23:43 31.10.2019
5217 Rain 11 1007 100 5000 1.5 0 23:23 31.10.2019
5218 Rain 11 1007 100 5000 2.1 140 22:57 31.10.2019
5219 Rain 11 1007 100 5000 2.1 140 22:57 31.10.2019
5220 Rain 11 1007 100 5000 2.1 140 22:39 31.10.2019
5221 Rain 11 1008 100 7000 3.1 140 22:20 31.10.2019
5222 Rain 11 1008 100 7000 2.6 150 21:44 31.10.2019
5223 Rain 11 1009 100 7000 2.6 150 21:21 31.10.2019
5224 Rain 11 1009 100 8000 3.1 150 20:57 31.10.2019
5225 Rain 11 1009 100 8000 3.1 150 20:39 31.10.2019
5226 Drizzle 11 1010 100 4000 3.1 150 20:20 31.10.2019
5227 Drizzle 11 1010 100 3000 4.1 140 19:42 31.10.2019
5228 Drizzle 11 1010 100 7000 4.6 140 19:22 31.10.2019
5229 Drizzle 11 1011 93 7000 4.1 130 18:57 31.10.2019
5230 Drizzle 11 1011 93 7000 4.1 130 18:57 31.10.2019
5231 Drizzle 11 1011 93 7000 4.1 130 18:39 31.10.2019
5232 Drizzle 11 1011 93 7000 4.6 140 18:20 31.10.2019
5233 Drizzle 10 1012 100 7000 4.6 130 17:42 31.10.2019
5234 Drizzle 10 1012 100 5000 5.1 140 17:22 31.10.2019
5235 Drizzle 10 1013 100 5000 4.6 130 16:58 31.10.2019
5236 Drizzle 10 1013 100 5000 4.6 130 16:40 31.10.2019
5237 Drizzle 10 1013 100 4000 4.6 140 16:20 31.10.2019
5238 Drizzle 10 1014 93 5000 5.7 140 15:56 31.10.2019
5239 Drizzle 10 1014 93 5000 5.7 140 15:38 31.10.2019
5240 Drizzle 10 1014 93 4000 5.1 140 15:19 31.10.2019
5241 Drizzle 10 1014 93 4000 5.1 140 15:19 31.10.2019
5242 Drizzle 10 1014 93 4000 5.1 140 15:19 31.10.2019
5243 Drizzle 10 1015 93 4500 5.1 140 14:55 31.10.2019
5244 Drizzle 10 1015 93 4500 5.1 140 14:37 31.10.2019
5245 Drizzle 10 1015 100 5000 4.1 140 14:19 31.10.2019
5246 Drizzle 10 1015 93 5000 5.1 140 13:54 31.10.2019
5247 Drizzle 10 1015 93 5000 5.1 140 13:36 31.10.2019
5248 Drizzle 10 1016 87 8000 4.6 150 13:18 31.10.2019
5249 Drizzle 9 1016 93 6000 4.6 140 12:43 31.10.2019
5250 Drizzle 9 1016 93 6000 4.6 140 12:23 31.10.2019
5251 Drizzle 9 1016 93 5000 4.6 140 11:55 31.10.2019
5252 Drizzle 9 1016 93 5000 4.6 140 11:36 31.10.2019
5253 Drizzle 9 1016 93 5000 4.6 130 11:18 31.10.2019
5254 Drizzle 9 1017 93 4500 4.1 130 10:40 31.10.2019
5255 Drizzle 9 1017 93 4000 4.1 120 10:22 31.10.2019
5256 Drizzle 9 1017 93 3000 4.6 120 09:59 31.10.2019
5257 Drizzle 9 1017 93 3000 4.6 120 09:59 31.10.2019
5258 Drizzle 8 1017 93 3000 4.6 120 09:39 31.10.2019
5259 Drizzle 8 1017 100 4000 4.1 110 09:18 31.10.2019
5260 Drizzle 8 1017 93 3500 4.6 120 08:48 31.10.2019
5261 Drizzle 8 1017 93 9000 3.6 130 08:29 31.10.2019
5262 Drizzle 8 1017 87 10000 4.6 140 07:54 31.10.2019
5263 Drizzle 8 1017 87 10000 4.6 140 07:36 31.10.2019
5264 Clouds 8 1017 87 10000 4.6 140 07:18 31.10.2019
5265 Clouds 9 1017 87 10000 4.1 120 06:33 31.10.2019
5266 Clouds 9 1017 87 10000 4.6 140 05:58 31.10.2019
5267 Clouds 9 1018 76 10000 3.6 130 03:30 31.10.2019
5268 Clouds 9 1018 76 10000 4.6 130 02:38 31.10.2019
5269 Clouds 8 1019 76 10000 5.7 110 01:50 31.10.2019
5270 Clouds 8 1019 76 10000 6.7 110 00:36 31.10.2019
5271 Clouds 9 1019 76 10000 6.2 110 23:56 30.10.2019
5272 Clouds 9 1019 76 10000 6.7 110 23:28 30.10.2019
5273 Clouds 9 1020 76 10000 6.2 110 22:43 30.10.2019
5274 Clouds 9 1020 76 10000 6.2 110 22:43 30.10.2019
5275 Drizzle 9 1019 71 10000 6.2 110 22:21 30.10.2019
5276 Clouds 9 1020 66 10000 6.7 110 21:55 30.10.2019
5277 Clouds 9 1020 66 10000 6.7 110 21:37 30.10.2019
5278 Clouds 9 1020 71 10000 6.7 100 21:18 30.10.2019
5279 Clouds 9 1020 71 10000 6.2 110 20:58 30.10.2019
5280 Clouds 9 1020 71 10000 6.2 110 20:40 30.10.2019
5281 Clouds 9 1020 66 10000 6.7 110 20:22 30.10.2019
5282 Clouds 9 1020 66 10000 7.2 110 19:58 30.10.2019
5283 Clouds 9 1020 66 10000 7.2 110 19:38 30.10.2019
5284 Clouds 9 1020 70 10000 6.7 100 19:19 30.10.2019
5285 Clouds 9 1020 70 10000 6.2 100 18:39 30.10.2019
5286 Clouds 9 1020 70 10000 6.2 100 18:39 30.10.2019
5287 Clouds 9 1020 70 10000 6.7 100 18:20 30.10.2019
5288 Clouds 9 1020 66 10000 6.2 110 17:59 30.10.2019
5289 Clouds 9 1020 66 10000 6.2 110 17:41 30.10.2019
5290 Clouds 10 1020 66 10000 6.7 110 17:19 30.10.2019
5291 Clouds 10 1020 66 10000 6.7 110 17:19 30.10.2019
5292 Clouds 10 1021 66 10000 7.7 110 16:55 30.10.2019
5293 Clouds 10 1021 66 10000 7.7 110 16:37 30.10.2019
5294 Clouds 10 1021 66 10000 7.7 100 16:19 30.10.2019
5295 Clouds 10 1021 66 10000 6.7 110 15:56 30.10.2019
5296 Clouds 10 1021 66 10000 6.7 110 15:37 30.10.2019
5297 Clouds 10 1021 66 10000 8.2 110 15:19 30.10.2019
5298 Clouds 10 1022 66 10000 7.7 110 14:42 30.10.2019
5299 Clouds 10 1022 66 10000 7.2 120 14:22 30.10.2019
5300 Clouds 10 1022 66 10000 8.7 110 13:59 30.10.2019
5301 Clouds 10 1022 66 10000 8.7 110 13:40 30.10.2019
5302 Clouds 10 1022 66 10000 7.2 120 13:20 30.10.2019
5303 Clouds 10 1023 62 10000 8.2 120 12:57 30.10.2019
5304 Clouds 10 1023 62 10000 8.2 120 12:39 30.10.2019
5305 Clouds 10 1023 71 10000 8.2 110 12:21 30.10.2019
5306 Clouds 9 1023 76 10000 6.7 110 11:42 30.10.2019
5307 Clouds 9 1023 71 10000 7.7 110 11:24 30.10.2019
5308 Clouds 9 1023 70 10000 8.7 110 10:46 30.10.2019
5309 Clouds 9 1023 70 10000 8.7 110 10:27 30.10.2019
5310 Clouds 9 1024 76 10000 7.7 100 09:59 30.10.2019
5311 Clouds 8 1024 76 10000 7.7 100 09:40 30.10.2019
5312 Clouds 8 1024 81 10000 7.2 100 09:22 30.10.2019
5313 Clouds 8 1024 81 10000 7.7 100 08:42 30.10.2019
5314 Clouds 8 1023 76 10000 7.2 100 08:23 30.10.2019
5315 Clouds 8 1024 75 10000 7.7 100 07:59 30.10.2019
5316 Clouds 8 1024 75 10000 7.7 100 07:39 30.10.2019
5317 Clouds 8 1024 75 10000 7.2 100 06:46 30.10.2019
5318 Clouds 8 1024 75 10000 6.7 110 06:27 30.10.2019
5319 Clouds 8 1024 75 10000 6.7 110 05:54 30.10.2019
5320 Clouds 8 1024 75 10000 6.7 110 05:35 30.10.2019
5321 Clouds 8 1025 70 10000 7.7 110 03:50 30.10.2019
5322 Clouds 8 1025 76 10000 6.7 110 03:21 30.10.2019
5323 Clouds 9 1025 76 10000 7.2 100 02:48 30.10.2019
5324 Clouds 8 1025 70 10000 7.2 100 01:42 30.10.2019
5325 Clouds 9 1026 70 10000 6.7 100 00:36 30.10.2019
5326 Clouds 9 1026 70 10000 6.2 100 00:18 30.10.2019
5327 Clouds 9 1026 70 10000 7.2 100 23:38 29.10.2019
5328 Clouds 8 1026 70 10000 7.2 100 23:18 29.10.2019
5329 Clouds 8 1026 75 10000 7.2 100 22:41 29.10.2019
5330 Clouds 8 1026 75 10000 6.2 100 22:19 29.10.2019
5331 Clouds 8 1026 70 10000 5.7 100 21:55 29.10.2019
5332 Clouds 8 1026 70 10000 5.7 100 21:36 29.10.2019
5333 Clouds 8 1026 70 10000 6.2 100 21:18 29.10.2019
5334 Clouds 8 1026 70 10000 7.7 100 20:41 29.10.2019
5335 Clouds 8 1026 70 10000 7.2 100 20:22 29.10.2019
5336 Clouds 8 1026 75 10000 5.7 100 19:58 29.10.2019
5337 Clouds 8 1026 75 10000 5.7 100 19:58 29.10.2019
5338 Clouds 8 1026 75 10000 5.7 100 19:39 29.10.2019
5339 Clouds 8 1026 70 10000 6.7 100 19:20 29.10.2019
5340 Clouds 7 1026 75 10000 6.2 90 18:58 29.10.2019
5341 Clouds 7 1026 75 10000 6.2 90 18:38 29.10.2019
5342 Clouds 8 1026 70 10000 6.2 100 18:20 29.10.2019
5343 Clouds 8 1026 75 10000 7.2 90 17:56 29.10.2019
5344 Clouds 8 1026 75 10000 7.2 90 17:37 29.10.2019
5345 Clouds 8 1026 75 10000 7.2 90 17:37 29.10.2019
5346 Clouds 9 1026 70 10000 7.7 90 17:19 29.10.2019
5347 Clouds 9 1026 70 10000 9.8 90 16:41 29.10.2019
5348 Clouds 9 1026 70 10000 8.7 90 16:22 29.10.2019
5349 Clouds 9 1026 70 10000 8.2 90 15:58 29.10.2019
5350 Clouds 9 1026 70 10000 8.2 90 15:39 29.10.2019
5351 Clouds 9 1026 70 10000 8.2 90 15:20 29.10.2019
5352 Clouds 9 1026 66 10000 8.7 100 14:56 29.10.2019
5353 Clouds 9 1026 66 10000 8.7 100 14:38 29.10.2019
5354 Clouds 9 1027 66 10000 8.7 90 14:19 29.10.2019
5355 Clouds 9 1027 70 10000 7.7 90 13:40 29.10.2019
5356 Clouds 9 1027 70 10000 8.7 90 13:22 29.10.2019
5357 Clouds 9 1027 76 10000 8.2 90 12:56 29.10.2019
5358 Clouds 9 1027 76 10000 8.2 90 12:37 29.10.2019
5359 Clouds 9 1027 71 10000 9.3 100 12:19 29.10.2019
5360 Clouds 9 1027 66 10000 9.3 90 11:42 29.10.2019
5361 Clouds 9 1027 66 10000 9.3 90 11:42 29.10.2019
5362 Clouds 10 1027 66 10000 8.7 100 11:22 29.10.2019
5363 Clouds 8 1027 70 10000 8.2 90 10:58 29.10.2019
5364 Clouds 8 1027 70 10000 8.2 90 10:39 29.10.2019
5365 Clouds 8 1027 70 10000 8.7 90 10:20 29.10.2019
5366 Clouds 8 1027 75 10000 8.2 90 09:58 29.10.2019
5367 Clouds 7 1027 75 10000 8.2 90 09:40 29.10.2019
5368 Clouds 7 1026 66 10000 7.2 90 09:21 29.10.2019
5369 Rain 7 1026 70 10000 8.7 80 08:45 29.10.2019
5370 Rain 7 1026 75 10000 7.2 90 08:25 29.10.2019
5371 Clouds 7 1026 70 10000 7.2 90 07:55 29.10.2019
5372 Clouds 7 1026 70 10000 7.2 90 07:37 29.10.2019
5373 Clouds 7 1026 75 10000 8.2 90 07:18 29.10.2019
5374 Clouds 7 1026 75 10000 7.2 90 06:44 29.10.2019
5375 Clouds 7 1026 70 10000 6.7 90 06:21 29.10.2019
5376 Clouds 7 1026 75 10000 5.7 100 05:50 29.10.2019
5377 Clouds 7 1026 75 10000 5.1 100 05:26 29.10.2019
5378 Clouds 6 1026 70 10000 6.2 100 04:31 29.10.2019
5379 Clouds 7 1026 70 10000 7.2 100 02:33 29.10.2019
5380 Clouds 8 1026 65 10000 7.7 90 01:46 29.10.2019
5381 Clouds 7 1026 65 10000 7.7 80 01:18 29.10.2019
5382 Clouds 7 1026 65 10000 5.1 70 00:32 29.10.2019
5383 Clouds 8 1026 61 10000 7.7 90 23:43 28.10.2019
5384 Clouds 8 1026 65 10000 5.7 80 23:21 28.10.2019
5385 Clouds 7 1026 65 10000 4.6 80 22:58 28.10.2019
5386 Clouds 6 1026 65 10000 4.6 80 22:37 28.10.2019
5387 Clouds 6 1026 70 10000 5.7 60 22:18 28.10.2019
5388 Clouds 6 1026 70 10000 5.7 60 21:56 28.10.2019
5389 Clouds 7 1026 70 10000 5.7 60 21:38 28.10.2019
5390 Clouds 7 1026 65 10000 6.2 70 21:19 28.10.2019
5391 Clouds 7 1026 65 10000 5.1 70 20:44 28.10.2019
5392 Clouds 7 1026 65 10000 5.7 70 20:24 28.10.2019
5393 Clouds 5 1026 65 10000 5.7 70 19:59 28.10.2019
5394 Clouds 6 1026 65 10000 5.7 70 19:39 28.10.2019
5395 Clouds 6 1026 65 10000 5.7 60 19:21 28.10.2019
5396 Clouds 6 1026 70 10000 5.7 60 18:59 28.10.2019
5397 Clouds 6 1026 70 10000 5.7 60 18:39 28.10.2019
5398 Clouds 6 1026 65 10000 5.1 60 18:21 28.10.2019
5399 Clouds 7 1026 65 10000 5.1 60 17:56 28.10.2019
5400 Clouds 7 1026 65 10000 5.1 60 17:38 28.10.2019
5401 Clouds 7 1026 65 10000 4.6 50 17:19 28.10.2019
5402 Clouds 8 1026 61 10000 6.7 40 16:57 28.10.2019
5403 Clouds 8 1026 61 10000 6.7 40 16:39 28.10.2019
5404 Clouds 8 1027 61 10000 5.7 40 16:20 28.10.2019
5405 Clouds 9 1027 61 10000 7.2 40 15:56 28.10.2019
5406 Clouds 9 1027 61 10000 7.2 40 15:38 28.10.2019
5407 Clouds 9 1027 61 10000 7.2 50 15:19 28.10.2019
5408 Clouds 9 1027 66 10000 6.7 60 14:56 28.10.2019
5409 Clouds 9 1027 66 10000 6.7 60 14:37 28.10.2019
5410 Clouds 9 1027 61 10000 6.7 50 14:18 28.10.2019
5411 Clouds 9 1027 61 10000 6.7 50 14:18 28.10.2019
5412 Clouds 9 1027 70 10000 6.7 50 13:54 28.10.2019
5413 Clouds 9 1027 70 10000 6.7 50 13:36 28.10.2019
5414 Clouds 9 1027 70 10000 6.7 50 13:36 28.10.2019
5415 Clouds 8 1027 66 10000 7.2 60 13:18 28.10.2019
5416 Clouds 8 1027 81 10000 4.6 20 12:40 28.10.2019
5417 Clouds 8 1027 81 10000 4.6 10 12:20 28.10.2019
5418 Clouds 7 1027 81 10000 5.7 10 11:40 28.10.2019
5419 Clouds 6 1027 93 10000 4.1 10 11:21 28.10.2019
5420 Clouds 5 1027 87 10000 5.1 10 10:56 28.10.2019
5421 Clouds 5 1027 87 10000 5.1 10 10:56 28.10.2019
5422 Clouds 5 1027 87 10000 5.1 10 10:38 28.10.2019
5423 Clouds 4 1027 86 10000 3.6 10 10:19 28.10.2019
5424 Clouds 3 1027 93 10000 3.6 350 09:54 28.10.2019
5425 Clouds 2 1027 93 10000 3.6 350 09:36 28.10.2019
5426 Rain 1 1027 93 10000 4.6 360 09:18 28.10.2019
5427 Rain 0 1027 87 10000 4.6 360 08:56 28.10.2019
5428 Rain 0 1027 87 10000 4.6 360 08:37 28.10.2019
5429 Clouds 0 1027 93 10000 4.1 340 08:18 28.10.2019
5430 Clouds -1 1027 100 10000 3.1 340 07:43 28.10.2019
5431 Clouds -1 1027 100 10000 2.6 340 07:21 28.10.2019
5432 Clouds -1 1027 100 10000 3.1 340 06:56 28.10.2019
5433 Clouds 0 1027 100 10000 3.1 340 06:34 28.10.2019
5434 Clouds 0 1027 100 10000 3.1 320 04:49 28.10.2019
5435 Clouds 0 1027 94 10000 2.6 320 03:44 28.10.2019
5436 Clouds 1 1027 94 10000 3.1 320 02:45 28.10.2019
5437 Clouds 1 1027 100 10000 2.1 310 01:36 28.10.2019
5438 Clouds 1 1028 91 10000 2.6 320 00:46 28.10.2019
5439 Clouds 2 1028 91 10000 2.6 320 00:24 28.10.2019
5440 Clouds 2 1028 91 10000 3.1 320 23:44 27.10.2019
5441 Clouds 2 1027 91 10000 2.6 310 23:21 27.10.2019
5442 Clouds 2 1027 91 10000 2.6 320 22:56 27.10.2019
5443 Clouds 2 1027 91 10000 2.6 320 22:37 27.10.2019
5444 Clouds 2 1027 91 10000 3.6 310 22:19 27.10.2019
5445 Clouds 2 1027 93 10000 3.6 310 21:40 27.10.2019
5446 Clouds 3 1027 93 10000 3.6 300 21:22 27.10.2019
5447 Clouds 3 1027 93 10000 3.6 300 20:59 27.10.2019
5448 Clouds 4 1027 86 10000 3.6 300 20:40 27.10.2019
5449 Clouds 3 1027 93 10000 3.6 300 20:22 27.10.2019
5450 Clouds 4 1027 93 10000 3.1 290 19:58 27.10.2019
5451 Clouds 4 1027 93 10000 3.1 290 19:37 27.10.2019
5452 Clouds 4 1027 93 10000 2.1 270 19:19 27.10.2019
5453 Clouds 4 1026 86 10000 2.1 260 18:56 27.10.2019
5454 Clouds 6 1026 80 10000 2.6 290 18:38 27.10.2019
5455 Clouds 6 1026 80 10000 2.6 290 18:20 27.10.2019
5456 Clouds 8 1026 75 10000 2.6 320 17:55 27.10.2019
5457 Clouds 8 1026 75 10000 2.6 320 17:36 27.10.2019
5458 Clouds 9 1026 70 10000 4.6 310 17:18 27.10.2019
5459 Clouds 9 1026 66 10000 4.6 300 16:55 27.10.2019
5460 Clouds 9 1026 66 10000 4.6 300 16:55 27.10.2019
5461 Clouds 9 1026 66 10000 4.6 300 16:37 27.10.2019
5462 Clouds 9 1026 66 10000 4.6 310 16:18 27.10.2019
5463 Clouds 10 1026 61 10000 4.6 310 15:54 27.10.2019
5464 Clouds 10 1026 61 10000 4.6 310 15:36 27.10.2019
5465 Clouds 10 1025 61 10000 5.7 310 15:18 27.10.2019
5466 Clouds 10 1025 66 10000 5.7 300 14:41 27.10.2019
5467 Clouds 9 1025 70 10000 5.7 290 14:19 27.10.2019
5468 Clouds 9 1025 70 10000 5.7 290 13:54 27.10.2019
5469 Clouds 9 1025 70 10000 5.7 290 13:36 27.10.2019
5470 Clouds 9 1025 76 10000 5.1 280 13:18 27.10.2019
5471 Clouds 8 1025 75 10000 5.1 280 12:42 27.10.2019
5472 Clouds 8 1025 81 10000 5.1 270 12:23 27.10.2019
5473 Clouds 7 1025 87 10000 5.1 270 11:43 27.10.2019
5474 Clouds 7 1025 81 10000 3.6 260 11:25 27.10.2019
5475 Clouds 7 1025 81 10000 3.6 260 11:25 27.10.2019
5476 Clouds 6 1024 86 10000 3.6 260 10:59 27.10.2019
5477 Clouds 6 1024 86 10000 3.6 260 10:59 27.10.2019
5478 Clouds 6 1024 86 10000 3.6 260 10:41 27.10.2019
5479 Clouds 4 1024 86 10000 3.6 260 10:22 27.10.2019
5480 Clouds 4 1024 93 10000 3.6 250 09:43 27.10.2019
5481 Clouds 3 1024 93 10000 3.6 260 09:19 27.10.2019
5482 Clouds 3 1024 93 10000 4.6 270 08:57 27.10.2019
5483 Clouds 3 1024 93 10000 4.6 270 08:38 27.10.2019
5484 Clear 3 1023 93 10000 4.1 260 08:19 27.10.2019
5485 Clear 3 1023 93 10000 4.1 260 07:47 27.10.2019
5486 Clear 3 1022 86 10000 6.2 260 07:27 27.10.2019
5487 Clear 3 1022 86 10000 4.6 260 06:55 27.10.2019
5488 Clear 3 1021 86 10000 4.6 250 06:29 27.10.2019
5489 Clear 3 1021 86 10000 4.6 250 06:29 27.10.2019
5490 Clear 3 1021 86 10000 4.1 250 05:57 27.10.2019
5491 Clear 3 1021 86 10000 4.1 250 05:57 27.10.2019
5492 Clear 3 1021 86 10000 4.1 250 05:35 27.10.2019
5493 Clear 4 1020 80 10000 5.1 240 03:35 27.10.2019
5494 Clear 4 1018 86 10000 5.1 250 02:29 27.10.2019
5495 Clear 4 1017 86 10000 5.1 250 01:27 27.10.2019
5496 Clear 3 1017 86 10000 5.1 250 00:53 27.10.2019
5497 Clear 3 1017 86 10000 5.1 250 00:34 27.10.2019
5498 Clear 4 1016 80 10000 4.6 240 23:58 26.10.2019
5499 Clear 4 1016 80 10000 4.6 240 23:40 26.10.2019
5500 Clear 4 1016 80 10000 4.6 240 23:21 26.10.2019
5501 Clear 3 1016 86 10000 4.1 250 22:57 26.10.2019
5502 Clear 4 1016 86 10000 4.1 250 22:38 26.10.2019
5503 Clouds 4 1015 80 10000 4.6 250 22:19 26.10.2019
5504 Clouds 4 1014 80 10000 4.6 250 21:55 26.10.2019
5505 Clouds 4 1014 80 10000 4.6 250 21:36 26.10.2019
5506 Clouds 4 1014 80 10000 4.1 250 21:18 26.10.2019
5507 Clouds 5 1014 75 10000 4.1 250 20:42 26.10.2019
5508 Clouds 5 1013 75 10000 3.6 250 20:19 26.10.2019
5509 Clouds 5 1012 75 10000 4.6 260 19:43 26.10.2019
5510 Clouds 6 1012 75 10000 6.2 280 19:21 26.10.2019
5511 Clouds 6 1011 70 10000 6.7 270 18:58 26.10.2019
5512 Clouds 7 1011 70 10000 6.7 270 18:39 26.10.2019
5513 Clouds 7 1011 66 10000 6.7 280 18:20 26.10.2019
5514 Clouds 7 1010 66 10000 8.2 280 17:57 26.10.2019
5515 Clouds 8 1010 66 10000 8.2 280 17:38 26.10.2019
5516 Clouds 8 1010 61 10000 7.7 280 17:20 26.10.2019
5517 Clouds 8 1010 61 10000 8.2 280 16:46 26.10.2019
5518 Clouds 8 1010 65 10000 7.7 280 16:25 26.10.2019
5519 Clouds 9 1009 66 10000 7.2 290 15:59 26.10.2019
5520 Clouds 9 1009 66 10000 7.2 290 15:39 26.10.2019
5521 Clouds 8 1009 65 10000 6.2 290 15:18 26.10.2019
5522 Clouds 8 1009 65 10000 6.7 280 14:39 26.10.2019
5523 Clouds 8 1009 70 10000 6.2 300 14:19 26.10.2019
5524 Clouds 7 1009 68 0 4.64 293 13:56 26.10.2019
5525 Clouds 7 1009 68 0 4.64 293 13:56 26.10.2019
5526 Clouds 7 1009 68 0 4.64 293 13:36 26.10.2019
5527 Clouds 6 1008 87 10000 4.1 290 13:18 26.10.2019
5528 Clouds 4 1010 100 0 4.02 290 12:42 26.10.2019
5529 Clouds 4 1007 100 10000 4.1 290 12:19 26.10.2019
5530 Clouds 4 1007 100 10000 4.1 290 11:47 26.10.2019
5531 Clouds 4 1007 100 10000 4.1 290 11:25 26.10.2019
5532 Clouds 5 1007 100 10000 3.6 290 10:47 26.10.2019
5533 Clouds 5 1007 100 10000 3.6 290 10:47 26.10.2019
5534 Clouds 4 1007 100 10000 3.6 280 10:26 26.10.2019
5535 Clouds 4 1007 100 8000 4.1 280 09:49 26.10.2019
5536 Clouds 5 1006 100 8000 3.1 280 09:30 26.10.2019
5537 Clouds 5 1006 93 10000 3.1 270 08:55 26.10.2019
5538 Clouds 5 1006 93 10000 3.1 270 08:36 26.10.2019
5539 Rain 5 1006 100 10000 1.5 260 08:18 26.10.2019
5540 Rain 5 1006 100 10000 1 0 07:42 26.10.2019
5541 Rain 5 1006 100 10000 1 0 07:22 26.10.2019
5542 Rain 5 1006 93 10000 1 0 06:40 26.10.2019
5543 Rain 5 1007 93 10000 2.1 260 05:56 26.10.2019
5544 Rain 4 1006 100 10000 2.6 260 05:19 26.10.2019
5545 Clouds 4 1006 100 10000 2.1 270 03:53 26.10.2019
5546 Clouds 4 1006 100 10000 2.6 270 02:33 26.10.2019
5547 Clouds 4 1006 100 10000 3.6 280 01:47 26.10.2019
5548 Clouds 4 1006 100 10000 2.6 280 00:52 26.10.2019
5549 Clouds 5 1006 93 10000 2.1 310 23:56 25.10.2019
5550 Clouds 5 1006 93 10000 2.1 310 23:37 25.10.2019
5551 Clouds 5 1005 93 10000 2.6 310 23:18 25.10.2019
5552 Clouds 5 1005 93 10000 2.6 300 22:39 25.10.2019
5553 Clouds 5 1005 93 10000 3.1 310 22:21 25.10.2019
5554 Rain 5 1005 100 10000 3.1 320 21:55 25.10.2019
5555 Rain 5 1005 100 10000 3.1 320 21:37 25.10.2019
5556 Rain 5 1005 100 10000 4.1 310 21:19 25.10.2019
5557 Rain 5 1004 100 10000 4.1 320 20:43 25.10.2019
5558 Rain 5 1004 100 10000 4.6 320 20:19 25.10.2019
5559 Rain 5 1004 100 10000 4.1 320 19:47 25.10.2019
5560 Rain 5 1004 100 10000 4.1 320 19:47 25.10.2019
5561 Rain 6 1004 93 10000 4.6 320 19:29 25.10.2019
5562 Rain 6 1003 93 10000 4.6 330 18:56 25.10.2019
5563 Rain 6 1003 100 10000 4.1 340 18:37 25.10.2019
5564 Rain 6 1003 100 10000 4.1 340 18:19 25.10.2019
5565 Rain 6 1003 100 9000 3.6 340 17:39 25.10.2019
5566 Rain 6 1004 93 9000 4.1 340 17:20 25.10.2019
5567 Rain 7 1003 93 9000 4.1 350 16:46 25.10.2019
5568 Rain 7 1004 93 9000 4.1 350 16:23 25.10.2019
5569 Rain 7 1004 93 9000 4.1 360 15:57 25.10.2019
5570 Rain 6 1004 93 9000 4.1 360 15:38 25.10.2019
5571 Rain 6 1004 100 9000 4.1 10 15:20 25.10.2019
5572 Rain 6 1004 100 9000 4.1 10 15:20 25.10.2019
5573 Rain 6 1004 100 9000 4.1 10 15:20 25.10.2019
5574 Rain 6 1004 100 9000 3.6 20 14:42 25.10.2019
5575 Rain 6 1005 100 9000 3.1 30 14:23 25.10.2019
5576 Rain 6 1005 100 9000 3.1 30 13:59 25.10.2019
5577 Rain 6 1006 100 8000 2.6 60 13:39 25.10.2019
5578 Rain 6 1007 87 10000 1.23 50 13:21 25.10.2019
5579 Rain 6 1007 100 10000 0.5 360 12:43 25.10.2019
5580 Rain 6 1007 100 10000 1 0 12:22 25.10.2019
5581 Rain 6 1008 100 9000 2.6 180 11:58 25.10.2019
5582 Rain 6 1008 100 9000 2.6 180 11:38 25.10.2019
5583 Rain 6 1008 93 9000 3.1 190 11:19 25.10.2019
5584 Rain 6 1008 93 10000 2.6 160 10:41 25.10.2019
5585 Rain 5 1009 93 10000 1.5 140 10:23 25.10.2019
5586 Rain 4 1009 100 10000 1.5 0 09:58 25.10.2019
5587 Clouds 4 1009 100 10000 1.5 0 09:38 25.10.2019
5588 Clouds 4 1009 100 10000 1 120 09:19 25.10.2019
5589 Clouds 3 1008 100 10000 1 0 08:50 25.10.2019
5590 Clouds 3 1008 100 10000 1 0 08:32 25.10.2019
5591 Clouds 3 1009 93 10000 0.5 300 07:56 25.10.2019
5592 Clouds 3 1009 93 10000 0.5 300 07:34 25.10.2019
5593 Clouds 2 1009 100 10000 1.5 270 06:42 25.10.2019
5594 Clouds 2 1009 93 10000 1 0 05:57 25.10.2019
5595 Clouds 2 1009 93 10000 1 0 05:37 25.10.2019
5596 Clouds 2 1009 100 10000 2.6 280 04:52 25.10.2019
5597 Rain 2 1009 93 10000 1.5 0 03:39 25.10.2019
5598 Clouds 3 1009 100 10000 4.1 290 01:54 25.10.2019
5599 Clouds 4 1008 93 10000 3.1 270 01:27 25.10.2019
5600 Clouds 4 1008 100 10000 3.6 270 00:21 25.10.2019
5601 Clouds 5 1007 100 10000 4.1 280 23:41 24.10.2019
5602 Clouds 4 1007 93 10000 3.6 270 23:22 24.10.2019
5603 Clouds 5 1007 93 10000 3.6 270 22:56 24.10.2019
5604 Clouds 5 1007 93 10000 3.6 270 22:37 24.10.2019
5605 Clouds 5 1006 93 10000 3.6 260 22:18 24.10.2019
5606 Clouds 6 1006 93 10000 4.1 270 21:56 24.10.2019
5607 Clouds 6 1006 93 10000 4.1 270 21:37 24.10.2019
5608 Clouds 6 1006 93 10000 4.1 270 21:37 24.10.2019
5609 Clouds 7 1005 93 10000 4.1 270 21:19 24.10.2019
5610 Clouds 7 1005 93 10000 3.6 290 20:56 24.10.2019
5611 Clouds 7 1005 93 10000 3.6 290 20:38 24.10.2019
5612 Clouds 8 1005 87 10000 4.1 290 20:19 24.10.2019
5613 Rain 8 1004 87 10000 5.1 270 19:44 24.10.2019
5614 Clouds 9 1004 87 10000 2.1 260 19:23 24.10.2019
5615 Rain 9 1003 87 10000 2.6 240 18:58 24.10.2019
5616 Rain 9 1003 87 10000 2.6 240 18:40 24.10.2019
5617 Rain 9 1003 87 10000 4.6 270 18:21 24.10.2019
5618 Rain 10 1003 87 10000 8.2 280 17:57 24.10.2019
5619 Clouds 11 1002 76 10000 7.7 270 17:38 24.10.2019
5620 Clouds 11 1002 76 10000 7.7 270 17:19 24.10.2019
5621 Clouds 12 1002 62 10000 5.1 250 16:54 24.10.2019
5622 Clouds 12 1002 62 10000 5.1 250 16:36 24.10.2019
5623 Clouds 12 1002 66 10000 4.1 250 16:18 24.10.2019
5624 Clouds 12 1002 66 10000 4.1 250 16:18 24.10.2019
5625 -273 0 0 0 0 0 15:54 24.10.2019
5626 Clouds 12 1002 71 10000 4.1 260 15:36 24.10.2019
5627 Clouds 12 1002 71 10000 4.6 250 15:18 24.10.2019
5628 Clouds 12 1002 76 10000 4.6 230 14:42 24.10.2019
5629 Clouds 12 1002 76 10000 5.1 250 14:23 24.10.2019
5630 Clouds 12 1002 81 10000 5.1 240 13:57 24.10.2019
5631 Clouds 12 1002 81 10000 5.1 250 13:37 24.10.2019
5632 Clouds 12 1002 81 10000 5.1 250 13:18 24.10.2019
5633 Clouds 11 1002 81 10000 5.1 250 12:55 24.10.2019
5634 Clouds 11 1002 81 10000 5.1 250 12:37 24.10.2019
5635 Clouds 11 1002 87 10000 4.6 250 12:18 24.10.2019
5636 Clouds 10 1002 81 10000 5.1 250 11:54 24.10.2019
5637 Clouds 10 1002 81 10000 5.1 250 11:36 24.10.2019
5638 Clouds 9 1001 87 10000 5.1 250 11:18 24.10.2019
5639 Clouds 9 1001 87 10000 5.1 250 10:41 24.10.2019
5640 Clouds 8 1001 87 10000 4.6 250 10:23 24.10.2019
5641 Clouds 8 1001 93 10000 4.1 250 09:39 24.10.2019
5642 Clouds 8 1001 93 10000 3.1 230 09:19 24.10.2019
5643 Clouds 8 1001 93 10000 2.6 220 08:57 24.10.2019
5644 Clouds 8 1001 93 10000 2.6 200 08:38 24.10.2019
5645 Clouds 8 1001 93 10000 2.6 200 08:19 24.10.2019
5646 Clouds 8 1001 93 10000 2.6 200 08:19 24.10.2019
5647 Clouds 8 1001 93 10000 2.1 200 07:46 24.10.2019
5648 Clouds 8 1001 93 10000 2.6 190 07:23 24.10.2019
5649 Clouds 8 1001 93 10000 2.6 240 06:50 24.10.2019
5650 Clouds 9 1001 93 10000 2.6 240 06:32 24.10.2019
5651 Clouds 9 1001 93 10000 2.6 230 05:53 24.10.2019
5652 Clouds 9 1001 93 10000 2.6 230 05:30 24.10.2019
5653 Clouds 9 1001 93 10000 3.1 240 03:51 24.10.2019
5654 Clouds 10 1001 93 10000 2.6 230 03:26 24.10.2019
5655 Clouds 10 1001 93 10000 2.1 200 02:29 24.10.2019
5656 Clouds 11 1001 93 10000 2.6 240 01:57 24.10.2019
5657 Clouds 11 1001 93 10000 2.6 240 01:30 24.10.2019
5658 Clouds 12 1002 93 10000 3.1 220 00:51 24.10.2019
5659 Rain 12 1001 93 10000 5.1 210 00:23 24.10.2019
5660 Clouds 12 1001 82 10000 5.7 210 23:44 23.10.2019
5661 Clouds 12 1002 82 10000 6.7 200 23:24 23.10.2019
5662 Clouds 12 1002 76 10000 6.2 200 22:58 23.10.2019
5663 Clouds 12 1002 76 10000 6.2 200 22:39 23.10.2019
5664 Clouds 12 1002 81 10000 5.1 190 22:19 23.10.2019
5665 Rain 12 1002 81 10000 6.2 200 21:58 23.10.2019
5666 Rain 12 1002 81 10000 6.2 200 21:39 23.10.2019
5667 Rain 12 1002 76 10000 6.2 200 21:20 23.10.2019
5668 Rain 12 1002 76 10000 5.1 190 20:58 23.10.2019
5669 Rain 12 1002 76 10000 5.1 190 20:39 23.10.2019
5670 Rain 11 1003 76 10000 6.2 190 20:21 23.10.2019
5671 Rain 11 1003 76 10000 4.1 190 19:58 23.10.2019
5672 Rain 11 1003 76 10000 4.1 190 19:40 23.10.2019
5673 Rain 12 1003 71 10000 4.1 170 19:19 23.10.2019
5674 Rain 12 1004 71 10000 4.6 180 18:56 23.10.2019
5675 Rain 12 1004 71 10000 4.6 180 18:38 23.10.2019
5676 Rain 12 1004 66 10000 4.6 170 18:18 23.10.2019
5677 Rain 12 1004 66 10000 4.6 170 18:18 23.10.2019
5678 Clouds 12 1004 66 10000 6.7 190 17:45 23.10.2019
5679 Clouds 12 1005 62 10000 4.6 190 17:20 23.10.2019
5680 Clouds 12 1005 62 10000 4.6 170 16:58 23.10.2019
5681 Clouds 13 1005 62 10000 4.6 170 16:39 23.10.2019
5682 Clouds 13 1005 66 10000 5.7 170 16:20 23.10.2019
5683 Clouds 12 1006 66 10000 5.7 160 15:42 23.10.2019
5684 Clouds 12 1006 66 10000 5.7 160 15:42 23.10.2019
5685 Clouds 13 1006 66 10000 5.1 180 15:23 23.10.2019
5686 Clouds 13 1006 66 10000 6.2 180 14:58 23.10.2019
5687 Clouds 13 1006 66 10000 6.2 180 14:39 23.10.2019
5688 Clouds 13 1007 66 10000 6.2 190 14:20 23.10.2019
5689 Clouds 12 1007 71 10000 6.2 190 13:59 23.10.2019
5690 Clouds 12 1007 71 10000 6.2 190 13:40 23.10.2019
5691 Clouds 12 1008 66 10000 5.1 190 13:22 23.10.2019
5692 Clouds 12 1009 71 10000 6.2 190 12:56 23.10.2019
5693 Clouds 12 1009 71 10000 6.2 190 12:37 23.10.2019
5694 Clouds 12 1009 71 10000 3.6 170 12:18 23.10.2019
5695 Clouds 12 1010 71 10000 4.6 160 11:56 23.10.2019
5696 Clouds 11 1010 71 10000 4.6 160 11:37 23.10.2019
5697 Clouds 11 1010 76 10000 6.7 150 11:19 23.10.2019
5698 Clouds 11 1010 76 10000 7.2 180 10:45 23.10.2019
5699 Clouds 11 1011 76 10000 6.7 180 10:25 23.10.2019
5700 Clouds 11 1011 76 10000 5.7 180 09:55 23.10.2019
5701 Clouds 11 1011 76 10000 5.7 180 09:36 23.10.2019
5702 Clouds 10 1011 71 10000 5.1 180 09:18 23.10.2019
5703 Clouds 10 1011 71 10000 2.6 150 08:41 23.10.2019
5704 Clouds 11 1011 76 10000 2.6 140 08:23 23.10.2019
5705 Clouds 10 1012 76 10000 4.1 190 07:46 23.10.2019
5706 Clouds 11 1012 76 10000 4.1 180 07:22 23.10.2019
5707 Clouds 11 1012 81 10000 4.6 190 06:47 23.10.2019
5708 Clouds 11 1012 81 10000 3.1 190 06:22 23.10.2019
5709 Clouds 11 1013 81 10000 3.6 200 05:45 23.10.2019
5710 Clouds 11 1014 81 10000 2.6 160 04:41 23.10.2019
5711 Clouds 11 1014 81 10000 3.1 190 03:35 23.10.2019
5712 Clouds 10 1015 81 10000 3.1 200 02:40 23.10.2019
5713 Clouds 10 1016 81 10000 4.1 200 01:28 23.10.2019
5714 Clouds 10 1016 76 10000 4.1 210 00:48 23.10.2019
5715 Clouds 10 1017 76 10000 4.1 200 00:28 23.10.2019
5716 Clouds 10 1017 76 10000 3.6 200 23:39 22.10.2019
5717 Clouds 10 1017 76 10000 4.1 200 23:18 22.10.2019
5718 Clouds 10 1017 76 10000 3.6 200 22:56 22.10.2019
5719 Clouds 10 1017 76 10000 3.6 200 22:37 22.10.2019
5720 Clouds 10 1017 76 10000 4.1 200 22:19 22.10.2019
5721 Clouds 10 1017 76 10000 3.1 190 21:56 22.10.2019
5722 Clouds 10 1018 76 10000 3.1 200 21:36 22.10.2019
5723 Clouds 10 1018 76 10000 3.1 200 21:18 22.10.2019
5724 Clouds 10 1018 76 10000 3.1 200 21:18 22.10.2019
5725 Clouds 10 1018 76 10000 3.6 210 20:55 22.10.2019
5726 Clouds 10 1018 76 10000 3.6 210 20:37 22.10.2019
5727 Clouds 10 1018 76 10000 3.6 210 20:37 22.10.2019
5728 Clouds 10 1018 76 10000 2.6 210 20:18 22.10.2019
5729 Clouds 10 1018 76 10000 3.6 210 19:43 22.10.2019
5730 Clouds 10 1018 76 10000 3.6 210 19:24 22.10.2019
5731 Clouds 10 1018 76 10000 4.6 220 18:57 22.10.2019
5732 Clouds 10 1018 76 10000 4.6 220 18:39 22.10.2019
5733 Clouds 10 1018 76 10000 5.1 210 18:21 22.10.2019
5734 Clouds 10 1018 76 10000 5.1 210 18:21 22.10.2019
5735 Clouds 11 1018 71 10000 4.6 210 17:56 22.10.2019
5736 Clouds 11 1018 71 10000 4.6 210 17:56 22.10.2019
5737 Clouds 11 1018 71 10000 4.6 210 17:38 22.10.2019
5738 Clouds 11 1019 71 10000 4.6 220 17:19 22.10.2019
5739 Clouds 11 1019 71 10000 4.6 220 16:57 22.10.2019
5740 Clouds 11 1019 71 10000 4.6 220 16:37 22.10.2019
5741 Clouds 11 1019 71 10000 4.6 210 16:18 22.10.2019
5742 Clouds 10 1019 76 10000 4.6 220 15:43 22.10.2019
5743 Clouds 10 1019 76 10000 4.6 220 15:21 22.10.2019
5744 Clouds 10 1020 76 10000 4.1 220 14:57 22.10.2019
5745 Clouds 10 1020 76 10000 4.1 220 14:39 22.10.2019
5746 Clouds 10 1020 71 10000 4.1 220 14:18 22.10.2019
5747 Clouds 10 1020 71 10000 4.1 230 13:41 22.10.2019
5748 Clouds 10 1021 71 10000 3.6 230 13:20 22.10.2019
5749 Clouds 9 1021 76 10000 3.6 230 12:57 22.10.2019
5750 Clouds 9 1021 76 10000 3.6 230 12:38 22.10.2019
5751 Clouds 9 1021 76 10000 3.6 230 12:20 22.10.2019
5752 Clouds 8 1021 81 10000 2.6 230 11:41 22.10.2019
5753 Clouds 8 1021 75 10000 2.6 220 11:22 22.10.2019
5754 Clouds 7 1021 75 10000 2.6 230 10:59 22.10.2019
5755 Clouds 7 1021 75 10000 2.6 230 10:38 22.10.2019
5756 Clouds 7 1021 75 10000 3.1 220 10:19 22.10.2019
5757 Clouds 7 1021 75 10000 3.1 210 09:59 22.10.2019
5758 Clouds 7 1021 75 10000 3.1 210 09:41 22.10.2019
5759 Clouds 7 1021 81 10000 2.6 220 09:21 22.10.2019
5760 Clouds 7 1021 81 10000 2.6 230 08:55 22.10.2019
5761 Clouds 7 1021 81 10000 2.6 230 08:37 22.10.2019
5762 Clouds 6 1021 81 10000 3.1 230 08:18 22.10.2019
5763 Clouds 6 1021 87 10000 2.1 200 07:42 22.10.2019
5764 Clouds 6 1021 87 10000 2.6 210 07:24 22.10.2019
5765 Clouds 6 1021 87 10000 1.5 0 06:40 22.10.2019
5766 Clouds 6 1021 87 10000 1 0 06:21 22.10.2019
5767 Clouds 6 1021 87 10000 1 0 05:34 22.10.2019
5768 Clouds 5 1022 81 10000 3.1 230 04:22 22.10.2019
5769 Clouds 4 1023 86 10000 2.1 240 02:30 22.10.2019
5770 Clouds 4 1023 81 10000 1.5 0 01:38 22.10.2019
5771 Clouds 3 1023 86 10000 1.5 230 01:18 22.10.2019
5772 Clouds 4 1023 81 10000 1 240 00:42 22.10.2019
5773 Clouds 4 1023 81 10000 1.5 0 00:24 22.10.2019
5774 Clouds 4 1023 81 10000 2.1 200 23:59 21.10.2019
5775 Clouds 4 1023 81 10000 2.1 200 23:38 21.10.2019
5776 Clouds 4 1023 81 10000 2.1 210 23:19 21.10.2019
5777 Clouds 4 1023 86 10000 2.1 210 22:58 21.10.2019
5778 Clouds 4 1023 86 10000 2.1 210 22:39 21.10.2019
5779 Clouds 4 1023 86 10000 2.1 250 22:20 21.10.2019
5780 Clouds 4 1023 86 10000 2.1 250 22:20 21.10.2019
5781 Clouds 4 1024 80 10000 2.1 250 21:56 21.10.2019
5782 Clouds 5 1024 80 10000 2.1 250 21:38 21.10.2019
5783 Clouds 5 1024 86 10000 3.1 270 21:19 21.10.2019
5784 Clouds 5 1024 86 10000 3.6 280 20:57 21.10.2019
5785 Clouds 5 1024 86 10000 3.6 280 20:57 21.10.2019
5786 Clouds 5 1024 86 10000 3.6 280 20:38 21.10.2019
5787 Clouds 5 1024 86 10000 3.6 280 20:38 21.10.2019
5788 Clouds 6 1023 86 10000 3.1 280 20:19 21.10.2019
5789 Clouds 6 1023 87 10000 3.1 280 19:55 21.10.2019
5790 Clouds 6 1023 87 10000 3.1 280 19:55 21.10.2019
5791 Clouds 7 1023 87 10000 3.1 280 19:36 21.10.2019
5792 Clouds 8 1023 75 10000 3.1 280 19:18 21.10.2019
5793 Clouds 9 1023 70 10000 3.1 280 18:54 21.10.2019
5794 Clouds 10 1023 70 10000 3.1 280 18:36 21.10.2019
5795 Clouds 10 1023 70 10000 3.1 280 18:36 21.10.2019
5796 Clouds 10 1023 62 10000 3.1 270 18:18 21.10.2019
5797 Clouds 10 1023 62 10000 3.1 270 18:18 21.10.2019
5798 Clouds 11 1023 66 10000 2.6 290 17:39 21.10.2019
5799 Clouds 11 1023 66 10000 2.1 330 17:19 21.10.2019
5800 Clouds 11 1024 62 10000 1.5 0 16:58 21.10.2019
5801 Clouds 11 1024 62 10000 1.5 0 16:40 21.10.2019
5802 Clouds 11 1024 71 10000 0.5 360 16:21 21.10.2019
5803 Clouds 11 1024 66 10000 2.1 300 15:57 21.10.2019
5804 Clouds 11 1024 66 10000 2.1 300 15:38 21.10.2019
5805 Clouds 10 1024 76 10000 1.5 0 15:18 21.10.2019
5806 Clouds 10 1024 66 10000 2.6 290 14:40 21.10.2019
5807 Clouds 10 1024 71 10000 2.6 350 14:21 21.10.2019
5808 Clouds 10 1025 76 10000 2.1 310 13:59 21.10.2019
5809 Clouds 9 1025 76 10000 2.1 310 13:40 21.10.2019
5810 Clouds 9 1025 76 10000 2.6 310 13:20 21.10.2019
5811 Clouds 9 1025 81 10000 2.6 290 12:57 21.10.2019
5812 Clouds 8 1025 81 10000 2.6 290 12:39 21.10.2019
5813 Clouds 7 1025 87 10000 1 0 12:20 21.10.2019
5814 Clouds 7 1025 87 10000 1 0 12:20 21.10.2019
5815 Clouds 6 1024 86 10000 2.6 260 11:42 21.10.2019
5816 Clouds 5 1025 86 10000 2.1 200 11:23 21.10.2019
5817 Clouds 4 1024 93 10000 4.1 290 10:58 21.10.2019
5818 Clouds 4 1024 93 10000 4.1 290 10:40 21.10.2019
5819 Clouds 3 1024 93 10000 3.1 280 10:20 21.10.2019
5820 Clouds 3 1024 100 10000 4.1 290 09:58 21.10.2019
5821 Clouds 3 1024 100 10000 4.1 290 09:39 21.10.2019
5822 Clouds 3 1024 92 10000 3.1 310 09:21 21.10.2019
5823 Clouds 3 1024 100 10000 3.1 320 08:41 21.10.2019
5824 Clouds 3 1024 93 10000 3.1 320 08:22 21.10.2019
5825 Clouds 3 1023 93 10000 3.1 310 07:45 21.10.2019
5826 Clouds 3 1023 93 10000 3.1 310 07:23 21.10.2019
5827 Clouds 3 1023 93 10000 3.1 320 06:59 21.10.2019
5828 Clouds 3 1023 93 10000 3.1 320 06:41 21.10.2019
5829 Clouds 4 1023 93 10000 3.6 310 06:18 21.10.2019
5830 Clouds 5 1023 86 10000 3.1 310 05:21 21.10.2019
5831 Clouds 6 1023 86 10000 3.6 320 03:40 21.10.2019
5832 Clouds 5 1023 86 10000 3.6 330 02:39 21.10.2019
5833 Clouds 6 1023 87 10000 4.1 330 02:19 21.10.2019
5834 Clouds 6 1022 87 10000 3.1 340 01:44 21.10.2019
5835 Clouds 6 1022 81 10000 4.6 310 00:54 21.10.2019
5836 Clouds 6 1022 87 10000 3.6 310 00:28 21.10.2019
5837 Clouds 6 1022 87 10000 3.6 310 00:28 21.10.2019
5838 Clouds 6 1021 81 10000 4.6 330 23:58 20.10.2019
5839 Clouds 7 1021 81 10000 4.6 330 23:39 20.10.2019
5840 Clouds 7 1021 81 10000 4.6 330 23:21 20.10.2019
5841 Clouds 6 1021 87 10000 3.6 320 22:42 20.10.2019
5842 Clouds 6 1021 86 10000 3.6 320 22:24 20.10.2019
5843 Clouds 7 1021 86 10000 3.6 320 21:59 20.10.2019
5844 Clouds 7 1021 75 10000 3.1 340 21:39 20.10.2019
5845 Clouds 8 1021 75 10000 4.1 340 21:21 20.10.2019
5846 Clouds 8 1021 75 10000 3.1 350 20:55 20.10.2019
5847 Clouds 8 1021 75 10000 3.1 350 20:37 20.10.2019
5848 Clouds 8 1020 75 10000 4.1 350 20:18 20.10.2019
5849 Clouds 9 1020 70 10000 4.1 350 19:55 20.10.2019
5850 Clouds 9 1020 70 10000 4.1 350 19:36 20.10.2019
5851 Clouds 9 1019 66 10000 4.1 350 19:18 20.10.2019
5852 Clouds 10 1019 66 10000 5.7 360 18:40 20.10.2019
5853 Rain 10 1019 66 10000 4.1 350 18:20 20.10.2019
5854 Rain 10 1018 66 10000 5.1 350 17:56 20.10.2019
5855 Rain 10 1018 66 10000 5.1 350 17:56 20.10.2019
5856 Rain 10 1018 66 10000 5.1 350 17:38 20.10.2019
5857 Clouds 10 1018 66 10000 5.7 350 17:19 20.10.2019
5858 Clouds 10 1018 66 10000 4.6 350 16:43 20.10.2019
5859 Rain 10 1018 66 10000 5.7 360 16:24 20.10.2019
5860 Rain 10 1017 71 10000 6.2 10 15:59 20.10.2019
5861 Rain 10 1017 71 10000 6.2 10 15:39 20.10.2019
5862 Rain 10 1017 66 10000 7.7 350 15:20 20.10.2019
5863 Clouds 10 1017 71 10000 7.7 360 14:58 20.10.2019
5864 Clouds 10 1017 71 10000 7.7 360 14:38 20.10.2019
5865 Clouds 10 1017 71 10000 7.7 360 14:38 20.10.2019
5866 Clouds 10 1017 71 10000 6.7 360 14:19 20.10.2019
5867 Clouds 10 1017 71 10000 6.2 360 13:56 20.10.2019
5868 Clouds 10 1017 71 10000 6.2 360 13:37 20.10.2019
5869 Clouds 9 1016 76 10000 7.2 350 13:18 20.10.2019
5870 Clouds 9 1016 76 10000 7.2 350 12:56 20.10.2019
5871 Clouds 9 1016 76 10000 7.2 350 12:38 20.10.2019
5872 Clouds 9 1016 76 10000 6.2 330 12:20 20.10.2019
5873 Clouds 8 1016 87 10000 5.7 320 11:57 20.10.2019
5874 Clouds 8 1016 87 10000 5.7 320 11:38 20.10.2019
5875 Clouds 8 1015 87 10000 6.2 330 11:20 20.10.2019
5876 Clouds 6 1015 100 10000 4.6 320 10:41 20.10.2019
5877 Clouds 6 1015 100 10000 4.6 320 10:41 20.10.2019
5878 Clouds 6 1015 93 10000 4.1 320 10:22 20.10.2019
5879 Fog 5 1014 100 10000 4.6 310 09:59 20.10.2019
5880 Fog 5 1014 100 10000 4.6 310 09:41 20.10.2019
5881 Rain 6 1014 93 10000 5.7 320 09:21 20.10.2019
5882 Rain 5 1013 100 10000 4.1 320 08:49 20.10.2019
5883 Clear 6 1013 100 10000 4.1 310 08:24 20.10.2019
5884 Clear 6 1013 93 10000 4.6 310 07:51 20.10.2019
5885 Clear 6 1013 93 10000 4.6 310 07:31 20.10.2019
5886 Clear 6 1012 100 10000 4.6 320 06:59 20.10.2019
5887 Clear 7 1012 93 10000 4.6 310 06:21 20.10.2019
5888 Clear 6 1010 93 10000 4.1 310 04:28 20.10.2019
5889 Clouds 7 1010 93 10000 5.1 320 03:47 20.10.2019
5890 Clouds 6 1010 100 10000 5.1 320 03:20 20.10.2019
5891 Clouds 5 1010 100 10000 3.6 300 02:43 20.10.2019
5892 Clear 5 1009 100 10000 4.1 300 01:58 20.10.2019
5893 Clear 6 1009 93 10000 4.6 300 01:24 20.10.2019
5894 Clear 5 1009 93 10000 4.6 300 00:57 20.10.2019
5895 Clear 6 1009 93 10000 4.6 300 00:39 20.10.2019
5896 Clear 6 1008 87 10000 4.1 300 00:19 20.10.2019
5897 Clear 5 1008 93 10000 3.6 290 23:42 19.10.2019
5898 Clear 6 1008 93 10000 4.6 290 23:22 19.10.2019
5899 Clouds 6 1007 93 10000 4.6 290 22:56 19.10.2019
5900 Clouds 6 1007 93 10000 4.6 290 22:38 19.10.2019
5901 Clouds 7 1007 87 10000 4.1 320 22:20 19.10.2019
5902 Clouds 7 1007 87 10000 4.6 310 21:46 19.10.2019
5903 Clouds 8 1006 87 10000 5.1 320 21:23 19.10.2019
5904 Clouds 8 1006 87 10000 4.1 300 20:46 19.10.2019
5905 Clouds 9 1006 87 10000 4.6 330 20:23 19.10.2019
5906 Clouds 9 1006 87 10000 4.6 330 20:23 19.10.2019
5907 Clouds 9 1005 81 10000 4.1 330 19:59 19.10.2019
5908 Clouds 9 1005 81 10000 4.1 330 19:39 19.10.2019
5909 Clouds 9 1005 81 10000 4.1 330 19:39 19.10.2019
5910 Clouds 10 1005 76 10000 4.1 340 19:21 19.10.2019
5911 Clouds 10 1004 81 10000 4.1 350 18:42 19.10.2019
5912 Clouds 10 1004 76 10000 3.6 340 18:24 19.10.2019
5913 Clouds 10 1003 76 10000 4.1 360 17:57 19.10.2019
5914 Clouds 10 1003 76 10000 4.1 360 17:37 19.10.2019
5915 Clouds 10 1003 76 10000 5.7 10 17:19 19.10.2019
5916 Clouds 11 1003 71 10000 5.7 20 16:39 19.10.2019
5917 Rain 11 1002 87 10000 5.7 360 16:20 19.10.2019
5918 Rain 11 1002 93 10000 4.6 340 15:45 19.10.2019
5919 Rain 10 1002 93 10000 4.6 340 15:26 19.10.2019
5920 Rain 10 1002 93 10000 4.1 330 14:56 19.10.2019
5921 Rain 10 1002 93 10000 4.1 330 14:38 19.10.2019
5922 Rain 10 1001 93 10000 5.1 340 14:19 19.10.2019
5923 Rain 10 1001 87 10000 6.2 350 13:54 19.10.2019
5924 Rain 10 1001 87 10000 6.2 350 13:36 19.10.2019
5925 Rain 9 1001 87 10000 5.7 320 13:18 19.10.2019
5926 Rain 9 1000 93 10000 5.1 310 12:39 19.10.2019
5927 Rain 8 1000 93 8000 5.7 310 12:21 19.10.2019
5928 Rain 8 1000 100 10000 4.6 300 11:56 19.10.2019
5929 Rain 8 1000 100 10000 4.6 300 11:37 19.10.2019
5930 Rain 8 1000 93 8000 5.1 290 11:18 19.10.2019
5931 Clouds 7 999 93 10000 5.1 280 10:41 19.10.2019
5932 Clouds 7 999 93 10000 5.7 280 10:23 19.10.2019
5933 Clouds 7 999 93 10000 5.7 280 09:58 19.10.2019
5934 Clouds 7 998 93 10000 5.7 270 09:39 19.10.2019
5935 Clouds 7 998 93 10000 5.1 270 09:21 19.10.2019
5936 Clouds 7 998 93 10000 6.2 280 08:41 19.10.2019
5937 Clouds 7 998 93 10000 5.7 280 08:22 19.10.2019
5938 Clouds 7 997 93 10000 5.1 280 07:46 19.10.2019
5939 Clouds 7 997 93 10000 5.1 280 07:26 19.10.2019
5940 Clouds 7 997 93 10000 5.1 280 06:52 19.10.2019
5941 Clouds 7 997 93 10000 5.1 280 06:32 19.10.2019
5942 Clouds 7 997 93 10000 5.1 290 05:35 19.10.2019
5943 Clouds 7 997 93 10000 5.1 290 04:26 19.10.2019
5944 Clouds 7 996 93 10000 5.1 290 02:56 19.10.2019
5945 Clouds 8 996 93 10000 5.7 290 01:56 19.10.2019
5946 Clouds 8 996 93 10000 5.7 290 01:37 19.10.2019
5947 Clouds 8 995 93 10000 5.1 310 00:51 19.10.2019
5948 Clouds 8 995 93 10000 5.7 310 00:28 19.10.2019
5949 Rain 8 995 93 10000 5.1 310 23:56 18.10.2019
5950 Rain 8 995 93 10000 5.1 310 23:56 18.10.2019
5951 Rain 8 995 93 10000 5.1 310 23:38 18.10.2019
5952 Rain 8 994 100 10000 4.6 300 23:19 18.10.2019
5953 Rain 8 994 100 7000 4.1 300 22:54 18.10.2019
5954 Rain 8 994 100 7000 4.1 300 22:36 18.10.2019
5955 Rain 8 994 93 10000 4.6 300 22:18 18.10.2019
5956 Rain 8 994 93 10000 4.6 290 21:54 18.10.2019
5957 Rain 8 994 93 10000 4.6 290 21:36 18.10.2019
5958 Rain 8 993 100 10000 5.1 280 21:18 18.10.2019
5959 Rain 9 993 87 10000 4.6 280 20:41 18.10.2019
5960 Rain 9 993 93 10000 4.6 290 20:22 18.10.2019
5961 Rain 9 992 81 10000 4.1 300 19:58 18.10.2019
5962 Rain 9 992 81 10000 4.1 300 19:40 18.10.2019
5963 Rain 9 992 81 10000 4.1 300 19:40 18.10.2019
5964 Rain 10 992 87 10000 4.1 330 19:21 18.10.2019
5965 Rain 10 992 87 10000 4.6 330 18:58 18.10.2019
5966 Rain 10 992 87 10000 4.6 330 18:40 18.10.2019
5967 Clouds 10 991 87 10000 5.1 350 18:21 18.10.2019
5968 Rain 10 991 87 10000 5.1 360 17:40 18.10.2019
5969 Rain 10 991 81 10000 5.7 10 17:21 18.10.2019
5970 Rain 10 991 81 10000 5.7 10 16:59 18.10.2019
5971 Clouds 11 991 81 10000 5.1 20 16:38 18.10.2019
5972 Clouds 11 990 81 10000 4.6 50 16:20 18.10.2019
5973 Clouds 12 991 87 10000 4.1 50 15:55 18.10.2019
5974 Clouds 11 991 87 10000 4.1 50 15:36 18.10.2019
5975 Rain 11 991 81 10000 3.1 50 15:18 18.10.2019
5976 Rain 11 991 81 10000 3.6 80 14:56 18.10.2019
5977 Rain 11 991 81 10000 3.6 80 14:38 18.10.2019
5978 Rain 11 991 76 10000 2.6 40 14:18 18.10.2019
5979 Rain 11 991 76 10000 1 0 13:42 18.10.2019
5980 Clouds 11 991 76 10000 1.5 0 13:23 18.10.2019
5981 Rain 11 991 76 10000 2.1 200 12:58 18.10.2019
5982 Rain 11 991 76 10000 2.1 200 12:39 18.10.2019
5983 Rain 10 991 81 10000 2.1 200 12:21 18.10.2019
5984 Rain 10 991 81 10000 2.1 200 11:57 18.10.2019
5985 Rain 10 991 81 10000 2.1 200 11:57 18.10.2019
5986 Rain 10 991 81 10000 2.1 200 11:39 18.10.2019
5987 Rain 10 991 76 10000 2.1 170 11:20 18.10.2019
5988 Clouds 9 991 87 10000 2.1 190 10:56 18.10.2019
5989 Clouds 9 991 87 10000 2.1 190 10:55 18.10.2019
5990 Clouds 9 991 87 10000 2.1 190 10:55 18.10.2019
5991 Clouds 8 991 87 10000 2.1 190 10:37 18.10.2019
5992 Clouds 8 991 87 10000 1.5 0 10:18 18.10.2019
5993 Clouds 8 991 87 10000 2.1 180 09:54 18.10.2019
5994 Clouds 8 991 87 10000 2.1 180 09:36 18.10.2019
5995 Clouds 7 991 87 10000 3.1 220 09:18 18.10.2019
5996 Clouds 8 991 81 10000 1.5 200 08:42 18.10.2019
5997 Rain 7 991 87 10000 2.1 190 08:22 18.10.2019
5998 Clouds 7 991 87 10000 2.6 150 07:43 18.10.2019
5999 Clouds 7 991 93 10000 3.6 160 07:25 18.10.2019
6000 Clear 6 991 93 10000 1.5 0 06:40 18.10.2019
6001 Clear 7 992 87 10000 2.1 150 06:22 18.10.2019
6002 Clear 7 992 87 10000 2.1 150 06:22 18.10.2019
6003 Clear 7 992 87 10000 2.6 150 05:57 18.10.2019
6004 Clear 7 992 87 10000 3.1 160 05:24 18.10.2019
6005 Clear 6 992 93 10000 2.6 150 04:47 18.10.2019
6006 Clear 7 993 87 10000 3.1 170 03:33 18.10.2019
6007 Clear 7 993 87 10000 2.6 170 02:34 18.10.2019
6008 Clear 7 993 81 10000 2.6 190 01:47 18.10.2019
6009 Clear 7 993 81 10000 1.5 0 01:28 18.10.2019
6010 Clear 7 994 81 10000 2.6 160 00:46 18.10.2019
6011 Clear 7 994 81 10000 2.1 180 00:21 18.10.2019
6012 Clear 7 994 81 10000 2.1 180 00:21 18.10.2019
6013 Clear 7 993 81 10000 3.1 160 23:57 17.10.2019
6014 Clear 7 993 81 10000 3.1 160 23:38 17.10.2019
6015 Clear 7 993 87 10000 2.6 200 23:19 17.10.2019
6016 Clouds 7 993 81 10000 4.6 210 22:55 17.10.2019
6017 Clouds 8 993 81 10000 4.6 210 22:37 17.10.2019
6018 Clouds 8 993 87 10000 4.6 200 22:18 17.10.2019
6019 Clouds 8 994 81 10000 3.6 200 21:55 17.10.2019
6020 Clouds 8 994 81 10000 3.6 200 21:37 17.10.2019
6021 Clouds 8 994 76 10000 3.6 190 21:19 17.10.2019
6022 Clouds 8 994 87 10000 4.1 180 20:56 17.10.2019
6023 Clouds 8 994 87 10000 4.1 180 20:56 17.10.2019
6024 Clouds 8 994 87 10000 4.1 180 20:37 17.10.2019
6025 Clouds 8 994 87 10000 3.6 180 20:18 17.10.2019
6026 Clouds 8 994 87 10000 4.1 180 19:42 17.10.2019
6027 Clouds 8 994 87 10000 4.1 180 19:42 17.10.2019
6028 Clouds 8 994 81 10000 4.1 190 19:21 17.10.2019
6029 Rain 8 994 93 10000 3.1 220 18:59 17.10.2019
6030 Rain 9 994 93 10000 3.1 220 18:39 17.10.2019
6031 Rain 9 994 87 10000 4.1 250 18:21 17.10.2019
6032 Rain 9 994 81 10000 4.1 230 17:44 17.10.2019
6033 Rain 11 994 66 10000 5.7 200 17:25 17.10.2019
6034 Rain 12 994 66 10000 5.7 200 16:59 17.10.2019
6035 Rain 12 994 66 10000 5.1 200 16:41 17.10.2019
6036 Clouds 12 994 58 10000 5.7 170 16:19 17.10.2019
6037 Clouds 12 994 58 10000 5.7 170 16:19 17.10.2019
6038 Clouds 12 995 62 10000 5.7 160 15:57 17.10.2019
6039 Clouds 12 995 62 10000 5.7 160 15:39 17.10.2019
6040 Rain 12 995 71 10000 4.1 150 15:20 17.10.2019
6041 Rain 12 995 71 10000 4.1 150 15:20 17.10.2019
6042 Rain 12 995 71 10000 4.1 150 14:57 17.10.2019
6043 Rain 12 995 71 10000 4.1 150 14:38 17.10.2019
6044 Clouds 12 996 71 10000 6.2 190 14:20 17.10.2019
6045 Clouds 12 996 66 10000 5.7 200 13:41 17.10.2019
6046 Clouds 12 996 66 10000 4.1 200 13:21 17.10.2019
6047 Clouds 12 996 71 10000 3.6 170 12:58 17.10.2019
6048 Clouds 12 996 71 10000 3.6 170 12:39 17.10.2019
6049 Clouds 13 997 66 10000 4.1 190 12:19 17.10.2019
6050 Clouds 11 997 71 10000 3.6 160 11:56 17.10.2019
6051 Clouds 12 997 71 10000 3.6 160 11:37 17.10.2019
6052 Clouds 11 997 71 10000 4.6 160 11:18 17.10.2019
6053 Clouds 10 997 76 10000 5.1 160 10:42 17.10.2019
6054 Clouds 10 997 76 10000 5.1 160 10:42 17.10.2019
6055 Clouds 10 998 71 10000 2.6 150 10:20 17.10.2019
6056 Clouds 10 998 71 10000 3.1 140 09:57 17.10.2019
6057 Clouds 10 998 71 10000 3.1 140 09:38 17.10.2019
6058 Clouds 9 998 76 10000 3.6 150 09:19 17.10.2019
6059 Clouds 9 998 71 10000 4.6 180 08:49 17.10.2019
6060 Clouds 9 998 76 10000 4.1 180 08:27 17.10.2019
6061 Clouds 9 998 76 10000 3.6 190 08:00 17.10.2019
6062 Clouds 9 998 76 10000 3.6 190 07:41 17.10.2019
6063 Clouds 9 998 76 10000 4.1 200 07:21 17.10.2019
6064 Clouds 9 998 76 10000 5.1 190 06:55 17.10.2019
6065 Clouds 9 998 76 10000 5.1 190 06:37 17.10.2019
6066 Clouds 9 998 76 10000 4.1 190 06:18 17.10.2019
6067 -273 0 0 0 0 0 05:40 17.10.2019
6068 Clouds 9 999 76 10000 6.2 170 05:19 17.10.2019
6069 Clouds 9 999 76 10000 4.1 170 04:48 17.10.2019
6070 Clouds 9 1000 81 10000 4.1 170 03:46 17.10.2019
6071 Clouds 8 1000 76 10000 4.6 180 01:57 17.10.2019
6072 Clouds 8 1000 76 10000 4.6 180 01:57 17.10.2019
6073 Clear 8 1001 76 10000 3.1 170 00:42 17.10.2019
6074 Clear 8 1001 76 10000 2.6 170 00:21 17.10.2019
6075 Clear 8 1001 76 10000 4.1 190 23:59 16.10.2019
6076 Clear 8 1001 76 10000 4.1 190 23:40 16.10.2019
6077 Clear 8 1001 76 10000 4.1 180 23:18 16.10.2019
6078 Clear 9 1001 71 10000 3.1 200 22:54 16.10.2019
6079 Clear 9 1001 71 10000 3.1 200 22:36 16.10.2019
6080 Clear 9 1001 71 10000 3.1 200 22:36 16.10.2019
6081 Clouds 8 1001 71 10000 4.1 190 22:18 16.10.2019
6082 Clouds 9 1001 71 10000 3.1 180 21:54 16.10.2019
6083 Clouds 9 1001 71 10000 3.1 180 21:54 16.10.2019
6084 Clouds 9 1001 71 10000 3.1 180 21:54 16.10.2019
6085 Clouds 9 1001 71 10000 3.1 180 21:36 16.10.2019
6086 Clouds 9 1001 71 10000 3.1 190 21:18 16.10.2019
6087 Clouds 9 1001 71 10000 3.1 180 20:55 16.10.2019
6088 Clouds 9 1001 71 10000 3.1 180 20:55 16.10.2019
6089 Clouds 9 1001 71 10000 3.1 180 20:37 16.10.2019
6090 Clouds 9 1001 71 10000 3.1 180 20:37 16.10.2019
6091 Clouds 10 1001 71 10000 2.6 170 20:19 16.10.2019
6092 Clouds 10 1001 66 10000 2.1 190 19:40 16.10.2019
6093 Clouds 10 1001 66 10000 2.1 190 19:40 16.10.2019
6094 Clouds 11 1001 66 10000 3.1 200 19:21 16.10.2019
6095 Clouds 11 1001 66 10000 3.1 200 19:21 16.10.2019
6096 Clouds 11 1001 66 10000 3.1 200 19:21 16.10.2019
6097 Clouds 11 1000 66 10000 3.1 210 18:58 16.10.2019
6098 Clouds 11 1000 66 10000 3.1 210 18:37 16.10.2019
6099 Clouds 12 1000 62 10000 4.1 220 18:18 16.10.2019
6100 Clouds 13 1000 58 10000 4.1 220 17:55 16.10.2019
6101 Clouds 13 1000 58 10000 4.1 220 17:37 16.10.2019
6102 Clouds 13 1000 62 10000 4.1 220 17:18 16.10.2019
6103 Clouds 13 1000 58 10000 4.1 240 16:55 16.10.2019
6104 Clouds 13 1000 58 10000 4.1 240 16:37 16.10.2019
6105 Clouds 13 1000 58 10000 4.6 230 16:18 16.10.2019
6106 Clouds 13 1001 62 10000 4.6 250 15:40 16.10.2019
6107 Clouds 13 1001 71 10000 5.1 240 15:19 16.10.2019
6108 Clouds 13 1001 71 10000 5.1 240 14:58 16.10.2019
6109 Clouds 13 1001 71 10000 5.1 240 14:40 16.10.2019
6110 Clouds 13 1000 66 10000 5.1 250 14:21 16.10.2019
6111 Clouds 13 1000 71 10000 4.1 240 13:58 16.10.2019
6112 Clouds 12 1000 71 10000 4.1 240 13:39 16.10.2019
6113 Clouds 12 1000 71 10000 4.6 250 13:21 16.10.2019
6114 Clouds 12 1000 76 10000 4.6 250 12:44 16.10.2019
6115 Clouds 11 1000 81 10000 6.2 250 12:20 16.10.2019
6116 Clouds 11 1000 81 10000 4.1 250 11:55 16.10.2019
6117 Clouds 10 1000 81 10000 4.1 250 11:37 16.10.2019
6118 Clouds 10 999 81 10000 3.6 230 11:18 16.10.2019
6119 Clouds 9 999 87 10000 3.6 230 10:36 16.10.2019
6120 Clouds 8 999 93 10000 3.1 240 10:18 16.10.2019
6121 Clouds 8 998 93 10000 3.6 250 09:41 16.10.2019
6122 Clouds 8 998 93 10000 3.6 250 09:40 16.10.2019
6123 Clouds 7 998 93 10000 4.6 240 09:22 16.10.2019
6124 Clouds 7 997 93 10000 4.1 250 08:57 16.10.2019
6125 Clouds 7 997 93 10000 4.1 250 08:38 16.10.2019
6126 Clouds 7 997 93 10000 4.1 250 08:20 16.10.2019
6127 Clouds 8 997 87 10000 4.1 250 07:42 16.10.2019
6128 Clouds 8 997 87 10000 4.1 250 07:23 16.10.2019
6129 Clouds 8 996 93 10000 4.6 260 06:51 16.10.2019
6130 Clouds 8 995 87 10000 3.6 260 06:30 16.10.2019
6131 Clouds 9 995 93 10000 7.7 270 04:48 16.10.2019
6132 Clouds 13 994 93 10000 5.7 150 02:51 16.10.2019
6133 Drizzle 13 995 87 10000 6.7 150 01:21 16.10.2019
6134 Drizzle 13 995 87 10000 6.2 150 00:59 16.10.2019
6135 Drizzle 13 995 87 10000 6.2 150 00:40 16.10.2019
6136 Clouds 13 996 82 10000 6.7 150 23:59 15.10.2019
6137 Clouds 13 996 82 10000 6.7 150 23:38 15.10.2019
6138 Clouds 13 996 82 10000 5.7 150 23:20 15.10.2019
6139 Clouds 13 996 82 10000 6.2 150 22:55 15.10.2019
6140 Clouds 13 996 82 10000 6.2 150 22:37 15.10.2019
6141 Clouds 13 996 82 10000 5.1 140 22:18 15.10.2019
6142 Clouds 13 996 82 10000 5.1 140 22:18 15.10.2019
6143 Clouds 12 997 81 10000 4.1 150 21:55 15.10.2019
6144 Clouds 12 997 81 10000 4.1 150 21:36 15.10.2019
6145 Clouds 12 997 81 10000 4.1 150 21:36 15.10.2019
6146 Clouds 12 998 81 10000 5.7 160 21:18 15.10.2019
6147 Clouds 12 998 76 10000 5.1 150 20:55 15.10.2019
6148 Clouds 12 998 81 10000 4.6 150 20:37 15.10.2019
6149 Clouds 12 998 81 10000 4.6 150 20:19 15.10.2019
6150 Clouds 12 998 76 10000 4.6 160 19:55 15.10.2019
6151 Clouds 12 998 76 10000 4.6 160 19:36 15.10.2019
6152 Clouds 12 998 76 10000 4.6 160 19:36 15.10.2019
6153 Clouds 12 998 71 10000 3.6 170 19:18 15.10.2019
6154 Clouds 12 999 71 10000 4.1 190 18:42 15.10.2019
6155 Clouds 12 999 66 10000 4.1 200 18:23 15.10.2019
6156 Clouds 13 999 71 10000 4.6 200 17:55 15.10.2019
6157 Clouds 13 999 71 10000 4.6 200 17:37 15.10.2019
6158 Clouds 13 999 67 10000 4.1 220 17:18 15.10.2019
6159 Clouds 14 999 71 10000 3.1 230 16:43 15.10.2019
6160 Clouds 14 999 87 10000 1.5 0 16:22 15.10.2019
6161 Rain 13 1000 93 10000 1.5 0 15:57 15.10.2019
6162 Rain 13 1000 93 10000 1.5 0 15:57 15.10.2019
6163 Rain 13 1000 93 10000 1.5 0 15:39 15.10.2019
6164 Rain 13 1000 93 10000 1.5 0 15:39 15.10.2019
6165 Drizzle 13 1000 93 7000 2.1 260 15:19 15.10.2019
6166 Drizzle 13 1000 93 6000 4.1 150 14:55 15.10.2019
6167 Drizzle 13 1000 93 6000 4.1 150 14:55 15.10.2019
6168 Drizzle 13 1000 93 6000 4.1 150 14:36 15.10.2019
6169 Clouds 13 1000 76 10000 3.1 160 14:18 15.10.2019
6170 Clouds 14 1000 76 10000 3.1 150 13:43 15.10.2019
6171 Clouds 14 1000 72 10000 2.1 150 13:20 15.10.2019
6172 Clouds 13 1001 76 10000 1.5 0 12:46 15.10.2019
6173 Clouds 12 1001 87 10000 1.5 0 12:23 15.10.2019
6174 Clouds 12 1001 87 10000 2.1 250 11:59 15.10.2019
6175 Clouds 12 1001 87 10000 2.1 250 11:41 15.10.2019
6176 Clouds 12 1001 87 10000 1.5 0 11:20 15.10.2019
6177 Clouds 12 1001 87 10000 1.5 0 11:20 15.10.2019
6178 Clouds 11 1001 93 10000 1.5 0 10:46 15.10.2019
6179 Clouds 10 1001 100 10000 1 0 10:24 15.10.2019
6180 Rain 9 1001 100 10000 1 0 09:59 15.10.2019
6181 Rain 8 1001 100 10000 1 0 09:40 15.10.2019
6182 Rain 8 1001 100 10000 1 0 09:21 15.10.2019
6183 Clouds 9 1001 93 10000 1.5 0 08:58 15.10.2019
6184 -273 0 0 0 0 0 08:39 15.10.2019
6185 Clouds 9 1001 93 10000 2.6 120 08:19 15.10.2019
6186 Clouds 9 1001 93 10000 2.6 110 07:43 15.10.2019
6187 Clouds 9 1001 93 10000 1.5 0 07:23 15.10.2019
6188 Clouds 9 1001 93 10000 2.1 130 06:57 15.10.2019
6189 Clouds 9 1001 93 10000 2.1 130 06:39 15.10.2019
6190 Clouds 8 1001 100 10000 2.6 110 05:56 15.10.2019
6191 Clouds 8 1001 100 10000 2.6 110 05:36 15.10.2019
6192 Clouds 7 1001 100 10000 1 0 04:48 15.10.2019
6193 Clouds 6 1001 100 10000 2.6 100 04:19 15.10.2019
6194 Fog 8 1002 100 6000 0.5 0 03:35 15.10.2019
6195 Fog 8 1002 100 10000 1.5 90 03:35 15.10.2019
6196 Clouds 8 1002 93 10000 1.5 80 01:57 15.10.2019
6197 Clouds 8 1002 93 10000 1.5 80 01:39 15.10.2019
6198 Clouds 9 1003 93 10000 1.5 0 00:59 15.10.2019
6199 Clouds 10 1003 93 10000 2.1 110 00:25 15.10.2019
6200 Clouds 10 1003 93 10000 1.5 120 23:58 14.10.2019
6201 Clouds 11 1003 93 10000 1.5 120 23:37 14.10.2019
6202 Clouds 11 1003 93 10000 1.5 120 23:37 14.10.2019
6203 Clouds 11 1003 93 10000 2.6 100 23:18 14.10.2019
6204 Clouds 11 1003 93 10000 3.1 100 22:39 14.10.2019
6205 Clouds 11 1003 87 10000 2.6 100 22:20 14.10.2019
6206 Clouds 11 1003 87 10000 2.6 120 21:57 14.10.2019
6207 Clouds 11 1003 87 10000 3.6 130 21:39 14.10.2019
6208 Clouds 11 1003 87 10000 3.6 130 21:20 14.10.2019
6209 Clouds 12 1003 87 10000 2.6 130 20:57 14.10.2019
6210 Clouds 12 1003 87 10000 3.6 140 20:38 14.10.2019
6211 Clouds 12 1003 87 10000 3.6 140 20:19 14.10.2019
6212 Clouds 12 1003 87 10000 4.6 140 19:44 14.10.2019
6213 -273 0 0 0 0 0 19:26 14.10.2019
6214 Clouds 13 1002 87 10000 5.1 130 18:59 14.10.2019
6215 Clouds 13 1002 87 10000 5.1 130 18:40 14.10.2019
6216 Clouds 13 1003 87 10000 4.6 140 18:21 14.10.2019
6217 Clouds 13 1003 82 10000 4.6 140 17:59 14.10.2019
6218 Clouds 13 1003 82 10000 4.6 140 17:41 14.10.2019
6219 Clouds 14 1003 82 10000 5.7 140 17:22 14.10.2019
6220 Clouds 14 1003 87 10000 5.1 140 16:45 14.10.2019
6221 Clouds 14 1003 82 10000 6.2 140 16:22 14.10.2019
6222 Clouds 14 1003 87 10000 4.6 140 15:58 14.10.2019
6223 Clouds 14 1003 87 10000 4.6 140 15:38 14.10.2019
6224 Clouds 14 1003 93 10000 5.1 140 15:20 14.10.2019
6225 Clouds 13 1003 93 10000 5.7 140 14:43 14.10.2019
6226 Drizzle 13 1003 93 10000 5.1 140 14:24 14.10.2019
6227 Rain 13 1004 87 10000 6.2 140 13:57 14.10.2019
6228 Rain 13 1004 87 10000 6.2 140 13:39 14.10.2019
6229 Rain 13 1004 93 10000 5.1 140 13:20 14.10.2019
6230 Rain 12 1004 87 10000 4.6 140 12:41 14.10.2019
6231 Rain 12 1004 93 10000 6.2 150 12:20 14.10.2019
6232 Rain 12 1004 100 10000 2.6 150 11:48 14.10.2019
6233 Rain 11 1004 100 10000 1 0 11:27 14.10.2019
6234 Rain 11 1004 100 10000 3.1 110 10:59 14.10.2019
6235 Rain 10 1004 100 10000 3.1 110 10:41 14.10.2019
6236 Rain 10 1004 100 3500 4.1 90 10:21 14.10.2019
6237 Rain 10 1004 100 3500 4.1 90 10:21 14.10.2019
6238 Rain 10 1004 93 8000 2.6 100 09:57 14.10.2019
6239 Rain 9 1004 93 8000 2.6 100 09:38 14.10.2019
6240 Rain 9 1004 100 10000 2.1 90 09:19 14.10.2019
6241 Rain 9 1004 93 10000 4.1 70 08:46 14.10.2019
6242 Rain 9 1005 93 10000 4.1 70 08:23 14.10.2019
6243 Clouds 8 1005 100 10000 2.6 80 07:44 14.10.2019
6244 Rain 7 1005 100 10000 2.6 90 07:21 14.10.2019
6245 Clouds 7 1005 93 10000 2.6 80 06:54 14.10.2019
6246 Clouds 6 1006 93 10000 3.1 80 06:27 14.10.2019
6247 Clouds 5 1006 100 10000 2.6 90 05:50 14.10.2019
6248 Clouds 4 1006 93 10000 1.5 120 04:49 14.10.2019
6249 Clouds 4 1006 100 10000 2.12 90.594 03:48 14.10.2019
6250 Clouds 5 1006 93 10000 1 0 03:21 14.10.2019
6251 Clouds 6 1006 93 10000 2.6 210 01:36 14.10.2019
6252 Clouds 7 1006 87 10000 2.1 210 01:18 14.10.2019
6253 Clouds 7 1005 87 10000 1.5 0 00:21 14.10.2019
6254 Clouds 7 1005 87 10000 1.5 0 23:46 13.10.2019
6255 Clouds 7 1005 93 10000 2.1 250 23:21 13.10.2019
6256 Clouds 7 1005 87 10000 1.5 0 22:59 13.10.2019
6257 Clouds 7 1005 87 10000 1.5 0 22:41 13.10.2019
6258 Clouds 7 1005 93 10000 2.6 290 22:21 13.10.2019
6259 Clouds 8 1004 81 10000 2.6 220 21:58 13.10.2019
6260 Clouds 8 1004 81 10000 2.6 220 21:38 13.10.2019
6261 Clouds 9 1004 81 10000 2.6 220 21:19 13.10.2019
6262 Clouds 9 1003 81 10000 2.6 230 20:58 13.10.2019
6263 Clouds 9 1003 81 10000 2.6 230 20:58 13.10.2019
6264 Clouds 9 1003 81 10000 2.6 230 20:58 13.10.2019
6265 Clouds 9 1003 81 10000 2.6 230 20:39 13.10.2019
6266 Clouds 9 1003 81 10000 2.6 230 20:39 13.10.2019
6267 Rain 10 1003 81 10000 2.6 220 20:21 13.10.2019
6268 Rain 10 1003 81 10000 2.6 220 20:21 13.10.2019
6269 Rain 11 1002 76 10000 1.5 0 19:59 13.10.2019
6270 Rain 10 1002 81 10000 1.5 0 19:39 13.10.2019
6271 Rain 10 1002 81 10000 1.5 0 19:21 13.10.2019
6272 Clouds 11 1002 76 10000 2.6 220 18:58 13.10.2019
6273 Clouds 12 1002 76 10000 2.6 220 18:37 13.10.2019
6274 Clouds 12 1001 71 10000 2.6 240 18:19 13.10.2019
6275 Clouds 12 1001 71 10000 2.6 240 18:19 13.10.2019
6276 Clouds 12 1001 71 10000 3.1 240 17:57 13.10.2019
6277 Clouds 13 1001 71 10000 3.1 240 17:39 13.10.2019
6278 Clouds 13 1001 76 10000 2.1 280 17:21 13.10.2019
6279 Clouds 13 1001 76 10000 3.1 270 16:43 13.10.2019
6280 Clouds 12 1000 81 10000 4.1 280 16:19 13.10.2019
6281 Rain 12 1000 81 10000 5.1 280 15:57 13.10.2019
6282 Rain 12 1000 81 10000 5.1 280 15:57 13.10.2019
6283 Rain 11 1000 81 10000 5.1 280 15:38 13.10.2019
6284 Rain 11 1000 87 10000 4.6 290 15:19 13.10.2019
6285 Rain 11 1000 81 10000 5.1 310 14:57 13.10.2019
6286 Rain 11 1000 81 10000 5.1 310 14:56 13.10.2019
6287 Rain 11 1000 81 10000 5.1 310 14:38 13.10.2019
6288 Rain 11 999 81 10000 4.6 310 14:18 13.10.2019
6289 Rain 10 999 87 10000 4.1 330 13:41 13.10.2019
6290 Rain 10 999 93 10000 3.6 340 13:22 13.10.2019
6291 Rain 10 999 100 10000 3.6 320 12:59 13.10.2019
6292 Rain 9 999 100 10000 3.6 320 12:39 13.10.2019
6293 Rain 9 999 100 10000 2.6 360 12:20 13.10.2019
6294 Rain 9 999 100 10000 3.1 30 11:58 13.10.2019
6295 Rain 9 999 100 10000 3.1 30 11:39 13.10.2019
6296 Rain 9 999 93 10000 2.6 360 11:20 13.10.2019
6297 Rain 8 999 100 10000 2.1 330 10:43 13.10.2019
6298 Rain 8 1000 100 10000 1 0 10:24 13.10.2019
6299 Rain 9 999 93 10000 0.5 0 09:59 13.10.2019
6300 Rain 9 999 93 10000 0.5 0 09:59 13.10.2019
6301 Rain 8 999 93 10000 0.5 0 09:39 13.10.2019
6302 Rain 9 999 93 10000 1 0 09:20 13.10.2019
6303 Rain 9 999 100 10000 1 0 08:43 13.10.2019
6304 Rain 9 999 93 10000 1.5 0 08:25 13.10.2019
6305 Rain 9 999 93 10000 1.5 0 08:25 13.10.2019
6306 Rain 9 1000 93 10000 1.5 160 07:51 13.10.2019
6307 Rain 8 1000 100 10000 1.5 150 07:32 13.10.2019
6308 Clouds 8 1000 93 10000 1.5 0 06:51 13.10.2019
6309 Clouds 8 1000 100 10000 1 0 06:23 13.10.2019
6310 Clouds 8 1001 100 10000 1 120 04:59 13.10.2019
6311 Clouds 8 1001 100 10000 1 120 04:33 13.10.2019
6312 Clouds 9 1002 93 10000 1.5 180 02:50 13.10.2019
6313 Clouds 8 1002 100 10000 2.1 200 02:27 13.10.2019
6314 Clouds 8 1003 93 10000 2.1 190 01:34 13.10.2019
6315 Clouds 9 1003 87 10000 0.5 360 00:53 13.10.2019
6316 Clouds 9 1003 87 10000 2.1 190 00:23 13.10.2019
6317 Clouds 9 1003 87 10000 1 0 23:59 12.10.2019
6318 Clouds 9 1003 87 10000 1 0 23:40 12.10.2019
6319 Clouds 10 1003 81 10000 1.5 0 23:22 12.10.2019
6320 Clouds 9 1003 81 10000 1.5 0 22:58 12.10.2019
6321 Clouds 10 1003 81 10000 1.5 0 22:40 12.10.2019
6322 Clouds 9 1003 87 10000 1.5 0 22:21 12.10.2019
6323 Clouds 10 1003 81 10000 1.5 0 21:56 12.10.2019
6324 Clouds 10 1003 81 10000 1.5 0 21:38 12.10.2019
6325 Clouds 10 1003 81 10000 2.6 230 21:19 12.10.2019
6326 Clouds 10 1003 81 10000 2.1 220 20:44 12.10.2019
6327 Rain 10 1003 76 10000 2.1 240 20:26 12.10.2019
6328 Rain 11 1003 81 10000 5.1 200 19:42 12.10.2019
6329 Rain 12 1003 71 10000 1.5 0 19:23 12.10.2019
6330 Rain 13 1003 66 10000 2.1 200 18:59 12.10.2019
6331 Rain 13 1003 66 10000 2.1 200 18:59 12.10.2019
6332 Rain 13 1003 66 10000 2.1 200 18:41 12.10.2019
6333 Rain 14 1003 62 10000 2.6 210 18:23 12.10.2019
6334 Rain 14 1003 58 10000 3.1 240 17:45 12.10.2019
6335 Rain 14 1003 58 10000 4.1 220 17:20 12.10.2019
6336 Rain 14 1003 58 10000 5.1 210 16:56 12.10.2019
6337 Rain 14 1003 58 10000 5.1 210 16:38 12.10.2019
6338 Rain 15 1003 62 10000 3.6 210 16:19 12.10.2019
6339 Rain 15 1004 71 10000 3.6 230 15:44 12.10.2019
6340 Clouds 15 1004 67 10000 3.1 250 15:25 12.10.2019
6341 Clouds 15 1004 67 10000 3.1 250 15:25 12.10.2019
6342 Clouds 15 1004 67 10000 3.1 250 15:25 12.10.2019
6343 Clouds 14 1004 62 10000 3.6 230 14:57 12.10.2019
6344 Clouds 15 1004 62 10000 3.6 230 14:38 12.10.2019
6345 Clouds 14 1004 67 10000 3.6 230 14:19 12.10.2019
6346 Clouds 13 1004 66 10000 4.1 230 13:44 12.10.2019
6347 Clouds 13 1004 66 10000 4.1 230 13:26 12.10.2019
6348 Clouds 13 1004 71 10000 3.6 230 12:41 12.10.2019
6349 Clouds 12 1004 76 10000 4.1 220 12:22 12.10.2019
6350 Clouds 12 1004 76 10000 4.1 220 12:22 12.10.2019
6351 Clouds 12 1004 76 10000 3.1 230 11:59 12.10.2019
6352 Clouds 11 1004 76 10000 3.1 230 11:40 12.10.2019
6353 Clouds 10 1004 81 10000 3.1 220 11:22 12.10.2019
6354 Clouds 10 1004 81 10000 2.6 230 10:56 12.10.2019
6355 Clouds 9 1004 81 10000 2.6 230 10:37 12.10.2019
6356 Clouds 8 1003 93 10000 2.6 210 10:18 12.10.2019
6357 -273 0 0 0 0 0 09:55 12.10.2019
6358 Clouds 7 1003 93 10000 2.6 220 09:37 12.10.2019
6359 Clouds 6 1003 93 10000 2.6 220 09:19 12.10.2019
6360 Clouds 7 1003 93 10000 2.6 220 08:42 12.10.2019
6361 Clouds 7 1003 93 10000 2.6 220 08:22 12.10.2019
6362 Clouds 7 1003 93 10000 2.6 210 07:40 12.10.2019
6363 Clouds 7 1003 93 10000 2.6 220 07:22 12.10.2019
6364 Clouds 7 1003 93 10000 2.6 230 05:54 12.10.2019
6365 Clouds 7 1003 93 10000 2.1 220 05:25 12.10.2019
6366 Clouds 8 1003 93 10000 2.6 230 04:29 12.10.2019
6367 Clouds 8 1003 93 10000 3.1 230 03:42 12.10.2019
6368 Clouds 9 1003 87 10000 2.6 240 02:37 12.10.2019
6369 Clouds 9 1003 81 10000 3.1 240 01:30 12.10.2019
6370 Clouds 10 1002 81 10000 3.1 230 00:44 12.10.2019
6371 Clouds 10 1002 81 10000 3.1 240 00:24 12.10.2019
6372 Clouds 10 1002 81 10000 3.6 230 23:41 11.10.2019
6373 Clouds 10 1002 81 10000 3.6 230 23:21 11.10.2019
6374 Clouds 10 1002 87 10000 3.6 230 22:59 11.10.2019
6375 Clouds 10 1002 87 10000 3.6 230 22:37 11.10.2019
6376 Clouds 10 1001 81 10000 4.1 230 22:18 11.10.2019
6377 Clouds 10 1001 81 10000 4.6 240 21:40 11.10.2019
6378 Clouds 10 1000 81 10000 4.1 240 21:21 11.10.2019
6379 Clouds 11 1000 81 10000 4.6 230 20:54 11.10.2019
6380 Clouds 11 1000 81 10000 4.6 230 20:54 11.10.2019
6381 Clouds 11 1000 81 10000 4.6 230 20:36 11.10.2019
6382 Clouds 11 1000 81 10000 4.6 240 20:18 11.10.2019
6383 Clouds 11 1000 71 10000 4.6 240 19:54 11.10.2019
6384 Clouds 11 1000 71 10000 4.6 240 19:54 11.10.2019
6385 Clouds 11 1000 71 10000 4.6 240 19:36 11.10.2019
6386 Clouds 11 1000 76 10000 6.2 250 19:18 11.10.2019
6387 Clouds 11 1000 76 10000 6.2 250 19:18 11.10.2019
6388 Rain 12 1000 76 10000 5.7 250 18:39 11.10.2019
6389 Rain 12 1000 76 10000 5.7 250 18:19 11.10.2019
6390 Rain 12 1000 76 10000 6.7 250 17:59 11.10.2019
6391 Clouds 12 1000 71 10000 6.2 250 17:38 11.10.2019
6392 Clouds 13 1000 71 10000 6.2 250 17:19 11.10.2019
6393 Clouds 13 1000 76 10000 6.2 250 16:59 11.10.2019
6394 Clouds 13 1000 76 10000 6.2 250 16:39 11.10.2019
6395 Clouds 13 1000 76 10000 6.2 250 16:39 11.10.2019
6396 Clouds 13 1000 76 10000 6.2 250 16:39 11.10.2019
6397 Clouds 13 999 71 10000 7.2 250 16:19 11.10.2019
6398 Clouds 13 1000 66 10000 6.2 250 15:55 11.10.2019
6399 Clouds 13 1000 66 10000 6.2 250 15:36 11.10.2019
6400 Clouds 13 999 62 10000 6.2 250 15:18 11.10.2019
6401 Clouds 14 999 67 10000 6.2 250 14:42 11.10.2019
6402 Clouds 14 999 67 10000 5.7 250 14:21 11.10.2019
6403 Clouds 14 999 71 10000 6.2 250 13:46 11.10.2019
6404 Clouds 13 999 71 10000 6.2 250 13:26 11.10.2019
6405 Clouds 13 999 76 10000 4.6 240 12:58 11.10.2019
6406 Clouds 13 999 76 10000 4.6 240 12:40 11.10.2019
6407 Clouds 13 999 76 10000 5.1 230 12:21 11.10.2019
6408 Clouds 12 999 81 10000 4.1 240 11:59 11.10.2019
6409 Clouds 12 999 81 10000 4.1 240 11:39 11.10.2019
6410 Clouds 11 999 87 10000 4.6 240 11:21 11.10.2019
6411 Clouds 11 998 87 10000 4.1 240 10:56 11.10.2019
6412 Clouds 11 998 87 10000 4.1 240 10:56 11.10.2019
6413 Clouds 11 998 87 10000 4.1 240 10:36 11.10.2019
6414 Clouds 10 998 87 10000 4.1 240 10:18 11.10.2019
6415 Clouds 10 998 87 10000 3.1 250 09:42 11.10.2019
6416 Clouds 11 998 87 10000 2.6 230 09:21 11.10.2019
6417 Clouds 11 998 87 10000 3.1 240 08:59 11.10.2019
6418 Clouds 11 998 87 10000 3.1 240 08:39 11.10.2019
6419 Rain 11 998 87 10000 3.6 230 08:20 11.10.2019
6420 Rain 11 998 87 10000 3.6 230 07:53 11.10.2019
6421 Rain 11 998 87 10000 3.6 240 07:34 11.10.2019
6422 Clouds 11 998 87 10000 5.1 240 06:50 11.10.2019
6423 Clouds 12 998 81 10000 5.1 230 06:25 11.10.2019
6424 Clouds 12 998 81 10000 6.2 240 05:48 11.10.2019
6425 Rain 12 999 81 10000 5.7 240 05:30 11.10.2019
6426 Rain 12 999 87 10000 5.7 230 04:58 11.10.2019
6427 Rain 12 1000 87 10000 5.1 230 03:40 11.10.2019
6428 Rain 13 1000 93 10000 8.7 260 01:26 11.10.2019
6429 Clouds 13 999 82 10000 7.7 230 00:31 11.10.2019
6430 Rain 13 999 82 10000 7.2 230 23:58 10.10.2019
6431 Rain 13 999 82 10000 7.2 230 23:40 10.10.2019
6432 Clouds 13 999 82 10000 6.7 220 23:19 10.10.2019
6433 Clouds 13 999 82 10000 7.2 230 22:56 10.10.2019
6434 Clouds 13 999 82 10000 7.2 230 22:36 10.10.2019
6435 Rain 13 1000 82 10000 6.7 240 22:18 10.10.2019
6436 Rain 13 1000 82 10000 6.7 240 22:18 10.10.2019
6437 Rain 13 1000 82 10000 6.2 240 21:42 10.10.2019
6438 Rain 13 1000 82 10000 6.2 240 21:42 10.10.2019
6439 Clouds 13 1000 82 10000 6.7 240 21:22 10.10.2019
6440 Clouds 12 1000 87 10000 6.2 240 20:59 10.10.2019
6441 Clouds 12 1000 87 10000 6.2 240 20:40 10.10.2019
6442 Rain 12 1000 87 10000 5.1 240 20:20 10.10.2019
6443 Rain 13 1000 87 10000 5.7 240 19:57 10.10.2019
6444 Rain 13 1000 87 10000 5.7 240 19:39 10.10.2019
6445 Rain 12 1000 100 8000 5.7 260 19:19 10.10.2019
6446 Rain 14 1000 87 10000 5.1 250 18:42 10.10.2019
6447 Drizzle 14 1001 82 8000 7.7 230 18:21 10.10.2019
6448 Rain 15 1001 67 10000 5.7 240 17:59 10.10.2019
6449 Rain 15 1001 67 10000 5.7 240 17:40 10.10.2019
6450 Rain 15 1000 63 10000 7.2 240 17:19 10.10.2019
6451 Clouds 16 1001 59 10000 7.2 240 16:57 10.10.2019
6452 Clouds 16 1001 67 10000 7.2 240 16:37 10.10.2019
6453 Clouds 16 1001 67 10000 7.2 240 16:19 10.10.2019
6454 Clouds 15 1002 72 10000 7.7 230 15:42 10.10.2019
6455 Clouds 15 1002 77 10000 7.2 230 15:23 10.10.2019
6456 Drizzle 15 1003 77 10000 7.2 230 14:58 10.10.2019
6457 Clouds 15 1003 82 10000 6.7 230 14:37 10.10.2019
6458 Clouds 15 1003 82 10000 6.7 230 14:19 10.10.2019
6459 Rain 14 1003 82 10000 6.2 220 13:58 10.10.2019
6460 Rain 13 1003 82 10000 6.2 220 13:39 10.10.2019
6461 Clouds 13 1004 82 10000 6.2 220 13:18 10.10.2019
6462 Clouds 12 1005 87 10000 5.7 210 12:42 10.10.2019
6463 Rain 11 1005 87 10000 4.6 190 12:21 10.10.2019
6464 Rain 11 1006 87 10000 4.6 200 11:58 10.10.2019
6465 Rain 11 1006 87 10000 4.6 200 11:40 10.10.2019
6466 Rain 10 1006 93 10000 4.1 210 11:19 10.10.2019
6467 Rain 10 1006 93 9000 4.1 230 10:47 10.10.2019
6468 Clouds 10 1006 87 10000 4.6 220 10:28 10.10.2019
6469 Clouds 10 1006 87 10000 4.6 220 10:28 10.10.2019
6470 Clouds 10 1006 87 10000 4.1 230 09:59 10.10.2019
6471 Clouds 10 1006 87 10000 4.1 230 09:41 10.10.2019
6472 Clouds 10 1006 87 10000 4.1 230 09:23 10.10.2019
6473 Clouds 10 1006 87 10000 3.6 240 08:59 10.10.2019
6474 Clouds 10 1006 87 10000 3.6 240 08:40 10.10.2019
6475 Clouds 10 1006 87 10000 3.6 230 08:20 10.10.2019
6476 Clouds 10 1006 87 10000 5.1 230 07:47 10.10.2019
6477 Clouds 10 1006 87 10000 4.6 240 07:26 10.10.2019
6478 Clouds 10 1006 87 10000 4.6 250 06:55 10.10.2019
6479 Clouds 10 1006 81 10000 5.1 240 06:36 10.10.2019
6480 Clouds 10 1005 81 10000 5.1 250 05:39 10.10.2019
6481 Clouds 10 1005 87 10000 6.2 250 05:18 10.10.2019
6482 Clouds 10 1005 87 10000 6.2 240 04:34 10.10.2019
6483 Clouds 9 1004 87 10000 5.7 250 02:29 10.10.2019
6484 Clouds 9 1004 87 10000 5.1 240 01:37 10.10.2019
6485 Clouds 9 1004 87 10000 5.1 240 01:18 10.10.2019
6486 Clouds 9 1004 87 10000 5.1 250 00:29 10.10.2019
6487 Clouds 9 1004 87 10000 5.1 240 23:42 09.10.2019
6488 Clouds 9 1003 87 10000 4.6 240 23:24 09.10.2019
6489 Clouds 10 1003 81 10000 5.1 250 22:59 09.10.2019
6490 Clouds 10 1003 81 10000 5.1 250 22:41 09.10.2019
6491 Clouds 9 1003 87 10000 5.1 240 22:22 09.10.2019
6492 Clouds 9 1003 87 10000 5.1 240 22:22 09.10.2019
6493 Clouds 10 1003 81 10000 5.1 250 21:56 09.10.2019
6494 Clouds 10 1003 81 10000 5.1 250 21:56 09.10.2019
6495 Clouds 10 1003 81 10000 5.1 250 21:38 09.10.2019
6496 Clouds 10 1003 81 10000 5.1 250 21:38 09.10.2019
6497 Clouds 10 1002 81 10000 4.6 240 21:18 09.10.2019
6498 Clouds 9 1002 87 10000 3.6 240 20:54 09.10.2019
6499 Clouds 9 1002 87 10000 3.6 240 20:36 09.10.2019
6500 Clouds 10 1002 81 10000 5.1 250 20:18 09.10.2019
6501 Clouds 10 1002 81 10000 5.1 250 20:18 09.10.2019
6502 Clouds 10 1002 81 10000 4.1 240 19:43 09.10.2019
6503 Clouds 10 1001 81 10000 5.1 250 19:22 09.10.2019
6504 Rain 11 1001 81 10000 4.6 250 18:39 09.10.2019
6505 Rain 11 1001 93 10000 6.2 290 18:21 09.10.2019
6506 Rain 12 1001 71 10000 6.2 250 17:58 09.10.2019
6507 Rain 12 1001 71 10000 6.2 250 17:40 09.10.2019
6508 Clouds 12 1000 66 10000 6.7 250 17:22 09.10.2019
6509 Clouds 12 1000 66 10000 6.7 250 16:57 09.10.2019
6510 Clouds 12 1000 66 10000 6.7 250 16:38 09.10.2019
6511 Clouds 12 1000 62 10000 6.7 240 16:20 09.10.2019
6512 Clouds 12 1000 62 10000 6.7 240 16:20 09.10.2019
6513 Clouds 12 1000 62 10000 7.7 240 15:55 09.10.2019
6514 Clouds 12 1000 62 10000 7.7 240 15:37 09.10.2019
6515 Clouds 12 1000 62 10000 7.7 240 15:37 09.10.2019
6516 Clouds 12 1000 66 10000 6.7 250 15:18 09.10.2019
6517 Clouds 12 1001 71 10000 7.2 250 14:45 09.10.2019
6518 Clouds 12 1001 71 10000 4.6 240 14:19 09.10.2019
6519 Clouds 12 1001 71 10000 7.2 240 13:59 09.10.2019
6520 Clouds 11 1001 71 10000 7.2 240 13:38 09.10.2019
6521 Clouds 11 1001 71 10000 5.7 250 13:18 09.10.2019
6522 Clouds 11 1000 76 10000 4.6 240 12:44 09.10.2019
6523 Clouds 10 1001 81 10000 5.1 240 12:23 09.10.2019
6524 Clouds 10 1001 81 10000 5.7 240 11:58 09.10.2019
6525 Clouds 10 1001 81 10000 5.7 240 11:39 09.10.2019
6526 Clouds 10 1000 76 10000 6.7 250 11:20 09.10.2019
6527 Clouds 9 1000 81 10000 5.1 240 10:58 09.10.2019
6528 Clouds 9 1000 81 10000 5.1 240 10:40 09.10.2019
6529 Clouds 9 1000 81 10000 5.7 240 10:18 09.10.2019
6530 Clouds 8 1000 87 10000 4.6 240 09:43 09.10.2019
6531 Clouds 8 1000 87 10000 5.7 250 09:20 09.10.2019
6532 Clouds 8 1000 87 10000 5.1 240 08:57 09.10.2019
6533 Clouds 8 1000 87 10000 5.1 240 08:37 09.10.2019
6534 Clouds 8 1000 87 10000 5.1 240 08:37 09.10.2019
6535 Clouds 8 1000 87 10000 5.1 240 08:18 09.10.2019
6536 Clouds 8 1000 87 10000 5.1 240 07:46 09.10.2019
6537 Clouds 8 1000 87 10000 4.1 240 07:24 09.10.2019
6538 Clouds 8 1000 87 10000 4.6 240 06:54 09.10.2019
6539 Clouds 9 1000 81 10000 4.6 240 06:20 09.10.2019
6540 Clouds 9 1000 87 10000 4.6 240 05:46 09.10.2019
6541 Clouds 9 1000 87 10000 4.6 240 05:46 09.10.2019
6542 Clouds 9 1000 87 10000 4.1 230 04:41 09.10.2019
6543 Clouds 9 1000 87 10000 4.1 230 03:24 09.10.2019
6544 Clouds 10 1000 81 10000 6.2 240 01:48 09.10.2019
6545 Clouds 10 1000 81 10000 6.7 250 01:21 09.10.2019
6546 Clouds 10 1000 81 10000 6.7 250 00:58 09.10.2019
6547 Clouds 10 1000 81 10000 6.7 250 00:40 09.10.2019
6548 Clouds 10 1000 81 10000 5.7 240 00:21 09.10.2019
6549 Clouds 10 1000 81 10000 5.1 230 23:57 08.10.2019
6550 Clouds 10 1000 81 10000 5.1 230 23:36 08.10.2019
6551 Rain 10 1000 81 10000 5.7 230 23:18 08.10.2019
6552 Rain 10 1000 81 10000 5.1 230 22:39 08.10.2019
6553 Clouds 10 1000 81 10000 4.6 240 22:20 08.10.2019
6554 Clouds 10 1000 81 10000 4.6 240 22:20 08.10.2019
6555 Clouds 10 1000 81 10000 4.6 240 22:20 08.10.2019
6556 Clouds 10 1000 81 10000 5.7 230 21:57 08.10.2019
6557 Clouds 10 1000 81 10000 5.7 230 21:39 08.10.2019
6558 Clouds 11 1000 76 10000 5.7 240 21:19 08.10.2019
6559 Clouds 11 1000 76 10000 5.1 240 20:57 08.10.2019
6560 Clouds 11 1000 76 10000 5.1 240 20:39 08.10.2019
6561 Rain 11 999 81 10000 4.6 240 20:21 08.10.2019
6562 Rain 11 999 81 10000 5.1 240 19:58 08.10.2019
6563 Rain 11 999 81 10000 5.1 240 19:58 08.10.2019
6564 Rain 11 999 81 10000 5.1 240 19:40 08.10.2019
6565 Clouds 12 999 76 10000 5.7 240 19:21 08.10.2019
6566 Clouds 12 999 76 10000 5.7 240 19:21 08.10.2019
6567 Rain 12 999 71 10000 6.7 240 18:55 08.10.2019
6568 Rain 12 999 71 10000 6.7 240 18:36 08.10.2019
6569 Clouds 13 999 66 10000 7.2 250 18:18 08.10.2019
6570 Clouds 12 998 66 10000 8.7 240 17:40 08.10.2019
6571 Rain 12 998 66 10000 7.7 250 17:21 08.10.2019
6572 Rain 13 999 62 10000 7.2 240 16:59 08.10.2019
6573 Rain 13 999 62 10000 7.2 240 16:40 08.10.2019
6574 Rain 13 998 62 10000 7.7 240 16:21 08.10.2019
6575 Rain 14 999 62 10000 7.2 250 15:41 08.10.2019
6576 Rain 14 999 62 10000 7.2 240 15:22 08.10.2019
6577 Clouds 14 999 58 10000 7.7 250 14:58 08.10.2019
6578 Clouds 14 999 58 10000 7.7 250 14:58 08.10.2019
6579 Clouds 14 999 58 10000 7.7 250 14:39 08.10.2019
6580 Clouds 13 1000 66 10000 7.7 230 14:21 08.10.2019
6581 Clouds 13 1000 66 10000 6.7 230 13:57 08.10.2019
6582 Clouds 13 1000 66 10000 6.7 230 13:38 08.10.2019
6583 Clouds 13 1000 66 10000 6.2 230 13:19 08.10.2019
6584 Clouds 13 1000 66 10000 5.1 230 12:58 08.10.2019
6585 Clouds 13 1000 66 10000 5.1 230 12:38 08.10.2019
6586 Clouds 12 1000 71 10000 5.7 240 12:18 08.10.2019
6587 Clouds 12 1000 71 10000 5.7 240 11:42 08.10.2019
6588 Clouds 12 1000 71 10000 6.7 240 11:24 08.10.2019
6589 Clouds 11 1000 76 10000 5.1 240 10:58 08.10.2019
6590 Clouds 11 1000 76 10000 5.1 240 10:37 08.10.2019
6591 Clouds 11 1001 76 10000 6.2 230 10:19 08.10.2019
6592 Clouds 10 1001 76 10000 4.6 220 09:55 08.10.2019
6593 Clouds 10 1001 76 10000 4.6 220 09:37 08.10.2019
6594 Clouds 10 1001 76 10000 5.1 230 09:19 08.10.2019
6595 Clouds 10 1001 76 10000 5.1 240 08:42 08.10.2019
6596 Clouds 11 1000 76 10000 5.1 240 08:23 08.10.2019
6597 Clouds 11 1000 76 10000 5.1 240 08:23 08.10.2019
6598 Clouds 11 1001 81 10000 6.7 240 07:44 08.10.2019
6599 Clouds 11 1001 81 10000 5.7 230 07:21 08.10.2019
6600 Clouds 11 1001 81 10000 5.7 230 06:51 08.10.2019
6601 Clouds 11 1001 81 10000 6.2 220 06:28 08.10.2019
6602 Clouds 11 1001 81 10000 5.7 220 05:46 08.10.2019
6603 Clouds 11 1002 81 10000 6.2 220 05:26 08.10.2019
6604 Clouds 11 1002 81 10000 4.6 230 04:31 08.10.2019
6605 Clouds 11 1003 81 10000 5.7 220 03:27 08.10.2019
6606 Clear 11 1003 81 10000 5.1 220 02:36 08.10.2019
6607 Clear 11 1003 81 10000 5.7 230 01:45 08.10.2019
6608 Clear 11 1004 81 10000 4.6 220 01:26 08.10.2019
6609 Clouds 11 1004 81 10000 4.6 230 00:46 08.10.2019
6610 Clouds 11 1004 76 10000 5.1 230 00:20 08.10.2019
6611 Clouds 11 1004 81 10000 5.1 230 23:39 07.10.2019
6612 Clouds 11 1005 76 10000 4.1 230 23:20 07.10.2019
6613 Clouds 11 1005 81 10000 2.6 230 22:56 07.10.2019
6614 Clouds 11 1005 81 10000 2.6 230 22:37 07.10.2019
6615 Rain 12 1005 81 10000 3.6 230 22:19 07.10.2019
6616 Rain 12 1005 81 10000 4.1 230 21:55 07.10.2019
6617 Rain 12 1005 81 10000 4.1 230 21:37 07.10.2019
6618 Rain 12 1005 82 8000 3.6 240 21:18 07.10.2019
6619 Clouds 12 1005 71 10000 2.1 230 20:57 07.10.2019
6620 Clouds 12 1005 71 10000 2.1 230 20:38 07.10.2019
6621 Clouds 13 1005 71 10000 2.6 230 20:19 07.10.2019
6622 Clouds 14 1005 67 10000 3.1 220 19:55 07.10.2019
6623 Clouds 14 1005 67 10000 3.1 220 19:54 07.10.2019
6624 Clouds 14 1005 67 10000 3.1 220 19:54 07.10.2019
6625 Clouds 14 1005 67 10000 3.1 220 19:36 07.10.2019
6626 Clouds 15 1005 62 10000 4.1 240 19:18 07.10.2019
6627 Clouds 15 1005 59 10000 4.6 240 18:42 07.10.2019
6628 Clouds 16 1005 67 10000 4.6 250 18:19 07.10.2019
6629 Rain 15 1005 82 10000 6.2 270 17:58 07.10.2019
6630 Rain 16 1005 82 10000 6.2 270 17:40 07.10.2019
6631 Rain 16 1005 82 10000 6.2 270 17:40 07.10.2019
6632 Rain 16 1005 82 10000 6.2 270 17:40 07.10.2019
6633 Clouds 16 1005 67 10000 4.6 220 17:19 07.10.2019
6634 Clouds 16 1006 67 10000 4.6 230 16:46 07.10.2019
6635 Clouds 16 1006 67 10000 4.6 230 16:46 07.10.2019
6636 Clouds 16 1006 67 10000 5.7 230 16:28 07.10.2019
6637 Clouds 16 1006 72 10000 5.7 240 15:57 07.10.2019
6638 Clouds 16 1006 72 10000 5.7 240 15:39 07.10.2019
6639 Clouds 16 1006 72 10000 5.7 230 15:21 07.10.2019
6640 Clouds 15 1006 77 10000 5.7 230 14:41 07.10.2019
6641 Clouds 15 1006 77 10000 5.7 230 14:23 07.10.2019
6642 Clouds 15 1006 77 10000 4.6 230 13:45 07.10.2019
6643 Clouds 14 1006 77 10000 4.6 240 13:21 07.10.2019
6644 Clouds 14 1006 82 10000 4.1 230 12:58 07.10.2019
6645 Clouds 14 1006 82 10000 4.1 230 12:58 07.10.2019
6646 Clouds 14 1006 82 10000 4.1 230 12:40 07.10.2019
6647 Clouds 14 1006 82 10000 3.6 240 12:21 07.10.2019
6648 Clouds 14 1006 82 10000 3.6 230 11:59 07.10.2019
6649 Clouds 14 1006 82 10000 3.6 230 11:40 07.10.2019
6650 Clouds 14 1006 82 10000 3.6 230 11:40 07.10.2019
6651 Clouds 14 1006 87 10000 4.1 220 11:21 07.10.2019
6652 Drizzle 14 1006 87 10000 3.1 210 10:56 07.10.2019
6653 Drizzle 14 1006 87 10000 3.1 210 10:37 07.10.2019
6654 Drizzle 14 1005 87 10000 5.1 160 10:19 07.10.2019
6655 Drizzle 13 1006 87 10000 6.2 170 09:38 07.10.2019
6656 Rain 13 1006 82 10000 7.2 170 09:20 07.10.2019
6657 Clouds 13 1006 82 10000 7.7 170 08:43 07.10.2019
6658 Drizzle 13 1006 87 10000 8.7 160 08:20 07.10.2019
6659 Drizzle 13 1006 87 10000 7.2 150 07:49 07.10.2019
6660 Drizzle 12 1006 93 10000 9.8 160 07:28 07.10.2019
6661 Rain 12 1007 93 10000 9.8 160 06:58 07.10.2019
6662 Rain 12 1007 93 10000 9.8 160 06:39 07.10.2019
6663 Rain 12 1007 93 10000 7.7 150 06:20 07.10.2019
6664 Rain 11 1009 93 10000 6.7 150 05:26 07.10.2019
6665 Rain 11 1009 87 10000 7.2 150 04:50 07.10.2019
6666 Rain 11 1010 87 10000 8.2 160 03:48 07.10.2019
6667 Rain 11 1010 87 10000 8.2 160 03:48 07.10.2019
6668 Rain 11 1012 87 10000 5.7 150 03:30 07.10.2019
6669 Rain 11 1012 81 10000 3.6 150 02:37 07.10.2019
6670 Rain 11 1012 76 10000 3.6 170 02:19 07.10.2019
6671 Rain 11 1012 76 10000 3.6 170 02:19 07.10.2019
6672 Rain 11 1012 76 10000 3.1 170 01:23 07.10.2019
6673 Rain 11 1012 81 10000 4.1 160 00:53 07.10.2019
6674 Clear 11 1013 81 10000 3.1 170 00:26 07.10.2019
6675 Clear 11 1013 81 10000 2.6 160 23:59 06.10.2019
6676 Clear 11 1013 81 10000 2.6 160 23:40 06.10.2019
6677 Clear 11 1013 81 10000 2.6 170 23:20 06.10.2019
6678 Clear 11 1014 81 10000 1.5 0 22:56 06.10.2019
6679 Clear 11 1014 81 10000 1.5 0 22:37 06.10.2019
6680 Clear 11 1014 81 10000 1.5 0 22:37 06.10.2019
6681 Clear 10 1014 87 10000 2.1 130 22:19 06.10.2019
6682 Clouds 10 1014 87 10000 2.1 190 21:55 06.10.2019
6683 Clouds 10 1014 87 10000 2.1 190 21:36 06.10.2019
6684 Clouds 10 1015 81 10000 1.5 180 21:18 06.10.2019
6685 Clouds 10 1015 81 10000 2.1 240 20:54 06.10.2019
6686 Clouds 10 1015 81 10000 2.1 240 20:36 06.10.2019
6687 Clouds 10 1015 81 10000 2.1 240 20:36 06.10.2019
6688 Clouds 11 1015 71 10000 2.1 250 20:36 06.10.2019
6689 Clouds 12 1015 71 10000 2.1 250 20:18 06.10.2019
6690 Clouds 12 1015 76 10000 2.1 260 19:55 06.10.2019
6691 Clouds 12 1015 76 10000 2.1 260 19:55 06.10.2019
6692 Clouds 12 1015 76 10000 2.1 260 19:36 06.10.2019
6693 Clouds 13 1015 71 10000 3.1 260 19:18 06.10.2019
6694 Clouds 13 1015 76 10000 4.6 270 18:55 06.10.2019
6695 Clouds 13 1015 76 10000 4.6 270 18:55 06.10.2019
6696 Clouds 13 1015 76 10000 4.6 270 18:36 06.10.2019
6697 Clouds 14 1014 71 10000 5.7 280 18:18 06.10.2019
6698 Clouds 14 1014 71 10000 5.7 280 18:18 06.10.2019
6699 Clouds 14 1014 71 10000 5.7 280 17:42 06.10.2019
6700 Clouds 14 1015 76 10000 7.2 280 17:20 06.10.2019
6701 Clouds 15 1015 67 10000 8.2 280 16:55 06.10.2019
6702 Clouds 15 1015 67 10000 8.2 280 16:55 06.10.2019
6703 Clouds 15 1015 67 10000 8.2 280 16:37 06.10.2019
6704 Clouds 15 1014 62 10000 8.2 290 16:18 06.10.2019
6705 Clouds 14 1014 67 10000 8.2 290 15:42 06.10.2019
6706 Clouds 14 1014 67 10000 8.2 290 15:42 06.10.2019
6707 Clouds 14 1014 67 10000 8.2 290 15:21 06.10.2019
6708 Clouds 14 1014 72 10000 7.7 300 14:44 06.10.2019
6709 Clouds 14 1014 71 10000 8.2 280 14:26 06.10.2019
6710 Clouds 14 1013 76 10000 8.2 290 13:59 06.10.2019